<?xml version='1.0' encoding='UTF-8'?><gpx version="1.1" creator="JPX - https://github.com/jenetics/jpx" xmlns="http://www.topografix.com/GPX/1/1"><trk><trkseg><trkpt lat="36.9725195" lon="15.189755"><ele>52.0</ele><time>2026-04-04T07:28:10.883Z</time></trkpt><trkpt lat="36.9724644" lon="15.1897092"><ele>52.0</ele><time>2026-04-04T07:28:11.884Z</time></trkpt><trkpt lat="36.9723832" lon="15.1896496"><ele>52.0</ele><time>2026-04-04T07:28:12.884Z</time></trkpt><trkpt lat="36.9722799" lon="15.1895665"><ele>52.0</ele><time>2026-04-04T07:28:13.884Z</time></trkpt><trkpt lat="36.9721989" lon="15.189489"><ele>52.0</ele><time>2026-04-04T07:28:14.884Z</time></trkpt><trkpt lat="36.9721369" lon="15.1894214"><ele>51.99999999999999</ele><time>2026-04-04T07:28:15.884Z</time></trkpt><trkpt lat="36.9720867" lon="15.1893592"><ele>52.0</ele><time>2026-04-04T07:28:16.884Z</time></trkpt><trkpt lat="36.9720037" lon="15.1892632"><ele>52.0</ele><time>2026-04-04T07:28:18.884Z</time></trkpt><trkpt lat="36.9719547" lon="15.1892101"><ele>52.0</ele><time>2026-04-04T07:28:21.884Z</time></trkpt><trkpt lat="36.9718942" lon="15.1891849"><ele>51.99999999999999</ele><time>2026-04-04T07:29:18.884Z</time></trkpt><trkpt lat="36.9718367" lon="15.189136"><ele>52.0</ele><time>2026-04-04T07:29:23.884Z</time></trkpt><trkpt lat="36.971815" lon="15.1890513"><ele>51.83333333333333</ele><time>2026-04-04T07:29:26.883Z</time></trkpt><trkpt lat="36.9717929" lon="15.1889748"><ele>51.666666666666664</ele><time>2026-04-04T07:29:30.884Z</time></trkpt><trkpt lat="36.9717402" lon="15.1889179"><ele>51.5</ele><time>2026-04-04T07:29:33.884Z</time></trkpt><trkpt lat="36.9716718" lon="15.1888555"><ele>51.33333333333333</ele><time>2026-04-04T07:29:36.883Z</time></trkpt><trkpt lat="36.9716004" lon="15.1888088"><ele>51.166666666666664</ele><time>2026-04-04T07:29:40.883Z</time></trkpt><trkpt lat="36.971537" lon="15.1887526"><ele>51.0</ele><time>2026-04-04T07:29:44.883Z</time></trkpt><trkpt lat="36.9714554" lon="15.1887386"><ele>50.833333333333336</ele><time>2026-04-04T07:29:47.884Z</time></trkpt><trkpt lat="36.9714056" lon="15.1888236"><ele>50.66666666666667</ele><time>2026-04-04T07:29:49.884Z</time></trkpt><trkpt lat="36.9713894" lon="15.1889026"><ele>50.5</ele><time>2026-04-04T07:29:50.884Z</time></trkpt><trkpt lat="36.9713527" lon="15.1890319"><ele>50.333333333333336</ele><time>2026-04-04T07:29:52.884Z</time></trkpt><trkpt lat="36.9713059" lon="15.1891627"><ele>50.16666666666667</ele><time>2026-04-04T07:29:54.883Z</time></trkpt><trkpt lat="36.9712735" lon="15.1892318"><ele>50.0</ele><time>2026-04-04T07:29:55.883Z</time></trkpt><trkpt lat="36.971239" lon="15.1893029"><ele>50.00000000000001</ele><time>2026-04-04T07:29:56.883Z</time></trkpt><trkpt lat="36.9712054" lon="15.189379"><ele>50.0</ele><time>2026-04-04T07:29:57.883Z</time></trkpt><trkpt lat="36.9711735" lon="15.1894529"><ele>50.0</ele><time>2026-04-04T07:29:58.884Z</time></trkpt><trkpt lat="36.971147" lon="15.1895248"><ele>50.0</ele><time>2026-04-04T07:29:59.884Z</time></trkpt><trkpt lat="36.971121" lon="15.1896046"><ele>50.0</ele><time>2026-04-04T07:30:00.884Z</time></trkpt><trkpt lat="36.971098" lon="15.1896812"><ele>50.00000000000001</ele><time>2026-04-04T07:30:01.889Z</time></trkpt><trkpt lat="36.9710802" lon="15.1897583"><ele>50.0</ele><time>2026-04-04T07:30:02.883Z</time></trkpt><trkpt lat="36.9710298" lon="15.1898452"><ele>50.0</ele><time>2026-04-04T07:30:04.884Z</time></trkpt><trkpt lat="36.9709337" lon="15.1899301"><ele>50.0</ele><time>2026-04-04T07:30:06.885Z</time></trkpt><trkpt lat="36.9708555" lon="15.1900164"><ele>50.0</ele><time>2026-04-04T07:30:08.884Z</time></trkpt><trkpt lat="36.9708002" lon="15.1901383"><ele>50.0</ele><time>2026-04-04T07:30:10.883Z</time></trkpt><trkpt lat="36.9707638" lon="15.190255"><ele>50.0</ele><time>2026-04-04T07:30:12.884Z</time></trkpt><trkpt lat="36.9707467" lon="15.1903347"><ele>50.00000000000001</ele><time>2026-04-04T07:30:14.884Z</time></trkpt><trkpt lat="36.9707097" lon="15.1904195"><ele>50.0</ele><time>2026-04-04T07:30:17.883Z</time></trkpt><trkpt lat="36.9706364" lon="15.1905106"><ele>50.0</ele><time>2026-04-04T07:30:20.885Z</time></trkpt><trkpt lat="36.9705949" lon="15.1905924"><ele>50.0</ele><time>2026-04-04T07:30:23.884Z</time></trkpt><trkpt lat="36.9705824" lon="15.1906775"><ele>50.00000000000001</ele><time>2026-04-04T07:30:25.884Z</time></trkpt><trkpt lat="36.970578" lon="15.1907708"><ele>50.0</ele><time>2026-04-04T07:30:27.884Z</time></trkpt><trkpt lat="36.9705864" lon="15.1908623"><ele>50.0</ele><time>2026-04-04T07:30:29.884Z</time></trkpt><trkpt lat="36.9705207" lon="15.1909331"><ele>50.0</ele><time>2026-04-04T07:30:32.884Z</time></trkpt><trkpt lat="36.9704568" lon="15.1909757"><ele>50.0</ele><time>2026-04-04T07:30:34.884Z</time></trkpt><trkpt lat="36.9703962" lon="15.1910878"><ele>50.0</ele><time>2026-04-04T07:30:37.883Z</time></trkpt><trkpt lat="36.9703498" lon="15.1912098"><ele>50.0</ele><time>2026-04-04T07:30:39.884Z</time></trkpt><trkpt lat="36.9703209" lon="15.1913159"><ele>50.00000000000001</ele><time>2026-04-04T07:30:40.884Z</time></trkpt><trkpt lat="36.970294" lon="15.1914219"><ele>50.0</ele><time>2026-04-04T07:30:41.884Z</time></trkpt><trkpt lat="36.9702698" lon="15.1915154"><ele>50.0</ele><time>2026-04-04T07:30:42.883Z</time></trkpt><trkpt lat="36.9702401" lon="15.1916282"><ele>50.0</ele><time>2026-04-04T07:30:44.883Z</time></trkpt><trkpt lat="36.9702477" lon="15.1917201"><ele>50.00000000000001</ele><time>2026-04-04T07:30:46.884Z</time></trkpt><trkpt lat="36.9702124" lon="15.1918223"><ele>50.0</ele><time>2026-04-04T07:30:48.883Z</time></trkpt><trkpt lat="36.9701451" lon="15.1918991"><ele>50.0</ele><time>2026-04-04T07:30:49.883Z</time></trkpt><trkpt lat="36.9700793" lon="15.1919833"><ele>50.0</ele><time>2026-04-04T07:30:50.884Z</time></trkpt><trkpt lat="36.9700127" lon="15.1920703"><ele>50.0</ele><time>2026-04-04T07:30:51.884Z</time></trkpt><trkpt lat="36.9699543" lon="15.1921507"><ele>50.0</ele><time>2026-04-04T07:30:52.883Z</time></trkpt><trkpt lat="36.969891" lon="15.1922417"><ele>50.0</ele><time>2026-04-04T07:30:53.883Z</time></trkpt><trkpt lat="36.9698219" lon="15.1923369"><ele>49.25</ele><time>2026-04-04T07:30:54.884Z</time></trkpt><trkpt lat="36.9697446" lon="15.1924373"><ele>48.5</ele><time>2026-04-04T07:30:55.882Z</time></trkpt><trkpt lat="36.9696643" lon="15.1925446"><ele>47.75</ele><time>2026-04-04T07:30:56.883Z</time></trkpt><trkpt lat="36.9695799" lon="15.1926577"><ele>47.0</ele><time>2026-04-04T07:30:57.884Z</time></trkpt><trkpt lat="36.9694958" lon="15.1927674"><ele>47.0</ele><time>2026-04-04T07:30:58.883Z</time></trkpt><trkpt lat="36.9694097" lon="15.1928819"><ele>47.0</ele><time>2026-04-04T07:30:59.883Z</time></trkpt><trkpt lat="36.9693245" lon="15.1929925"><ele>47.0</ele><time>2026-04-04T07:31:00.884Z</time></trkpt><trkpt lat="36.9692405" lon="15.1930967"><ele>47.0</ele><time>2026-04-04T07:31:01.883Z</time></trkpt><trkpt lat="36.9691663" lon="15.1932023"><ele>46.400000000000006</ele><time>2026-04-04T07:31:02.884Z</time></trkpt><trkpt lat="36.9690879" lon="15.1933105"><ele>45.800000000000004</ele><time>2026-04-04T07:31:03.884Z</time></trkpt><trkpt lat="36.969009" lon="15.1934145"><ele>45.2</ele><time>2026-04-04T07:31:04.884Z</time></trkpt><trkpt lat="36.9689296" lon="15.1935234"><ele>44.6</ele><time>2026-04-04T07:31:05.883Z</time></trkpt><trkpt lat="36.9688601" lon="15.1936107"><ele>44.0</ele><time>2026-04-04T07:31:06.884Z</time></trkpt><trkpt lat="36.9687891" lon="15.1936819"><ele>44.0</ele><time>2026-04-04T07:31:08.884Z</time></trkpt><trkpt lat="36.9687116" lon="15.1936308"><ele>44.0</ele><time>2026-04-04T07:31:11.883Z</time></trkpt><trkpt lat="36.968667" lon="15.193571"><ele>44.0</ele><time>2026-04-04T07:31:12.884Z</time></trkpt><trkpt lat="36.9685915" lon="15.1934755"><ele>44.0</ele><time>2026-04-04T07:31:13.883Z</time></trkpt><trkpt lat="36.9685064" lon="15.1933763"><ele>44.0</ele><time>2026-04-04T07:31:14.883Z</time></trkpt><trkpt lat="36.968423" lon="15.1932902"><ele>43.83333333333333</ele><time>2026-04-04T07:31:15.884Z</time></trkpt><trkpt lat="36.968328" lon="15.1932061"><ele>43.666666666666664</ele><time>2026-04-04T07:31:17.884Z</time></trkpt><trkpt lat="36.968243" lon="15.19321"><ele>43.5</ele><time>2026-04-04T07:31:18.884Z</time></trkpt><trkpt lat="36.9681716" lon="15.1932122"><ele>43.333333333333336</ele><time>2026-04-04T07:31:19.883Z</time></trkpt><trkpt lat="36.9681075" lon="15.1932218"><ele>43.16666666666667</ele><time>2026-04-04T07:31:20.883Z</time></trkpt><trkpt lat="36.9680215" lon="15.1932462"><ele>43.0</ele><time>2026-04-04T07:31:22.884Z</time></trkpt><trkpt lat="36.9679633" lon="15.193284"><ele>43.0</ele><time>2026-04-04T07:31:26.884Z</time></trkpt><trkpt lat="36.9679235" lon="15.1932228"><ele>43.0</ele><time>2026-04-04T07:31:48.883Z</time></trkpt><trkpt lat="36.9678675" lon="15.1931711"><ele>43.0</ele><time>2026-04-04T07:31:51.884Z</time></trkpt><trkpt lat="36.9677945" lon="15.193097"><ele>43.0</ele><time>2026-04-04T07:31:53.883Z</time></trkpt><trkpt lat="36.9677319" lon="15.19307"><ele>43.0</ele><time>2026-04-04T07:31:55.884Z</time></trkpt><trkpt lat="36.9676504" lon="15.1930927"><ele>43.0</ele><time>2026-04-04T07:31:57.884Z</time></trkpt><trkpt lat="36.967561" lon="15.193126"><ele>42.8</ele><time>2026-04-04T07:31:59.883Z</time></trkpt><trkpt lat="36.967465" lon="15.1931624"><ele>42.599999999999994</ele><time>2026-04-04T07:32:01.884Z</time></trkpt><trkpt lat="36.9673611" lon="15.193188"><ele>42.400000000000006</ele><time>2026-04-04T07:32:03.884Z</time></trkpt><trkpt lat="36.9672603" lon="15.1931909"><ele>42.2</ele><time>2026-04-04T07:32:05.884Z</time></trkpt><trkpt lat="36.9671424" lon="15.1931655"><ele>42.0</ele><time>2026-04-04T07:32:07.883Z</time></trkpt><trkpt lat="36.9670357" lon="15.1931207"><ele>41.6</ele><time>2026-04-04T07:32:09.884Z</time></trkpt><trkpt lat="36.9669516" lon="15.1930684"><ele>41.2</ele><time>2026-04-04T07:32:11.882Z</time></trkpt><trkpt lat="36.9668675" lon="15.1930415"><ele>40.8</ele><time>2026-04-04T07:32:13.882Z</time></trkpt><trkpt lat="36.9667545" lon="15.1930925"><ele>40.4</ele><time>2026-04-04T07:32:15.883Z</time></trkpt><trkpt lat="36.9666753" lon="15.1931341"><ele>40.0</ele><time>2026-04-04T07:32:16.883Z</time></trkpt><trkpt lat="36.9666032" lon="15.1931664"><ele>39.833333333333336</ele><time>2026-04-04T07:32:17.883Z</time></trkpt><trkpt lat="36.9665358" lon="15.1931984"><ele>39.66666666666667</ele><time>2026-04-04T07:32:18.883Z</time></trkpt><trkpt lat="36.9664699" lon="15.1932111"><ele>39.5</ele><time>2026-04-04T07:32:19.884Z</time></trkpt><trkpt lat="36.9664017" lon="15.1932191"><ele>39.333333333333336</ele><time>2026-04-04T07:32:20.884Z</time></trkpt><trkpt lat="36.9663096" lon="15.1931873"><ele>39.166666666666664</ele><time>2026-04-04T07:32:21.884Z</time></trkpt><trkpt lat="36.9662192" lon="15.1931673"><ele>39.0</ele><time>2026-04-04T07:32:22.883Z</time></trkpt><trkpt lat="36.9661235" lon="15.1931551"><ele>39.0</ele><time>2026-04-04T07:32:23.884Z</time></trkpt><trkpt lat="36.9660384" lon="15.1931475"><ele>39.0</ele><time>2026-04-04T07:32:24.884Z</time></trkpt><trkpt lat="36.9659619" lon="15.1931416"><ele>39.0</ele><time>2026-04-04T07:32:25.884Z</time></trkpt><trkpt lat="36.9658814" lon="15.1931453"><ele>39.0</ele><time>2026-04-04T07:32:26.883Z</time></trkpt><trkpt lat="36.9657842" lon="15.19317"><ele>39.0</ele><time>2026-04-04T07:32:27.883Z</time></trkpt><trkpt lat="36.9656986" lon="15.1931889"><ele>39.0</ele><time>2026-04-04T07:32:28.883Z</time></trkpt><trkpt lat="36.9656216" lon="15.1931988"><ele>38.8</ele><time>2026-04-04T07:32:29.884Z</time></trkpt><trkpt lat="36.9655544" lon="15.1931957"><ele>38.599999999999994</ele><time>2026-04-04T07:32:30.884Z</time></trkpt><trkpt lat="36.9654501" lon="15.1931584"><ele>38.4</ele><time>2026-04-04T07:32:32.884Z</time></trkpt><trkpt lat="36.9653621" lon="15.1931457"><ele>38.199999999999996</ele><time>2026-04-04T07:32:34.884Z</time></trkpt><trkpt lat="36.9652572" lon="15.1931931"><ele>38.0</ele><time>2026-04-04T07:32:36.884Z</time></trkpt><trkpt lat="36.9651456" lon="15.1931959"><ele>37.33333333333333</ele><time>2026-04-04T07:32:38.883Z</time></trkpt><trkpt lat="36.9650178" lon="15.1932242"><ele>36.666666666666664</ele><time>2026-04-04T07:32:40.882Z</time></trkpt><trkpt lat="36.9649411" lon="15.1932455"><ele>36.0</ele><time>2026-04-04T07:32:41.884Z</time></trkpt><trkpt lat="36.96487" lon="15.1932785"><ele>35.333333333333336</ele><time>2026-04-04T07:32:42.883Z</time></trkpt><trkpt lat="36.9647998" lon="15.1933109"><ele>34.66666666666667</ele><time>2026-04-04T07:32:43.884Z</time></trkpt><trkpt lat="36.964732" lon="15.1933423"><ele>34.0</ele><time>2026-04-04T07:32:44.884Z</time></trkpt><trkpt lat="36.9646653" lon="15.193378"><ele>34.0</ele><time>2026-04-04T07:32:45.884Z</time></trkpt><trkpt lat="36.9646042" lon="15.1934078"><ele>34.0</ele><time>2026-04-04T07:32:46.883Z</time></trkpt><trkpt lat="36.9645427" lon="15.1934419"><ele>34.0</ele><time>2026-04-04T07:32:47.883Z</time></trkpt><trkpt lat="36.9644791" lon="15.1934755"><ele>34.0</ele><time>2026-04-04T07:32:48.884Z</time></trkpt><trkpt lat="36.9644112" lon="15.1935061"><ele>34.0</ele><time>2026-04-04T07:32:49.884Z</time></trkpt><trkpt lat="36.9643008" lon="15.1935415"><ele>34.0</ele><time>2026-04-04T07:32:51.884Z</time></trkpt><trkpt lat="36.9642019" lon="15.193563"><ele>33.333333333333336</ele><time>2026-04-04T07:32:53.883Z</time></trkpt><trkpt lat="36.9641252" lon="15.1935612"><ele>32.66666666666667</ele><time>2026-04-04T07:32:55.883Z</time></trkpt><trkpt lat="36.9640399" lon="15.193568"><ele>32.0</ele><time>2026-04-04T07:32:57.883Z</time></trkpt><trkpt lat="36.9639763" lon="15.193597"><ele>31.333333333333336</ele><time>2026-04-04T07:32:59.883Z</time></trkpt><trkpt lat="36.96395" lon="15.1936741"><ele>30.666666666666668</ele><time>2026-04-04T07:33:02.884Z</time></trkpt><trkpt lat="36.9639206" lon="15.1938436"><ele>30.0</ele><time>2026-04-04T07:33:03.883Z</time></trkpt><trkpt lat="36.9639062" lon="15.1940354"><ele>30.0</ele><time>2026-04-04T07:33:04.883Z</time></trkpt><trkpt lat="36.9638965" lon="15.19415"><ele>30.0</ele><time>2026-04-04T07:33:05.884Z</time></trkpt><trkpt lat="36.9638973" lon="15.1942643"><ele>30.0</ele><time>2026-04-04T07:33:06.884Z</time></trkpt><trkpt lat="36.9638927" lon="15.1943774"><ele>30.0</ele><time>2026-04-04T07:33:07.883Z</time></trkpt><trkpt lat="36.9638749" lon="15.1944678"><ele>30.0</ele><time>2026-04-04T07:33:08.884Z</time></trkpt><trkpt lat="36.9638425" lon="15.1945539"><ele>30.0</ele><time>2026-04-04T07:33:09.883Z</time></trkpt><trkpt lat="36.9637922" lon="15.194654"><ele>30.0</ele><time>2026-04-04T07:33:10.884Z</time></trkpt><trkpt lat="36.9637255" lon="15.1947634"><ele>30.0</ele><time>2026-04-04T07:33:11.884Z</time></trkpt><trkpt lat="36.9636499" lon="15.1948866"><ele>30.0</ele><time>2026-04-04T07:33:12.884Z</time></trkpt><trkpt lat="36.9635726" lon="15.195011"><ele>30.0</ele><time>2026-04-04T07:33:13.883Z</time></trkpt><trkpt lat="36.9634675" lon="15.1951563"><ele>29.0</ele><time>2026-04-04T07:33:14.882Z</time></trkpt><trkpt lat="36.9633138" lon="15.1954189"><ele>28.0</ele><time>2026-04-04T07:33:15.883Z</time></trkpt><trkpt lat="36.9631651" lon="15.1956574"><ele>28.333333333333336</ele><time>2026-04-04T07:33:16.883Z</time></trkpt><trkpt lat="36.9630277" lon="15.1958902"><ele>28.666666666666664</ele><time>2026-04-04T07:33:17.883Z</time></trkpt><trkpt lat="36.9629109" lon="15.1960688"><ele>29.0</ele><time>2026-04-04T07:33:18.883Z</time></trkpt><trkpt lat="36.9628129" lon="15.1962241"><ele>29.0</ele><time>2026-04-04T07:33:19.885Z</time></trkpt><trkpt lat="36.9627421" lon="15.1963368"><ele>29.0</ele><time>2026-04-04T07:33:20.883Z</time></trkpt><trkpt lat="36.9626866" lon="15.1964205"><ele>29.0</ele><time>2026-04-04T07:33:21.884Z</time></trkpt><trkpt lat="36.9626044" lon="15.196544"><ele>29.0</ele><time>2026-04-04T07:33:23.884Z</time></trkpt><trkpt lat="36.962556" lon="15.1966055"><ele>29.0</ele><time>2026-04-04T07:33:24.884Z</time></trkpt><trkpt lat="36.962497" lon="15.1966948"><ele>28.75</ele><time>2026-04-04T07:33:25.883Z</time></trkpt><trkpt lat="36.9624296" lon="15.1967933"><ele>28.5</ele><time>2026-04-04T07:33:26.884Z</time></trkpt><trkpt lat="36.9623568" lon="15.196904"><ele>28.25</ele><time>2026-04-04T07:33:27.883Z</time></trkpt><trkpt lat="36.9622712" lon="15.1970276"><ele>28.0</ele><time>2026-04-04T07:33:28.883Z</time></trkpt><trkpt lat="36.9621928" lon="15.197149"><ele>28.0</ele><time>2026-04-04T07:33:29.883Z</time></trkpt><trkpt lat="36.9621188" lon="15.197266"><ele>27.999999999999996</ele><time>2026-04-04T07:33:30.884Z</time></trkpt><trkpt lat="36.9620512" lon="15.1973653"><ele>27.999999999999996</ele><time>2026-04-04T07:33:31.883Z</time></trkpt><trkpt lat="36.9619845" lon="15.1974704"><ele>28.0</ele><time>2026-04-04T07:33:32.882Z</time></trkpt><trkpt lat="36.9619225" lon="15.1975637"><ele>28.0</ele><time>2026-04-04T07:33:33.884Z</time></trkpt><trkpt lat="36.96187" lon="15.1976388"><ele>28.000000000000004</ele><time>2026-04-04T07:33:34.884Z</time></trkpt><trkpt lat="36.9617979" lon="15.1977292"><ele>28.0</ele><time>2026-04-04T07:33:36.884Z</time></trkpt><trkpt lat="36.9617932" lon="15.197835"><ele>28.0</ele><time>2026-04-04T07:33:39.884Z</time></trkpt><trkpt lat="36.9618638" lon="15.1979456"><ele>28.0</ele><time>2026-04-04T07:33:41.882Z</time></trkpt><trkpt lat="36.9619156" lon="15.1979958"><ele>28.000000000000004</ele><time>2026-04-04T07:33:42.882Z</time></trkpt><trkpt lat="36.9619717" lon="15.1980496"><ele>28.0</ele><time>2026-04-04T07:33:43.882Z</time></trkpt><trkpt lat="36.9620284" lon="15.1981046"><ele>28.000000000000004</ele><time>2026-04-04T07:33:44.883Z</time></trkpt><trkpt lat="36.9620782" lon="15.1981547"><ele>28.0</ele><time>2026-04-04T07:33:45.883Z</time></trkpt><trkpt lat="36.9621421" lon="15.1982255"><ele>28.0</ele><time>2026-04-04T07:33:47.883Z</time></trkpt><trkpt lat="36.9620759" lon="15.1981556"><ele>28.0</ele><time>2026-04-04T07:33:52.884Z</time></trkpt><trkpt lat="36.9620266" lon="15.1981034"><ele>28.000000000000004</ele><time>2026-04-04T07:33:53.883Z</time></trkpt><trkpt lat="36.9619768" lon="15.1980448"><ele>28.0</ele><time>2026-04-04T07:33:54.884Z</time></trkpt><trkpt lat="36.9618886" lon="15.1980281"><ele>28.0</ele><time>2026-04-04T07:33:56.882Z</time></trkpt><trkpt lat="36.9618029" lon="15.1981026"><ele>28.0</ele><time>2026-04-04T07:33:58.884Z</time></trkpt><trkpt lat="36.9617404" lon="15.1982194"><ele>28.0</ele><time>2026-04-04T07:33:59.883Z</time></trkpt><trkpt lat="36.9616531" lon="15.1983528"><ele>28.0</ele><time>2026-04-04T07:34:00.884Z</time></trkpt><trkpt lat="36.9615371" lon="15.1985304"><ele>25.5</ele><time>2026-04-04T07:34:01.883Z</time></trkpt><trkpt lat="36.9614038" lon="15.1987393"><ele>23.0</ele><time>2026-04-04T07:34:02.883Z</time></trkpt><trkpt lat="36.9612549" lon="15.1989813"><ele>22.0</ele><time>2026-04-04T07:34:03.884Z</time></trkpt><trkpt lat="36.9611151" lon="15.1991987"><ele>21.0</ele><time>2026-04-04T07:34:04.883Z</time></trkpt><trkpt lat="36.9609858" lon="15.1993977"><ele>20.0</ele><time>2026-04-04T07:34:05.883Z</time></trkpt><trkpt lat="36.9608513" lon="15.199599"><ele>20.0</ele><time>2026-04-04T07:34:06.884Z</time></trkpt><trkpt lat="36.9607018" lon="15.1998251"><ele>20.0</ele><time>2026-04-04T07:34:07.883Z</time></trkpt><trkpt lat="36.960552" lon="15.200061"><ele>19.333333333333336</ele><time>2026-04-04T07:34:08.884Z</time></trkpt><trkpt lat="36.9604215" lon="15.2002691"><ele>18.666666666666668</ele><time>2026-04-04T07:34:09.883Z</time></trkpt><trkpt lat="36.960305" lon="15.2004614"><ele>18.0</ele><time>2026-04-04T07:34:10.882Z</time></trkpt><trkpt lat="36.9602079" lon="15.2006104"><ele>16.8</ele><time>2026-04-04T07:34:11.884Z</time></trkpt><trkpt lat="36.9601138" lon="15.2007525"><ele>15.600000000000001</ele><time>2026-04-04T07:34:12.884Z</time></trkpt><trkpt lat="36.96006" lon="15.2008302"><ele>14.399999999999999</ele><time>2026-04-04T07:34:13.883Z</time></trkpt><trkpt lat="36.9600166" lon="15.2008969"><ele>13.2</ele><time>2026-04-04T07:34:14.884Z</time></trkpt><trkpt lat="36.9599741" lon="15.2009689"><ele>12.0</ele><time>2026-04-04T07:34:16.883Z</time></trkpt><trkpt lat="36.9598851" lon="15.2010976"><ele>11.666666666666666</ele><time>2026-04-04T07:34:18.884Z</time></trkpt><trkpt lat="36.9598316" lon="15.2011711"><ele>11.333333333333334</ele><time>2026-04-04T07:34:19.884Z</time></trkpt><trkpt lat="36.9597826" lon="15.2012452"><ele>11.0</ele><time>2026-04-04T07:34:20.882Z</time></trkpt><trkpt lat="36.9597414" lon="15.2013104"><ele>10.666666666666668</ele><time>2026-04-04T07:34:21.884Z</time></trkpt><trkpt lat="36.9596781" lon="15.2013786"><ele>10.333333333333334</ele><time>2026-04-04T07:34:23.883Z</time></trkpt><trkpt lat="36.959586" lon="15.2014088"><ele>10.0</ele><time>2026-04-04T07:34:25.883Z</time></trkpt><trkpt lat="36.9595447" lon="15.2014845"><ele>10.0</ele><time>2026-04-04T07:34:30.883Z</time></trkpt><trkpt lat="36.9594661" lon="15.2014141"><ele>10.0</ele><time>2026-04-04T07:34:42.883Z</time></trkpt><trkpt lat="36.9594036" lon="15.2013454"><ele>10.0</ele><time>2026-04-04T07:34:43.882Z</time></trkpt><trkpt lat="36.9593092" lon="15.2012556"><ele>10.0</ele><time>2026-04-04T07:34:44.882Z</time></trkpt><trkpt lat="36.9591894" lon="15.2011308"><ele>9.0</ele><time>2026-04-04T07:34:45.884Z</time></trkpt><trkpt lat="36.9590629" lon="15.2009981"><ele>8.0</ele><time>2026-04-04T07:34:46.883Z</time></trkpt><trkpt lat="36.9589312" lon="15.2008687"><ele>7.0</ele><time>2026-04-04T07:34:47.883Z</time></trkpt><trkpt lat="36.958802" lon="15.2007346"><ele>7.333333333333334</ele><time>2026-04-04T07:34:48.884Z</time></trkpt><trkpt lat="36.9586703" lon="15.2006031"><ele>7.666666666666666</ele><time>2026-04-04T07:34:49.884Z</time></trkpt><trkpt lat="36.9585411" lon="15.2004724"><ele>8.0</ele><time>2026-04-04T07:34:50.883Z</time></trkpt><trkpt lat="36.958404" lon="15.2003399"><ele>8.0</ele><time>2026-04-04T07:34:51.884Z</time></trkpt><trkpt lat="36.9582629" lon="15.2002004"><ele>8.0</ele><time>2026-04-04T07:34:52.883Z</time></trkpt><trkpt lat="36.9581217" lon="15.2000539"><ele>8.0</ele><time>2026-04-04T07:34:53.883Z</time></trkpt><trkpt lat="36.9579715" lon="15.1999047"><ele>8.333333333333332</ele><time>2026-04-04T07:34:54.884Z</time></trkpt><trkpt lat="36.9578103" lon="15.1997697"><ele>8.666666666666666</ele><time>2026-04-04T07:34:55.883Z</time></trkpt><trkpt lat="36.9576387" lon="15.1996519"><ele>9.0</ele><time>2026-04-04T07:34:56.884Z</time></trkpt><trkpt lat="36.9574609" lon="15.1995474"><ele>10.666666666666668</ele><time>2026-04-04T07:34:57.883Z</time></trkpt><trkpt lat="36.9572885" lon="15.1994599"><ele>12.333333333333334</ele><time>2026-04-04T07:34:58.883Z</time></trkpt><trkpt lat="36.9571142" lon="15.1993686"><ele>14.0</ele><time>2026-04-04T07:34:59.883Z</time></trkpt><trkpt lat="36.95694" lon="15.1992817"><ele>14.0</ele><time>2026-04-04T07:35:00.884Z</time></trkpt><trkpt lat="36.9567801" lon="15.1991873"><ele>14.0</ele><time>2026-04-04T07:35:01.883Z</time></trkpt><trkpt lat="36.9566267" lon="15.1990632"><ele>14.0</ele><time>2026-04-04T07:35:02.884Z</time></trkpt><trkpt lat="36.9564797" lon="15.1989176"><ele>14.666666666666668</ele><time>2026-04-04T07:35:03.883Z</time></trkpt><trkpt lat="36.9563357" lon="15.1987647"><ele>15.333333333333332</ele><time>2026-04-04T07:35:04.882Z</time></trkpt><trkpt lat="36.956199" lon="15.1986116"><ele>16.0</ele><time>2026-04-04T07:35:05.884Z</time></trkpt><trkpt lat="36.9560751" lon="15.1984581"><ele>16.0</ele><time>2026-04-04T07:35:06.883Z</time></trkpt><trkpt lat="36.9559595" lon="15.198319"><ele>16.0</ele><time>2026-04-04T07:35:07.883Z</time></trkpt><trkpt lat="36.9558567" lon="15.1981899"><ele>16.0</ele><time>2026-04-04T07:35:08.884Z</time></trkpt><trkpt lat="36.9557576" lon="15.198076"><ele>16.0</ele><time>2026-04-04T07:35:09.883Z</time></trkpt><trkpt lat="36.9556771" lon="15.1979802"><ele>15.999999999999998</ele><time>2026-04-04T07:35:10.883Z</time></trkpt><trkpt lat="36.9556147" lon="15.1979175"><ele>16.0</ele><time>2026-04-04T07:35:11.884Z</time></trkpt><trkpt lat="36.9555425" lon="15.1978868"><ele>16.0</ele><time>2026-04-04T07:35:13.882Z</time></trkpt><trkpt lat="36.955486" lon="15.1979418"><ele>16.0</ele><time>2026-04-04T07:35:17.883Z</time></trkpt><trkpt lat="36.9554428" lon="15.1980567"><ele>15.999999999999998</ele><time>2026-04-04T07:35:20.883Z</time></trkpt><trkpt lat="36.9554071" lon="15.1981602"><ele>16.0</ele><time>2026-04-04T07:35:22.883Z</time></trkpt><trkpt lat="36.9553591" lon="15.1983086"><ele>16.0</ele><time>2026-04-04T07:35:24.883Z</time></trkpt><trkpt lat="36.955334" lon="15.1983918"><ele>16.0</ele><time>2026-04-04T07:35:25.882Z</time></trkpt><trkpt lat="36.9553036" lon="15.198488"><ele>16.0</ele><time>2026-04-04T07:35:26.884Z</time></trkpt><trkpt lat="36.9552652" lon="15.1985967"><ele>16.0</ele><time>2026-04-04T07:35:27.883Z</time></trkpt><trkpt lat="36.9552223" lon="15.198714"><ele>16.0</ele><time>2026-04-04T07:35:28.882Z</time></trkpt><trkpt lat="36.9551771" lon="15.1988367"><ele>16.0</ele><time>2026-04-04T07:35:29.883Z</time></trkpt><trkpt lat="36.9551286" lon="15.198976"><ele>16.0</ele><time>2026-04-04T07:35:30.884Z</time></trkpt><trkpt lat="36.9550751" lon="15.1991297"><ele>16.0</ele><time>2026-04-04T07:35:31.884Z</time></trkpt><trkpt lat="36.9550157" lon="15.1993012"><ele>16.0</ele><time>2026-04-04T07:35:32.882Z</time></trkpt><trkpt lat="36.9549566" lon="15.199457"><ele>15.5</ele><time>2026-04-04T07:35:33.884Z</time></trkpt><trkpt lat="36.9549012" lon="15.1996112"><ele>15.0</ele><time>2026-04-04T07:35:34.883Z</time></trkpt><trkpt lat="36.9548453" lon="15.1997667"><ele>14.5</ele><time>2026-04-04T07:35:35.883Z</time></trkpt><trkpt lat="36.9547918" lon="15.1999183"><ele>14.0</ele><time>2026-04-04T07:35:36.884Z</time></trkpt><trkpt lat="36.9547409" lon="15.2000684"><ele>13.6</ele><time>2026-04-04T07:35:37.883Z</time></trkpt><trkpt lat="36.9546922" lon="15.2002043"><ele>13.2</ele><time>2026-04-04T07:35:38.884Z</time></trkpt><trkpt lat="36.9546498" lon="15.2003222"><ele>12.799999999999999</ele><time>2026-04-04T07:35:39.883Z</time></trkpt><trkpt lat="36.9546102" lon="15.2004314"><ele>12.399999999999999</ele><time>2026-04-04T07:35:40.883Z</time></trkpt><trkpt lat="36.9545738" lon="15.200539"><ele>12.0</ele><time>2026-04-04T07:35:41.883Z</time></trkpt><trkpt lat="36.954541" lon="15.2006277"><ele>11.833333333333334</ele><time>2026-04-04T07:35:42.883Z</time></trkpt><trkpt lat="36.9545163" lon="15.2007075"><ele>11.666666666666666</ele><time>2026-04-04T07:35:43.884Z</time></trkpt><trkpt lat="36.9544916" lon="15.2008457"><ele>11.5</ele><time>2026-04-04T07:35:45.884Z</time></trkpt><trkpt lat="36.9545347" lon="15.20096"><ele>11.333333333333332</ele><time>2026-04-04T07:35:47.883Z</time></trkpt><trkpt lat="36.9545838" lon="15.2010153"><ele>11.166666666666666</ele><time>2026-04-04T07:35:48.883Z</time></trkpt><trkpt lat="36.9546467" lon="15.201053"><ele>11.0</ele><time>2026-04-04T07:35:49.883Z</time></trkpt><trkpt lat="36.9547368" lon="15.2010981"><ele>11.0</ele><time>2026-04-04T07:35:50.884Z</time></trkpt><trkpt lat="36.9548318" lon="15.2011516"><ele>11.0</ele><time>2026-04-04T07:35:51.883Z</time></trkpt><trkpt lat="36.9549465" lon="15.2012275"><ele>11.0</ele><time>2026-04-04T07:35:52.882Z</time></trkpt><trkpt lat="36.9550753" lon="15.2013074"><ele>11.0</ele><time>2026-04-04T07:35:53.884Z</time></trkpt><trkpt lat="36.9552293" lon="15.2014043"><ele>11.4</ele><time>2026-04-04T07:35:54.883Z</time></trkpt><trkpt lat="36.9553522" lon="15.2014791"><ele>11.8</ele><time>2026-04-04T07:35:55.883Z</time></trkpt><trkpt lat="36.955475" lon="15.2015427"><ele>12.200000000000001</ele><time>2026-04-04T07:35:56.882Z</time></trkpt><trkpt lat="36.9555471" lon="15.2015876"><ele>12.600000000000001</ele><time>2026-04-04T07:35:57.883Z</time></trkpt><trkpt lat="36.9556098" lon="15.201637"><ele>13.0</ele><time>2026-04-04T07:35:58.882Z</time></trkpt><trkpt lat="36.9556617" lon="15.2017729"><ele>13.0</ele><time>2026-04-04T07:36:00.884Z</time></trkpt><trkpt lat="36.9556465" lon="15.2018729"><ele>13.0</ele><time>2026-04-04T07:36:01.883Z</time></trkpt><trkpt lat="36.9555875" lon="15.2020017"><ele>13.0</ele><time>2026-04-04T07:36:02.883Z</time></trkpt><trkpt lat="36.9555333" lon="15.2021453"><ele>13.0</ele><time>2026-04-04T07:36:03.882Z</time></trkpt><trkpt lat="36.9554805" lon="15.2023057"><ele>13.25</ele><time>2026-04-04T07:36:04.883Z</time></trkpt><trkpt lat="36.9554279" lon="15.2024622"><ele>13.5</ele><time>2026-04-04T07:36:05.883Z</time></trkpt><trkpt lat="36.9553824" lon="15.2026185"><ele>13.75</ele><time>2026-04-04T07:36:06.882Z</time></trkpt><trkpt lat="36.955339" lon="15.202741"><ele>14.0</ele><time>2026-04-04T07:36:07.882Z</time></trkpt><trkpt lat="36.9552921" lon="15.2028534"><ele>14.0</ele><time>2026-04-04T07:36:08.884Z</time></trkpt><trkpt lat="36.95525" lon="15.2029393"><ele>13.999999999999998</ele><time>2026-04-04T07:36:09.883Z</time></trkpt><trkpt lat="36.9551993" lon="15.2030588"><ele>13.999999999999998</ele><time>2026-04-04T07:36:11.884Z</time></trkpt><trkpt lat="36.9551887" lon="15.2031379"><ele>14.0</ele><time>2026-04-04T07:36:13.883Z</time></trkpt><trkpt lat="36.9552286" lon="15.2032346"><ele>14.0</ele><time>2026-04-04T07:36:15.883Z</time></trkpt><trkpt lat="36.9553346" lon="15.2033204"><ele>13.75</ele><time>2026-04-04T07:36:17.884Z</time></trkpt><trkpt lat="36.9554095" lon="15.2033593"><ele>13.5</ele><time>2026-04-04T07:36:18.883Z</time></trkpt><trkpt lat="36.9555043" lon="15.2034164"><ele>13.25</ele><time>2026-04-04T07:36:19.882Z</time></trkpt><trkpt lat="36.9556342" lon="15.2034969"><ele>13.0</ele><time>2026-04-04T07:36:20.883Z</time></trkpt><trkpt lat="36.9557753" lon="15.2035894"><ele>13.333333333333332</ele><time>2026-04-04T07:36:21.883Z</time></trkpt><trkpt lat="36.9559754" lon="15.2036863"><ele>13.666666666666668</ele><time>2026-04-04T07:36:22.882Z</time></trkpt><trkpt lat="36.9561127" lon="15.2037536"><ele>14.0</ele><time>2026-04-04T07:36:23.883Z</time></trkpt><trkpt lat="36.956211" lon="15.2038099"><ele>14.0</ele><time>2026-04-04T07:36:24.883Z</time></trkpt><trkpt lat="36.9562899" lon="15.2038646"><ele>13.999999999999998</ele><time>2026-04-04T07:36:25.884Z</time></trkpt><trkpt lat="36.9563612" lon="15.203912"><ele>13.999999999999998</ele><time>2026-04-04T07:36:26.883Z</time></trkpt><trkpt lat="36.9563679" lon="15.2040672"><ele>14.0</ele><time>2026-04-04T07:36:28.884Z</time></trkpt><trkpt lat="36.9563528" lon="15.204175"><ele>14.0</ele><time>2026-04-04T07:36:29.884Z</time></trkpt><trkpt lat="36.9562827" lon="15.2043413"><ele>14.25</ele><time>2026-04-04T07:36:30.883Z</time></trkpt><trkpt lat="36.9562287" lon="15.2045042"><ele>14.5</ele><time>2026-04-04T07:36:31.883Z</time></trkpt><trkpt lat="36.9561787" lon="15.204654"><ele>14.75</ele><time>2026-04-04T07:36:32.883Z</time></trkpt><trkpt lat="36.956132" lon="15.2047736"><ele>15.0</ele><time>2026-04-04T07:36:33.883Z</time></trkpt><trkpt lat="36.9561031" lon="15.2048752"><ele>14.666666666666666</ele><time>2026-04-04T07:36:34.884Z</time></trkpt><trkpt lat="36.956093" lon="15.2049963"><ele>14.333333333333332</ele><time>2026-04-04T07:36:36.883Z</time></trkpt><trkpt lat="36.9561695" lon="15.2050869"><ele>14.0</ele><time>2026-04-04T07:36:38.883Z</time></trkpt><trkpt lat="36.9562388" lon="15.2051253"><ele>13.666666666666666</ele><time>2026-04-04T07:36:39.884Z</time></trkpt><trkpt lat="36.956313" lon="15.2051639"><ele>13.333333333333332</ele><time>2026-04-04T07:36:40.884Z</time></trkpt><trkpt lat="36.9563859" lon="15.2052006"><ele>13.0</ele><time>2026-04-04T07:36:41.884Z</time></trkpt><trkpt lat="36.956461" lon="15.2052389"><ele>13.0</ele><time>2026-04-04T07:36:42.883Z</time></trkpt><trkpt lat="36.9565327" lon="15.2052739"><ele>13.0</ele><time>2026-04-04T07:36:43.884Z</time></trkpt><trkpt lat="36.9566068" lon="15.2053106"><ele>13.0</ele><time>2026-04-04T07:36:44.884Z</time></trkpt><trkpt lat="36.9566726" lon="15.2053444"><ele>13.0</ele><time>2026-04-04T07:36:45.883Z</time></trkpt><trkpt lat="36.956735" lon="15.2053736"><ele>13.0</ele><time>2026-04-04T07:36:46.883Z</time></trkpt><trkpt lat="36.9568115" lon="15.2053857"><ele>13.0</ele><time>2026-04-04T07:36:47.883Z</time></trkpt><trkpt lat="36.9568857" lon="15.2053658"><ele>13.0</ele><time>2026-04-04T07:36:48.884Z</time></trkpt><trkpt lat="36.9569651" lon="15.2053182"><ele>13.4</ele><time>2026-04-04T07:36:49.883Z</time></trkpt><trkpt lat="36.9570332" lon="15.2052748"><ele>13.8</ele><time>2026-04-04T07:36:50.884Z</time></trkpt><trkpt lat="36.9571084" lon="15.2052173"><ele>14.2</ele><time>2026-04-04T07:36:58.883Z</time></trkpt><trkpt lat="36.9571694" lon="15.2051643"><ele>14.6</ele><time>2026-04-04T07:37:00.884Z</time></trkpt><trkpt lat="36.9572976" lon="15.2050832"><ele>15.0</ele><time>2026-04-04T07:37:02.883Z</time></trkpt><trkpt lat="36.9573883" lon="15.2050302"><ele>15.0</ele><time>2026-04-04T07:37:03.882Z</time></trkpt><trkpt lat="36.9574808" lon="15.2049758"><ele>15.0</ele><time>2026-04-04T07:37:04.883Z</time></trkpt><trkpt lat="36.9575869" lon="15.2049183"><ele>15.0</ele><time>2026-04-04T07:37:05.884Z</time></trkpt><trkpt lat="36.9576866" lon="15.2048559"><ele>15.0</ele><time>2026-04-04T07:37:06.883Z</time></trkpt><trkpt lat="36.9577822" lon="15.2047865"><ele>15.0</ele><time>2026-04-04T07:37:07.883Z</time></trkpt><trkpt lat="36.9578682" lon="15.2047341"><ele>14.2</ele><time>2026-04-04T07:37:08.883Z</time></trkpt><trkpt lat="36.9579602" lon="15.2046785"><ele>13.4</ele><time>2026-04-04T07:37:09.883Z</time></trkpt><trkpt lat="36.9580557" lon="15.2046263"><ele>12.600000000000001</ele><time>2026-04-04T07:37:10.883Z</time></trkpt><trkpt lat="36.9581659" lon="15.2045815"><ele>11.8</ele><time>2026-04-04T07:37:11.883Z</time></trkpt><trkpt lat="36.958268" lon="15.2045279"><ele>11.0</ele><time>2026-04-04T07:37:12.883Z</time></trkpt><trkpt lat="36.9583701" lon="15.2044721"><ele>10.4</ele><time>2026-04-04T07:37:13.883Z</time></trkpt><trkpt lat="36.9584721" lon="15.2044225"><ele>9.8</ele><time>2026-04-04T07:37:14.883Z</time></trkpt><trkpt lat="36.958575" lon="15.2043772"><ele>9.200000000000001</ele><time>2026-04-04T07:37:15.883Z</time></trkpt><trkpt lat="36.9586755" lon="15.2043282"><ele>8.600000000000001</ele><time>2026-04-04T07:37:16.884Z</time></trkpt><trkpt lat="36.9587715" lon="15.2042838"><ele>8.0</ele><time>2026-04-04T07:37:17.882Z</time></trkpt><trkpt lat="36.9588672" lon="15.204233"><ele>8.0</ele><time>2026-04-04T07:37:18.883Z</time></trkpt><trkpt lat="36.9589582" lon="15.2041856"><ele>8.0</ele><time>2026-04-04T07:37:19.883Z</time></trkpt><trkpt lat="36.9590403" lon="15.2041414"><ele>8.0</ele><time>2026-04-04T07:37:20.882Z</time></trkpt><trkpt lat="36.9591186" lon="15.2041047"><ele>8.0</ele><time>2026-04-04T07:37:21.883Z</time></trkpt><trkpt lat="36.9591879" lon="15.204072"><ele>8.0</ele><time>2026-04-04T07:37:22.882Z</time></trkpt><trkpt lat="36.9592979" lon="15.2039751"><ele>7.499999999999999</ele><time>2026-04-04T07:37:24.883Z</time></trkpt><trkpt lat="36.9593525" lon="15.2039012"><ele>7.0</ele><time>2026-04-04T07:37:25.883Z</time></trkpt><trkpt lat="36.9594482" lon="15.203819"><ele>6.5</ele><time>2026-04-04T07:37:27.884Z</time></trkpt><trkpt lat="36.9595162" lon="15.2038318"><ele>6.0</ele><time>2026-04-04T07:37:28.883Z</time></trkpt><trkpt lat="36.9595768" lon="15.2038578"><ele>5.5</ele><time>2026-04-04T07:37:29.884Z</time></trkpt><trkpt lat="36.959656" lon="15.2038825"><ele>5.0</ele><time>2026-04-04T07:37:31.883Z</time></trkpt><trkpt lat="36.9597228" lon="15.2038905"><ele>5.0</ele><time>2026-04-04T07:37:33.883Z</time></trkpt><trkpt lat="36.959826" lon="15.2038651"><ele>5.0</ele><time>2026-04-04T07:37:35.883Z</time></trkpt><trkpt lat="36.9599576" lon="15.2037993"><ele>5.0</ele><time>2026-04-04T07:37:37.883Z</time></trkpt><trkpt lat="36.9600267" lon="15.2037586"><ele>5.0</ele><time>2026-04-04T07:37:38.883Z</time></trkpt><trkpt lat="36.9601206" lon="15.2037119"><ele>5.0</ele><time>2026-04-04T07:37:40.882Z</time></trkpt><trkpt lat="36.9602122" lon="15.203761"><ele>5.166666666666667</ele><time>2026-04-04T07:37:42.883Z</time></trkpt><trkpt lat="36.9602714" lon="15.2038249"><ele>5.333333333333334</ele><time>2026-04-04T07:37:43.882Z</time></trkpt><trkpt lat="36.9603362" lon="15.2039064"><ele>5.5</ele><time>2026-04-04T07:37:44.883Z</time></trkpt><trkpt lat="36.9603979" lon="15.2039767"><ele>5.666666666666667</ele><time>2026-04-04T07:37:45.883Z</time></trkpt><trkpt lat="36.960462" lon="15.2040358"><ele>5.833333333333333</ele><time>2026-04-04T07:37:46.883Z</time></trkpt><trkpt lat="36.9605261" lon="15.2041025"><ele>6.0</ele><time>2026-04-04T07:37:47.883Z</time></trkpt><trkpt lat="36.9605925" lon="15.2041822"><ele>5.999999999999999</ele><time>2026-04-04T07:37:48.883Z</time></trkpt><trkpt lat="36.9606464" lon="15.2042477"><ele>6.0</ele><time>2026-04-04T07:37:49.883Z</time></trkpt><trkpt lat="36.9606931" lon="15.2043149"><ele>6.0</ele><time>2026-04-04T07:37:50.884Z</time></trkpt><trkpt lat="36.9607378" lon="15.20438"><ele>6.0</ele><time>2026-04-04T07:37:51.882Z</time></trkpt><trkpt lat="36.9607851" lon="15.2044482"><ele>6.0</ele><time>2026-04-04T07:37:52.883Z</time></trkpt><trkpt lat="36.9608327" lon="15.2045073"><ele>5.999999999999999</ele><time>2026-04-04T07:37:53.882Z</time></trkpt><trkpt lat="36.9608858" lon="15.2045688"><ele>6.0</ele><time>2026-04-04T07:37:54.883Z</time></trkpt><trkpt lat="36.9609362" lon="15.2046329"><ele>7.333333333333334</ele><time>2026-04-04T07:37:55.883Z</time></trkpt><trkpt lat="36.9610265" lon="15.2046931"><ele>8.666666666666668</ele><time>2026-04-04T07:37:57.883Z</time></trkpt><trkpt lat="36.9611373" lon="15.204687"><ele>10.0</ele><time>2026-04-04T07:37:59.882Z</time></trkpt><trkpt lat="36.9612042" lon="15.2046431"><ele>11.333333333333334</ele><time>2026-04-04T07:38:00.884Z</time></trkpt><trkpt lat="36.961252" lon="15.2045821"><ele>12.666666666666668</ele><time>2026-04-04T07:38:01.883Z</time></trkpt><trkpt lat="36.9613203" lon="15.2045318"><ele>14.0</ele><time>2026-04-04T07:38:03.883Z</time></trkpt><trkpt lat="36.9614415" lon="15.2045962"><ele>14.0</ele><time>2026-04-04T07:38:05.883Z</time></trkpt><trkpt lat="36.961539" lon="15.2046747"><ele>14.0</ele><time>2026-04-04T07:38:06.883Z</time></trkpt><trkpt lat="36.9616421" lon="15.2047645"><ele>14.0</ele><time>2026-04-04T07:38:07.883Z</time></trkpt><trkpt lat="36.9617432" lon="15.2048418"><ele>14.0</ele><time>2026-04-04T07:38:08.883Z</time></trkpt><trkpt lat="36.9618532" lon="15.2049191"><ele>13.75</ele><time>2026-04-04T07:38:09.883Z</time></trkpt><trkpt lat="36.9619543" lon="15.204995"><ele>13.5</ele><time>2026-04-04T07:38:10.882Z</time></trkpt><trkpt lat="36.9620659" lon="15.2050696"><ele>13.25</ele><time>2026-04-04T07:38:11.882Z</time></trkpt><trkpt lat="36.9621775" lon="15.205153"><ele>13.0</ele><time>2026-04-04T07:38:12.882Z</time></trkpt><trkpt lat="36.9622944" lon="15.2052421"><ele>13.0</ele><time>2026-04-04T07:38:13.883Z</time></trkpt><trkpt lat="36.962409" lon="15.2053365"><ele>13.0</ele><time>2026-04-04T07:38:14.883Z</time></trkpt><trkpt lat="36.9625248" lon="15.205433"><ele>13.0</ele><time>2026-04-04T07:38:15.884Z</time></trkpt><trkpt lat="36.9626419" lon="15.2055252"><ele>13.0</ele><time>2026-04-04T07:38:16.883Z</time></trkpt><trkpt lat="36.9627582" lon="15.2056225"><ele>13.0</ele><time>2026-04-04T07:38:17.882Z</time></trkpt><trkpt lat="36.9628804" lon="15.2057232"><ele>13.0</ele><time>2026-04-04T07:38:18.883Z</time></trkpt><trkpt lat="36.9630016" lon="15.2058333"><ele>13.0</ele><time>2026-04-04T07:38:19.883Z</time></trkpt><trkpt lat="36.963127" lon="15.2059684"><ele>13.0</ele><time>2026-04-04T07:38:20.883Z</time></trkpt><trkpt lat="36.9632522" lon="15.2061033"><ele>13.0</ele><time>2026-04-04T07:38:21.883Z</time></trkpt><trkpt lat="36.9633772" lon="15.206238"><ele>13.0</ele><time>2026-04-04T07:38:22.883Z</time></trkpt><trkpt lat="36.9635054" lon="15.2063714"><ele>13.666666666666666</ele><time>2026-04-04T07:38:23.882Z</time></trkpt><trkpt lat="36.9636311" lon="15.2065006"><ele>14.333333333333332</ele><time>2026-04-04T07:38:24.883Z</time></trkpt><trkpt lat="36.9637593" lon="15.2066314"><ele>15.0</ele><time>2026-04-04T07:38:25.883Z</time></trkpt><trkpt lat="36.9638894" lon="15.2067609"><ele>15.0</ele><time>2026-04-04T07:38:26.882Z</time></trkpt><trkpt lat="36.9640238" lon="15.2068982"><ele>15.0</ele><time>2026-04-04T07:38:27.882Z</time></trkpt><trkpt lat="36.9641435" lon="15.2070363"><ele>15.0</ele><time>2026-04-04T07:38:28.883Z</time></trkpt><trkpt lat="36.9642674" lon="15.2071732"><ele>15.333333333333332</ele><time>2026-04-04T07:38:29.883Z</time></trkpt><trkpt lat="36.9643911" lon="15.2073125"><ele>15.666666666666666</ele><time>2026-04-04T07:38:30.883Z</time></trkpt><trkpt lat="36.9645238" lon="15.2074499"><ele>16.0</ele><time>2026-04-04T07:38:31.884Z</time></trkpt><trkpt lat="36.964659" lon="15.2075811"><ele>16.333333333333332</ele><time>2026-04-04T07:38:32.884Z</time></trkpt><trkpt lat="36.9647986" lon="15.2077101"><ele>16.666666666666668</ele><time>2026-04-04T07:38:33.884Z</time></trkpt><trkpt lat="36.9649353" lon="15.2078408"><ele>17.0</ele><time>2026-04-04T07:38:34.883Z</time></trkpt><trkpt lat="36.9650808" lon="15.2079758"><ele>17.0</ele><time>2026-04-04T07:38:35.884Z</time></trkpt><trkpt lat="36.9652172" lon="15.2081148"><ele>17.0</ele><time>2026-04-04T07:38:36.882Z</time></trkpt><trkpt lat="36.9653476" lon="15.2082541"><ele>17.0</ele><time>2026-04-04T07:38:37.883Z</time></trkpt><trkpt lat="36.965466" lon="15.2083896"><ele>17.0</ele><time>2026-04-04T07:38:38.883Z</time></trkpt><trkpt lat="36.9655857" lon="15.2085212"><ele>17.0</ele><time>2026-04-04T07:38:39.883Z</time></trkpt><trkpt lat="36.9656975" lon="15.2086418"><ele>17.0</ele><time>2026-04-04T07:38:40.883Z</time></trkpt><trkpt lat="36.9657978" lon="15.20875"><ele>17.0</ele><time>2026-04-04T07:38:41.882Z</time></trkpt><trkpt lat="36.9658925" lon="15.2088491"><ele>17.4</ele><time>2026-04-04T07:38:42.884Z</time></trkpt><trkpt lat="36.9659763" lon="15.2089373"><ele>17.799999999999997</ele><time>2026-04-04T07:38:43.883Z</time></trkpt><trkpt lat="36.9660502" lon="15.2090243"><ele>18.2</ele><time>2026-04-04T07:38:44.883Z</time></trkpt><trkpt lat="36.9661068" lon="15.2091322"><ele>18.599999999999998</ele><time>2026-04-04T07:38:45.882Z</time></trkpt><trkpt lat="36.96615" lon="15.209256"><ele>19.0</ele><time>2026-04-04T07:38:46.882Z</time></trkpt><trkpt lat="36.966166" lon="15.2094"><ele>19.0</ele><time>2026-04-04T07:38:47.882Z</time></trkpt><trkpt lat="36.9661708" lon="15.209543"><ele>19.0</ele><time>2026-04-04T07:38:48.883Z</time></trkpt><trkpt lat="36.9661699" lon="15.2096889"><ele>19.0</ele><time>2026-04-04T07:38:49.883Z</time></trkpt><trkpt lat="36.9661608" lon="15.2098411"><ele>19.0</ele><time>2026-04-04T07:38:50.883Z</time></trkpt><trkpt lat="36.9661435" lon="15.2099902"><ele>18.75</ele><time>2026-04-04T07:38:51.883Z</time></trkpt><trkpt lat="36.9661038" lon="15.2101406"><ele>18.5</ele><time>2026-04-04T07:38:52.883Z</time></trkpt><trkpt lat="36.966049" lon="15.2102866"><ele>18.25</ele><time>2026-04-04T07:38:53.882Z</time></trkpt><trkpt lat="36.9659768" lon="15.2104376"><ele>18.0</ele><time>2026-04-04T07:38:54.883Z</time></trkpt><trkpt lat="36.9658962" lon="15.2105957"><ele>18.0</ele><time>2026-04-04T07:38:55.883Z</time></trkpt><trkpt lat="36.9657927" lon="15.2107335"><ele>18.0</ele><time>2026-04-04T07:38:56.883Z</time></trkpt><trkpt lat="36.965702" lon="15.210865"><ele>18.0</ele><time>2026-04-04T07:38:57.883Z</time></trkpt><trkpt lat="36.9656115" lon="15.2109955"><ele>18.0</ele><time>2026-04-04T07:38:58.883Z</time></trkpt><trkpt lat="36.965525" lon="15.21113"><ele>18.0</ele><time>2026-04-04T07:38:59.883Z</time></trkpt><trkpt lat="36.9654423" lon="15.2112627"><ele>18.0</ele><time>2026-04-04T07:39:00.883Z</time></trkpt><trkpt lat="36.9653556" lon="15.2113988"><ele>18.0</ele><time>2026-04-04T07:39:01.883Z</time></trkpt><trkpt lat="36.9652779" lon="15.2115287"><ele>18.0</ele><time>2026-04-04T07:39:02.883Z</time></trkpt><trkpt lat="36.9651975" lon="15.2116565"><ele>18.75</ele><time>2026-04-04T07:39:03.882Z</time></trkpt><trkpt lat="36.9651217" lon="15.2117784"><ele>19.5</ele><time>2026-04-04T07:39:04.883Z</time></trkpt><trkpt lat="36.9650707" lon="15.2119082"><ele>20.25</ele><time>2026-04-04T07:39:05.883Z</time></trkpt><trkpt lat="36.9650447" lon="15.2120442"><ele>21.0</ele><time>2026-04-04T07:39:06.883Z</time></trkpt><trkpt lat="36.9650484" lon="15.2121822"><ele>21.0</ele><time>2026-04-04T07:39:07.883Z</time></trkpt><trkpt lat="36.9650704" lon="15.2123184"><ele>21.0</ele><time>2026-04-04T07:39:08.883Z</time></trkpt><trkpt lat="36.9650999" lon="15.2124569"><ele>21.0</ele><time>2026-04-04T07:39:09.882Z</time></trkpt><trkpt lat="36.9651357" lon="15.2126016"><ele>21.0</ele><time>2026-04-04T07:39:10.883Z</time></trkpt><trkpt lat="36.9651709" lon="15.2127345"><ele>20.25</ele><time>2026-04-04T07:39:11.883Z</time></trkpt><trkpt lat="36.9652192" lon="15.2128777"><ele>19.5</ele><time>2026-04-04T07:39:12.883Z</time></trkpt><trkpt lat="36.9652607" lon="15.2130398"><ele>18.75</ele><time>2026-04-04T07:39:13.883Z</time></trkpt><trkpt lat="36.9652901" lon="15.2132139"><ele>18.0</ele><time>2026-04-04T07:39:14.883Z</time></trkpt><trkpt lat="36.9652985" lon="15.2133989"><ele>17.666666666666668</ele><time>2026-04-04T07:39:15.883Z</time></trkpt><trkpt lat="36.9652798" lon="15.2135994"><ele>17.333333333333336</ele><time>2026-04-04T07:39:16.883Z</time></trkpt><trkpt lat="36.9652369" lon="15.2138174"><ele>17.0</ele><time>2026-04-04T07:39:17.883Z</time></trkpt><trkpt lat="36.9651888" lon="15.2140286"><ele>17.0</ele><time>2026-04-04T07:39:18.883Z</time></trkpt><trkpt lat="36.9651384" lon="15.2142404"><ele>17.0</ele><time>2026-04-04T07:39:19.883Z</time></trkpt><trkpt lat="36.9650842" lon="15.214439"><ele>17.0</ele><time>2026-04-04T07:39:20.883Z</time></trkpt><trkpt lat="36.9650272" lon="15.2146207"><ele>17.0</ele><time>2026-04-04T07:39:21.883Z</time></trkpt><trkpt lat="36.9649791" lon="15.2147934"><ele>17.0</ele><time>2026-04-04T07:39:22.883Z</time></trkpt><trkpt lat="36.96494" lon="15.2149585"><ele>17.0</ele><time>2026-04-04T07:39:23.883Z</time></trkpt><trkpt lat="36.9649259" lon="15.2151361"><ele>17.0</ele><time>2026-04-04T07:39:24.883Z</time></trkpt><trkpt lat="36.9649167" lon="15.215309"><ele>17.0</ele><time>2026-04-04T07:39:25.883Z</time></trkpt><trkpt lat="36.9649634" lon="15.2154806"><ele>17.0</ele><time>2026-04-04T07:39:26.883Z</time></trkpt><trkpt lat="36.9650302" lon="15.2156685"><ele>17.0</ele><time>2026-04-04T07:39:27.883Z</time></trkpt><trkpt lat="36.9650914" lon="15.2158409"><ele>20.666666666666668</ele><time>2026-04-04T07:39:28.883Z</time></trkpt><trkpt lat="36.9651507" lon="15.2160141"><ele>24.333333333333336</ele><time>2026-04-04T07:39:29.883Z</time></trkpt><trkpt lat="36.9652083" lon="15.216196"><ele>28.0</ele><time>2026-04-04T07:39:30.882Z</time></trkpt><trkpt lat="36.9652669" lon="15.2163804"><ele>28.666666666666668</ele><time>2026-04-04T07:39:31.884Z</time></trkpt><trkpt lat="36.9653304" lon="15.2165642"><ele>29.333333333333336</ele><time>2026-04-04T07:39:32.883Z</time></trkpt><trkpt lat="36.9654153" lon="15.216748"><ele>30.0</ele><time>2026-04-04T07:39:33.884Z</time></trkpt><trkpt lat="36.9654884" lon="15.216926"><ele>30.0</ele><time>2026-04-04T07:39:34.884Z</time></trkpt><trkpt lat="36.9655678" lon="15.2171127"><ele>30.0</ele><time>2026-04-04T07:39:35.883Z</time></trkpt><trkpt lat="36.9656499" lon="15.2172854"><ele>30.0</ele><time>2026-04-04T07:39:36.884Z</time></trkpt><trkpt lat="36.9657278" lon="15.2174471"><ele>30.0</ele><time>2026-04-04T07:39:37.883Z</time></trkpt><trkpt lat="36.9658041" lon="15.2176123"><ele>30.0</ele><time>2026-04-04T07:39:38.882Z</time></trkpt><trkpt lat="36.9658839" lon="15.2177886"><ele>30.0</ele><time>2026-04-04T07:39:39.882Z</time></trkpt><trkpt lat="36.9659588" lon="15.2179557"><ele>30.666666666666664</ele><time>2026-04-04T07:39:40.884Z</time></trkpt><trkpt lat="36.9660295" lon="15.2181288"><ele>31.333333333333332</ele><time>2026-04-04T07:39:41.884Z</time></trkpt><trkpt lat="36.9660992" lon="15.2183104"><ele>32.0</ele><time>2026-04-04T07:39:42.883Z</time></trkpt><trkpt lat="36.9661741" lon="15.2184946"><ele>32.0</ele><time>2026-04-04T07:39:43.882Z</time></trkpt><trkpt lat="36.9662422" lon="15.218683"><ele>32.0</ele><time>2026-04-04T07:39:44.882Z</time></trkpt><trkpt lat="36.9663106" lon="15.2188778"><ele>32.0</ele><time>2026-04-04T07:39:45.882Z</time></trkpt><trkpt lat="36.9663781" lon="15.2190687"><ele>31.0</ele><time>2026-04-04T07:39:46.883Z</time></trkpt><trkpt lat="36.9664413" lon="15.2192684"><ele>30.0</ele><time>2026-04-04T07:39:47.883Z</time></trkpt><trkpt lat="36.9665045" lon="15.2194656"><ele>29.0</ele><time>2026-04-04T07:39:48.882Z</time></trkpt><trkpt lat="36.9665704" lon="15.2196631"><ele>28.333333333333332</ele><time>2026-04-04T07:39:49.882Z</time></trkpt><trkpt lat="36.9666338" lon="15.21986"><ele>27.666666666666664</ele><time>2026-04-04T07:39:50.883Z</time></trkpt><trkpt lat="36.9667279" lon="15.2200498"><ele>27.0</ele><time>2026-04-04T07:39:51.883Z</time></trkpt><trkpt lat="36.9668133" lon="15.2202403"><ele>27.0</ele><time>2026-04-04T07:39:52.883Z</time></trkpt><trkpt lat="36.9669447" lon="15.2204138"><ele>27.0</ele><time>2026-04-04T07:39:53.883Z</time></trkpt><trkpt lat="36.967063" lon="15.220581"><ele>27.0</ele><time>2026-04-04T07:39:54.882Z</time></trkpt><trkpt lat="36.9671864" lon="15.2207448"><ele>27.0</ele><time>2026-04-04T07:39:55.882Z</time></trkpt><trkpt lat="36.9673083" lon="15.2209048"><ele>27.0</ele><time>2026-04-04T07:39:56.883Z</time></trkpt><trkpt lat="36.9674214" lon="15.2210565"><ele>27.0</ele><time>2026-04-04T07:39:57.883Z</time></trkpt><trkpt lat="36.9675392" lon="15.2212166"><ele>27.666666666666664</ele><time>2026-04-04T07:39:58.883Z</time></trkpt><trkpt lat="36.967653" lon="15.2213691"><ele>28.333333333333332</ele><time>2026-04-04T07:39:59.883Z</time></trkpt><trkpt lat="36.9677746" lon="15.2215283"><ele>29.0</ele><time>2026-04-04T07:40:00.883Z</time></trkpt><trkpt lat="36.9678913" lon="15.2216744"><ele>29.0</ele><time>2026-04-04T07:40:01.883Z</time></trkpt><trkpt lat="36.9680058" lon="15.2218155"><ele>29.0</ele><time>2026-04-04T07:40:02.883Z</time></trkpt><trkpt lat="36.9681035" lon="15.2219462"><ele>29.0</ele><time>2026-04-04T07:40:03.883Z</time></trkpt><trkpt lat="36.9682039" lon="15.2220726"><ele>29.0</ele><time>2026-04-04T07:40:04.882Z</time></trkpt><trkpt lat="36.9682976" lon="15.2221839"><ele>29.2</ele><time>2026-04-04T07:40:05.883Z</time></trkpt><trkpt lat="36.9683711" lon="15.2222803"><ele>29.4</ele><time>2026-04-04T07:40:06.883Z</time></trkpt><trkpt lat="36.9684381" lon="15.2223711"><ele>29.6</ele><time>2026-04-04T07:40:07.883Z</time></trkpt><trkpt lat="36.9685089" lon="15.2224646"><ele>29.8</ele><time>2026-04-04T07:40:08.883Z</time></trkpt><trkpt lat="36.9685856" lon="15.2225656"><ele>30.0</ele><time>2026-04-04T07:40:09.883Z</time></trkpt><trkpt lat="36.9686726" lon="15.222677"><ele>30.0</ele><time>2026-04-04T07:40:10.883Z</time></trkpt><trkpt lat="36.9687618" lon="15.2227966"><ele>30.0</ele><time>2026-04-04T07:40:11.882Z</time></trkpt><trkpt lat="36.9688589" lon="15.222921"><ele>30.0</ele><time>2026-04-04T07:40:12.883Z</time></trkpt><trkpt lat="36.9689571" lon="15.2230464"><ele>30.0</ele><time>2026-04-04T07:40:13.883Z</time></trkpt><trkpt lat="36.9690589" lon="15.2231699"><ele>29.666666666666664</ele><time>2026-04-04T07:40:14.883Z</time></trkpt><trkpt lat="36.9691663" lon="15.2233009"><ele>29.333333333333332</ele><time>2026-04-04T07:40:15.883Z</time></trkpt><trkpt lat="36.9692705" lon="15.2234359"><ele>29.0</ele><time>2026-04-04T07:40:16.883Z</time></trkpt><trkpt lat="36.9693803" lon="15.2235748"><ele>29.0</ele><time>2026-04-04T07:40:17.883Z</time></trkpt><trkpt lat="36.9694898" lon="15.2237168"><ele>29.0</ele><time>2026-04-04T07:40:18.883Z</time></trkpt><trkpt lat="36.9695997" lon="15.2238628"><ele>29.0</ele><time>2026-04-04T07:40:19.883Z</time></trkpt><trkpt lat="36.9697087" lon="15.2240142"><ele>28.666666666666664</ele><time>2026-04-04T07:40:20.883Z</time></trkpt><trkpt lat="36.9698205" lon="15.2241697"><ele>28.333333333333336</ele><time>2026-04-04T07:40:21.883Z</time></trkpt><trkpt lat="36.9699335" lon="15.2243253"><ele>28.0</ele><time>2026-04-04T07:40:22.882Z</time></trkpt><trkpt lat="36.9700365" lon="15.2244871"><ele>28.0</ele><time>2026-04-04T07:40:23.883Z</time></trkpt><trkpt lat="36.9701515" lon="15.2246412"><ele>28.0</ele><time>2026-04-04T07:40:24.884Z</time></trkpt><trkpt lat="36.9702629" lon="15.2248016"><ele>28.0</ele><time>2026-04-04T07:40:25.883Z</time></trkpt><trkpt lat="36.97037" lon="15.2249659"><ele>27.333333333333336</ele><time>2026-04-04T07:40:26.882Z</time></trkpt><trkpt lat="36.9704711" lon="15.2251226"><ele>26.666666666666664</ele><time>2026-04-04T07:40:27.883Z</time></trkpt><trkpt lat="36.9705558" lon="15.2252762"><ele>26.0</ele><time>2026-04-04T07:40:28.883Z</time></trkpt><trkpt lat="36.970634" lon="15.2254209"><ele>26.0</ele><time>2026-04-04T07:40:29.883Z</time></trkpt><trkpt lat="36.9707141" lon="15.2255655"><ele>26.0</ele><time>2026-04-04T07:40:30.882Z</time></trkpt><trkpt lat="36.9707934" lon="15.2257232"><ele>26.0</ele><time>2026-04-04T07:40:31.883Z</time></trkpt><trkpt lat="36.9708753" lon="15.2258896"><ele>26.0</ele><time>2026-04-04T07:40:32.883Z</time></trkpt><trkpt lat="36.9709628" lon="15.2260606"><ele>26.0</ele><time>2026-04-04T07:40:33.883Z</time></trkpt><trkpt lat="36.9710424" lon="15.2262389"><ele>26.0</ele><time>2026-04-04T07:40:34.883Z</time></trkpt><trkpt lat="36.9711172" lon="15.2264177"><ele>26.0</ele><time>2026-04-04T07:40:35.882Z</time></trkpt><trkpt lat="36.9711909" lon="15.2265883"><ele>25.5</ele><time>2026-04-04T07:40:36.883Z</time></trkpt><trkpt lat="36.971258" lon="15.2267442"><ele>25.0</ele><time>2026-04-04T07:40:37.882Z</time></trkpt><trkpt lat="36.9713143" lon="15.2268755"><ele>24.5</ele><time>2026-04-04T07:40:38.883Z</time></trkpt><trkpt lat="36.9713659" lon="15.2270018"><ele>24.0</ele><time>2026-04-04T07:40:39.882Z</time></trkpt><trkpt lat="36.9713941" lon="15.2271197"><ele>24.0</ele><time>2026-04-04T07:40:40.883Z</time></trkpt><trkpt lat="36.9714062" lon="15.2272333"><ele>24.0</ele><time>2026-04-04T07:40:41.883Z</time></trkpt><trkpt lat="36.9713941" lon="15.2273559"><ele>24.0</ele><time>2026-04-04T07:40:42.882Z</time></trkpt><trkpt lat="36.9713523" lon="15.2274885"><ele>24.0</ele><time>2026-04-04T07:40:43.882Z</time></trkpt><trkpt lat="36.9712831" lon="15.2276281"><ele>24.0</ele><time>2026-04-04T07:40:44.883Z</time></trkpt><trkpt lat="36.9712303" lon="15.2277336"><ele>23.4</ele><time>2026-04-04T07:40:45.882Z</time></trkpt><trkpt lat="36.971186" lon="15.2278419"><ele>22.799999999999997</ele><time>2026-04-04T07:40:46.883Z</time></trkpt><trkpt lat="36.9711344" lon="15.2279579"><ele>22.200000000000003</ele><time>2026-04-04T07:40:47.882Z</time></trkpt><trkpt lat="36.9710724" lon="15.2280748"><ele>21.6</ele><time>2026-04-04T07:40:48.883Z</time></trkpt><trkpt lat="36.9710075" lon="15.2281939"><ele>21.0</ele><time>2026-04-04T07:40:49.883Z</time></trkpt><trkpt lat="36.9709499" lon="15.2282874"><ele>20.5</ele><time>2026-04-04T07:40:50.882Z</time></trkpt><trkpt lat="36.9708938" lon="15.2283771"><ele>20.0</ele><time>2026-04-04T07:40:51.882Z</time></trkpt><trkpt lat="36.970843" lon="15.2284547"><ele>19.5</ele><time>2026-04-04T07:40:52.883Z</time></trkpt><trkpt lat="36.9707639" lon="15.228551"><ele>19.0</ele><time>2026-04-04T07:40:54.883Z</time></trkpt><trkpt lat="36.9707049" lon="15.2286004"><ele>18.5</ele><time>2026-04-04T07:40:57.883Z</time></trkpt><trkpt lat="36.9706495" lon="15.2286504"><ele>18.0</ele><time>2026-04-04T07:41:10.883Z</time></trkpt><trkpt lat="36.9706031" lon="15.2287606"><ele>17.333333333333332</ele><time>2026-04-04T07:41:12.883Z</time></trkpt><trkpt lat="36.9705752" lon="15.2288593"><ele>16.666666666666668</ele><time>2026-04-04T07:41:13.882Z</time></trkpt><trkpt lat="36.9705542" lon="15.2289388"><ele>16.0</ele><time>2026-04-04T07:41:14.883Z</time></trkpt><trkpt lat="36.9705313" lon="15.2290195"><ele>15.333333333333334</ele><time>2026-04-04T07:41:15.883Z</time></trkpt><trkpt lat="36.970479" lon="15.2291268"><ele>14.666666666666668</ele><time>2026-04-04T07:41:17.882Z</time></trkpt><trkpt lat="36.9704541" lon="15.2292154"><ele>14.0</ele><time>2026-04-04T07:41:20.883Z</time></trkpt><trkpt lat="36.9704923" lon="15.2292868"><ele>13.2</ele><time>2026-04-04T07:41:23.882Z</time></trkpt><trkpt lat="36.9705581" lon="15.2294111"><ele>12.399999999999999</ele><time>2026-04-04T07:41:25.883Z</time></trkpt><trkpt lat="36.9706061" lon="15.2295314"><ele>11.6</ele><time>2026-04-04T07:41:27.882Z</time></trkpt><trkpt lat="36.9706071" lon="15.2296168"><ele>10.8</ele><time>2026-04-04T07:41:28.883Z</time></trkpt><trkpt lat="36.9706141" lon="15.229711"><ele>10.0</ele><time>2026-04-04T07:41:29.882Z</time></trkpt><trkpt lat="36.9706296" lon="15.2298367"><ele>9.6</ele><time>2026-04-04T07:41:30.883Z</time></trkpt><trkpt lat="36.9706447" lon="15.2299721"><ele>9.2</ele><time>2026-04-04T07:41:31.883Z</time></trkpt><trkpt lat="36.9706625" lon="15.2300782"><ele>8.8</ele><time>2026-04-04T07:41:32.883Z</time></trkpt><trkpt lat="36.9706765" lon="15.2301858"><ele>8.4</ele><time>2026-04-04T07:41:33.883Z</time></trkpt><trkpt lat="36.9706988" lon="15.2303081"><ele>8.0</ele><time>2026-04-04T07:41:35.883Z</time></trkpt><trkpt lat="36.9706911" lon="15.2304005"><ele>7.999999999999999</ele><time>2026-04-04T07:41:37.883Z</time></trkpt><trkpt lat="36.9706651" lon="15.2304806"><ele>8.0</ele><time>2026-04-04T07:41:40.883Z</time></trkpt><trkpt lat="36.9706534" lon="15.2305687"><ele>8.0</ele><time>2026-04-04T07:41:58.883Z</time></trkpt><trkpt lat="36.9706981" lon="15.2306555"><ele>8.0</ele><time>2026-04-04T07:42:02.883Z</time></trkpt><trkpt lat="36.9707509" lon="15.2307521"><ele>7.999999999999999</ele><time>2026-04-04T07:42:06.883Z</time></trkpt><trkpt lat="36.9707529" lon="15.2308696"><ele>8.0</ele><time>2026-04-04T07:42:08.883Z</time></trkpt><trkpt lat="36.9707503" lon="15.2309873"><ele>7.800000000000001</ele><time>2026-04-04T07:42:49.882Z</time></trkpt><trkpt lat="36.9707546" lon="15.2310899"><ele>7.6000000000000005</ele><time>2026-04-04T07:42:51.882Z</time></trkpt><trkpt lat="36.9707713" lon="15.2311954"><ele>7.3999999999999995</ele><time>2026-04-04T07:42:53.882Z</time></trkpt><trkpt lat="36.9708182" lon="15.2312954"><ele>7.199999999999999</ele><time>2026-04-04T07:42:55.882Z</time></trkpt><trkpt lat="36.9708726" lon="15.2313782"><ele>7.0</ele><time>2026-04-04T07:42:57.883Z</time></trkpt><trkpt lat="36.9709386" lon="15.2314989"><ele>9.0</ele><time>2026-04-04T07:42:59.882Z</time></trkpt><trkpt lat="36.97098" lon="15.2316712"><ele>11.0</ele><time>2026-04-04T07:43:01.883Z</time></trkpt><trkpt lat="36.9710284" lon="15.2318139"><ele>13.0</ele><time>2026-04-04T07:43:03.882Z</time></trkpt><trkpt lat="36.9710772" lon="15.2319377"><ele>15.0</ele><time>2026-04-04T07:43:05.882Z</time></trkpt><trkpt lat="36.9710969" lon="15.2320817"><ele>15.0</ele><time>2026-04-04T07:43:07.883Z</time></trkpt><trkpt lat="36.9711183" lon="15.2321659"><ele>15.0</ele><time>2026-04-04T07:43:08.882Z</time></trkpt><trkpt lat="36.9711398" lon="15.2322528"><ele>15.0</ele><time>2026-04-04T07:43:09.883Z</time></trkpt><trkpt lat="36.9711742" lon="15.2323458"><ele>15.0</ele><time>2026-04-04T07:43:10.883Z</time></trkpt><trkpt lat="36.9712055" lon="15.2324479"><ele>15.0</ele><time>2026-04-04T07:43:11.882Z</time></trkpt><trkpt lat="36.9712367" lon="15.2325571"><ele>15.0</ele><time>2026-04-04T07:43:12.883Z</time></trkpt><trkpt lat="36.9712714" lon="15.2326661"><ele>14.4</ele><time>2026-04-04T07:43:13.883Z</time></trkpt><trkpt lat="36.9713136" lon="15.2327805"><ele>13.8</ele><time>2026-04-04T07:43:14.883Z</time></trkpt><trkpt lat="36.9713592" lon="15.2329015"><ele>13.2</ele><time>2026-04-04T07:43:15.883Z</time></trkpt><trkpt lat="36.9714004" lon="15.2330296"><ele>12.6</ele><time>2026-04-04T07:43:16.882Z</time></trkpt><trkpt lat="36.9714455" lon="15.2331712"><ele>12.0</ele><time>2026-04-04T07:43:17.882Z</time></trkpt><trkpt lat="36.9714937" lon="15.2333053"><ele>12.399999999999999</ele><time>2026-04-04T07:43:18.883Z</time></trkpt><trkpt lat="36.9715357" lon="15.2334233"><ele>12.799999999999999</ele><time>2026-04-04T07:43:19.883Z</time></trkpt><trkpt lat="36.9715814" lon="15.2335376"><ele>13.2</ele><time>2026-04-04T07:43:20.881Z</time></trkpt><trkpt lat="36.9716393" lon="15.23365"><ele>13.6</ele><time>2026-04-04T07:43:21.882Z</time></trkpt><trkpt lat="36.9717041" lon="15.2337659"><ele>14.0</ele><time>2026-04-04T07:43:22.883Z</time></trkpt><trkpt lat="36.9717656" lon="15.2338805"><ele>13.0</ele><time>2026-04-04T07:43:23.883Z</time></trkpt><trkpt lat="36.9718144" lon="15.2339939"><ele>11.999999999999998</ele><time>2026-04-04T07:43:24.882Z</time></trkpt><trkpt lat="36.9718646" lon="15.2340905"><ele>11.0</ele><time>2026-04-04T07:43:25.883Z</time></trkpt><trkpt lat="36.9719126" lon="15.2341707"><ele>10.0</ele><time>2026-04-04T07:43:26.883Z</time></trkpt><trkpt lat="36.9719641" lon="15.2342389"><ele>9.0</ele><time>2026-04-04T07:43:27.883Z</time></trkpt><trkpt lat="36.9720863" lon="15.2343172"><ele>9.0</ele><time>2026-04-04T07:43:29.883Z</time></trkpt><trkpt lat="36.9721508" lon="15.2343359"><ele>9.0</ele><time>2026-04-04T07:43:30.883Z</time></trkpt><trkpt lat="36.9722144" lon="15.234359"><ele>9.0</ele><time>2026-04-04T07:43:31.882Z</time></trkpt><trkpt lat="36.9723062" lon="15.234409"><ele>9.0</ele><time>2026-04-04T07:43:33.882Z</time></trkpt><trkpt lat="36.9723271" lon="15.2344979"><ele>9.0</ele><time>2026-04-04T07:43:35.882Z</time></trkpt><trkpt lat="36.9723428" lon="15.2345803"><ele>9.0</ele><time>2026-04-04T07:43:37.882Z</time></trkpt><trkpt lat="36.9723586" lon="15.2346937"><ele>9.0</ele><time>2026-04-04T07:43:39.882Z</time></trkpt><trkpt lat="36.9723811" lon="15.2347738"><ele>9.0</ele><time>2026-04-04T07:43:41.883Z</time></trkpt><trkpt lat="36.9724101" lon="15.2348555"><ele>9.0</ele><time>2026-04-04T07:43:43.883Z</time></trkpt><trkpt lat="36.9724438" lon="15.2349613"><ele>9.0</ele><time>2026-04-04T07:43:46.883Z</time></trkpt><trkpt lat="36.9724538" lon="15.2350527"><ele>9.0</ele><time>2026-04-04T07:43:48.882Z</time></trkpt><trkpt lat="36.9725003" lon="15.2351449"><ele>9.0</ele><time>2026-04-04T07:43:51.883Z</time></trkpt><trkpt lat="36.9725579" lon="15.2352511"><ele>9.2</ele><time>2026-04-04T07:43:53.883Z</time></trkpt><trkpt lat="36.9725973" lon="15.2353158"><ele>9.4</ele><time>2026-04-04T07:43:54.883Z</time></trkpt><trkpt lat="36.9726374" lon="15.2354764"><ele>9.6</ele><time>2026-04-04T07:43:56.883Z</time></trkpt><trkpt lat="36.9726777" lon="15.2356121"><ele>9.8</ele><time>2026-04-04T07:43:58.883Z</time></trkpt><trkpt lat="36.9727006" lon="15.2356878"><ele>10.0</ele><time>2026-04-04T07:43:59.883Z</time></trkpt><trkpt lat="36.9727432" lon="15.2358106"><ele>10.0</ele><time>2026-04-04T07:44:01.883Z</time></trkpt><trkpt lat="36.9727596" lon="15.2359028"><ele>10.0</ele><time>2026-04-04T07:44:03.882Z</time></trkpt><trkpt lat="36.972753" lon="15.2359858"><ele>10.0</ele><time>2026-04-04T07:44:05.882Z</time></trkpt><trkpt lat="36.9727438" lon="15.2360992"><ele>10.0</ele><time>2026-04-04T07:44:07.883Z</time></trkpt><trkpt lat="36.9727312" lon="15.2362361"><ele>10.0</ele><time>2026-04-04T07:44:09.883Z</time></trkpt><trkpt lat="36.9727059" lon="15.2363498"><ele>10.0</ele><time>2026-04-04T07:44:11.883Z</time></trkpt><trkpt lat="36.9726883" lon="15.2364353"><ele>10.0</ele><time>2026-04-04T07:44:13.882Z</time></trkpt><trkpt lat="36.9726956" lon="15.236517"><ele>10.0</ele><time>2026-04-04T07:44:16.883Z</time></trkpt><trkpt lat="36.9727124" lon="15.2365996"><ele>10.0</ele><time>2026-04-04T07:44:18.881Z</time></trkpt><trkpt lat="36.9726965" lon="15.236724"><ele>10.0</ele><time>2026-04-04T07:44:20.883Z</time></trkpt><trkpt lat="36.9726793" lon="15.236814"><ele>10.0</ele><time>2026-04-04T07:44:22.882Z</time></trkpt><trkpt lat="36.9726948" lon="15.2369358"><ele>10.0</ele><time>2026-04-04T07:45:06.883Z</time></trkpt><trkpt lat="36.9726992" lon="15.2370476"><ele>10.0</ele><time>2026-04-04T07:45:09.883Z</time></trkpt><trkpt lat="36.9727089" lon="15.2371377"><ele>10.0</ele><time>2026-04-04T07:45:11.882Z</time></trkpt><trkpt lat="36.9727106" lon="15.2372451"><ele>10.0</ele><time>2026-04-04T07:45:14.883Z</time></trkpt><trkpt lat="36.9726734" lon="15.2373345"><ele>10.0</ele><time>2026-04-04T07:45:17.882Z</time></trkpt><trkpt lat="36.9726397" lon="15.2374267"><ele>10.0</ele><time>2026-04-04T07:45:19.883Z</time></trkpt><trkpt lat="36.9726558" lon="15.2375791"><ele>10.0</ele><time>2026-04-04T07:45:21.883Z</time></trkpt><trkpt lat="36.9726671" lon="15.2377252"><ele>10.0</ele><time>2026-04-04T07:45:23.882Z</time></trkpt><trkpt lat="36.9726813" lon="15.2378449"><ele>10.0</ele><time>2026-04-04T07:45:25.883Z</time></trkpt><trkpt lat="36.9726764" lon="15.2380286"><ele>10.0</ele><time>2026-04-04T07:45:27.883Z</time></trkpt><trkpt lat="36.9726841" lon="15.2381104"><ele>10.0</ele><time>2026-04-04T07:45:28.883Z</time></trkpt><trkpt lat="36.9727369" lon="15.2382029"><ele>10.0</ele><time>2026-04-04T07:45:30.883Z</time></trkpt><trkpt lat="36.9727736" lon="15.2382809"><ele>9.833333333333334</ele><time>2026-04-04T07:45:31.883Z</time></trkpt><trkpt lat="36.9728245" lon="15.2383531"><ele>9.666666666666668</ele><time>2026-04-04T07:45:32.883Z</time></trkpt><trkpt lat="36.9728829" lon="15.2384691"><ele>9.5</ele><time>2026-04-04T07:45:34.883Z</time></trkpt><trkpt lat="36.9729147" lon="15.2385437"><ele>9.333333333333334</ele><time>2026-04-04T07:45:35.882Z</time></trkpt><trkpt lat="36.9729103" lon="15.2386604"><ele>9.166666666666666</ele><time>2026-04-04T07:45:37.882Z</time></trkpt><trkpt lat="36.9728868" lon="15.2387724"><ele>9.0</ele><time>2026-04-04T07:45:39.882Z</time></trkpt><trkpt lat="36.9728775" lon="15.2388906"><ele>8.833333333333334</ele><time>2026-04-04T07:45:41.882Z</time></trkpt><trkpt lat="36.972861" lon="15.2390344"><ele>8.666666666666666</ele><time>2026-04-04T07:45:43.883Z</time></trkpt><trkpt lat="36.9728313" lon="15.2391212"><ele>8.5</ele><time>2026-04-04T07:45:44.881Z</time></trkpt><trkpt lat="36.9728071" lon="15.2392148"><ele>8.333333333333332</ele><time>2026-04-04T07:45:45.882Z</time></trkpt><trkpt lat="36.9727873" lon="15.2393433"><ele>8.166666666666666</ele><time>2026-04-04T07:45:47.882Z</time></trkpt><trkpt lat="36.9727647" lon="15.2394301"><ele>8.0</ele><time>2026-04-04T07:45:48.883Z</time></trkpt><trkpt lat="36.9727342" lon="15.2395292"><ele>7.999999999999999</ele><time>2026-04-04T07:45:49.882Z</time></trkpt><trkpt lat="36.9727051" lon="15.2396206"><ele>8.0</ele><time>2026-04-04T07:45:50.883Z</time></trkpt><trkpt lat="36.9726515" lon="15.239714"><ele>8.0</ele><time>2026-04-04T07:45:51.882Z</time></trkpt><trkpt lat="36.9726051" lon="15.2397933"><ele>8.0</ele><time>2026-04-04T07:45:52.883Z</time></trkpt><trkpt lat="36.972567" lon="15.2398645"><ele>7.999999999999999</ele><time>2026-04-04T07:45:53.882Z</time></trkpt><trkpt lat="36.9725256" lon="15.2399675"><ele>8.0</ele><time>2026-04-04T07:45:55.883Z</time></trkpt><trkpt lat="36.9725259" lon="15.2400887"><ele>7.166666666666666</ele><time>2026-04-04T07:45:57.883Z</time></trkpt><trkpt lat="36.9725035" lon="15.2402014"><ele>6.333333333333333</ele><time>2026-04-04T07:45:59.883Z</time></trkpt><trkpt lat="36.9724718" lon="15.2403045"><ele>5.5</ele><time>2026-04-04T07:46:01.882Z</time></trkpt><trkpt lat="36.9724134" lon="15.240385"><ele>4.666666666666666</ele><time>2026-04-04T07:46:04.883Z</time></trkpt><trkpt lat="36.9723411" lon="15.2404348"><ele>3.833333333333333</ele><time>2026-04-04T07:46:08.882Z</time></trkpt><trkpt lat="36.9722791" lon="15.2404953"><ele>3.0</ele><time>2026-04-04T07:46:10.883Z</time></trkpt><trkpt lat="36.9722284" lon="15.2405593"><ele>3.5</ele><time>2026-04-04T07:46:13.882Z</time></trkpt><trkpt lat="36.9721421" lon="15.2406373"><ele>4.0</ele><time>2026-04-04T07:46:15.882Z</time></trkpt><trkpt lat="36.9720852" lon="15.2406798"><ele>4.5</ele><time>2026-04-04T07:46:16.882Z</time></trkpt><trkpt lat="36.9720036" lon="15.2407102"><ele>5.0</ele><time>2026-04-04T07:46:17.883Z</time></trkpt><trkpt lat="36.9719185" lon="15.2407298"><ele>5.5</ele><time>2026-04-04T07:46:18.882Z</time></trkpt><trkpt lat="36.9718446" lon="15.2407408"><ele>6.0</ele><time>2026-04-04T07:46:19.882Z</time></trkpt><trkpt lat="36.9717688" lon="15.2407646"><ele>6.0</ele><time>2026-04-04T07:46:20.881Z</time></trkpt><trkpt lat="36.9716981" lon="15.240805"><ele>6.0</ele><time>2026-04-04T07:46:21.882Z</time></trkpt><trkpt lat="36.9716273" lon="15.2408502"><ele>6.0</ele><time>2026-04-04T07:46:22.883Z</time></trkpt><trkpt lat="36.9715654" lon="15.2408974"><ele>6.0</ele><time>2026-04-04T07:46:23.883Z</time></trkpt><trkpt lat="36.9715172" lon="15.2409481"><ele>6.0</ele><time>2026-04-04T07:46:24.883Z</time></trkpt><trkpt lat="36.9714482" lon="15.2410416"><ele>6.0</ele><time>2026-04-04T07:46:26.883Z</time></trkpt><trkpt lat="36.971385" lon="15.2411298"><ele>6.0</ele><time>2026-04-04T07:46:28.881Z</time></trkpt><trkpt lat="36.9713099" lon="15.2412119"><ele>6.0</ele><time>2026-04-04T07:46:30.883Z</time></trkpt><trkpt lat="36.9712588" lon="15.2413028"><ele>6.0</ele><time>2026-04-04T07:46:32.882Z</time></trkpt><trkpt lat="36.9712024" lon="15.2414017"><ele>6.0</ele><time>2026-04-04T07:46:34.883Z</time></trkpt><trkpt lat="36.9711515" lon="15.2415476"><ele>6.0</ele><time>2026-04-04T07:46:36.883Z</time></trkpt><trkpt lat="36.9711247" lon="15.2416324"><ele>5.999999999999999</ele><time>2026-04-04T07:46:37.883Z</time></trkpt><trkpt lat="36.9711012" lon="15.2417268"><ele>6.0</ele><time>2026-04-04T07:46:38.882Z</time></trkpt><trkpt lat="36.9710857" lon="15.2418153"><ele>6.0</ele><time>2026-04-04T07:46:39.883Z</time></trkpt><trkpt lat="36.9710784" lon="15.2418992"><ele>6.0</ele><time>2026-04-04T07:46:40.882Z</time></trkpt><trkpt lat="36.971086" lon="15.2419909"><ele>6.0</ele><time>2026-04-04T07:46:41.882Z</time></trkpt><trkpt lat="36.9710991" lon="15.2420684"><ele>5.999999999999999</ele><time>2026-04-04T07:46:42.882Z</time></trkpt><trkpt lat="36.9711371" lon="15.2421594"><ele>6.0</ele><time>2026-04-04T07:46:43.882Z</time></trkpt><trkpt lat="36.9711992" lon="15.242275"><ele>5.8</ele><time>2026-04-04T07:46:44.883Z</time></trkpt><trkpt lat="36.9712594" lon="15.2423888"><ele>5.6</ele><time>2026-04-04T07:46:45.883Z</time></trkpt><trkpt lat="36.9713109" lon="15.2424996"><ele>5.4</ele><time>2026-04-04T07:46:46.882Z</time></trkpt><trkpt lat="36.9713578" lon="15.2426003"><ele>5.2</ele><time>2026-04-04T07:46:47.883Z</time></trkpt><trkpt lat="36.9714036" lon="15.2426865"><ele>5.0</ele><time>2026-04-04T07:46:48.883Z</time></trkpt><trkpt lat="36.9714646" lon="15.2427998"><ele>5.0</ele><time>2026-04-04T07:46:50.882Z</time></trkpt><trkpt lat="36.9715413" lon="15.2428311"><ele>5.0</ele><time>2026-04-04T07:46:52.883Z</time></trkpt><trkpt lat="36.9716073" lon="15.2428351"><ele>5.0</ele><time>2026-04-04T07:46:54.882Z</time></trkpt><trkpt lat="36.9716845" lon="15.2428431"><ele>5.0</ele><time>2026-04-04T07:46:56.882Z</time></trkpt><trkpt lat="36.971784" lon="15.2428421"><ele>5.0</ele><time>2026-04-04T07:46:58.883Z</time></trkpt><trkpt lat="36.9718465" lon="15.2428294"><ele>5.0</ele><time>2026-04-04T07:47:00.882Z</time></trkpt><trkpt lat="36.9719149" lon="15.2428523"><ele>5.0</ele><time>2026-04-04T07:47:43.882Z</time></trkpt><trkpt lat="36.9718506" lon="15.2427904"><ele>5.0</ele><time>2026-04-04T07:47:47.883Z</time></trkpt><trkpt lat="36.9717792" lon="15.2427842"><ele>5.0</ele><time>2026-04-04T07:47:48.882Z</time></trkpt><trkpt lat="36.9716928" lon="15.2428055"><ele>5.0</ele><time>2026-04-04T07:47:50.882Z</time></trkpt><trkpt lat="36.9716422" lon="15.2428722"><ele>5.0</ele><time>2026-04-04T07:47:52.882Z</time></trkpt><trkpt lat="36.9716092" lon="15.2429842"><ele>5.0</ele><time>2026-04-04T07:47:54.882Z</time></trkpt><trkpt lat="36.9715759" lon="15.2430605"><ele>5.0</ele><time>2026-04-04T07:47:57.882Z</time></trkpt><trkpt lat="36.9715524" lon="15.2431361"><ele>5.0</ele><time>2026-04-04T07:48:01.882Z</time></trkpt><trkpt lat="36.9715489" lon="15.2432149"><ele>5.0</ele><time>2026-04-04T07:48:04.882Z</time></trkpt><trkpt lat="36.9716015" lon="15.2432592"><ele>5.0</ele><time>2026-04-04T07:48:35.882Z</time></trkpt><trkpt lat="36.9716665" lon="15.2432193"><ele>5.0</ele><time>2026-04-04T07:48:51.882Z</time></trkpt><trkpt lat="36.9717321" lon="15.2432412"><ele>5.0</ele><time>2026-04-04T07:48:55.881Z</time></trkpt><trkpt lat="36.9717585" lon="15.2433248"><ele>5.0</ele><time>2026-04-04T07:49:33.882Z</time></trkpt><trkpt lat="36.9717991" lon="15.2434065"><ele>5.0</ele><time>2026-04-04T07:49:35.882Z</time></trkpt><trkpt lat="36.9718565" lon="15.2434794"><ele>5.0</ele><time>2026-04-04T07:49:37.883Z</time></trkpt><trkpt lat="36.9719339" lon="15.2435697"><ele>5.0</ele><time>2026-04-04T07:49:39.882Z</time></trkpt><trkpt lat="36.9720158" lon="15.2436397"><ele>5.0</ele><time>2026-04-04T07:49:41.882Z</time></trkpt><trkpt lat="36.9721233" lon="15.243721"><ele>5.0</ele><time>2026-04-04T07:49:43.883Z</time></trkpt><trkpt lat="36.9721769" lon="15.2437728"><ele>5.0</ele><time>2026-04-04T07:49:44.883Z</time></trkpt><trkpt lat="36.9722306" lon="15.243897"><ele>5.0</ele><time>2026-04-04T07:49:46.882Z</time></trkpt><trkpt lat="36.9722417" lon="15.2440634"><ele>5.0</ele><time>2026-04-04T07:49:48.883Z</time></trkpt><trkpt lat="36.972247" lon="15.2441614"><ele>5.0</ele><time>2026-04-04T07:49:49.882Z</time></trkpt><trkpt lat="36.9722599" lon="15.2442443"><ele>5.0</ele><time>2026-04-04T07:49:50.882Z</time></trkpt><trkpt lat="36.9723287" lon="15.244363"><ele>5.0</ele><time>2026-04-04T07:49:52.883Z</time></trkpt><trkpt lat="36.9723821" lon="15.2444161"><ele>5.0</ele><time>2026-04-04T07:49:53.883Z</time></trkpt><trkpt lat="36.9724459" lon="15.2444749"><ele>5.0</ele><time>2026-04-04T07:49:54.882Z</time></trkpt><trkpt lat="36.9725082" lon="15.2445386"><ele>5.0</ele><time>2026-04-04T07:49:55.882Z</time></trkpt><trkpt lat="36.9725768" lon="15.2446256"><ele>5.0</ele><time>2026-04-04T07:49:56.882Z</time></trkpt><trkpt lat="36.9726322" lon="15.2447052"><ele>5.0</ele><time>2026-04-04T07:49:57.882Z</time></trkpt><trkpt lat="36.9726898" lon="15.2447795"><ele>4.833333333333334</ele><time>2026-04-04T07:49:58.882Z</time></trkpt><trkpt lat="36.9727443" lon="15.2448509"><ele>4.666666666666667</ele><time>2026-04-04T07:49:59.882Z</time></trkpt><trkpt lat="36.9727992" lon="15.2449317"><ele>4.5</ele><time>2026-04-04T07:50:00.882Z</time></trkpt><trkpt lat="36.9728478" lon="15.2450211"><ele>4.333333333333333</ele><time>2026-04-04T07:50:01.882Z</time></trkpt><trkpt lat="36.972891" lon="15.2451153"><ele>4.166666666666666</ele><time>2026-04-04T07:50:02.882Z</time></trkpt><trkpt lat="36.9729174" lon="15.2452217"><ele>4.0</ele><time>2026-04-04T07:50:03.883Z</time></trkpt><trkpt lat="36.9729449" lon="15.2453239"><ele>3.9999999999999996</ele><time>2026-04-04T07:50:04.882Z</time></trkpt><trkpt lat="36.9729783" lon="15.2454201"><ele>4.0</ele><time>2026-04-04T07:50:05.882Z</time></trkpt><trkpt lat="36.9730109" lon="15.2455138"><ele>4.0</ele><time>2026-04-04T07:50:06.883Z</time></trkpt><trkpt lat="36.9730491" lon="15.2456125"><ele>4.0</ele><time>2026-04-04T07:50:07.882Z</time></trkpt><trkpt lat="36.9730918" lon="15.2457141"><ele>3.9999999999999996</ele><time>2026-04-04T07:50:08.882Z</time></trkpt><trkpt lat="36.9731359" lon="15.2458214"><ele>4.0</ele><time>2026-04-04T07:50:09.882Z</time></trkpt><trkpt lat="36.9731745" lon="15.2459314"><ele>4.0</ele><time>2026-04-04T07:50:10.882Z</time></trkpt><trkpt lat="36.9732022" lon="15.2460614"><ele>4.0</ele><time>2026-04-04T07:50:11.883Z</time></trkpt><trkpt lat="36.9732369" lon="15.2461779"><ele>4.0</ele><time>2026-04-04T07:50:12.882Z</time></trkpt><trkpt lat="36.973268" lon="15.2462773"><ele>4.0</ele><time>2026-04-04T07:50:13.881Z</time></trkpt><trkpt lat="36.9733137" lon="15.2463564"><ele>4.0</ele><time>2026-04-04T07:50:14.882Z</time></trkpt><trkpt lat="36.9733597" lon="15.246459"><ele>4.4</ele><time>2026-04-04T07:50:15.882Z</time></trkpt><trkpt lat="36.9734027" lon="15.2465796"><ele>4.800000000000001</ele><time>2026-04-04T07:50:16.882Z</time></trkpt><trkpt lat="36.9734342" lon="15.2466982"><ele>5.199999999999999</ele><time>2026-04-04T07:50:17.882Z</time></trkpt><trkpt lat="36.9734656" lon="15.2468133"><ele>5.6</ele><time>2026-04-04T07:50:18.881Z</time></trkpt><trkpt lat="36.9734664" lon="15.2468993"><ele>6.0</ele><time>2026-04-04T07:50:19.883Z</time></trkpt><trkpt lat="36.9734978" lon="15.24699"><ele>6.0</ele><time>2026-04-04T07:50:20.882Z</time></trkpt><trkpt lat="36.9735256" lon="15.2470846"><ele>6.0</ele><time>2026-04-04T07:50:21.882Z</time></trkpt><trkpt lat="36.9735738" lon="15.2471845"><ele>6.0</ele><time>2026-04-04T07:50:22.883Z</time></trkpt><trkpt lat="36.9736065" lon="15.247267"><ele>6.0</ele><time>2026-04-04T07:50:23.882Z</time></trkpt><trkpt lat="36.9736319" lon="15.2473534"><ele>6.0</ele><time>2026-04-04T07:50:24.882Z</time></trkpt><trkpt lat="36.9736581" lon="15.2474309"><ele>6.0</ele><time>2026-04-04T07:50:25.882Z</time></trkpt><trkpt lat="36.9736512" lon="15.2475724"><ele>6.0</ele><time>2026-04-04T07:50:27.882Z</time></trkpt><trkpt lat="36.9736299" lon="15.2476527"><ele>6.0</ele><time>2026-04-04T07:50:28.882Z</time></trkpt><trkpt lat="36.9736168" lon="15.2477566"><ele>6.0</ele><time>2026-04-04T07:50:29.883Z</time></trkpt><trkpt lat="36.9736094" lon="15.2478824"><ele>6.0</ele><time>2026-04-04T07:50:30.883Z</time></trkpt><trkpt lat="36.9735901" lon="15.2480046"><ele>6.0</ele><time>2026-04-04T07:50:31.882Z</time></trkpt><trkpt lat="36.9735621" lon="15.2481301"><ele>6.0</ele><time>2026-04-04T07:50:32.881Z</time></trkpt><trkpt lat="36.9735219" lon="15.2482793"><ele>6.0</ele><time>2026-04-04T07:50:33.882Z</time></trkpt><trkpt lat="36.9734924" lon="15.248397"><ele>6.0</ele><time>2026-04-04T07:50:34.882Z</time></trkpt><trkpt lat="36.9734773" lon="15.2484951"><ele>6.0</ele><time>2026-04-04T07:50:35.882Z</time></trkpt><trkpt lat="36.9734671" lon="15.2485899"><ele>6.0</ele><time>2026-04-04T07:50:36.883Z</time></trkpt><trkpt lat="36.9734819" lon="15.2486838"><ele>6.0</ele><time>2026-04-04T07:50:37.882Z</time></trkpt><trkpt lat="36.9734981" lon="15.2487714"><ele>6.0</ele><time>2026-04-04T07:50:38.883Z</time></trkpt><trkpt lat="36.9735152" lon="15.2488755"><ele>6.0</ele><time>2026-04-04T07:50:39.882Z</time></trkpt><trkpt lat="36.9735261" lon="15.2489721"><ele>6.0</ele><time>2026-04-04T07:50:40.882Z</time></trkpt><trkpt lat="36.9734919" lon="15.249119"><ele>6.0</ele><time>2026-04-04T07:50:42.882Z</time></trkpt><trkpt lat="36.9734799" lon="15.2492116"><ele>6.0</ele><time>2026-04-04T07:50:43.881Z</time></trkpt><trkpt lat="36.9734659" lon="15.2493224"><ele>6.0</ele><time>2026-04-04T07:50:44.883Z</time></trkpt><trkpt lat="36.9734448" lon="15.2494421"><ele>6.0</ele><time>2026-04-04T07:50:45.882Z</time></trkpt><trkpt lat="36.9734193" lon="15.2495764"><ele>6.0</ele><time>2026-04-04T07:50:46.883Z</time></trkpt><trkpt lat="36.9733871" lon="15.2497049"><ele>6.0</ele><time>2026-04-04T07:50:47.882Z</time></trkpt><trkpt lat="36.9733607" lon="15.2498152"><ele>6.0</ele><time>2026-04-04T07:50:48.882Z</time></trkpt><trkpt lat="36.9733436" lon="15.2499185"><ele>6.0</ele><time>2026-04-04T07:50:49.882Z</time></trkpt><trkpt lat="36.9733518" lon="15.2500914"><ele>6.0</ele><time>2026-04-04T07:50:51.882Z</time></trkpt><trkpt lat="36.9733552" lon="15.2501928"><ele>6.0</ele><time>2026-04-04T07:50:52.882Z</time></trkpt><trkpt lat="36.9733675" lon="15.2503068"><ele>6.0</ele><time>2026-04-04T07:50:53.882Z</time></trkpt><trkpt lat="36.9733762" lon="15.2504367"><ele>6.0</ele><time>2026-04-04T07:50:54.882Z</time></trkpt><trkpt lat="36.9733791" lon="15.2505599"><ele>5.3999999999999995</ele><time>2026-04-04T07:50:55.882Z</time></trkpt><trkpt lat="36.9733836" lon="15.2506769"><ele>4.8</ele><time>2026-04-04T07:50:56.883Z</time></trkpt><trkpt lat="36.9733784" lon="15.2507732"><ele>4.199999999999999</ele><time>2026-04-04T07:50:57.883Z</time></trkpt><trkpt lat="36.973379" lon="15.2508924"><ele>3.5999999999999996</ele><time>2026-04-04T07:50:58.882Z</time></trkpt><trkpt lat="36.9733819" lon="15.2510093"><ele>3.0</ele><time>2026-04-04T07:50:59.882Z</time></trkpt><trkpt lat="36.9733948" lon="15.2511452"><ele>3.0</ele><time>2026-04-04T07:51:00.882Z</time></trkpt><trkpt lat="36.9733932" lon="15.2512637"><ele>3.0</ele><time>2026-04-04T07:51:01.883Z</time></trkpt><trkpt lat="36.9733886" lon="15.2513821"><ele>3.0</ele><time>2026-04-04T07:51:02.881Z</time></trkpt><trkpt lat="36.9733922" lon="15.2515036"><ele>3.0</ele><time>2026-04-04T07:51:03.881Z</time></trkpt><trkpt lat="36.9734" lon="15.251623"><ele>3.0</ele><time>2026-04-04T07:51:04.883Z</time></trkpt><trkpt lat="36.9733954" lon="15.2517253"><ele>3.3333333333333335</ele><time>2026-04-04T07:51:05.881Z</time></trkpt><trkpt lat="36.9733829" lon="15.2518072"><ele>3.666666666666667</ele><time>2026-04-04T07:51:06.882Z</time></trkpt><trkpt lat="36.9733667" lon="15.2519415"><ele>4.0</ele><time>2026-04-04T07:51:08.882Z</time></trkpt><trkpt lat="36.9733972" lon="15.2520784"><ele>4.333333333333334</ele><time>2026-04-04T07:51:10.882Z</time></trkpt><trkpt lat="36.9734207" lon="15.2521582"><ele>4.666666666666667</ele><time>2026-04-04T07:51:11.881Z</time></trkpt><trkpt lat="36.9734512" lon="15.252228"><ele>5.0</ele><time>2026-04-04T07:51:12.882Z</time></trkpt><trkpt lat="36.973478" lon="15.2523103"><ele>5.166666666666667</ele><time>2026-04-04T07:51:13.882Z</time></trkpt><trkpt lat="36.9734945" lon="15.2524058"><ele>5.333333333333334</ele><time>2026-04-04T07:51:14.882Z</time></trkpt><trkpt lat="36.9734914" lon="15.252508"><ele>5.5</ele><time>2026-04-04T07:51:15.882Z</time></trkpt><trkpt lat="36.9734883" lon="15.2526187"><ele>5.666666666666667</ele><time>2026-04-04T07:51:16.881Z</time></trkpt><trkpt lat="36.9734897" lon="15.252734"><ele>5.833333333333333</ele><time>2026-04-04T07:51:17.882Z</time></trkpt><trkpt lat="36.9734782" lon="15.2528434"><ele>6.0</ele><time>2026-04-04T07:51:18.883Z</time></trkpt><trkpt lat="36.9734871" lon="15.2529357"><ele>6.0</ele><time>2026-04-04T07:51:19.882Z</time></trkpt><trkpt lat="36.9734926" lon="15.2530185"><ele>6.0</ele><time>2026-04-04T07:51:20.881Z</time></trkpt><trkpt lat="36.9734831" lon="15.2531714"><ele>6.0</ele><time>2026-04-04T07:51:22.882Z</time></trkpt><trkpt lat="36.9734811" lon="15.2532587"><ele>6.0</ele><time>2026-04-04T07:51:23.882Z</time></trkpt><trkpt lat="36.9734773" lon="15.2533502"><ele>6.0</ele><time>2026-04-04T07:51:24.881Z</time></trkpt><trkpt lat="36.9734801" lon="15.2534553"><ele>6.0</ele><time>2026-04-04T07:51:25.882Z</time></trkpt><trkpt lat="36.9734878" lon="15.2535607"><ele>5.6</ele><time>2026-04-04T07:51:26.882Z</time></trkpt><trkpt lat="36.9735167" lon="15.2536742"><ele>5.199999999999999</ele><time>2026-04-04T07:51:27.881Z</time></trkpt><trkpt lat="36.9735515" lon="15.2537904"><ele>4.800000000000001</ele><time>2026-04-04T07:51:28.882Z</time></trkpt><trkpt lat="36.9735876" lon="15.2539028"><ele>4.4</ele><time>2026-04-04T07:51:29.882Z</time></trkpt><trkpt lat="36.9736224" lon="15.2540117"><ele>4.0</ele><time>2026-04-04T07:51:30.882Z</time></trkpt><trkpt lat="36.9736571" lon="15.2541281"><ele>3.8000000000000003</ele><time>2026-04-04T07:51:31.882Z</time></trkpt><trkpt lat="36.9736899" lon="15.2542517"><ele>3.6000000000000005</ele><time>2026-04-04T07:51:32.882Z</time></trkpt><trkpt lat="36.9737181" lon="15.2543687"><ele>3.4</ele><time>2026-04-04T07:51:33.882Z</time></trkpt><trkpt lat="36.9737279" lon="15.2544734"><ele>3.2</ele><time>2026-04-04T07:51:34.882Z</time></trkpt><trkpt lat="36.973733" lon="15.2545834"><ele>3.0</ele><time>2026-04-04T07:51:35.881Z</time></trkpt><trkpt lat="36.9737399" lon="15.2547017"><ele>3.3333333333333335</ele><time>2026-04-04T07:51:36.882Z</time></trkpt><trkpt lat="36.9737452" lon="15.2548043"><ele>3.666666666666667</ele><time>2026-04-04T07:51:37.882Z</time></trkpt><trkpt lat="36.9737506" lon="15.2549108"><ele>4.0</ele><time>2026-04-04T07:51:38.883Z</time></trkpt><trkpt lat="36.9737534" lon="15.2550439"><ele>4.333333333333334</ele><time>2026-04-04T07:51:40.881Z</time></trkpt><trkpt lat="36.9737759" lon="15.2551598"><ele>4.666666666666667</ele><time>2026-04-04T07:51:42.882Z</time></trkpt><trkpt lat="36.9738115" lon="15.25525"><ele>5.0</ele><time>2026-04-04T07:51:44.882Z</time></trkpt><trkpt lat="36.9738782" lon="15.2553501"><ele>5.0</ele><time>2026-04-04T07:51:46.882Z</time></trkpt><trkpt lat="36.9739051" lon="15.2554786"><ele>5.0</ele><time>2026-04-04T07:51:48.882Z</time></trkpt><trkpt lat="36.9739155" lon="15.2555881"><ele>5.0</ele><time>2026-04-04T07:51:50.882Z</time></trkpt><trkpt lat="36.9739439" lon="15.2557027"><ele>5.0</ele><time>2026-04-04T07:51:52.882Z</time></trkpt><trkpt lat="36.9739557" lon="15.25583"><ele>5.0</ele><time>2026-04-04T07:51:54.882Z</time></trkpt><trkpt lat="36.9739361" lon="15.2559268"><ele>5.0</ele><time>2026-04-04T07:51:56.882Z</time></trkpt><trkpt lat="36.9739228" lon="15.2560528"><ele>5.0</ele><time>2026-04-04T07:51:58.881Z</time></trkpt><trkpt lat="36.9738957" lon="15.2561981"><ele>5.0</ele><time>2026-04-04T07:52:00.882Z</time></trkpt><trkpt lat="36.9738779" lon="15.2563337"><ele>5.0</ele><time>2026-04-04T07:52:02.881Z</time></trkpt><trkpt lat="36.9738549" lon="15.2564886"><ele>5.2</ele><time>2026-04-04T07:52:04.882Z</time></trkpt><trkpt lat="36.9738349" lon="15.2566127"><ele>5.4</ele><time>2026-04-04T07:52:06.881Z</time></trkpt><trkpt lat="36.9738122" lon="15.256735"><ele>5.6</ele><time>2026-04-04T07:52:08.881Z</time></trkpt><trkpt lat="36.9738186" lon="15.2568582"><ele>5.8</ele><time>2026-04-04T07:52:10.881Z</time></trkpt><trkpt lat="36.9738229" lon="15.2570103"><ele>6.0</ele><time>2026-04-04T07:52:12.883Z</time></trkpt><trkpt lat="36.9738143" lon="15.2571595"><ele>6.0</ele><time>2026-04-04T07:52:14.882Z</time></trkpt><trkpt lat="36.9738133" lon="15.2572411"><ele>6.0</ele><time>2026-04-04T07:52:15.881Z</time></trkpt><trkpt lat="36.9738139" lon="15.2573237"><ele>6.0</ele><time>2026-04-04T07:52:16.881Z</time></trkpt><trkpt lat="36.9738399" lon="15.2574025"><ele>6.0</ele><time>2026-04-04T07:52:17.881Z</time></trkpt><trkpt lat="36.9738367" lon="15.2575391"><ele>6.0</ele><time>2026-04-04T07:52:19.882Z</time></trkpt><trkpt lat="36.9738466" lon="15.2576445"><ele>6.0</ele><time>2026-04-04T07:52:21.881Z</time></trkpt><trkpt lat="36.9738988" lon="15.2577672"><ele>6.166666666666667</ele><time>2026-04-04T07:52:23.882Z</time></trkpt><trkpt lat="36.9739191" lon="15.2578544"><ele>6.333333333333334</ele><time>2026-04-04T07:52:24.882Z</time></trkpt><trkpt lat="36.9739523" lon="15.257962"><ele>6.5</ele><time>2026-04-04T07:52:25.882Z</time></trkpt><trkpt lat="36.9739953" lon="15.2580617"><ele>6.666666666666667</ele><time>2026-04-04T07:52:26.882Z</time></trkpt><trkpt lat="36.9740499" lon="15.2581294"><ele>6.833333333333334</ele><time>2026-04-04T07:52:27.882Z</time></trkpt><trkpt lat="36.9740914" lon="15.2582037"><ele>7.0</ele><time>2026-04-04T07:52:28.882Z</time></trkpt><trkpt lat="36.9741235" lon="15.2582906"><ele>6.666666666666667</ele><time>2026-04-04T07:52:29.882Z</time></trkpt><trkpt lat="36.9741557" lon="15.258369"><ele>6.333333333333334</ele><time>2026-04-04T07:52:30.881Z</time></trkpt><trkpt lat="36.9741914" lon="15.2584588"><ele>6.0</ele><time>2026-04-04T07:52:31.881Z</time></trkpt><trkpt lat="36.9742362" lon="15.2585508"><ele>5.666666666666667</ele><time>2026-04-04T07:52:32.882Z</time></trkpt><trkpt lat="36.9742727" lon="15.2586696"><ele>5.333333333333334</ele><time>2026-04-04T07:52:33.882Z</time></trkpt><trkpt lat="36.9743009" lon="15.2587731"><ele>5.0</ele><time>2026-04-04T07:52:34.881Z</time></trkpt><trkpt lat="36.9743421" lon="15.2588498"><ele>5.666666666666667</ele><time>2026-04-04T07:52:35.882Z</time></trkpt><trkpt lat="36.9743846" lon="15.2589408"><ele>6.333333333333334</ele><time>2026-04-04T07:52:36.882Z</time></trkpt><trkpt lat="36.9744322" lon="15.2590363"><ele>7.0</ele><time>2026-04-04T07:52:37.881Z</time></trkpt><trkpt lat="36.9744692" lon="15.2591149"><ele>7.666666666666667</ele><time>2026-04-04T07:52:38.882Z</time></trkpt><trkpt lat="36.9745088" lon="15.2591923"><ele>8.333333333333334</ele><time>2026-04-04T07:52:39.882Z</time></trkpt><trkpt lat="36.9745418" lon="15.2592625"><ele>9.0</ele><time>2026-04-04T07:52:40.881Z</time></trkpt><trkpt lat="36.9745923" lon="15.2593598"><ele>9.142857142857144</ele><time>2026-04-04T07:52:42.882Z</time></trkpt><trkpt lat="36.9746478" lon="15.259435"><ele>9.285714285714286</ele><time>2026-04-04T07:52:45.882Z</time></trkpt><trkpt lat="36.9746768" lon="15.2595108"><ele>9.428571428571429</ele><time>2026-04-04T07:52:47.882Z</time></trkpt><trkpt lat="36.9746671" lon="15.2596071"><ele>9.571428571428573</ele><time>2026-04-04T07:52:50.882Z</time></trkpt><trkpt lat="36.97463" lon="15.2596721"><ele>9.714285714285715</ele><time>2026-04-04T07:52:53.882Z</time></trkpt><trkpt lat="36.9746263" lon="15.2597674"><ele>9.857142857142858</ele><time>2026-04-04T07:52:58.882Z</time></trkpt><trkpt lat="36.9746096" lon="15.2598528"><ele>10.0</ele><time>2026-04-04T07:53:01.882Z</time></trkpt><trkpt lat="36.9745472" lon="15.2598719"><ele>10.0</ele><time>2026-04-04T07:53:05.882Z</time></trkpt><trkpt lat="36.9744867" lon="15.2598333"><ele>10.0</ele><time>2026-04-04T07:56:37.88Z</time></trkpt><trkpt lat="36.9745467" lon="15.2597682"><ele>10.0</ele><time>2026-04-04T07:59:08.881Z</time></trkpt><trkpt lat="36.9746287" lon="15.2597405"><ele>10.0</ele><time>2026-04-04T07:59:11.88Z</time></trkpt><trkpt lat="36.974682" lon="15.2596825"><ele>10.0</ele><time>2026-04-04T07:59:27.881Z</time></trkpt><trkpt lat="36.9747476" lon="15.2595979"><ele>10.0</ele><time>2026-04-04T07:59:30.881Z</time></trkpt><trkpt lat="36.9747897" lon="15.2595202"><ele>10.0</ele><time>2026-04-04T07:59:32.881Z</time></trkpt><trkpt lat="36.9748238" lon="15.2594041"><ele>10.0</ele><time>2026-04-04T07:59:35.881Z</time></trkpt><trkpt lat="36.9748541" lon="15.2593017"><ele>10.0</ele><time>2026-04-04T07:59:37.881Z</time></trkpt><trkpt lat="36.9749215" lon="15.2591582"><ele>10.0</ele><time>2026-04-04T07:59:39.88Z</time></trkpt><trkpt lat="36.9749556" lon="15.2590829"><ele>10.0</ele><time>2026-04-04T07:59:40.88Z</time></trkpt><trkpt lat="36.9749893" lon="15.2589986"><ele>10.8</ele><time>2026-04-04T07:59:41.881Z</time></trkpt><trkpt lat="36.9750279" lon="15.25892"><ele>11.6</ele><time>2026-04-04T07:59:42.88Z</time></trkpt><trkpt lat="36.9750687" lon="15.2588539"><ele>12.399999999999999</ele><time>2026-04-04T07:59:43.88Z</time></trkpt><trkpt lat="36.9751469" lon="15.2587445"><ele>13.2</ele><time>2026-04-04T07:59:45.881Z</time></trkpt><trkpt lat="36.9752099" lon="15.2586125"><ele>14.0</ele><time>2026-04-04T07:59:47.88Z</time></trkpt><trkpt lat="36.9752672" lon="15.2584655"><ele>14.0</ele><time>2026-04-04T07:59:49.881Z</time></trkpt><trkpt lat="36.9752932" lon="15.2583703"><ele>13.999999999999998</ele><time>2026-04-04T07:59:50.881Z</time></trkpt><trkpt lat="36.9754126" lon="15.258262"><ele>13.999999999999998</ele><time>2026-04-04T07:59:52.881Z</time></trkpt><trkpt lat="36.9755039" lon="15.258214"><ele>14.0</ele><time>2026-04-04T07:59:53.881Z</time></trkpt><trkpt lat="36.9755724" lon="15.2581821"><ele>14.0</ele><time>2026-04-04T07:59:54.881Z</time></trkpt><trkpt lat="36.9756804" lon="15.2581298"><ele>14.000000000000002</ele><time>2026-04-04T07:59:56.88Z</time></trkpt><trkpt lat="36.9757823" lon="15.2581046"><ele>14.0</ele><time>2026-04-04T07:59:58.881Z</time></trkpt><trkpt lat="36.9758467" lon="15.2581104"><ele>14.0</ele><time>2026-04-04T07:59:59.88Z</time></trkpt><trkpt lat="36.9759628" lon="15.2580924"><ele>14.0</ele><time>2026-04-04T08:00:01.881Z</time></trkpt><trkpt lat="36.976023" lon="15.2580594"><ele>14.000000000000002</ele><time>2026-04-04T08:00:02.881Z</time></trkpt><trkpt lat="36.976086" lon="15.2580437"><ele>14.0</ele><time>2026-04-04T08:00:03.881Z</time></trkpt><trkpt lat="36.9761524" lon="15.2580403"><ele>14.000000000000002</ele><time>2026-04-04T08:00:04.881Z</time></trkpt><trkpt lat="36.976231" lon="15.2580522"><ele>14.0</ele><time>2026-04-04T08:00:05.881Z</time></trkpt><trkpt lat="36.9762978" lon="15.2580686"><ele>14.0</ele><time>2026-04-04T08:00:06.88Z</time></trkpt><trkpt lat="36.9764017" lon="15.2581024"><ele>14.0</ele><time>2026-04-04T08:00:08.881Z</time></trkpt><trkpt lat="36.9764995" lon="15.2581271"><ele>14.000000000000002</ele><time>2026-04-04T08:00:10.881Z</time></trkpt><trkpt lat="36.9765699" lon="15.2581597"><ele>14.0</ele><time>2026-04-04T08:00:12.881Z</time></trkpt><trkpt lat="36.9766375" lon="15.2581981"><ele>13.666666666666668</ele><time>2026-04-04T08:00:14.881Z</time></trkpt><trkpt lat="36.976684" lon="15.258252"><ele>13.333333333333334</ele><time>2026-04-04T08:00:15.881Z</time></trkpt><trkpt lat="36.9767615" lon="15.2583555"><ele>13.0</ele><time>2026-04-04T08:00:17.881Z</time></trkpt><trkpt lat="36.9767868" lon="15.2584347"><ele>12.666666666666668</ele><time>2026-04-04T08:00:19.88Z</time></trkpt><trkpt lat="36.9767963" lon="15.2585377"><ele>12.333333333333334</ele><time>2026-04-04T08:00:21.881Z</time></trkpt><trkpt lat="36.9768133" lon="15.2586321"><ele>12.0</ele><time>2026-04-04T08:00:23.88Z</time></trkpt><trkpt lat="36.976857" lon="15.2586947"><ele>11.166666666666666</ele><time>2026-04-04T08:00:26.881Z</time></trkpt><trkpt lat="36.976935" lon="15.2586423"><ele>10.333333333333334</ele><time>2026-04-04T08:00:30.88Z</time></trkpt><trkpt lat="36.9770024" lon="15.2585973"><ele>9.5</ele><time>2026-04-04T08:00:32.88Z</time></trkpt><trkpt lat="36.9770901" lon="15.2586042"><ele>8.666666666666668</ele><time>2026-04-04T08:00:34.881Z</time></trkpt><trkpt lat="36.9771659" lon="15.258624"><ele>7.833333333333334</ele><time>2026-04-04T08:00:37.88Z</time></trkpt><trkpt lat="36.9772461" lon="15.2586069"><ele>7.0</ele><time>2026-04-04T08:00:46.881Z</time></trkpt><trkpt lat="36.9773548" lon="15.2586715"><ele>7.000000000000001</ele><time>2026-04-04T08:00:48.881Z</time></trkpt><trkpt lat="36.9774023" lon="15.2587334"><ele>7.0</ele><time>2026-04-04T08:00:49.881Z</time></trkpt><trkpt lat="36.9774371" lon="15.2587997"><ele>7.0</ele><time>2026-04-04T08:00:50.881Z</time></trkpt><trkpt lat="36.9774668" lon="15.2588782"><ele>7.0</ele><time>2026-04-04T08:00:51.881Z</time></trkpt><trkpt lat="36.977498" lon="15.2589506"><ele>7.000000000000001</ele><time>2026-04-04T08:00:52.881Z</time></trkpt><trkpt lat="36.9775577" lon="15.2590715"><ele>7.0</ele><time>2026-04-04T08:00:54.881Z</time></trkpt><trkpt lat="36.9776426" lon="15.2591321"><ele>6.199999999999999</ele><time>2026-04-04T08:00:56.881Z</time></trkpt><trkpt lat="36.9777363" lon="15.2591781"><ele>5.3999999999999995</ele><time>2026-04-04T08:00:58.88Z</time></trkpt><trkpt lat="36.9778269" lon="15.2592192"><ele>4.6</ele><time>2026-04-04T08:01:00.881Z</time></trkpt><trkpt lat="36.9779377" lon="15.2592525"><ele>3.8</ele><time>2026-04-04T08:01:02.881Z</time></trkpt><trkpt lat="36.9780517" lon="15.2592826"><ele>3.0</ele><time>2026-04-04T08:01:04.88Z</time></trkpt><trkpt lat="36.9781644" lon="15.2593145"><ele>3.0</ele><time>2026-04-04T08:01:06.881Z</time></trkpt><trkpt lat="36.9782696" lon="15.2593448"><ele>3.0</ele><time>2026-04-04T08:01:08.881Z</time></trkpt><trkpt lat="36.978356" lon="15.2593592"><ele>3.0</ele><time>2026-04-04T08:01:10.88Z</time></trkpt><trkpt lat="36.97841" lon="15.2592595"><ele>3.0</ele><time>2026-04-04T08:01:13.881Z</time></trkpt><trkpt lat="36.9784413" lon="15.2591277"><ele>3.0</ele><time>2026-04-04T08:01:15.88Z</time></trkpt><trkpt lat="36.9784616" lon="15.2589829"><ele>3.0</ele><time>2026-04-04T08:01:17.881Z</time></trkpt><trkpt lat="36.9785081" lon="15.2588453"><ele>3.0</ele><time>2026-04-04T08:01:19.88Z</time></trkpt><trkpt lat="36.9785547" lon="15.2587302"><ele>3.0</ele><time>2026-04-04T08:01:21.881Z</time></trkpt><trkpt lat="36.9785924" lon="15.2586167"><ele>3.0</ele><time>2026-04-04T08:01:23.881Z</time></trkpt><trkpt lat="36.978645" lon="15.2584824"><ele>3.0</ele><time>2026-04-04T08:01:25.88Z</time></trkpt><trkpt lat="36.9787028" lon="15.2583519"><ele>2.9999999999999996</ele><time>2026-04-04T08:01:27.88Z</time></trkpt><trkpt lat="36.9787292" lon="15.2582801"><ele>3.0</ele><time>2026-04-04T08:01:28.881Z</time></trkpt><trkpt lat="36.9787594" lon="15.258209"><ele>3.0</ele><time>2026-04-04T08:01:29.881Z</time></trkpt><trkpt lat="36.9787878" lon="15.2581305"><ele>3.0</ele><time>2026-04-04T08:01:30.881Z</time></trkpt><trkpt lat="36.9788234" lon="15.2580486"><ele>3.0</ele><time>2026-04-04T08:01:31.88Z</time></trkpt><trkpt lat="36.9788599" lon="15.257964"><ele>2.9999999999999996</ele><time>2026-04-04T08:01:32.881Z</time></trkpt><trkpt lat="36.9788891" lon="15.2578815"><ele>3.0</ele><time>2026-04-04T08:01:33.881Z</time></trkpt><trkpt lat="36.9789137" lon="15.2577904"><ele>3.0</ele><time>2026-04-04T08:01:34.881Z</time></trkpt><trkpt lat="36.9789405" lon="15.2577051"><ele>3.0</ele><time>2026-04-04T08:01:35.881Z</time></trkpt><trkpt lat="36.9789726" lon="15.2576194"><ele>3.0</ele><time>2026-04-04T08:01:36.881Z</time></trkpt><trkpt lat="36.9790214" lon="15.2575096"><ele>3.0</ele><time>2026-04-04T08:01:37.881Z</time></trkpt><trkpt lat="36.9790662" lon="15.2574028"><ele>3.0</ele><time>2026-04-04T08:01:38.88Z</time></trkpt><trkpt lat="36.9791097" lon="15.257298"><ele>3.0</ele><time>2026-04-04T08:01:39.881Z</time></trkpt><trkpt lat="36.9791532" lon="15.2571913"><ele>3.4</ele><time>2026-04-04T08:01:40.881Z</time></trkpt><trkpt lat="36.9792017" lon="15.2570867"><ele>3.8</ele><time>2026-04-04T08:01:41.881Z</time></trkpt><trkpt lat="36.9792542" lon="15.256988"><ele>4.2</ele><time>2026-04-04T08:01:42.881Z</time></trkpt><trkpt lat="36.9793075" lon="15.2568905"><ele>4.6</ele><time>2026-04-04T08:01:43.88Z</time></trkpt><trkpt lat="36.9793598" lon="15.2567926"><ele>5.0</ele><time>2026-04-04T08:01:44.881Z</time></trkpt><trkpt lat="36.9794111" lon="15.2566885"><ele>5.0</ele><time>2026-04-04T08:01:45.88Z</time></trkpt><trkpt lat="36.9794681" lon="15.256589"><ele>5.0</ele><time>2026-04-04T08:01:46.881Z</time></trkpt><trkpt lat="36.9795221" lon="15.256494"><ele>5.0</ele><time>2026-04-04T08:01:47.88Z</time></trkpt><trkpt lat="36.979569" lon="15.2563967"><ele>5.0</ele><time>2026-04-04T08:01:48.881Z</time></trkpt><trkpt lat="36.9796122" lon="15.25631"><ele>5.0</ele><time>2026-04-04T08:01:49.881Z</time></trkpt><trkpt lat="36.9796461" lon="15.2562193"><ele>5.0</ele><time>2026-04-04T08:01:50.881Z</time></trkpt><trkpt lat="36.9796773" lon="15.2561239"><ele>4.833333333333334</ele><time>2026-04-04T08:01:51.879Z</time></trkpt><trkpt lat="36.9797053" lon="15.2560291"><ele>4.666666666666667</ele><time>2026-04-04T08:01:52.881Z</time></trkpt><trkpt lat="36.9797426" lon="15.255939"><ele>4.5</ele><time>2026-04-04T08:01:53.881Z</time></trkpt><trkpt lat="36.9797862" lon="15.2558459"><ele>4.333333333333333</ele><time>2026-04-04T08:01:54.881Z</time></trkpt><trkpt lat="36.9798253" lon="15.2557563"><ele>4.166666666666666</ele><time>2026-04-04T08:01:55.88Z</time></trkpt><trkpt lat="36.9798596" lon="15.255675"><ele>4.0</ele><time>2026-04-04T08:01:56.881Z</time></trkpt><trkpt lat="36.9799369" lon="15.2555552"><ele>4.4</ele><time>2026-04-04T08:01:58.88Z</time></trkpt><trkpt lat="36.9800276" lon="15.2554783"><ele>4.800000000000001</ele><time>2026-04-04T08:02:00.88Z</time></trkpt><trkpt lat="36.9801085" lon="15.2554"><ele>5.199999999999999</ele><time>2026-04-04T08:02:02.881Z</time></trkpt><trkpt lat="36.9801708" lon="15.2552815"><ele>5.6</ele><time>2026-04-04T08:02:04.88Z</time></trkpt><trkpt lat="36.9802024" lon="15.2551366"><ele>6.0</ele><time>2026-04-04T08:02:06.881Z</time></trkpt><trkpt lat="36.9802279" lon="15.2550642"><ele>5.999999999999999</ele><time>2026-04-04T08:02:07.881Z</time></trkpt><trkpt lat="36.9802621" lon="15.2549953"><ele>6.0</ele><time>2026-04-04T08:02:08.88Z</time></trkpt><trkpt lat="36.9803212" lon="15.2548963"><ele>6.0</ele><time>2026-04-04T08:02:10.881Z</time></trkpt><trkpt lat="36.980376" lon="15.2548508"><ele>6.0</ele><time>2026-04-04T08:02:12.88Z</time></trkpt><trkpt lat="36.9804426" lon="15.2548172"><ele>6.0</ele><time>2026-04-04T08:02:15.881Z</time></trkpt><trkpt lat="36.9805209" lon="15.254833"><ele>5.999999999999999</ele><time>2026-04-04T08:02:19.88Z</time></trkpt><trkpt lat="36.980585" lon="15.254862"><ele>6.0</ele><time>2026-04-04T08:02:23.88Z</time></trkpt><trkpt lat="36.9806378" lon="15.2549092"><ele>6.0</ele><time>2026-04-04T08:02:27.88Z</time></trkpt><trkpt lat="36.9806821" lon="15.2549759"><ele>6.0</ele><time>2026-04-04T08:02:30.88Z</time></trkpt><trkpt lat="36.9807475" lon="15.2549993"><ele>6.0</ele><time>2026-04-04T08:02:32.88Z</time></trkpt><trkpt lat="36.9808302" lon="15.2550058"><ele>6.0</ele><time>2026-04-04T08:02:34.881Z</time></trkpt><trkpt lat="36.9809054" lon="15.2549928"><ele>6.0</ele><time>2026-04-04T08:02:36.881Z</time></trkpt><trkpt lat="36.980966" lon="15.2549696"><ele>6.0</ele><time>2026-04-04T08:05:21.881Z</time></trkpt><trkpt lat="36.9810575" lon="15.2549126"><ele>7.166666666666666</ele><time>2026-04-04T08:05:23.88Z</time></trkpt><trkpt lat="36.9811122" lon="15.2548684"><ele>8.333333333333332</ele><time>2026-04-04T08:05:24.88Z</time></trkpt><trkpt lat="36.9812068" lon="15.2548255"><ele>9.5</ele><time>2026-04-04T08:05:26.88Z</time></trkpt><trkpt lat="36.9812187" lon="15.2549238"><ele>10.666666666666666</ele><time>2026-04-04T08:05:31.88Z</time></trkpt><trkpt lat="36.9811883" lon="15.2550019"><ele>11.833333333333332</ele><time>2026-04-04T08:05:34.88Z</time></trkpt><trkpt lat="36.9811618" lon="15.2550882"><ele>13.0</ele><time>2026-04-04T08:05:36.88Z</time></trkpt><trkpt lat="36.9811155" lon="15.2552044"><ele>13.0</ele><time>2026-04-04T08:05:38.88Z</time></trkpt><trkpt lat="36.981061" lon="15.2553649"><ele>13.0</ele><time>2026-04-04T08:05:40.881Z</time></trkpt><trkpt lat="36.9810278" lon="15.2554536"><ele>13.0</ele><time>2026-04-04T08:05:41.879Z</time></trkpt><trkpt lat="36.9809927" lon="15.2555542"><ele>13.0</ele><time>2026-04-04T08:05:42.88Z</time></trkpt><trkpt lat="36.9809575" lon="15.2556583"><ele>13.0</ele><time>2026-04-04T08:05:43.88Z</time></trkpt><trkpt lat="36.9809209" lon="15.2557625"><ele>13.0</ele><time>2026-04-04T08:05:44.881Z</time></trkpt><trkpt lat="36.9808825" lon="15.2558676"><ele>13.0</ele><time>2026-04-04T08:05:45.881Z</time></trkpt><trkpt lat="36.9808438" lon="15.2559722"><ele>13.0</ele><time>2026-04-04T08:05:46.881Z</time></trkpt><trkpt lat="36.9808052" lon="15.2560803"><ele>13.0</ele><time>2026-04-04T08:05:47.881Z</time></trkpt><trkpt lat="36.9807688" lon="15.2561876"><ele>13.0</ele><time>2026-04-04T08:05:48.881Z</time></trkpt><trkpt lat="36.980734" lon="15.2562915"><ele>12.333333333333332</ele><time>2026-04-04T08:05:49.88Z</time></trkpt><trkpt lat="36.9806965" lon="15.2563941"><ele>11.666666666666666</ele><time>2026-04-04T08:05:50.88Z</time></trkpt><trkpt lat="36.9806583" lon="15.2564968"><ele>11.0</ele><time>2026-04-04T08:05:51.88Z</time></trkpt><trkpt lat="36.9806201" lon="15.2565997"><ele>10.333333333333332</ele><time>2026-04-04T08:05:52.88Z</time></trkpt><trkpt lat="36.9805852" lon="15.2567023"><ele>9.666666666666666</ele><time>2026-04-04T08:05:53.88Z</time></trkpt><trkpt lat="36.9805523" lon="15.2568008"><ele>9.0</ele><time>2026-04-04T08:05:54.879Z</time></trkpt><trkpt lat="36.9805233" lon="15.2568882"><ele>9.0</ele><time>2026-04-04T08:05:55.879Z</time></trkpt><trkpt lat="36.9804939" lon="15.2569773"><ele>9.0</ele><time>2026-04-04T08:05:56.88Z</time></trkpt><trkpt lat="36.9804612" lon="15.2570558"><ele>9.0</ele><time>2026-04-04T08:05:57.88Z</time></trkpt><trkpt lat="36.9803542" lon="15.2571125"><ele>9.0</ele><time>2026-04-04T08:05:59.88Z</time></trkpt><trkpt lat="36.9802887" lon="15.2571003"><ele>9.0</ele><time>2026-04-04T08:06:00.88Z</time></trkpt><trkpt lat="36.9802118" lon="15.2571073"><ele>9.0</ele><time>2026-04-04T08:06:01.88Z</time></trkpt><trkpt lat="36.9801343" lon="15.2571779"><ele>9.0</ele><time>2026-04-04T08:06:02.881Z</time></trkpt><trkpt lat="36.9800575" lon="15.2572664"><ele>9.0</ele><time>2026-04-04T08:06:03.88Z</time></trkpt><trkpt lat="36.979961" lon="15.2574986"><ele>9.0</ele><time>2026-04-04T08:06:04.881Z</time></trkpt><trkpt lat="36.9798538" lon="15.2577238"><ele>8.333333333333334</ele><time>2026-04-04T08:06:05.881Z</time></trkpt><trkpt lat="36.9797452" lon="15.2579516"><ele>7.666666666666667</ele><time>2026-04-04T08:06:06.881Z</time></trkpt><trkpt lat="36.9796498" lon="15.2581589"><ele>7.0</ele><time>2026-04-04T08:06:07.88Z</time></trkpt><trkpt lat="36.9795663" lon="15.258332"><ele>6.75</ele><time>2026-04-04T08:06:08.88Z</time></trkpt><trkpt lat="36.9794856" lon="15.2584855"><ele>6.5</ele><time>2026-04-04T08:06:09.88Z</time></trkpt><trkpt lat="36.9794164" lon="15.2586228"><ele>6.25</ele><time>2026-04-04T08:06:10.88Z</time></trkpt><trkpt lat="36.9793668" lon="15.2587617"><ele>6.0</ele><time>2026-04-04T08:06:11.881Z</time></trkpt><trkpt lat="36.9793414" lon="15.2588994"><ele>6.199999999999999</ele><time>2026-04-04T08:06:12.881Z</time></trkpt><trkpt lat="36.979341" lon="15.2590427"><ele>6.3999999999999995</ele><time>2026-04-04T08:06:13.88Z</time></trkpt><trkpt lat="36.9793586" lon="15.2591738"><ele>6.6</ele><time>2026-04-04T08:06:14.88Z</time></trkpt><trkpt lat="36.9793948" lon="15.259314"><ele>6.8</ele><time>2026-04-04T08:06:15.88Z</time></trkpt><trkpt lat="36.9794513" lon="15.2594117"><ele>7.0</ele><time>2026-04-04T08:06:16.881Z</time></trkpt><trkpt lat="36.979526" lon="15.2594801"><ele>7.0</ele><time>2026-04-04T08:06:17.881Z</time></trkpt><trkpt lat="36.9796268" lon="15.2595384"><ele>7.0</ele><time>2026-04-04T08:06:18.881Z</time></trkpt><trkpt lat="36.9797542" lon="15.2595973"><ele>7.0</ele><time>2026-04-04T08:06:19.881Z</time></trkpt><trkpt lat="36.9798843" lon="15.2596747"><ele>7.0</ele><time>2026-04-04T08:06:20.881Z</time></trkpt><trkpt lat="36.9799974" lon="15.2597385"><ele>7.666666666666667</ele><time>2026-04-04T08:06:21.88Z</time></trkpt><trkpt lat="36.9800769" lon="15.2597868"><ele>8.333333333333334</ele><time>2026-04-04T08:06:22.88Z</time></trkpt><trkpt lat="36.9801483" lon="15.2598285"><ele>9.0</ele><time>2026-04-04T08:06:23.88Z</time></trkpt><trkpt lat="36.9802159" lon="15.2598653"><ele>9.666666666666666</ele><time>2026-04-04T08:06:24.879Z</time></trkpt><trkpt lat="36.9802823" lon="15.2598973"><ele>10.333333333333332</ele><time>2026-04-04T08:06:25.88Z</time></trkpt><trkpt lat="36.9803453" lon="15.2599518"><ele>11.0</ele><time>2026-04-04T08:06:26.88Z</time></trkpt><trkpt lat="36.980401" lon="15.2600346"><ele>11.0</ele><time>2026-04-04T08:06:27.88Z</time></trkpt><trkpt lat="36.9804665" lon="15.2601358"><ele>11.0</ele><time>2026-04-04T08:06:28.881Z</time></trkpt><trkpt lat="36.9805349" lon="15.2602422"><ele>11.0</ele><time>2026-04-04T08:06:29.879Z</time></trkpt><trkpt lat="36.9806124" lon="15.2603478"><ele>11.0</ele><time>2026-04-04T08:06:30.88Z</time></trkpt><trkpt lat="36.9806951" lon="15.2604517"><ele>11.0</ele><time>2026-04-04T08:06:31.88Z</time></trkpt><trkpt lat="36.9807705" lon="15.2605605"><ele>10.8</ele><time>2026-04-04T08:06:32.879Z</time></trkpt><trkpt lat="36.9808399" lon="15.2606626"><ele>10.600000000000001</ele><time>2026-04-04T08:06:33.88Z</time></trkpt><trkpt lat="36.9809088" lon="15.2607632"><ele>10.4</ele><time>2026-04-04T08:06:34.879Z</time></trkpt><trkpt lat="36.9809777" lon="15.2608719"><ele>10.2</ele><time>2026-04-04T08:06:35.88Z</time></trkpt><trkpt lat="36.9810671" lon="15.2609746"><ele>10.0</ele><time>2026-04-04T08:06:36.879Z</time></trkpt><trkpt lat="36.9811714" lon="15.2610759"><ele>10.0</ele><time>2026-04-04T08:06:37.88Z</time></trkpt><trkpt lat="36.9812855" lon="15.2611699"><ele>10.0</ele><time>2026-04-04T08:06:38.879Z</time></trkpt><trkpt lat="36.9814152" lon="15.2612603"><ele>10.0</ele><time>2026-04-04T08:06:39.88Z</time></trkpt><trkpt lat="36.9815362" lon="15.2613297"><ele>10.0</ele><time>2026-04-04T08:06:40.881Z</time></trkpt><trkpt lat="36.9816516" lon="15.2613878"><ele>10.0</ele><time>2026-04-04T08:06:41.881Z</time></trkpt><trkpt lat="36.9817637" lon="15.2614298"><ele>10.0</ele><time>2026-04-04T08:06:42.881Z</time></trkpt><trkpt lat="36.9818626" lon="15.2614768"><ele>10.0</ele><time>2026-04-04T08:06:43.88Z</time></trkpt><trkpt lat="36.9819435" lon="15.2615219"><ele>10.0</ele><time>2026-04-04T08:06:44.88Z</time></trkpt><trkpt lat="36.9820214" lon="15.2615635"><ele>10.0</ele><time>2026-04-04T08:06:45.88Z</time></trkpt><trkpt lat="36.9820949" lon="15.2615978"><ele>9.833333333333334</ele><time>2026-04-04T08:06:46.881Z</time></trkpt><trkpt lat="36.9821588" lon="15.2616295"><ele>9.666666666666668</ele><time>2026-04-04T08:06:47.88Z</time></trkpt><trkpt lat="36.9822646" lon="15.2616747"><ele>9.5</ele><time>2026-04-04T08:06:49.88Z</time></trkpt><trkpt lat="36.9823564" lon="15.2617158"><ele>9.333333333333334</ele><time>2026-04-04T08:06:51.88Z</time></trkpt><trkpt lat="36.9824397" lon="15.2617256"><ele>9.166666666666666</ele><time>2026-04-04T08:06:54.88Z</time></trkpt><trkpt lat="36.9825064" lon="15.2617006"><ele>9.0</ele><time>2026-04-04T08:06:56.88Z</time></trkpt><trkpt lat="36.9825763" lon="15.2616782"><ele>9.0</ele><time>2026-04-04T08:06:58.879Z</time></trkpt><trkpt lat="36.9826445" lon="15.2616563"><ele>9.0</ele><time>2026-04-04T08:07:00.88Z</time></trkpt><trkpt lat="36.9827636" lon="15.2616341"><ele>9.0</ele><time>2026-04-04T08:07:03.88Z</time></trkpt><trkpt lat="36.9828573" lon="15.2616439"><ele>9.0</ele><time>2026-04-04T08:07:05.88Z</time></trkpt><trkpt lat="36.9829394" lon="15.2616679"><ele>9.0</ele><time>2026-04-04T08:07:07.879Z</time></trkpt><trkpt lat="36.9830355" lon="15.2617003"><ele>9.0</ele><time>2026-04-04T08:07:10.88Z</time></trkpt><trkpt lat="36.9831224" lon="15.2617363"><ele>9.0</ele><time>2026-04-04T08:07:13.88Z</time></trkpt><trkpt lat="36.9831778" lon="15.2618003"><ele>9.0</ele><time>2026-04-04T08:07:15.88Z</time></trkpt><trkpt lat="36.9832088" lon="15.2618827"><ele>9.0</ele><time>2026-04-04T08:07:17.881Z</time></trkpt><trkpt lat="36.9832678" lon="15.2619581"><ele>9.0</ele><time>2026-04-04T08:07:20.88Z</time></trkpt><trkpt lat="36.9833213" lon="15.2620072"><ele>9.0</ele><time>2026-04-04T08:07:22.88Z</time></trkpt><trkpt lat="36.9833634" lon="15.2620827"><ele>9.333333333333334</ele><time>2026-04-04T08:07:24.88Z</time></trkpt><trkpt lat="36.9834011" lon="15.2621547"><ele>9.666666666666666</ele><time>2026-04-04T08:07:35.88Z</time></trkpt><trkpt lat="36.9834463" lon="15.2622224"><ele>10.0</ele><time>2026-04-04T08:07:47.879Z</time></trkpt><trkpt lat="36.9834962" lon="15.2622756"><ele>10.333333333333332</ele><time>2026-04-04T08:07:50.88Z</time></trkpt><trkpt lat="36.9835458" lon="15.2623413"><ele>10.666666666666666</ele><time>2026-04-04T08:07:53.88Z</time></trkpt><trkpt lat="36.9835791" lon="15.2624576"><ele>11.0</ele><time>2026-04-04T08:07:55.881Z</time></trkpt><trkpt lat="36.9835972" lon="15.2625632"><ele>11.0</ele><time>2026-04-04T08:07:57.88Z</time></trkpt><trkpt lat="36.9835998" lon="15.2626496"><ele>11.0</ele><time>2026-04-04T08:07:59.88Z</time></trkpt><trkpt lat="36.983596" lon="15.262766"><ele>11.0</ele><time>2026-04-04T08:08:01.88Z</time></trkpt><trkpt lat="36.9835574" lon="15.2628841"><ele>11.0</ele><time>2026-04-04T08:08:03.88Z</time></trkpt><trkpt lat="36.9835106" lon="15.262964"><ele>11.0</ele><time>2026-04-04T08:08:05.88Z</time></trkpt><trkpt lat="36.9834675" lon="15.2630451"><ele>11.0</ele><time>2026-04-04T08:08:07.88Z</time></trkpt><trkpt lat="36.9834301" lon="15.2631492"><ele>10.8</ele><time>2026-04-04T08:08:09.88Z</time></trkpt><trkpt lat="36.9834418" lon="15.263263"><ele>10.600000000000001</ele><time>2026-04-04T08:08:11.88Z</time></trkpt><trkpt lat="36.9835406" lon="15.2633801"><ele>10.4</ele><time>2026-04-04T08:08:13.879Z</time></trkpt><trkpt lat="36.9836056" lon="15.2634451"><ele>10.2</ele><time>2026-04-04T08:08:14.88Z</time></trkpt><trkpt lat="36.983684" lon="15.2635207"><ele>10.0</ele><time>2026-04-04T08:08:15.88Z</time></trkpt><trkpt lat="36.9837646" lon="15.2636134"><ele>10.0</ele><time>2026-04-04T08:08:16.88Z</time></trkpt><trkpt lat="36.9838445" lon="15.2637177"><ele>10.0</ele><time>2026-04-04T08:08:17.879Z</time></trkpt><trkpt lat="36.9839201" lon="15.2638248"><ele>10.0</ele><time>2026-04-04T08:08:18.88Z</time></trkpt><trkpt lat="36.9839945" lon="15.2639269"><ele>10.0</ele><time>2026-04-04T08:08:19.88Z</time></trkpt><trkpt lat="36.9840609" lon="15.2640256"><ele>10.0</ele><time>2026-04-04T08:08:20.88Z</time></trkpt><trkpt lat="36.9841421" lon="15.2641302"><ele>10.2</ele><time>2026-04-04T08:08:21.88Z</time></trkpt><trkpt lat="36.984208" lon="15.2642318"><ele>10.4</ele><time>2026-04-04T08:08:22.88Z</time></trkpt><trkpt lat="36.9842747" lon="15.2643418"><ele>10.600000000000001</ele><time>2026-04-04T08:08:23.88Z</time></trkpt><trkpt lat="36.9843403" lon="15.2644464"><ele>10.8</ele><time>2026-04-04T08:08:24.88Z</time></trkpt><trkpt lat="36.9844093" lon="15.264547"><ele>11.0</ele><time>2026-04-04T08:08:25.88Z</time></trkpt><trkpt lat="36.9844932" lon="15.2646475"><ele>11.0</ele><time>2026-04-04T08:08:26.88Z</time></trkpt><trkpt lat="36.9846075" lon="15.2647591"><ele>11.0</ele><time>2026-04-04T08:08:27.88Z</time></trkpt><trkpt lat="36.9847542" lon="15.2648924"><ele>11.0</ele><time>2026-04-04T08:08:28.88Z</time></trkpt><trkpt lat="36.9849207" lon="15.2650478"><ele>10.666666666666666</ele><time>2026-04-04T08:08:29.88Z</time></trkpt><trkpt lat="36.9850907" lon="15.2651993"><ele>10.333333333333334</ele><time>2026-04-04T08:08:30.88Z</time></trkpt><trkpt lat="36.9852276" lon="15.2653253"><ele>10.0</ele><time>2026-04-04T08:08:31.88Z</time></trkpt><trkpt lat="36.985342" lon="15.2654301"><ele>10.0</ele><time>2026-04-04T08:08:32.88Z</time></trkpt><trkpt lat="36.9854588" lon="15.2655303"><ele>10.0</ele><time>2026-04-04T08:08:33.88Z</time></trkpt><trkpt lat="36.9855759" lon="15.2656189"><ele>10.0</ele><time>2026-04-04T08:08:34.88Z</time></trkpt><trkpt lat="36.9856886" lon="15.2657058"><ele>10.0</ele><time>2026-04-04T08:08:35.88Z</time></trkpt><trkpt lat="36.985794" lon="15.2657816"><ele>9.8</ele><time>2026-04-04T08:08:36.879Z</time></trkpt><trkpt lat="36.9858909" lon="15.2658259"><ele>9.6</ele><time>2026-04-04T08:08:37.88Z</time></trkpt><trkpt lat="36.9859822" lon="15.2658374"><ele>9.4</ele><time>2026-04-04T08:08:38.88Z</time></trkpt><trkpt lat="36.9860851" lon="15.2658137"><ele>9.2</ele><time>2026-04-04T08:08:39.879Z</time></trkpt><trkpt lat="36.9861989" lon="15.2657598"><ele>9.0</ele><time>2026-04-04T08:08:40.88Z</time></trkpt><trkpt lat="36.986312" lon="15.2656975"><ele>9.0</ele><time>2026-04-04T08:08:41.88Z</time></trkpt><trkpt lat="36.9864198" lon="15.2656433"><ele>9.0</ele><time>2026-04-04T08:08:42.88Z</time></trkpt><trkpt lat="36.98654" lon="15.265573"><ele>9.0</ele><time>2026-04-04T08:08:43.88Z</time></trkpt><trkpt lat="36.986659" lon="15.2655121"><ele>9.0</ele><time>2026-04-04T08:08:44.88Z</time></trkpt><trkpt lat="36.986776" lon="15.2654356"><ele>9.0</ele><time>2026-04-04T08:08:45.88Z</time></trkpt><trkpt lat="36.9868904" lon="15.265336"><ele>9.0</ele><time>2026-04-04T08:08:46.879Z</time></trkpt><trkpt lat="36.9870002" lon="15.2652331"><ele>9.0</ele><time>2026-04-04T08:08:47.88Z</time></trkpt><trkpt lat="36.9871165" lon="15.2651451"><ele>9.0</ele><time>2026-04-04T08:08:48.88Z</time></trkpt><trkpt lat="36.9872416" lon="15.265082"><ele>9.0</ele><time>2026-04-04T08:08:49.88Z</time></trkpt><trkpt lat="36.9873708" lon="15.2650189"><ele>9.0</ele><time>2026-04-04T08:08:50.88Z</time></trkpt><trkpt lat="36.987489" lon="15.2649653"><ele>9.0</ele><time>2026-04-04T08:08:51.878Z</time></trkpt><trkpt lat="36.9875994" lon="15.264915"><ele>9.0</ele><time>2026-04-04T08:08:52.88Z</time></trkpt><trkpt lat="36.9877042" lon="15.2648634"><ele>8.833333333333334</ele><time>2026-04-04T08:08:53.88Z</time></trkpt><trkpt lat="36.9877962" lon="15.2648253"><ele>8.666666666666666</ele><time>2026-04-04T08:08:54.88Z</time></trkpt><trkpt lat="36.9878818" lon="15.2647913"><ele>8.5</ele><time>2026-04-04T08:08:55.88Z</time></trkpt><trkpt lat="36.9879615" lon="15.26476"><ele>8.333333333333332</ele><time>2026-04-04T08:08:56.878Z</time></trkpt><trkpt lat="36.9880434" lon="15.2647313"><ele>8.166666666666666</ele><time>2026-04-04T08:08:57.88Z</time></trkpt><trkpt lat="36.9881185" lon="15.2647053"><ele>8.0</ele><time>2026-04-04T08:08:58.88Z</time></trkpt><trkpt lat="36.9881941" lon="15.2646808"><ele>8.0</ele><time>2026-04-04T08:08:59.88Z</time></trkpt><trkpt lat="36.9882574" lon="15.264653"><ele>7.999999999999999</ele><time>2026-04-04T08:09:00.88Z</time></trkpt><trkpt lat="36.9883224" lon="15.2646271"><ele>8.0</ele><time>2026-04-04T08:09:01.88Z</time></trkpt><trkpt lat="36.988384" lon="15.2646086"><ele>8.0</ele><time>2026-04-04T08:09:02.879Z</time></trkpt><trkpt lat="36.9884463" lon="15.2645931"><ele>7.999999999999999</ele><time>2026-04-04T08:09:03.88Z</time></trkpt><trkpt lat="36.9885462" lon="15.2645841"><ele>8.0</ele><time>2026-04-04T08:09:05.88Z</time></trkpt><trkpt lat="36.9886208" lon="15.2645776"><ele>8.0</ele><time>2026-04-04T08:09:08.879Z</time></trkpt><trkpt lat="36.9886912" lon="15.2645647"><ele>7.666666666666666</ele><time>2026-04-04T08:09:10.88Z</time></trkpt><trkpt lat="36.9888034" lon="15.2645269"><ele>7.333333333333333</ele><time>2026-04-04T08:09:12.879Z</time></trkpt><trkpt lat="36.9888774" lon="15.2645108"><ele>7.0</ele><time>2026-04-04T08:09:13.88Z</time></trkpt><trkpt lat="36.9889421" lon="15.2644808"><ele>6.666666666666666</ele><time>2026-04-04T08:09:14.88Z</time></trkpt><trkpt lat="36.9890002" lon="15.2644479"><ele>6.333333333333333</ele><time>2026-04-04T08:09:15.88Z</time></trkpt><trkpt lat="36.9891126" lon="15.2644208"><ele>6.0</ele><time>2026-04-04T08:09:17.88Z</time></trkpt><trkpt lat="36.9891967" lon="15.2643552"><ele>5.6</ele><time>2026-04-04T08:09:19.88Z</time></trkpt><trkpt lat="36.9892568" lon="15.2642602"><ele>5.199999999999999</ele><time>2026-04-04T08:09:21.879Z</time></trkpt><trkpt lat="36.9893767" lon="15.2641923"><ele>4.800000000000001</ele><time>2026-04-04T08:09:23.88Z</time></trkpt><trkpt lat="36.9894438" lon="15.2641495"><ele>4.4</ele><time>2026-04-04T08:09:24.88Z</time></trkpt><trkpt lat="36.989506" lon="15.264136"><ele>4.0</ele><time>2026-04-04T08:09:25.88Z</time></trkpt><trkpt lat="36.9896216" lon="15.2640769"><ele>3.9999999999999996</ele><time>2026-04-04T08:09:27.88Z</time></trkpt><trkpt lat="36.9896903" lon="15.2640214"><ele>4.0</ele><time>2026-04-04T08:09:28.88Z</time></trkpt><trkpt lat="36.9897676" lon="15.2639771"><ele>4.0</ele><time>2026-04-04T08:09:29.88Z</time></trkpt><trkpt lat="36.9898385" lon="15.2639412"><ele>4.0</ele><time>2026-04-04T08:09:30.88Z</time></trkpt><trkpt lat="36.989922" lon="15.2639459"><ele>3.9999999999999996</ele><time>2026-04-04T08:09:32.88Z</time></trkpt><trkpt lat="36.9900057" lon="15.2639529"><ele>4.0</ele><time>2026-04-04T08:09:34.88Z</time></trkpt><trkpt lat="36.9900777" lon="15.263959"><ele>4.666666666666666</ele><time>2026-04-04T08:09:36.879Z</time></trkpt><trkpt lat="36.9901659" lon="15.2639275"><ele>5.333333333333333</ele><time>2026-04-04T08:09:38.879Z</time></trkpt><trkpt lat="36.9903082" lon="15.2639284"><ele>6.0</ele><time>2026-04-04T08:09:40.879Z</time></trkpt><trkpt lat="36.9903769" lon="15.2639308"><ele>6.666666666666666</ele><time>2026-04-04T08:09:41.88Z</time></trkpt><trkpt lat="36.9904494" lon="15.263928"><ele>7.333333333333333</ele><time>2026-04-04T08:09:42.88Z</time></trkpt><trkpt lat="36.9905224" lon="15.2639174"><ele>8.0</ele><time>2026-04-04T08:09:43.88Z</time></trkpt><trkpt lat="36.9906439" lon="15.2638564"><ele>8.0</ele><time>2026-04-04T08:09:45.88Z</time></trkpt><trkpt lat="36.9907048" lon="15.2638316"><ele>7.999999999999999</ele><time>2026-04-04T08:09:46.879Z</time></trkpt><trkpt lat="36.9907752" lon="15.2638073"><ele>8.0</ele><time>2026-04-04T08:09:47.879Z</time></trkpt><trkpt lat="36.9908418" lon="15.2637753"><ele>8.0</ele><time>2026-04-04T08:09:48.88Z</time></trkpt><trkpt lat="36.9909115" lon="15.2637513"><ele>7.999999999999999</ele><time>2026-04-04T08:09:49.88Z</time></trkpt><trkpt lat="36.9909799" lon="15.2637087"><ele>8.0</ele><time>2026-04-04T08:09:50.88Z</time></trkpt><trkpt lat="36.9910355" lon="15.2636714"><ele>8.0</ele><time>2026-04-04T08:09:51.88Z</time></trkpt><trkpt lat="36.991085" lon="15.2636096"><ele>7.833333333333333</ele><time>2026-04-04T08:09:53.88Z</time></trkpt><trkpt lat="36.9911537" lon="15.2635205"><ele>7.666666666666666</ele><time>2026-04-04T08:09:55.88Z</time></trkpt><trkpt lat="36.9912692" lon="15.2634943"><ele>7.5</ele><time>2026-04-04T08:09:57.878Z</time></trkpt><trkpt lat="36.9913365" lon="15.2635055"><ele>7.333333333333334</ele><time>2026-04-04T08:09:58.88Z</time></trkpt><trkpt lat="36.9914093" lon="15.2635228"><ele>7.166666666666667</ele><time>2026-04-04T08:09:59.88Z</time></trkpt><trkpt lat="36.9914813" lon="15.2635375"><ele>7.0</ele><time>2026-04-04T08:10:00.879Z</time></trkpt><trkpt lat="36.99155" lon="15.2635644"><ele>7.0</ele><time>2026-04-04T08:10:01.879Z</time></trkpt><trkpt lat="36.9916175" lon="15.2636016"><ele>7.0</ele><time>2026-04-04T08:10:02.879Z</time></trkpt><trkpt lat="36.9916701" lon="15.2636602"><ele>7.0</ele><time>2026-04-04T08:10:03.88Z</time></trkpt><trkpt lat="36.9917273" lon="15.2637178"><ele>7.0</ele><time>2026-04-04T08:10:04.879Z</time></trkpt><trkpt lat="36.9917586" lon="15.2637983"><ele>7.0</ele><time>2026-04-04T08:10:05.88Z</time></trkpt><trkpt lat="36.9917837" lon="15.2638885"><ele>7.0</ele><time>2026-04-04T08:10:06.88Z</time></trkpt><trkpt lat="36.9918212" lon="15.2639657"><ele>7.0</ele><time>2026-04-04T08:10:07.88Z</time></trkpt><trkpt lat="36.9918682" lon="15.2640324"><ele>7.333333333333334</ele><time>2026-04-04T08:10:08.878Z</time></trkpt><trkpt lat="36.9919248" lon="15.2640835"><ele>7.666666666666667</ele><time>2026-04-04T08:10:09.881Z</time></trkpt><trkpt lat="36.9919935" lon="15.2641196"><ele>8.0</ele><time>2026-04-04T08:10:10.879Z</time></trkpt><trkpt lat="36.9920685" lon="15.2641473"><ele>8.333333333333334</ele><time>2026-04-04T08:10:11.879Z</time></trkpt><trkpt lat="36.9921312" lon="15.2641721"><ele>8.666666666666666</ele><time>2026-04-04T08:10:12.88Z</time></trkpt><trkpt lat="36.9922362" lon="15.2642459"><ele>9.0</ele><time>2026-04-04T08:10:14.88Z</time></trkpt><trkpt lat="36.9922804" lon="15.2643129"><ele>9.0</ele><time>2026-04-04T08:10:15.88Z</time></trkpt><trkpt lat="36.9923462" lon="15.2644215"><ele>9.0</ele><time>2026-04-04T08:10:17.88Z</time></trkpt><trkpt lat="36.992398" lon="15.2645096"><ele>9.0</ele><time>2026-04-04T08:10:19.88Z</time></trkpt><trkpt lat="36.9924582" lon="15.2646157"><ele>9.0</ele><time>2026-04-04T08:10:21.879Z</time></trkpt><trkpt lat="36.9925212" lon="15.2647456"><ele>9.0</ele><time>2026-04-04T08:10:23.88Z</time></trkpt><trkpt lat="36.9925696" lon="15.2648082"><ele>9.2</ele><time>2026-04-04T08:10:24.88Z</time></trkpt><trkpt lat="36.992643" lon="15.2648749"><ele>9.4</ele><time>2026-04-04T08:10:25.88Z</time></trkpt><trkpt lat="36.9927331" lon="15.2649466"><ele>9.6</ele><time>2026-04-04T08:10:26.88Z</time></trkpt><trkpt lat="36.9928315" lon="15.2650291"><ele>9.8</ele><time>2026-04-04T08:10:27.879Z</time></trkpt><trkpt lat="36.9929307" lon="15.2651093"><ele>10.0</ele><time>2026-04-04T08:10:28.88Z</time></trkpt><trkpt lat="36.9930183" lon="15.2651878"><ele>10.0</ele><time>2026-04-04T08:10:29.878Z</time></trkpt><trkpt lat="36.9930917" lon="15.265277"><ele>10.0</ele><time>2026-04-04T08:10:30.879Z</time></trkpt><trkpt lat="36.9931451" lon="15.2653779"><ele>10.0</ele><time>2026-04-04T08:10:31.879Z</time></trkpt><trkpt lat="36.9932013" lon="15.2654608"><ele>10.0</ele><time>2026-04-04T08:10:32.879Z</time></trkpt><trkpt lat="36.9932763" lon="15.2655238"><ele>10.0</ele><time>2026-04-04T08:10:33.879Z</time></trkpt><trkpt lat="36.9933739" lon="15.2655571"><ele>9.5</ele><time>2026-04-04T08:10:34.88Z</time></trkpt><trkpt lat="36.9934962" lon="15.26558"><ele>9.0</ele><time>2026-04-04T08:10:35.879Z</time></trkpt><trkpt lat="36.9936203" lon="15.2656219"><ele>8.5</ele><time>2026-04-04T08:10:36.879Z</time></trkpt><trkpt lat="36.9937264" lon="15.2656505"><ele>8.0</ele><time>2026-04-04T08:10:37.88Z</time></trkpt><trkpt lat="36.9938319" lon="15.265666"><ele>8.0</ele><time>2026-04-04T08:10:38.88Z</time></trkpt><trkpt lat="36.9939064" lon="15.2656584"><ele>7.999999999999999</ele><time>2026-04-04T08:10:39.88Z</time></trkpt><trkpt lat="36.9939708" lon="15.2656283"><ele>8.0</ele><time>2026-04-04T08:10:40.879Z</time></trkpt><trkpt lat="36.9940261" lon="15.265574"><ele>8.0</ele><time>2026-04-04T08:10:41.88Z</time></trkpt><trkpt lat="36.9940592" lon="15.2654904"><ele>7.999999999999999</ele><time>2026-04-04T08:10:42.88Z</time></trkpt><trkpt lat="36.9940781" lon="15.2654"><ele>8.0</ele><time>2026-04-04T08:10:43.88Z</time></trkpt><trkpt lat="36.9940874" lon="15.2653146"><ele>8.0</ele><time>2026-04-04T08:10:44.879Z</time></trkpt><trkpt lat="36.994092" lon="15.2652322"><ele>7.999999999999999</ele><time>2026-04-04T08:10:45.879Z</time></trkpt><trkpt lat="36.9940996" lon="15.2651449"><ele>8.0</ele><time>2026-04-04T08:10:46.88Z</time></trkpt><trkpt lat="36.9941034" lon="15.2650549"><ele>8.0</ele><time>2026-04-04T08:10:47.879Z</time></trkpt><trkpt lat="36.9940999" lon="15.264969"><ele>8.0</ele><time>2026-04-04T08:10:48.88Z</time></trkpt><trkpt lat="36.9941004" lon="15.2648867"><ele>7.999999999999999</ele><time>2026-04-04T08:10:49.879Z</time></trkpt><trkpt lat="36.9940914" lon="15.2648025"><ele>8.0</ele><time>2026-04-04T08:10:50.879Z</time></trkpt><trkpt lat="36.9940865" lon="15.2646457"><ele>8.333333333333332</ele><time>2026-04-04T08:10:52.88Z</time></trkpt><trkpt lat="36.9940892" lon="15.2645656"><ele>8.666666666666666</ele><time>2026-04-04T08:10:53.879Z</time></trkpt><trkpt lat="36.9940891" lon="15.2644757"><ele>9.0</ele><time>2026-04-04T08:10:54.88Z</time></trkpt><trkpt lat="36.9940902" lon="15.2643962"><ele>9.333333333333334</ele><time>2026-04-04T08:10:55.879Z</time></trkpt><trkpt lat="36.9940838" lon="15.2642463"><ele>9.666666666666668</ele><time>2026-04-04T08:10:57.88Z</time></trkpt><trkpt lat="36.9940834" lon="15.2641184"><ele>10.0</ele><time>2026-04-04T08:10:59.878Z</time></trkpt><trkpt lat="36.9941174" lon="15.2640267"><ele>9.6</ele><time>2026-04-04T08:11:02.88Z</time></trkpt><trkpt lat="36.9942445" lon="15.2640041"><ele>9.2</ele><time>2026-04-04T08:11:05.88Z</time></trkpt><trkpt lat="36.9943248" lon="15.2639978"><ele>8.8</ele><time>2026-04-04T08:11:06.88Z</time></trkpt><trkpt lat="36.9944067" lon="15.2639982"><ele>8.4</ele><time>2026-04-04T08:11:07.879Z</time></trkpt><trkpt lat="36.9945103" lon="15.263984"><ele>8.0</ele><time>2026-04-04T08:11:08.879Z</time></trkpt><trkpt lat="36.9946165" lon="15.2639652"><ele>7.5</ele><time>2026-04-04T08:11:09.879Z</time></trkpt><trkpt lat="36.994753" lon="15.2639276"><ele>7.0</ele><time>2026-04-04T08:11:10.879Z</time></trkpt><trkpt lat="36.9949021" lon="15.2638846"><ele>6.5</ele><time>2026-04-04T08:11:11.88Z</time></trkpt><trkpt lat="36.9950504" lon="15.2638391"><ele>6.0</ele><time>2026-04-04T08:11:12.88Z</time></trkpt><trkpt lat="36.9951726" lon="15.2638115"><ele>6.0</ele><time>2026-04-04T08:11:13.879Z</time></trkpt><trkpt lat="36.9952886" lon="15.2638019"><ele>6.0</ele><time>2026-04-04T08:11:14.879Z</time></trkpt><trkpt lat="36.9954278" lon="15.2637978"><ele>6.0</ele><time>2026-04-04T08:11:15.88Z</time></trkpt><trkpt lat="36.9955956" lon="15.2637956"><ele>6.0</ele><time>2026-04-04T08:11:16.88Z</time></trkpt><trkpt lat="36.995739" lon="15.2637915"><ele>6.4</ele><time>2026-04-04T08:11:17.879Z</time></trkpt><trkpt lat="36.9958573" lon="15.2637886"><ele>6.8</ele><time>2026-04-04T08:11:18.88Z</time></trkpt><trkpt lat="36.9959606" lon="15.2637955"><ele>7.200000000000001</ele><time>2026-04-04T08:11:19.88Z</time></trkpt><trkpt lat="36.9960618" lon="15.263806"><ele>7.6000000000000005</ele><time>2026-04-04T08:11:20.878Z</time></trkpt><trkpt lat="36.9961516" lon="15.2638152"><ele>8.0</ele><time>2026-04-04T08:11:21.878Z</time></trkpt><trkpt lat="36.9962338" lon="15.2638247"><ele>8.0</ele><time>2026-04-04T08:11:22.88Z</time></trkpt><trkpt lat="36.9963605" lon="15.2638456"><ele>8.0</ele><time>2026-04-04T08:11:24.88Z</time></trkpt><trkpt lat="36.9964641" lon="15.263855"><ele>8.0</ele><time>2026-04-04T08:11:26.88Z</time></trkpt><trkpt lat="36.9965777" lon="15.2638797"><ele>8.0</ele><time>2026-04-04T08:11:28.88Z</time></trkpt><trkpt lat="36.9966875" lon="15.2639179"><ele>8.5</ele><time>2026-04-04T08:11:30.88Z</time></trkpt><trkpt lat="36.9968042" lon="15.2639807"><ele>9.0</ele><time>2026-04-04T08:11:32.88Z</time></trkpt><trkpt lat="36.9969258" lon="15.2640263"><ele>9.5</ele><time>2026-04-04T08:11:34.878Z</time></trkpt><trkpt lat="36.9970497" lon="15.2640328"><ele>10.0</ele><time>2026-04-04T08:11:36.879Z</time></trkpt><trkpt lat="36.9971223" lon="15.2640984"><ele>10.0</ele><time>2026-04-04T08:11:38.88Z</time></trkpt><trkpt lat="36.9971161" lon="15.2642448"><ele>10.0</ele><time>2026-04-04T08:11:40.879Z</time></trkpt><trkpt lat="36.9971154" lon="15.2643397"><ele>10.0</ele><time>2026-04-04T08:11:42.879Z</time></trkpt><trkpt lat="36.9971605" lon="15.2644349"><ele>10.0</ele><time>2026-04-04T08:11:45.88Z</time></trkpt><trkpt lat="36.9972319" lon="15.2645328"><ele>10.0</ele><time>2026-04-04T08:11:47.88Z</time></trkpt><trkpt lat="36.9973095" lon="15.2645718"><ele>10.0</ele><time>2026-04-04T08:11:48.88Z</time></trkpt><trkpt lat="36.997416" lon="15.264622"><ele>10.0</ele><time>2026-04-04T08:11:49.88Z</time></trkpt><trkpt lat="36.9975584" lon="15.2646985"><ele>10.0</ele><time>2026-04-04T08:11:50.879Z</time></trkpt><trkpt lat="36.9976871" lon="15.2647598"><ele>10.0</ele><time>2026-04-04T08:11:51.88Z</time></trkpt><trkpt lat="36.9977895" lon="15.2648065"><ele>10.0</ele><time>2026-04-04T08:11:52.88Z</time></trkpt><trkpt lat="36.9978725" lon="15.2648417"><ele>10.0</ele><time>2026-04-04T08:11:53.879Z</time></trkpt><trkpt lat="36.9979345" lon="15.2648631"><ele>10.0</ele><time>2026-04-04T08:11:54.879Z</time></trkpt><trkpt lat="36.9980393" lon="15.2649063"><ele>10.0</ele><time>2026-04-04T08:11:56.879Z</time></trkpt><trkpt lat="36.9981495" lon="15.2649594"><ele>10.0</ele><time>2026-04-04T08:11:58.88Z</time></trkpt><trkpt lat="36.9982586" lon="15.265013"><ele>10.0</ele><time>2026-04-04T08:12:00.879Z</time></trkpt><trkpt lat="36.998372" lon="15.265081"><ele>10.0</ele><time>2026-04-04T08:12:02.88Z</time></trkpt><trkpt lat="36.9984368" lon="15.2651176"><ele>10.0</ele><time>2026-04-04T08:12:03.879Z</time></trkpt><trkpt lat="36.9985187" lon="15.2651661"><ele>10.0</ele><time>2026-04-04T08:12:05.879Z</time></trkpt><trkpt lat="36.9985945" lon="15.2651854"><ele>10.0</ele><time>2026-04-04T08:12:07.88Z</time></trkpt><trkpt lat="36.9986749" lon="15.2652187"><ele>10.0</ele><time>2026-04-04T08:12:10.879Z</time></trkpt><trkpt lat="36.9987514" lon="15.2651774"><ele>10.0</ele><time>2026-04-04T08:12:13.88Z</time></trkpt><trkpt lat="36.9988766" lon="15.265188"><ele>10.0</ele><time>2026-04-04T08:12:15.879Z</time></trkpt><trkpt lat="36.9989475" lon="15.2651852"><ele>10.0</ele><time>2026-04-04T08:12:16.879Z</time></trkpt><trkpt lat="36.9990231" lon="15.2651977"><ele>10.0</ele><time>2026-04-04T08:12:17.879Z</time></trkpt><trkpt lat="36.9991319" lon="15.2652475"><ele>10.0</ele><time>2026-04-04T08:12:19.88Z</time></trkpt><trkpt lat="36.9992033" lon="15.2652932"><ele>10.5</ele><time>2026-04-04T08:12:20.878Z</time></trkpt><trkpt lat="36.999264" lon="15.2653339"><ele>11.0</ele><time>2026-04-04T08:12:21.879Z</time></trkpt><trkpt lat="36.9993288" lon="15.2653712"><ele>11.5</ele><time>2026-04-04T08:12:22.88Z</time></trkpt><trkpt lat="36.999399" lon="15.2654224"><ele>12.0</ele><time>2026-04-04T08:12:23.879Z</time></trkpt><trkpt lat="36.9994627" lon="15.2654756"><ele>12.499999999999998</ele><time>2026-04-04T08:12:24.879Z</time></trkpt><trkpt lat="36.999523" lon="15.2655239"><ele>13.0</ele><time>2026-04-04T08:12:25.879Z</time></trkpt><trkpt lat="36.9996018" lon="15.2655853"><ele>12.428571428571429</ele><time>2026-04-04T08:12:26.88Z</time></trkpt><trkpt lat="36.9996745" lon="15.2656473"><ele>11.857142857142858</ele><time>2026-04-04T08:12:27.88Z</time></trkpt><trkpt lat="36.9997322" lon="15.2657071"><ele>11.285714285714286</ele><time>2026-04-04T08:12:28.879Z</time></trkpt><trkpt lat="36.9997807" lon="15.2657697"><ele>10.714285714285715</ele><time>2026-04-04T08:12:29.88Z</time></trkpt><trkpt lat="36.9998244" lon="15.2658277"><ele>10.142857142857142</ele><time>2026-04-04T08:12:30.88Z</time></trkpt><trkpt lat="36.9998736" lon="15.2658866"><ele>9.571428571428573</ele><time>2026-04-04T08:12:31.88Z</time></trkpt><trkpt lat="36.9999389" lon="15.2659322"><ele>9.0</ele><time>2026-04-04T08:12:32.88Z</time></trkpt><trkpt lat="37.0000274" lon="15.2659669"><ele>9.0</ele><time>2026-04-04T08:12:33.88Z</time></trkpt><trkpt lat="37.0000984" lon="15.265981"><ele>9.0</ele><time>2026-04-04T08:12:34.88Z</time></trkpt><trkpt lat="37.0001566" lon="15.2660124"><ele>9.0</ele><time>2026-04-04T08:12:35.879Z</time></trkpt><trkpt lat="37.0002247" lon="15.2660728"><ele>9.0</ele><time>2026-04-04T08:12:36.88Z</time></trkpt><trkpt lat="37.0003058" lon="15.2661348"><ele>9.0</ele><time>2026-04-04T08:12:37.88Z</time></trkpt><trkpt lat="37.0003721" lon="15.2662104"><ele>9.0</ele><time>2026-04-04T08:12:38.88Z</time></trkpt><trkpt lat="37.0004549" lon="15.2662805"><ele>9.0</ele><time>2026-04-04T08:12:39.88Z</time></trkpt><trkpt lat="37.0005429" lon="15.2663498"><ele>9.0</ele><time>2026-04-04T08:12:40.88Z</time></trkpt><trkpt lat="37.0006429" lon="15.2664135"><ele>9.0</ele><time>2026-04-04T08:12:41.88Z</time></trkpt><trkpt lat="37.0007454" lon="15.2664749"><ele>9.0</ele><time>2026-04-04T08:12:42.88Z</time></trkpt><trkpt lat="37.0008442" lon="15.2665371"><ele>9.0</ele><time>2026-04-04T08:12:43.879Z</time></trkpt><trkpt lat="37.0009392" lon="15.266602"><ele>8.833333333333334</ele><time>2026-04-04T08:12:44.88Z</time></trkpt><trkpt lat="37.0010338" lon="15.2666705"><ele>8.666666666666666</ele><time>2026-04-04T08:12:45.88Z</time></trkpt><trkpt lat="37.0011111" lon="15.2667314"><ele>8.5</ele><time>2026-04-04T08:12:46.879Z</time></trkpt><trkpt lat="37.0011725" lon="15.2667739"><ele>8.333333333333332</ele><time>2026-04-04T08:12:47.879Z</time></trkpt><trkpt lat="37.0012319" lon="15.2668084"><ele>8.166666666666666</ele><time>2026-04-04T08:12:49.88Z</time></trkpt><trkpt lat="37.0013024" lon="15.2668391"><ele>8.0</ele><time>2026-04-04T08:12:51.879Z</time></trkpt><trkpt lat="37.0014297" lon="15.2668809"><ele>7.999999999999999</ele><time>2026-04-04T08:12:53.879Z</time></trkpt><trkpt lat="37.0015076" lon="15.2668924"><ele>8.0</ele><time>2026-04-04T08:12:54.88Z</time></trkpt><trkpt lat="37.0015758" lon="15.2669045"><ele>8.0</ele><time>2026-04-04T08:12:55.879Z</time></trkpt><trkpt lat="37.0016798" lon="15.2669365"><ele>8.0</ele><time>2026-04-04T08:12:57.878Z</time></trkpt><trkpt lat="37.0017205" lon="15.2670372"><ele>7.999999999999999</ele><time>2026-04-04T08:13:00.88Z</time></trkpt><trkpt lat="37.0018125" lon="15.26709"><ele>8.0</ele><time>2026-04-04T08:13:02.879Z</time></trkpt><trkpt lat="37.0019151" lon="15.2671229"><ele>8.833333333333332</ele><time>2026-04-04T08:13:04.879Z</time></trkpt><trkpt lat="37.001988" lon="15.2671473"><ele>9.666666666666666</ele><time>2026-04-04T08:13:06.88Z</time></trkpt><trkpt lat="37.0020533" lon="15.2671724"><ele>10.5</ele><time>2026-04-04T08:13:09.879Z</time></trkpt><trkpt lat="37.0021366" lon="15.267096"><ele>11.333333333333332</ele><time>2026-04-04T08:13:13.879Z</time></trkpt><trkpt lat="37.0021677" lon="15.267026"><ele>12.166666666666666</ele><time>2026-04-04T08:13:14.88Z</time></trkpt><trkpt lat="37.0022311" lon="15.2669839"><ele>13.0</ele><time>2026-04-04T08:13:16.88Z</time></trkpt><trkpt lat="37.0023804" lon="15.26704"><ele>13.0</ele><time>2026-04-04T08:13:18.879Z</time></trkpt><trkpt lat="37.002472" lon="15.2670963"><ele>13.0</ele><time>2026-04-04T08:13:19.879Z</time></trkpt><trkpt lat="37.002562" lon="15.2671508"><ele>13.0</ele><time>2026-04-04T08:13:20.879Z</time></trkpt><trkpt lat="37.0026382" lon="15.2671938"><ele>13.0</ele><time>2026-04-04T08:13:21.88Z</time></trkpt><trkpt lat="37.0027253" lon="15.2672919"><ele>13.0</ele><time>2026-04-04T08:13:23.879Z</time></trkpt><trkpt lat="37.0027517" lon="15.2673915"><ele>12.499999999999998</ele><time>2026-04-04T08:13:25.879Z</time></trkpt><trkpt lat="37.0027933" lon="15.2675009"><ele>12.0</ele><time>2026-04-04T08:13:27.879Z</time></trkpt><trkpt lat="37.0028353" lon="15.2675619"><ele>11.5</ele><time>2026-04-04T08:13:28.88Z</time></trkpt><trkpt lat="37.0028857" lon="15.2676295"><ele>11.0</ele><time>2026-04-04T08:13:29.88Z</time></trkpt><trkpt lat="37.0029267" lon="15.267712"><ele>10.5</ele><time>2026-04-04T08:13:30.88Z</time></trkpt><trkpt lat="37.0029738" lon="15.2677993"><ele>10.0</ele><time>2026-04-04T08:13:31.879Z</time></trkpt><trkpt lat="37.0030176" lon="15.2678785"><ele>10.0</ele><time>2026-04-04T08:13:32.879Z</time></trkpt><trkpt lat="37.0030644" lon="15.2679556"><ele>10.0</ele><time>2026-04-04T08:13:33.88Z</time></trkpt><trkpt lat="37.003124" lon="15.2680152"><ele>10.0</ele><time>2026-04-04T08:13:34.879Z</time></trkpt><trkpt lat="37.0031928" lon="15.2680887"><ele>10.0</ele><time>2026-04-04T08:13:35.879Z</time></trkpt><trkpt lat="37.0032629" lon="15.2681714"><ele>10.0</ele><time>2026-04-04T08:13:36.88Z</time></trkpt><trkpt lat="37.0033196" lon="15.2682847"><ele>10.0</ele><time>2026-04-04T08:13:37.879Z</time></trkpt><trkpt lat="37.0033778" lon="15.2684023"><ele>9.75</ele><time>2026-04-04T08:13:38.88Z</time></trkpt><trkpt lat="37.0034302" lon="15.2685306"><ele>9.5</ele><time>2026-04-04T08:13:39.88Z</time></trkpt><trkpt lat="37.0034916" lon="15.2686649"><ele>9.25</ele><time>2026-04-04T08:13:40.879Z</time></trkpt><trkpt lat="37.0035453" lon="15.2687912"><ele>9.0</ele><time>2026-04-04T08:13:41.879Z</time></trkpt><trkpt lat="37.0035979" lon="15.268909"><ele>8.8</ele><time>2026-04-04T08:13:42.88Z</time></trkpt><trkpt lat="37.0036468" lon="15.2690178"><ele>8.600000000000001</ele><time>2026-04-04T08:13:43.88Z</time></trkpt><trkpt lat="37.0036967" lon="15.2691156"><ele>8.4</ele><time>2026-04-04T08:13:44.879Z</time></trkpt><trkpt lat="37.0037578" lon="15.2691995"><ele>8.200000000000001</ele><time>2026-04-04T08:13:45.879Z</time></trkpt><trkpt lat="37.0038246" lon="15.2692782"><ele>8.0</ele><time>2026-04-04T08:13:46.879Z</time></trkpt><trkpt lat="37.003891" lon="15.2693723"><ele>8.0</ele><time>2026-04-04T08:13:47.88Z</time></trkpt><trkpt lat="37.0039662" lon="15.2694667"><ele>8.0</ele><time>2026-04-04T08:13:48.88Z</time></trkpt><trkpt lat="37.0040344" lon="15.2695667"><ele>8.0</ele><time>2026-04-04T08:13:49.88Z</time></trkpt><trkpt lat="37.0040845" lon="15.2696542"><ele>8.0</ele><time>2026-04-04T08:13:50.879Z</time></trkpt><trkpt lat="37.0041371" lon="15.2697347"><ele>8.0</ele><time>2026-04-04T08:13:51.88Z</time></trkpt><trkpt lat="37.0041948" lon="15.26981"><ele>8.166666666666666</ele><time>2026-04-04T08:13:52.879Z</time></trkpt><trkpt lat="37.0042419" lon="15.2698746"><ele>8.333333333333332</ele><time>2026-04-04T08:13:53.88Z</time></trkpt><trkpt lat="37.0042955" lon="15.2699289"><ele>8.5</ele><time>2026-04-04T08:13:54.879Z</time></trkpt><trkpt lat="37.0043914" lon="15.2700343"><ele>8.666666666666666</ele><time>2026-04-04T08:13:56.88Z</time></trkpt><trkpt lat="37.0044659" lon="15.2701159"><ele>8.833333333333334</ele><time>2026-04-04T08:13:58.878Z</time></trkpt><trkpt lat="37.0045194" lon="15.2701633"><ele>9.0</ele><time>2026-04-04T08:14:02.879Z</time></trkpt><trkpt lat="37.004567" lon="15.2702282"><ele>9.0</ele><time>2026-04-04T08:14:15.879Z</time></trkpt><trkpt lat="37.004634" lon="15.2703092"><ele>9.0</ele><time>2026-04-04T08:14:18.88Z</time></trkpt><trkpt lat="37.0046891" lon="15.2704102"><ele>9.0</ele><time>2026-04-04T08:14:20.879Z</time></trkpt><trkpt lat="37.0047572" lon="15.2705122"><ele>9.0</ele><time>2026-04-04T08:14:22.879Z</time></trkpt><trkpt lat="37.0047963" lon="15.2706284"><ele>9.0</ele><time>2026-04-04T08:14:24.88Z</time></trkpt><trkpt lat="37.0048432" lon="15.2707525"><ele>8.0</ele><time>2026-04-04T08:14:26.878Z</time></trkpt><trkpt lat="37.0048724" lon="15.2708788"><ele>7.0</ele><time>2026-04-04T08:14:28.879Z</time></trkpt><trkpt lat="37.0048882" lon="15.270962"><ele>6.0</ele><time>2026-04-04T08:14:29.879Z</time></trkpt><trkpt lat="37.0048932" lon="15.2710502"><ele>5.0</ele><time>2026-04-04T08:14:30.879Z</time></trkpt><trkpt lat="37.0048995" lon="15.2711386"><ele>4.0</ele><time>2026-04-04T08:14:31.879Z</time></trkpt><trkpt lat="37.0049112" lon="15.2712649"><ele>3.0</ele><time>2026-04-04T08:14:33.879Z</time></trkpt><trkpt lat="37.0049007" lon="15.2713485"><ele>2.4</ele><time>2026-04-04T08:14:35.88Z</time></trkpt><trkpt lat="37.0049135" lon="15.2714821"><ele>1.7999999999999998</ele><time>2026-04-04T08:14:37.88Z</time></trkpt><trkpt lat="37.0049396" lon="15.271609"><ele>1.2</ele><time>2026-04-04T08:14:39.88Z</time></trkpt><trkpt lat="37.0049612" lon="15.2717236"><ele>0.6</ele><time>2026-04-04T08:14:41.879Z</time></trkpt><trkpt lat="37.0049458" lon="15.2718194"><ele>0.0</ele><time>2026-04-04T08:14:44.88Z</time></trkpt><trkpt lat="37.0049554" lon="15.2719163"><ele>0.0</ele><time>2026-04-04T08:14:48.879Z</time></trkpt><trkpt lat="37.0049635" lon="15.2720159"><ele>0.0</ele><time>2026-04-04T08:14:51.878Z</time></trkpt><trkpt lat="37.0049882" lon="15.2721079"><ele>0.0</ele><time>2026-04-04T08:14:53.879Z</time></trkpt><trkpt lat="37.0050424" lon="15.2722267"><ele>0.0</ele><time>2026-04-04T08:14:55.88Z</time></trkpt><trkpt lat="37.0050678" lon="15.2723365"><ele>0.0</ele><time>2026-04-04T08:14:57.879Z</time></trkpt><trkpt lat="37.0051076" lon="15.2724552"><ele>0.6666666666666666</ele><time>2026-04-04T08:14:59.879Z</time></trkpt><trkpt lat="37.0051421" lon="15.2725229"><ele>1.3333333333333333</ele><time>2026-04-04T08:15:00.879Z</time></trkpt><trkpt lat="37.0052036" lon="15.2726319"><ele>2.0</ele><time>2026-04-04T08:15:02.88Z</time></trkpt><trkpt lat="37.0052534" lon="15.2727212"><ele>2.6666666666666665</ele><time>2026-04-04T08:15:04.878Z</time></trkpt><trkpt lat="37.005301" lon="15.2728105"><ele>3.333333333333333</ele><time>2026-04-04T08:15:06.879Z</time></trkpt><trkpt lat="37.0053562" lon="15.2729135"><ele>4.0</ele><time>2026-04-04T08:15:08.879Z</time></trkpt><trkpt lat="37.0053917" lon="15.2730002"><ele>4.0</ele><time>2026-04-04T08:15:09.878Z</time></trkpt><trkpt lat="37.0054197" lon="15.2730827"><ele>4.0</ele><time>2026-04-04T08:15:10.878Z</time></trkpt><trkpt lat="37.0054748" lon="15.2732121"><ele>4.0</ele><time>2026-04-04T08:15:12.879Z</time></trkpt><trkpt lat="37.0055271" lon="15.2733636"><ele>4.0</ele><time>2026-04-04T08:15:14.879Z</time></trkpt><trkpt lat="37.0056134" lon="15.2734777"><ele>4.0</ele><time>2026-04-04T08:15:16.88Z</time></trkpt><trkpt lat="37.0056669" lon="15.2735565"><ele>3.9999999999999996</ele><time>2026-04-04T08:15:17.879Z</time></trkpt><trkpt lat="37.0057243" lon="15.273625"><ele>4.0</ele><time>2026-04-04T08:15:18.878Z</time></trkpt><trkpt lat="37.0057874" lon="15.2736966"><ele>4.0</ele><time>2026-04-04T08:15:19.879Z</time></trkpt><trkpt lat="37.0058547" lon="15.2737712"><ele>4.0</ele><time>2026-04-04T08:15:20.879Z</time></trkpt><trkpt lat="37.0059251" lon="15.273842"><ele>3.9999999999999996</ele><time>2026-04-04T08:15:21.879Z</time></trkpt><trkpt lat="37.005989" lon="15.2739094"><ele>4.0</ele><time>2026-04-04T08:15:22.879Z</time></trkpt><trkpt lat="37.0060587" lon="15.2739845"><ele>3.9999999999999996</ele><time>2026-04-04T08:15:23.879Z</time></trkpt><trkpt lat="37.0061185" lon="15.2740569"><ele>4.0</ele><time>2026-04-04T08:15:24.88Z</time></trkpt><trkpt lat="37.0061713" lon="15.2741285"><ele>4.0</ele><time>2026-04-04T08:15:25.88Z</time></trkpt><trkpt lat="37.0062248" lon="15.2741865"><ele>4.0</ele><time>2026-04-04T08:15:26.878Z</time></trkpt><trkpt lat="37.0062806" lon="15.2742439"><ele>3.9999999999999996</ele><time>2026-04-04T08:15:27.879Z</time></trkpt><trkpt lat="37.0063432" lon="15.2742998"><ele>4.0</ele><time>2026-04-04T08:15:28.88Z</time></trkpt><trkpt lat="37.0064394" lon="15.2743515"><ele>4.0</ele><time>2026-04-04T08:15:29.879Z</time></trkpt><trkpt lat="37.0065217" lon="15.2744117"><ele>4.0</ele><time>2026-04-04T08:15:30.879Z</time></trkpt><trkpt lat="37.0066079" lon="15.2744701"><ele>4.0</ele><time>2026-04-04T08:15:31.879Z</time></trkpt><trkpt lat="37.0066981" lon="15.274531"><ele>4.0</ele><time>2026-04-04T08:15:32.878Z</time></trkpt><trkpt lat="37.0068" lon="15.2745861"><ele>4.0</ele><time>2026-04-04T08:15:33.88Z</time></trkpt><trkpt lat="37.0068991" lon="15.2746393"><ele>4.333333333333333</ele><time>2026-04-04T08:15:34.88Z</time></trkpt><trkpt lat="37.0069924" lon="15.2746798"><ele>4.666666666666666</ele><time>2026-04-04T08:15:35.879Z</time></trkpt><trkpt lat="37.0070868" lon="15.2747186"><ele>5.0</ele><time>2026-04-04T08:15:36.88Z</time></trkpt><trkpt lat="37.0071654" lon="15.2747482"><ele>5.333333333333333</ele><time>2026-04-04T08:15:37.878Z</time></trkpt><trkpt lat="37.0072381" lon="15.2747763"><ele>5.666666666666667</ele><time>2026-04-04T08:15:38.879Z</time></trkpt><trkpt lat="37.0073103" lon="15.2747981"><ele>6.0</ele><time>2026-04-04T08:15:39.879Z</time></trkpt><trkpt lat="37.0073942" lon="15.2748205"><ele>6.0</ele><time>2026-04-04T08:15:40.879Z</time></trkpt><trkpt lat="37.0074724" lon="15.2748325"><ele>6.0</ele><time>2026-04-04T08:15:41.879Z</time></trkpt><trkpt lat="37.0075461" lon="15.27485"><ele>6.0</ele><time>2026-04-04T08:15:42.879Z</time></trkpt><trkpt lat="37.00761" lon="15.2748826"><ele>6.0</ele><time>2026-04-04T08:15:43.879Z</time></trkpt><trkpt lat="37.0076932" lon="15.2749829"><ele>6.0</ele><time>2026-04-04T08:15:45.879Z</time></trkpt><trkpt lat="37.0077532" lon="15.2751024"><ele>6.4</ele><time>2026-04-04T08:15:47.878Z</time></trkpt><trkpt lat="37.0077796" lon="15.2752167"><ele>6.8</ele><time>2026-04-04T08:15:49.879Z</time></trkpt><trkpt lat="37.0077561" lon="15.2753188"><ele>7.200000000000001</ele><time>2026-04-04T08:15:51.879Z</time></trkpt><trkpt lat="37.0077146" lon="15.2754267"><ele>7.6000000000000005</ele><time>2026-04-04T08:15:53.88Z</time></trkpt><trkpt lat="37.0076964" lon="15.2755343"><ele>8.0</ele><time>2026-04-04T08:15:55.879Z</time></trkpt><trkpt lat="37.0076567" lon="15.2756809"><ele>8.0</ele><time>2026-04-04T08:15:57.879Z</time></trkpt><trkpt lat="37.0076296" lon="15.2758032"><ele>8.0</ele><time>2026-04-04T08:15:59.878Z</time></trkpt><trkpt lat="37.0076615" lon="15.2759081"><ele>8.0</ele><time>2026-04-04T08:16:03.879Z</time></trkpt><trkpt lat="37.0076593" lon="15.2760226"><ele>8.0</ele><time>2026-04-04T08:16:05.879Z</time></trkpt><trkpt lat="37.0076512" lon="15.2761259"><ele>8.0</ele><time>2026-04-04T08:16:07.878Z</time></trkpt><trkpt lat="37.0076696" lon="15.2762452"><ele>7.999999999999999</ele><time>2026-04-04T08:16:10.879Z</time></trkpt><trkpt lat="37.0077075" lon="15.2763397"><ele>8.0</ele><time>2026-04-04T08:16:13.88Z</time></trkpt><trkpt lat="37.007758" lon="15.2763973"><ele>8.0</ele><time>2026-04-04T08:16:15.88Z</time></trkpt><trkpt lat="37.0078257" lon="15.2765127"><ele>8.0</ele><time>2026-04-04T08:16:17.879Z</time></trkpt><trkpt lat="37.0078985" lon="15.2766051"><ele>7.999999999999999</ele><time>2026-04-04T08:16:19.878Z</time></trkpt><trkpt lat="37.0079563" lon="15.2766549"><ele>8.0</ele><time>2026-04-04T08:16:22.879Z</time></trkpt><trkpt lat="37.0080224" lon="15.2767062"><ele>7.800000000000001</ele><time>2026-04-04T08:16:25.879Z</time></trkpt><trkpt lat="37.0080681" lon="15.2767641"><ele>7.6000000000000005</ele><time>2026-04-04T08:16:28.878Z</time></trkpt><trkpt lat="37.0081315" lon="15.2767906"><ele>7.3999999999999995</ele><time>2026-04-04T08:16:35.879Z</time></trkpt><trkpt lat="37.0082209" lon="15.2768041"><ele>7.199999999999999</ele><time>2026-04-04T08:16:38.878Z</time></trkpt><trkpt lat="37.0083336" lon="15.2768717"><ele>7.0</ele><time>2026-04-04T08:16:40.879Z</time></trkpt><trkpt lat="37.0084334" lon="15.2769331"><ele>7.666666666666667</ele><time>2026-04-04T08:16:42.879Z</time></trkpt><trkpt lat="37.0085402" lon="15.276999"><ele>8.333333333333334</ele><time>2026-04-04T08:16:44.879Z</time></trkpt><trkpt lat="37.0086001" lon="15.2770342"><ele>9.0</ele><time>2026-04-04T08:16:45.879Z</time></trkpt><trkpt lat="37.0086657" lon="15.2770696"><ele>9.666666666666666</ele><time>2026-04-04T08:16:46.88Z</time></trkpt><trkpt lat="37.0087357" lon="15.2771086"><ele>10.333333333333332</ele><time>2026-04-04T08:16:47.878Z</time></trkpt><trkpt lat="37.0088124" lon="15.2771478"><ele>11.0</ele><time>2026-04-04T08:16:48.879Z</time></trkpt><trkpt lat="37.0088956" lon="15.2771882"><ele>11.0</ele><time>2026-04-04T08:16:49.879Z</time></trkpt><trkpt lat="37.0089824" lon="15.2772363"><ele>11.0</ele><time>2026-04-04T08:16:50.88Z</time></trkpt><trkpt lat="37.0090736" lon="15.2772813"><ele>11.0</ele><time>2026-04-04T08:16:51.879Z</time></trkpt><trkpt lat="37.0091688" lon="15.2773306"><ele>11.0</ele><time>2026-04-04T08:16:52.879Z</time></trkpt><trkpt lat="37.0092663" lon="15.277386"><ele>11.0</ele><time>2026-04-04T08:16:53.879Z</time></trkpt><trkpt lat="37.0093644" lon="15.2774483"><ele>11.4</ele><time>2026-04-04T08:16:54.879Z</time></trkpt><trkpt lat="37.0094589" lon="15.2775093"><ele>11.8</ele><time>2026-04-04T08:16:55.879Z</time></trkpt><trkpt lat="37.0095644" lon="15.2775719"><ele>12.200000000000001</ele><time>2026-04-04T08:16:56.879Z</time></trkpt><trkpt lat="37.009663" lon="15.2776268"><ele>12.600000000000001</ele><time>2026-04-04T08:16:57.878Z</time></trkpt><trkpt lat="37.009761" lon="15.2776855"><ele>13.0</ele><time>2026-04-04T08:16:58.879Z</time></trkpt><trkpt lat="37.0098642" lon="15.2777443"><ele>12.999999999999998</ele><time>2026-04-04T08:16:59.879Z</time></trkpt><trkpt lat="37.0099582" lon="15.2777927"><ele>13.0</ele><time>2026-04-04T08:17:00.879Z</time></trkpt><trkpt lat="37.0100479" lon="15.2778422"><ele>13.0</ele><time>2026-04-04T08:17:01.879Z</time></trkpt><trkpt lat="37.0101336" lon="15.2778894"><ele>13.0</ele><time>2026-04-04T08:17:02.879Z</time></trkpt><trkpt lat="37.0102132" lon="15.2779342"><ele>12.999999999999998</ele><time>2026-04-04T08:17:03.878Z</time></trkpt><trkpt lat="37.0102721" lon="15.2779723"><ele>13.0</ele><time>2026-04-04T08:17:04.88Z</time></trkpt><trkpt lat="37.0103643" lon="15.2780328"><ele>12.8</ele><time>2026-04-04T08:17:06.879Z</time></trkpt><trkpt lat="37.0104112" lon="15.2781043"><ele>12.600000000000001</ele><time>2026-04-04T08:17:09.879Z</time></trkpt><trkpt lat="37.0103666" lon="15.2782582"><ele>12.399999999999999</ele><time>2026-04-04T08:17:11.878Z</time></trkpt><trkpt lat="37.0103307" lon="15.2783656"><ele>12.2</ele><time>2026-04-04T08:17:12.879Z</time></trkpt><trkpt lat="37.0102889" lon="15.2784816"><ele>12.0</ele><time>2026-04-04T08:17:13.879Z</time></trkpt><trkpt lat="37.0102521" lon="15.2786146"><ele>12.0</ele><time>2026-04-04T08:17:14.879Z</time></trkpt><trkpt lat="37.0102099" lon="15.2787572"><ele>12.0</ele><time>2026-04-04T08:17:15.879Z</time></trkpt><trkpt lat="37.0101708" lon="15.2788983"><ele>12.0</ele><time>2026-04-04T08:17:16.879Z</time></trkpt><trkpt lat="37.0101344" lon="15.2790412"><ele>12.0</ele><time>2026-04-04T08:17:17.879Z</time></trkpt><trkpt lat="37.0100975" lon="15.2791797"><ele>12.0</ele><time>2026-04-04T08:17:18.878Z</time></trkpt><trkpt lat="37.0100531" lon="15.2793177"><ele>12.0</ele><time>2026-04-04T08:17:19.879Z</time></trkpt><trkpt lat="37.0100126" lon="15.2794618"><ele>12.0</ele><time>2026-04-04T08:17:20.879Z</time></trkpt><trkpt lat="37.0099708" lon="15.2795988"><ele>12.0</ele><time>2026-04-04T08:17:21.879Z</time></trkpt><trkpt lat="37.0099374" lon="15.2797353"><ele>12.0</ele><time>2026-04-04T08:17:22.879Z</time></trkpt><trkpt lat="37.0099022" lon="15.2798761"><ele>12.0</ele><time>2026-04-04T08:17:23.879Z</time></trkpt><trkpt lat="37.0098671" lon="15.2800121"><ele>12.0</ele><time>2026-04-04T08:17:24.879Z</time></trkpt><trkpt lat="37.0098343" lon="15.2801506"><ele>12.0</ele><time>2026-04-04T08:17:25.879Z</time></trkpt><trkpt lat="37.0098035" lon="15.2802612"><ele>12.0</ele><time>2026-04-04T08:17:26.879Z</time></trkpt><trkpt lat="37.0097796" lon="15.2803646"><ele>11.999999999999998</ele><time>2026-04-04T08:17:27.879Z</time></trkpt><trkpt lat="37.009759" lon="15.2804641"><ele>12.0</ele><time>2026-04-04T08:17:28.878Z</time></trkpt><trkpt lat="37.0097413" lon="15.2805656"><ele>12.0</ele><time>2026-04-04T08:17:29.879Z</time></trkpt><trkpt lat="37.0097192" lon="15.2806528"><ele>12.0</ele><time>2026-04-04T08:17:30.879Z</time></trkpt><trkpt lat="37.0097044" lon="15.2807432"><ele>12.0</ele><time>2026-04-04T08:17:31.879Z</time></trkpt><trkpt lat="37.0096899" lon="15.2808203"><ele>11.999999999999998</ele><time>2026-04-04T08:17:32.879Z</time></trkpt><trkpt lat="37.0096768" lon="15.2809064"><ele>12.0</ele><time>2026-04-04T08:17:33.879Z</time></trkpt><trkpt lat="37.0096649" lon="15.2809945"><ele>12.142857142857142</ele><time>2026-04-04T08:17:34.879Z</time></trkpt><trkpt lat="37.0096485" lon="15.2810887"><ele>12.285714285714285</ele><time>2026-04-04T08:17:35.878Z</time></trkpt><trkpt lat="37.0096259" lon="15.2811815"><ele>12.428571428571427</ele><time>2026-04-04T08:17:36.878Z</time></trkpt><trkpt lat="37.009594" lon="15.2812534"><ele>12.571428571428571</ele><time>2026-04-04T08:17:37.879Z</time></trkpt><trkpt lat="37.0095632" lon="15.281323"><ele>12.714285714285715</ele><time>2026-04-04T08:17:38.878Z</time></trkpt><trkpt lat="37.009523" lon="15.2813891"><ele>12.857142857142856</ele><time>2026-04-04T08:17:39.879Z</time></trkpt><trkpt lat="37.009477" lon="15.281445"><ele>13.0</ele><time>2026-04-04T08:17:40.879Z</time></trkpt><trkpt lat="37.0094233" lon="15.281516"><ele>12.999999999999998</ele><time>2026-04-04T08:17:41.879Z</time></trkpt><trkpt lat="37.0093701" lon="15.2815872"><ele>13.0</ele><time>2026-04-04T08:17:42.879Z</time></trkpt><trkpt lat="37.009317" lon="15.2816569"><ele>13.0</ele><time>2026-04-04T08:17:43.878Z</time></trkpt><trkpt lat="37.009269" lon="15.2817316"><ele>13.0</ele><time>2026-04-04T08:17:44.879Z</time></trkpt><trkpt lat="37.009223" lon="15.2818177"><ele>12.999999999999998</ele><time>2026-04-04T08:17:45.879Z</time></trkpt><trkpt lat="37.0091806" lon="15.2819177"><ele>13.0</ele><time>2026-04-04T08:17:46.879Z</time></trkpt><trkpt lat="37.0091339" lon="15.2820161"><ele>12.8</ele><time>2026-04-04T08:17:47.879Z</time></trkpt><trkpt lat="37.0090884" lon="15.2821199"><ele>12.600000000000001</ele><time>2026-04-04T08:17:48.879Z</time></trkpt><trkpt lat="37.0090463" lon="15.2822514"><ele>12.399999999999999</ele><time>2026-04-04T08:17:49.878Z</time></trkpt><trkpt lat="37.009005" lon="15.282376"><ele>12.2</ele><time>2026-04-04T08:17:50.879Z</time></trkpt><trkpt lat="37.0089663" lon="15.2825042"><ele>12.0</ele><time>2026-04-04T08:17:51.878Z</time></trkpt><trkpt lat="37.0089262" lon="15.2826329"><ele>12.0</ele><time>2026-04-04T08:17:52.88Z</time></trkpt><trkpt lat="37.0088818" lon="15.282761"><ele>12.0</ele><time>2026-04-04T08:17:53.879Z</time></trkpt><trkpt lat="37.0088374" lon="15.2828889"><ele>12.0</ele><time>2026-04-04T08:17:54.878Z</time></trkpt><trkpt lat="37.008796" lon="15.2830182"><ele>12.0</ele><time>2026-04-04T08:17:55.879Z</time></trkpt><trkpt lat="37.0087577" lon="15.2831515"><ele>12.0</ele><time>2026-04-04T08:17:56.879Z</time></trkpt><trkpt lat="37.0087216" lon="15.2832876"><ele>11.833333333333334</ele><time>2026-04-04T08:17:57.879Z</time></trkpt><trkpt lat="37.0086822" lon="15.2834152"><ele>11.666666666666666</ele><time>2026-04-04T08:17:58.879Z</time></trkpt><trkpt lat="37.0086488" lon="15.2835119"><ele>11.5</ele><time>2026-04-04T08:17:59.878Z</time></trkpt><trkpt lat="37.0086411" lon="15.2835911"><ele>11.333333333333332</ele><time>2026-04-04T08:18:01.879Z</time></trkpt><trkpt lat="37.0087128" lon="15.2836264"><ele>11.166666666666666</ele><time>2026-04-04T08:18:03.879Z</time></trkpt><trkpt lat="37.0087741" lon="15.2836556"><ele>11.0</ele><time>2026-04-04T08:18:04.879Z</time></trkpt><trkpt lat="37.0088394" lon="15.2836966"><ele>11.0</ele><time>2026-04-04T08:18:05.878Z</time></trkpt><trkpt lat="37.008912" lon="15.2837557"><ele>11.0</ele><time>2026-04-04T08:18:06.879Z</time></trkpt><trkpt lat="37.008984" lon="15.2838168"><ele>11.0</ele><time>2026-04-04T08:18:07.878Z</time></trkpt><trkpt lat="37.0090561" lon="15.2838762"><ele>11.0</ele><time>2026-04-04T08:18:08.879Z</time></trkpt><trkpt lat="37.0091487" lon="15.2839124"><ele>11.0</ele><time>2026-04-04T08:18:09.879Z</time></trkpt><trkpt lat="37.0092396" lon="15.2839479"><ele>11.0</ele><time>2026-04-04T08:18:10.879Z</time></trkpt><trkpt lat="37.0093341" lon="15.2839717"><ele>11.0</ele><time>2026-04-04T08:18:11.879Z</time></trkpt><trkpt lat="37.0094298" lon="15.2839854"><ele>11.0</ele><time>2026-04-04T08:18:12.879Z</time></trkpt><trkpt lat="37.0095319" lon="15.2840042"><ele>11.0</ele><time>2026-04-04T08:18:13.879Z</time></trkpt><trkpt lat="37.0096431" lon="15.284022"><ele>11.0</ele><time>2026-04-04T08:18:14.879Z</time></trkpt><trkpt lat="37.0097585" lon="15.2840428"><ele>11.0</ele><time>2026-04-04T08:18:15.879Z</time></trkpt><trkpt lat="37.0098789" lon="15.2840621"><ele>11.0</ele><time>2026-04-04T08:18:16.879Z</time></trkpt><trkpt lat="37.0100131" lon="15.284083"><ele>11.0</ele><time>2026-04-04T08:18:17.878Z</time></trkpt><trkpt lat="37.0101582" lon="15.2840982"><ele>11.0</ele><time>2026-04-04T08:18:18.879Z</time></trkpt><trkpt lat="37.010304" lon="15.2841204"><ele>11.25</ele><time>2026-04-04T08:18:19.879Z</time></trkpt><trkpt lat="37.0104506" lon="15.2841373"><ele>11.5</ele><time>2026-04-04T08:18:20.879Z</time></trkpt><trkpt lat="37.0105978" lon="15.2841557"><ele>11.75</ele><time>2026-04-04T08:18:21.879Z</time></trkpt><trkpt lat="37.010738" lon="15.2841771"><ele>12.0</ele><time>2026-04-04T08:18:22.879Z</time></trkpt><trkpt lat="37.0108778" lon="15.2841986"><ele>12.0</ele><time>2026-04-04T08:18:23.879Z</time></trkpt><trkpt lat="37.011006" lon="15.2842282"><ele>12.0</ele><time>2026-04-04T08:18:24.879Z</time></trkpt><trkpt lat="37.0111283" lon="15.2842519"><ele>12.0</ele><time>2026-04-04T08:18:25.878Z</time></trkpt><trkpt lat="37.0112428" lon="15.2842774"><ele>12.0</ele><time>2026-04-04T08:18:26.879Z</time></trkpt><trkpt lat="37.0113545" lon="15.2842952"><ele>12.0</ele><time>2026-04-04T08:18:27.878Z</time></trkpt><trkpt lat="37.0114674" lon="15.2843124"><ele>12.0</ele><time>2026-04-04T08:18:28.878Z</time></trkpt><trkpt lat="37.0115764" lon="15.2843185"><ele>12.0</ele><time>2026-04-04T08:18:29.878Z</time></trkpt><trkpt lat="37.0116725" lon="15.2843372"><ele>12.0</ele><time>2026-04-04T08:18:30.879Z</time></trkpt><trkpt lat="37.0117484" lon="15.2843478"><ele>12.0</ele><time>2026-04-04T08:18:31.879Z</time></trkpt><trkpt lat="37.0118353" lon="15.284389"><ele>12.0</ele><time>2026-04-04T08:18:33.879Z</time></trkpt><trkpt lat="37.0118531" lon="15.284502"><ele>12.0</ele><time>2026-04-04T08:18:35.879Z</time></trkpt><trkpt lat="37.0119189" lon="15.2846255"><ele>12.0</ele><time>2026-04-04T08:18:37.878Z</time></trkpt><trkpt lat="37.0119939" lon="15.2846713"><ele>12.0</ele><time>2026-04-04T08:18:38.879Z</time></trkpt><trkpt lat="37.0120917" lon="15.2847029"><ele>12.0</ele><time>2026-04-04T08:18:39.879Z</time></trkpt><trkpt lat="37.0121922" lon="15.2847287"><ele>12.0</ele><time>2026-04-04T08:18:40.879Z</time></trkpt><trkpt lat="37.0123022" lon="15.2847767"><ele>12.0</ele><time>2026-04-04T08:18:41.879Z</time></trkpt><trkpt lat="37.0124143" lon="15.2848323"><ele>12.0</ele><time>2026-04-04T08:18:42.879Z</time></trkpt><trkpt lat="37.0125321" lon="15.2848726"><ele>12.0</ele><time>2026-04-04T08:18:43.879Z</time></trkpt><trkpt lat="37.0126524" lon="15.2849097"><ele>12.0</ele><time>2026-04-04T08:18:44.878Z</time></trkpt><trkpt lat="37.0127721" lon="15.2849432"><ele>12.0</ele><time>2026-04-04T08:18:45.879Z</time></trkpt><trkpt lat="37.0128896" lon="15.2849882"><ele>12.0</ele><time>2026-04-04T08:18:46.879Z</time></trkpt><trkpt lat="37.0130015" lon="15.2850344"><ele>12.0</ele><time>2026-04-04T08:18:47.879Z</time></trkpt><trkpt lat="37.0131031" lon="15.2850815"><ele>12.0</ele><time>2026-04-04T08:18:48.879Z</time></trkpt><trkpt lat="37.013201" lon="15.2851276"><ele>12.0</ele><time>2026-04-04T08:18:49.879Z</time></trkpt><trkpt lat="37.013274" lon="15.2851698"><ele>12.0</ele><time>2026-04-04T08:18:50.878Z</time></trkpt><trkpt lat="37.0133588" lon="15.2852187"><ele>12.0</ele><time>2026-04-04T08:18:52.879Z</time></trkpt><trkpt lat="37.0133994" lon="15.2852806"><ele>12.0</ele><time>2026-04-04T08:18:54.879Z</time></trkpt><trkpt lat="37.0133556" lon="15.2854342"><ele>12.0</ele><time>2026-04-04T08:18:56.879Z</time></trkpt><trkpt lat="37.0133207" lon="15.2855434"><ele>12.0</ele><time>2026-04-04T08:18:57.879Z</time></trkpt><trkpt lat="37.0132866" lon="15.2856689"><ele>12.0</ele><time>2026-04-04T08:18:58.878Z</time></trkpt><trkpt lat="37.0132478" lon="15.2858159"><ele>12.0</ele><time>2026-04-04T08:18:59.878Z</time></trkpt><trkpt lat="37.013209" lon="15.285973"><ele>12.25</ele><time>2026-04-04T08:19:00.878Z</time></trkpt><trkpt lat="37.0131688" lon="15.2861288"><ele>12.5</ele><time>2026-04-04T08:19:01.878Z</time></trkpt><trkpt lat="37.0131308" lon="15.2862796"><ele>12.75</ele><time>2026-04-04T08:19:02.879Z</time></trkpt><trkpt lat="37.0130944" lon="15.2864129"><ele>13.0</ele><time>2026-04-04T08:19:03.879Z</time></trkpt><trkpt lat="37.0130686" lon="15.2865174"><ele>12.999999999999998</ele><time>2026-04-04T08:19:04.879Z</time></trkpt><trkpt lat="37.0130431" lon="15.2866166"><ele>13.0</ele><time>2026-04-04T08:19:05.879Z</time></trkpt><trkpt lat="37.0130203" lon="15.2867052"><ele>13.0</ele><time>2026-04-04T08:19:06.879Z</time></trkpt><trkpt lat="37.0129898" lon="15.2868023"><ele>13.0</ele><time>2026-04-04T08:19:07.879Z</time></trkpt><trkpt lat="37.012965" lon="15.286898"><ele>12.999999999999998</ele><time>2026-04-04T08:19:08.879Z</time></trkpt><trkpt lat="37.0129379" lon="15.2870049"><ele>13.0</ele><time>2026-04-04T08:19:09.879Z</time></trkpt><trkpt lat="37.0129069" lon="15.2871197"><ele>13.0</ele><time>2026-04-04T08:19:10.879Z</time></trkpt><trkpt lat="37.0128738" lon="15.2872396"><ele>13.0</ele><time>2026-04-04T08:19:11.879Z</time></trkpt><trkpt lat="37.012842" lon="15.287358"><ele>13.0</ele><time>2026-04-04T08:19:12.879Z</time></trkpt><trkpt lat="37.0128088" lon="15.2874757"><ele>13.0</ele><time>2026-04-04T08:19:13.879Z</time></trkpt><trkpt lat="37.0127742" lon="15.2876038"><ele>13.0</ele><time>2026-04-04T08:19:14.879Z</time></trkpt><trkpt lat="37.0127413" lon="15.2877377"><ele>13.25</ele><time>2026-04-04T08:19:15.879Z</time></trkpt><trkpt lat="37.0127091" lon="15.2878729"><ele>13.5</ele><time>2026-04-04T08:19:16.879Z</time></trkpt><trkpt lat="37.0126732" lon="15.2880114"><ele>13.75</ele><time>2026-04-04T08:19:17.878Z</time></trkpt><trkpt lat="37.0126402" lon="15.2881591"><ele>14.0</ele><time>2026-04-04T08:19:18.879Z</time></trkpt><trkpt lat="37.0126148" lon="15.2883088"><ele>13.5</ele><time>2026-04-04T08:19:19.879Z</time></trkpt><trkpt lat="37.0125973" lon="15.288473"><ele>13.0</ele><time>2026-04-04T08:19:20.878Z</time></trkpt><trkpt lat="37.0125903" lon="15.2886435"><ele>12.5</ele><time>2026-04-04T08:19:21.879Z</time></trkpt><trkpt lat="37.0126276" lon="15.2888272"><ele>12.0</ele><time>2026-04-04T08:19:22.879Z</time></trkpt><trkpt lat="37.0126719" lon="15.2890032"><ele>12.0</ele><time>2026-04-04T08:19:23.879Z</time></trkpt><trkpt lat="37.0127353" lon="15.2891866"><ele>12.0</ele><time>2026-04-04T08:19:24.879Z</time></trkpt><trkpt lat="37.0128124" lon="15.2893696"><ele>12.0</ele><time>2026-04-04T08:19:25.879Z</time></trkpt><trkpt lat="37.012898" lon="15.2895463"><ele>12.0</ele><time>2026-04-04T08:19:26.879Z</time></trkpt><trkpt lat="37.0129807" lon="15.2897164"><ele>12.0</ele><time>2026-04-04T08:19:27.879Z</time></trkpt><trkpt lat="37.0130635" lon="15.2898805"><ele>12.0</ele><time>2026-04-04T08:19:28.879Z</time></trkpt><trkpt lat="37.0131375" lon="15.2900344"><ele>12.0</ele><time>2026-04-04T08:19:29.879Z</time></trkpt><trkpt lat="37.0132104" lon="15.2901842"><ele>12.0</ele><time>2026-04-04T08:19:30.879Z</time></trkpt><trkpt lat="37.0132767" lon="15.2903461"><ele>12.0</ele><time>2026-04-04T08:19:31.878Z</time></trkpt><trkpt lat="37.0133375" lon="15.2905101"><ele>12.0</ele><time>2026-04-04T08:19:32.879Z</time></trkpt><trkpt lat="37.0133894" lon="15.2906926"><ele>11.666666666666666</ele><time>2026-04-04T08:19:33.878Z</time></trkpt><trkpt lat="37.0134472" lon="15.2908876"><ele>11.333333333333332</ele><time>2026-04-04T08:19:34.879Z</time></trkpt><trkpt lat="37.0134951" lon="15.2911079"><ele>11.0</ele><time>2026-04-04T08:19:35.879Z</time></trkpt><trkpt lat="37.0135507" lon="15.2913412"><ele>10.666666666666666</ele><time>2026-04-04T08:19:36.879Z</time></trkpt><trkpt lat="37.0136154" lon="15.2915936"><ele>10.333333333333334</ele><time>2026-04-04T08:19:37.879Z</time></trkpt><trkpt lat="37.0136778" lon="15.2918415"><ele>10.0</ele><time>2026-04-04T08:19:38.879Z</time></trkpt><trkpt lat="37.0137326" lon="15.2920849"><ele>10.333333333333334</ele><time>2026-04-04T08:19:39.879Z</time></trkpt><trkpt lat="37.0137787" lon="15.292322"><ele>10.666666666666666</ele><time>2026-04-04T08:19:40.879Z</time></trkpt><trkpt lat="37.0138184" lon="15.292541"><ele>11.0</ele><time>2026-04-04T08:19:41.879Z</time></trkpt><trkpt lat="37.0138502" lon="15.292751"><ele>11.0</ele><time>2026-04-04T08:19:42.879Z</time></trkpt><trkpt lat="37.0138664" lon="15.2929533"><ele>11.0</ele><time>2026-04-04T08:19:43.879Z</time></trkpt><trkpt lat="37.0138881" lon="15.2931578"><ele>11.0</ele><time>2026-04-04T08:19:44.879Z</time></trkpt><trkpt lat="37.0139269" lon="15.2933545"><ele>11.0</ele><time>2026-04-04T08:19:45.878Z</time></trkpt><trkpt lat="37.0139861" lon="15.2935422"><ele>11.0</ele><time>2026-04-04T08:19:46.879Z</time></trkpt><trkpt lat="37.0140738" lon="15.2937253"><ele>11.0</ele><time>2026-04-04T08:19:47.879Z</time></trkpt><trkpt lat="37.0141774" lon="15.2938864"><ele>11.666666666666666</ele><time>2026-04-04T08:19:48.879Z</time></trkpt><trkpt lat="37.0143002" lon="15.2940261"><ele>12.333333333333332</ele><time>2026-04-04T08:19:49.878Z</time></trkpt><trkpt lat="37.0144322" lon="15.2941434"><ele>13.0</ele><time>2026-04-04T08:19:50.879Z</time></trkpt><trkpt lat="37.0145703" lon="15.2942593"><ele>13.0</ele><time>2026-04-04T08:19:51.878Z</time></trkpt><trkpt lat="37.0147049" lon="15.2943827"><ele>13.0</ele><time>2026-04-04T08:19:52.878Z</time></trkpt><trkpt lat="37.014845" lon="15.2945065"><ele>13.0</ele><time>2026-04-04T08:19:53.879Z</time></trkpt><trkpt lat="37.0149889" lon="15.294623"><ele>13.0</ele><time>2026-04-04T08:19:54.879Z</time></trkpt><trkpt lat="37.0151306" lon="15.294749"><ele>13.0</ele><time>2026-04-04T08:19:55.879Z</time></trkpt><trkpt lat="37.0152669" lon="15.2948668"><ele>13.0</ele><time>2026-04-04T08:19:56.879Z</time></trkpt><trkpt lat="37.0153993" lon="15.2949776"><ele>13.0</ele><time>2026-04-04T08:19:57.879Z</time></trkpt><trkpt lat="37.0155292" lon="15.2950925"><ele>13.0</ele><time>2026-04-04T08:19:58.879Z</time></trkpt><trkpt lat="37.0156634" lon="15.2952018"><ele>13.0</ele><time>2026-04-04T08:19:59.879Z</time></trkpt><trkpt lat="37.0157878" lon="15.2953178"><ele>12.666666666666666</ele><time>2026-04-04T08:20:00.879Z</time></trkpt><trkpt lat="37.0159179" lon="15.2954322"><ele>12.333333333333332</ele><time>2026-04-04T08:20:01.879Z</time></trkpt><trkpt lat="37.0160372" lon="15.2955527"><ele>12.0</ele><time>2026-04-04T08:20:02.879Z</time></trkpt><trkpt lat="37.0161309" lon="15.2956904"><ele>12.0</ele><time>2026-04-04T08:20:03.879Z</time></trkpt><trkpt lat="37.016207" lon="15.2958486"><ele>12.0</ele><time>2026-04-04T08:20:04.879Z</time></trkpt><trkpt lat="37.0162514" lon="15.2960251"><ele>12.0</ele><time>2026-04-04T08:20:05.878Z</time></trkpt><trkpt lat="37.0162656" lon="15.2961983"><ele>12.0</ele><time>2026-04-04T08:20:06.879Z</time></trkpt><trkpt lat="37.0162486" lon="15.2963516"><ele>12.5</ele><time>2026-04-04T08:20:07.878Z</time></trkpt><trkpt lat="37.0162082" lon="15.2965165"><ele>13.0</ele><time>2026-04-04T08:20:08.879Z</time></trkpt><trkpt lat="37.0161663" lon="15.2966834"><ele>13.5</ele><time>2026-04-04T08:20:09.879Z</time></trkpt><trkpt lat="37.0161113" lon="15.2968721"><ele>14.0</ele><time>2026-04-04T08:20:10.878Z</time></trkpt><trkpt lat="37.0160586" lon="15.2970643"><ele>13.666666666666668</ele><time>2026-04-04T08:20:11.878Z</time></trkpt><trkpt lat="37.0160099" lon="15.2972668"><ele>13.333333333333332</ele><time>2026-04-04T08:20:12.879Z</time></trkpt><trkpt lat="37.0159465" lon="15.2974623"><ele>13.0</ele><time>2026-04-04T08:20:13.879Z</time></trkpt><trkpt lat="37.0158848" lon="15.2976627"><ele>13.0</ele><time>2026-04-04T08:20:14.879Z</time></trkpt><trkpt lat="37.015823" lon="15.2978534"><ele>13.0</ele><time>2026-04-04T08:20:15.878Z</time></trkpt><trkpt lat="37.0157725" lon="15.2980349"><ele>13.0</ele><time>2026-04-04T08:20:16.879Z</time></trkpt><trkpt lat="37.0157177" lon="15.2982247"><ele>11.333333333333332</ele><time>2026-04-04T08:20:17.879Z</time></trkpt><trkpt lat="37.0156735" lon="15.2984143"><ele>9.666666666666666</ele><time>2026-04-04T08:20:18.879Z</time></trkpt><trkpt lat="37.0156481" lon="15.298616"><ele>8.0</ele><time>2026-04-04T08:20:19.879Z</time></trkpt><trkpt lat="37.015652" lon="15.2988037"><ele>6.666666666666666</ele><time>2026-04-04T08:20:20.879Z</time></trkpt><trkpt lat="37.0156873" lon="15.2990013"><ele>5.333333333333333</ele><time>2026-04-04T08:20:21.879Z</time></trkpt><trkpt lat="37.0157608" lon="15.2992139"><ele>4.0</ele><time>2026-04-04T08:20:22.879Z</time></trkpt><trkpt lat="37.0158669" lon="15.2994141"><ele>6.666666666666666</ele><time>2026-04-04T08:20:23.878Z</time></trkpt><trkpt lat="37.0160062" lon="15.2996174"><ele>9.333333333333334</ele><time>2026-04-04T08:20:24.879Z</time></trkpt><trkpt lat="37.0161627" lon="15.2998358"><ele>12.0</ele><time>2026-04-04T08:20:25.879Z</time></trkpt><trkpt lat="37.0163222" lon="15.3000629"><ele>12.0</ele><time>2026-04-04T08:20:26.879Z</time></trkpt><trkpt lat="37.0164873" lon="15.3002898"><ele>12.0</ele><time>2026-04-04T08:20:27.879Z</time></trkpt><trkpt lat="37.0166439" lon="15.3005084"><ele>13.0</ele><time>2026-04-04T08:20:28.879Z</time></trkpt><trkpt lat="37.0167911" lon="15.3007116"><ele>14.0</ele><time>2026-04-04T08:20:29.879Z</time></trkpt><trkpt lat="37.0169289" lon="15.3008905"><ele>15.0</ele><time>2026-04-04T08:20:30.879Z</time></trkpt><trkpt lat="37.0170673" lon="15.301061"><ele>15.0</ele><time>2026-04-04T08:20:31.878Z</time></trkpt><trkpt lat="37.0172162" lon="15.3012141"><ele>15.0</ele><time>2026-04-04T08:20:32.878Z</time></trkpt><trkpt lat="37.0173741" lon="15.3013511"><ele>15.0</ele><time>2026-04-04T08:20:33.879Z</time></trkpt><trkpt lat="37.0175392" lon="15.3014681"><ele>16.0</ele><time>2026-04-04T08:20:34.879Z</time></trkpt><trkpt lat="37.0177142" lon="15.3015608"><ele>17.0</ele><time>2026-04-04T08:20:35.878Z</time></trkpt><trkpt lat="37.0178958" lon="15.3016356"><ele>18.0</ele><time>2026-04-04T08:20:36.879Z</time></trkpt><trkpt lat="37.0180777" lon="15.3016903"><ele>18.0</ele><time>2026-04-04T08:20:37.88Z</time></trkpt><trkpt lat="37.018258" lon="15.301739"><ele>18.0</ele><time>2026-04-04T08:20:38.879Z</time></trkpt><trkpt lat="37.0184233" lon="15.3017822"><ele>18.0</ele><time>2026-04-04T08:20:39.879Z</time></trkpt><trkpt lat="37.018575" lon="15.3018212"><ele>18.75</ele><time>2026-04-04T08:20:40.879Z</time></trkpt><trkpt lat="37.018713" lon="15.3018614"><ele>19.5</ele><time>2026-04-04T08:20:41.879Z</time></trkpt><trkpt lat="37.0188347" lon="15.3018925"><ele>20.25</ele><time>2026-04-04T08:20:42.878Z</time></trkpt><trkpt lat="37.0189365" lon="15.3019274"><ele>21.0</ele><time>2026-04-04T08:20:43.879Z</time></trkpt><trkpt lat="37.0190117" lon="15.3019746"><ele>21.0</ele><time>2026-04-04T08:20:44.879Z</time></trkpt><trkpt lat="37.0190611" lon="15.302046"><ele>21.0</ele><time>2026-04-04T08:20:45.879Z</time></trkpt><trkpt lat="37.0190773" lon="15.3021247"><ele>21.0</ele><time>2026-04-04T08:20:46.88Z</time></trkpt><trkpt lat="37.0190517" lon="15.3022124"><ele>21.0</ele><time>2026-04-04T08:20:47.877Z</time></trkpt><trkpt lat="37.0189864" lon="15.3022809"><ele>21.0</ele><time>2026-04-04T08:20:48.878Z</time></trkpt><trkpt lat="37.0188776" lon="15.3023646"><ele>21.0</ele><time>2026-04-04T08:20:49.879Z</time></trkpt><trkpt lat="37.018742" lon="15.3024702"><ele>20.75</ele><time>2026-04-04T08:20:50.878Z</time></trkpt><trkpt lat="37.0186109" lon="15.3025759"><ele>20.5</ele><time>2026-04-04T08:20:51.879Z</time></trkpt><trkpt lat="37.0184778" lon="15.3026679"><ele>20.25</ele><time>2026-04-04T08:20:52.879Z</time></trkpt><trkpt lat="37.0183606" lon="15.3027606"><ele>20.0</ele><time>2026-04-04T08:20:53.879Z</time></trkpt><trkpt lat="37.0182439" lon="15.3028526"><ele>20.0</ele><time>2026-04-04T08:20:54.879Z</time></trkpt><trkpt lat="37.018127" lon="15.3029479"><ele>20.0</ele><time>2026-04-04T08:20:55.879Z</time></trkpt><trkpt lat="37.0180065" lon="15.3030451"><ele>20.0</ele><time>2026-04-04T08:20:56.878Z</time></trkpt><trkpt lat="37.0178864" lon="15.3031448"><ele>20.0</ele><time>2026-04-04T08:20:57.879Z</time></trkpt><trkpt lat="37.0177646" lon="15.3032458"><ele>20.333333333333336</ele><time>2026-04-04T08:20:58.879Z</time></trkpt><trkpt lat="37.0176423" lon="15.303349"><ele>20.666666666666668</ele><time>2026-04-04T08:20:59.877Z</time></trkpt><trkpt lat="37.0175154" lon="15.3034507"><ele>21.0</ele><time>2026-04-04T08:21:00.878Z</time></trkpt><trkpt lat="37.0173869" lon="15.3035546"><ele>20.0</ele><time>2026-04-04T08:21:01.878Z</time></trkpt><trkpt lat="37.0172567" lon="15.3036593"><ele>19.0</ele><time>2026-04-04T08:21:02.877Z</time></trkpt><trkpt lat="37.0171275" lon="15.3037661"><ele>18.0</ele><time>2026-04-04T08:21:03.879Z</time></trkpt><trkpt lat="37.0169965" lon="15.3038765"><ele>18.666666666666668</ele><time>2026-04-04T08:21:04.878Z</time></trkpt><trkpt lat="37.0168696" lon="15.3039846"><ele>19.333333333333336</ele><time>2026-04-04T08:21:05.879Z</time></trkpt><trkpt lat="37.0167447" lon="15.3040946"><ele>20.0</ele><time>2026-04-04T08:21:06.879Z</time></trkpt><trkpt lat="37.016618" lon="15.30421"><ele>18.666666666666668</ele><time>2026-04-04T08:21:07.878Z</time></trkpt><trkpt lat="37.0164896" lon="15.3043302"><ele>17.333333333333332</ele><time>2026-04-04T08:21:08.879Z</time></trkpt><trkpt lat="37.0163601" lon="15.3044565"><ele>16.0</ele><time>2026-04-04T08:21:09.879Z</time></trkpt><trkpt lat="37.0162351" lon="15.3045838"><ele>16.0</ele><time>2026-04-04T08:21:10.878Z</time></trkpt><trkpt lat="37.0161027" lon="15.3047196"><ele>16.0</ele><time>2026-04-04T08:21:11.879Z</time></trkpt><trkpt lat="37.0159745" lon="15.3048479"><ele>16.0</ele><time>2026-04-04T08:21:12.879Z</time></trkpt><trkpt lat="37.0158462" lon="15.3049763"><ele>15.333333333333332</ele><time>2026-04-04T08:21:13.879Z</time></trkpt><trkpt lat="37.0157139" lon="15.305111"><ele>14.666666666666668</ele><time>2026-04-04T08:21:14.879Z</time></trkpt><trkpt lat="37.0155843" lon="15.3052478"><ele>14.0</ele><time>2026-04-04T08:21:15.879Z</time></trkpt><trkpt lat="37.0154546" lon="15.3053931"><ele>14.0</ele><time>2026-04-04T08:21:16.879Z</time></trkpt><trkpt lat="37.0153295" lon="15.3055369"><ele>14.0</ele><time>2026-04-04T08:21:17.878Z</time></trkpt><trkpt lat="37.0151996" lon="15.305678"><ele>14.0</ele><time>2026-04-04T08:21:18.879Z</time></trkpt><trkpt lat="37.0150714" lon="15.3058231"><ele>12.333333333333334</ele><time>2026-04-04T08:21:19.878Z</time></trkpt><trkpt lat="37.0149396" lon="15.3059713"><ele>10.666666666666668</ele><time>2026-04-04T08:21:20.878Z</time></trkpt><trkpt lat="37.0148072" lon="15.3061161"><ele>9.0</ele><time>2026-04-04T08:21:21.879Z</time></trkpt><trkpt lat="37.0146761" lon="15.3062597"><ele>9.0</ele><time>2026-04-04T08:21:22.878Z</time></trkpt><trkpt lat="37.0145453" lon="15.3064048"><ele>9.0</ele><time>2026-04-04T08:21:23.878Z</time></trkpt><trkpt lat="37.0144142" lon="15.3065516"><ele>9.0</ele><time>2026-04-04T08:21:24.878Z</time></trkpt><trkpt lat="37.0142878" lon="15.3066956"><ele>9.333333333333334</ele><time>2026-04-04T08:21:25.879Z</time></trkpt><trkpt lat="37.0141589" lon="15.3068426"><ele>9.666666666666668</ele><time>2026-04-04T08:21:26.879Z</time></trkpt><trkpt lat="37.014027" lon="15.3069879"><ele>10.0</ele><time>2026-04-04T08:21:27.879Z</time></trkpt><trkpt lat="37.0138978" lon="15.3071281"><ele>11.333333333333334</ele><time>2026-04-04T08:21:28.879Z</time></trkpt><trkpt lat="37.0137658" lon="15.3072659"><ele>12.666666666666668</ele><time>2026-04-04T08:21:29.879Z</time></trkpt><trkpt lat="37.0136291" lon="15.3074045"><ele>14.0</ele><time>2026-04-04T08:21:30.879Z</time></trkpt><trkpt lat="37.0134881" lon="15.3075363"><ele>14.0</ele><time>2026-04-04T08:21:31.879Z</time></trkpt><trkpt lat="37.0133387" lon="15.307653"><ele>14.0</ele><time>2026-04-04T08:21:32.878Z</time></trkpt><trkpt lat="37.0131889" lon="15.3077735"><ele>14.0</ele><time>2026-04-04T08:21:33.879Z</time></trkpt><trkpt lat="37.0130333" lon="15.3078924"><ele>15.0</ele><time>2026-04-04T08:21:34.878Z</time></trkpt><trkpt lat="37.0128825" lon="15.3080108"><ele>16.0</ele><time>2026-04-04T08:21:35.878Z</time></trkpt><trkpt lat="37.0127303" lon="15.3081273"><ele>17.0</ele><time>2026-04-04T08:21:36.878Z</time></trkpt><trkpt lat="37.0125776" lon="15.3082464"><ele>14.333333333333334</ele><time>2026-04-04T08:21:37.878Z</time></trkpt><trkpt lat="37.0124255" lon="15.308362"><ele>11.666666666666668</ele><time>2026-04-04T08:21:38.879Z</time></trkpt><trkpt lat="37.0122715" lon="15.3084833"><ele>9.0</ele><time>2026-04-04T08:21:39.879Z</time></trkpt><trkpt lat="37.0121212" lon="15.3086057"><ele>9.0</ele><time>2026-04-04T08:21:40.879Z</time></trkpt><trkpt lat="37.0119748" lon="15.3087212"><ele>9.0</ele><time>2026-04-04T08:21:41.878Z</time></trkpt><trkpt lat="37.0118277" lon="15.3088353"><ele>9.0</ele><time>2026-04-04T08:21:42.879Z</time></trkpt><trkpt lat="37.0116842" lon="15.3089473"><ele>11.333333333333332</ele><time>2026-04-04T08:21:43.879Z</time></trkpt><trkpt lat="37.011532" lon="15.309061"><ele>13.666666666666666</ele><time>2026-04-04T08:21:44.879Z</time></trkpt><trkpt lat="37.0113873" lon="15.3091755"><ele>16.0</ele><time>2026-04-04T08:21:45.879Z</time></trkpt><trkpt lat="37.0112404" lon="15.30929"><ele>16.0</ele><time>2026-04-04T08:21:46.878Z</time></trkpt><trkpt lat="37.011094" lon="15.3093989"><ele>16.0</ele><time>2026-04-04T08:21:47.878Z</time></trkpt><trkpt lat="37.0109457" lon="15.3095054"><ele>16.0</ele><time>2026-04-04T08:21:48.878Z</time></trkpt><trkpt lat="37.0108052" lon="15.3096131"><ele>16.0</ele><time>2026-04-04T08:21:49.879Z</time></trkpt><trkpt lat="37.0106633" lon="15.3097172"><ele>16.0</ele><time>2026-04-04T08:21:50.878Z</time></trkpt><trkpt lat="37.0105191" lon="15.3098192"><ele>16.0</ele><time>2026-04-04T08:21:51.879Z</time></trkpt><trkpt lat="37.0103767" lon="15.3099337"><ele>17.333333333333332</ele><time>2026-04-04T08:21:52.878Z</time></trkpt><trkpt lat="37.0102362" lon="15.3100406"><ele>18.666666666666668</ele><time>2026-04-04T08:21:53.878Z</time></trkpt><trkpt lat="37.0101001" lon="15.3101373"><ele>20.0</ele><time>2026-04-04T08:21:54.879Z</time></trkpt><trkpt lat="37.0099581" lon="15.3102493"><ele>20.0</ele><time>2026-04-04T08:21:55.878Z</time></trkpt><trkpt lat="37.0098154" lon="15.3103582"><ele>20.0</ele><time>2026-04-04T08:21:56.879Z</time></trkpt><trkpt lat="37.0096869" lon="15.3104878"><ele>20.0</ele><time>2026-04-04T08:21:57.879Z</time></trkpt><trkpt lat="37.0095709" lon="15.3106439"><ele>21.666666666666668</ele><time>2026-04-04T08:21:58.879Z</time></trkpt><trkpt lat="37.0094653" lon="15.3108099"><ele>23.333333333333336</ele><time>2026-04-04T08:21:59.878Z</time></trkpt><trkpt lat="37.0093617" lon="15.3109795"><ele>25.0</ele><time>2026-04-04T08:22:00.878Z</time></trkpt><trkpt lat="37.0092588" lon="15.3111439"><ele>25.0</ele><time>2026-04-04T08:22:01.879Z</time></trkpt><trkpt lat="37.0091544" lon="15.3113121"><ele>25.0</ele><time>2026-04-04T08:22:02.879Z</time></trkpt><trkpt lat="37.0090516" lon="15.3114833"><ele>25.0</ele><time>2026-04-04T08:22:03.878Z</time></trkpt><trkpt lat="37.0089475" lon="15.3116449"><ele>25.0</ele><time>2026-04-04T08:22:04.879Z</time></trkpt><trkpt lat="37.0088462" lon="15.3118059"><ele>25.0</ele><time>2026-04-04T08:22:05.879Z</time></trkpt><trkpt lat="37.0087422" lon="15.3119769"><ele>25.0</ele><time>2026-04-04T08:22:06.877Z</time></trkpt><trkpt lat="37.0086452" lon="15.312144"><ele>27.0</ele><time>2026-04-04T08:22:07.879Z</time></trkpt><trkpt lat="37.0085451" lon="15.3123089"><ele>29.0</ele><time>2026-04-04T08:22:08.879Z</time></trkpt><trkpt lat="37.0084476" lon="15.3124687"><ele>31.0</ele><time>2026-04-04T08:22:09.878Z</time></trkpt><trkpt lat="37.0083449" lon="15.3126303"><ele>31.666666666666668</ele><time>2026-04-04T08:22:10.879Z</time></trkpt><trkpt lat="37.0082489" lon="15.3128017"><ele>32.333333333333336</ele><time>2026-04-04T08:22:11.879Z</time></trkpt><trkpt lat="37.0081526" lon="15.3129652"><ele>33.0</ele><time>2026-04-04T08:22:12.879Z</time></trkpt><trkpt lat="37.0080553" lon="15.3131297"><ele>33.0</ele><time>2026-04-04T08:22:13.878Z</time></trkpt><trkpt lat="37.0079574" lon="15.3132888"><ele>33.0</ele><time>2026-04-04T08:22:14.879Z</time></trkpt><trkpt lat="37.0078572" lon="15.3134459"><ele>33.0</ele><time>2026-04-04T08:22:15.879Z</time></trkpt><trkpt lat="37.00776" lon="15.3136011"><ele>33.0</ele><time>2026-04-04T08:22:16.878Z</time></trkpt><trkpt lat="37.0076679" lon="15.3137503"><ele>33.0</ele><time>2026-04-04T08:22:17.879Z</time></trkpt><trkpt lat="37.0075846" lon="15.3139001"><ele>33.0</ele><time>2026-04-04T08:22:18.879Z</time></trkpt><trkpt lat="37.0075097" lon="15.3140591"><ele>33.0</ele><time>2026-04-04T08:22:19.878Z</time></trkpt><trkpt lat="37.0074598" lon="15.3142424"><ele>32.5</ele><time>2026-04-04T08:22:20.878Z</time></trkpt><trkpt lat="37.0074366" lon="15.3144338"><ele>32.0</ele><time>2026-04-04T08:22:21.879Z</time></trkpt><trkpt lat="37.0074262" lon="15.3146265"><ele>31.5</ele><time>2026-04-04T08:22:22.879Z</time></trkpt><trkpt lat="37.0074296" lon="15.3147991"><ele>31.0</ele><time>2026-04-04T08:22:23.88Z</time></trkpt><trkpt lat="37.0074275" lon="15.3149557"><ele>31.0</ele><time>2026-04-04T08:22:24.879Z</time></trkpt><trkpt lat="37.0074294" lon="15.3151128"><ele>31.0</ele><time>2026-04-04T08:22:25.879Z</time></trkpt><trkpt lat="37.0074304" lon="15.3152836"><ele>31.0</ele><time>2026-04-04T08:22:26.879Z</time></trkpt><trkpt lat="37.0074281" lon="15.3154711"><ele>31.0</ele><time>2026-04-04T08:22:27.879Z</time></trkpt><trkpt lat="37.0074291" lon="15.3156549"><ele>32.25</ele><time>2026-04-04T08:22:28.878Z</time></trkpt><trkpt lat="37.0074302" lon="15.3158309"><ele>33.5</ele><time>2026-04-04T08:22:29.879Z</time></trkpt><trkpt lat="37.0074317" lon="15.3159976"><ele>34.75</ele><time>2026-04-04T08:22:30.879Z</time></trkpt><trkpt lat="37.0074323" lon="15.3161493"><ele>36.0</ele><time>2026-04-04T08:22:31.879Z</time></trkpt><trkpt lat="37.0074311" lon="15.3162796"><ele>36.0</ele><time>2026-04-04T08:22:32.879Z</time></trkpt><trkpt lat="37.0074228" lon="15.3163693"><ele>36.0</ele><time>2026-04-04T08:22:33.879Z</time></trkpt><trkpt lat="37.0073641" lon="15.3164656"><ele>36.0</ele><time>2026-04-04T08:22:35.879Z</time></trkpt><trkpt lat="37.007302" lon="15.3164521"><ele>36.0</ele><time>2026-04-04T08:22:36.879Z</time></trkpt><trkpt lat="37.0071766" lon="15.3163929"><ele>36.0</ele><time>2026-04-04T08:22:38.879Z</time></trkpt><trkpt lat="37.0070981" lon="15.3163433"><ele>36.0</ele><time>2026-04-04T08:22:39.879Z</time></trkpt><trkpt lat="37.0070099" lon="15.3162725"><ele>36.0</ele><time>2026-04-04T08:22:40.879Z</time></trkpt><trkpt lat="37.006912" lon="15.3161941"><ele>36.0</ele><time>2026-04-04T08:22:41.879Z</time></trkpt><trkpt lat="37.0068096" lon="15.3161144"><ele>36.0</ele><time>2026-04-04T08:22:42.879Z</time></trkpt><trkpt lat="37.0066961" lon="15.3160366"><ele>35.25</ele><time>2026-04-04T08:22:43.878Z</time></trkpt><trkpt lat="37.0065841" lon="15.3159522"><ele>34.5</ele><time>2026-04-04T08:22:44.879Z</time></trkpt><trkpt lat="37.0064754" lon="15.3158685"><ele>33.75</ele><time>2026-04-04T08:22:45.879Z</time></trkpt><trkpt lat="37.0063686" lon="15.3157887"><ele>33.0</ele><time>2026-04-04T08:22:46.879Z</time></trkpt><trkpt lat="37.0062724" lon="15.3157121"><ele>33.0</ele><time>2026-04-04T08:22:47.879Z</time></trkpt><trkpt lat="37.0061706" lon="15.3156375"><ele>33.0</ele><time>2026-04-04T08:22:48.878Z</time></trkpt><trkpt lat="37.006069" lon="15.3155657"><ele>33.0</ele><time>2026-04-04T08:22:49.877Z</time></trkpt><trkpt lat="37.005966" lon="15.3154917"><ele>33.0</ele><time>2026-04-04T08:22:50.879Z</time></trkpt><trkpt lat="37.0058682" lon="15.315422"><ele>32.8</ele><time>2026-04-04T08:22:51.878Z</time></trkpt><trkpt lat="37.0057772" lon="15.3153582"><ele>32.599999999999994</ele><time>2026-04-04T08:22:52.877Z</time></trkpt><trkpt lat="37.0056909" lon="15.3152911"><ele>32.400000000000006</ele><time>2026-04-04T08:22:53.879Z</time></trkpt><trkpt lat="37.0056052" lon="15.3152271"><ele>32.2</ele><time>2026-04-04T08:22:54.878Z</time></trkpt><trkpt lat="37.0055203" lon="15.3151739"><ele>32.0</ele><time>2026-04-04T08:22:55.878Z</time></trkpt><trkpt lat="37.0054364" lon="15.3151404"><ele>31.999999999999996</ele><time>2026-04-04T08:22:56.879Z</time></trkpt><trkpt lat="37.0053489" lon="15.3151234"><ele>32.0</ele><time>2026-04-04T08:22:57.879Z</time></trkpt><trkpt lat="37.0052648" lon="15.3151277"><ele>32.0</ele><time>2026-04-04T08:22:58.878Z</time></trkpt><trkpt lat="37.0051758" lon="15.3151585"><ele>32.0</ele><time>2026-04-04T08:22:59.878Z</time></trkpt><trkpt lat="37.0051024" lon="15.3151943"><ele>31.999999999999996</ele><time>2026-04-04T08:23:00.879Z</time></trkpt><trkpt lat="37.0050414" lon="15.3152559"><ele>32.0</ele><time>2026-04-04T08:23:01.879Z</time></trkpt><trkpt lat="37.0049924" lon="15.3153374"><ele>29.200000000000003</ele><time>2026-04-04T08:23:02.878Z</time></trkpt><trkpt lat="37.0049518" lon="15.3154481"><ele>26.400000000000002</ele><time>2026-04-04T08:23:03.879Z</time></trkpt><trkpt lat="37.0049176" lon="15.315567"><ele>23.6</ele><time>2026-04-04T08:23:04.878Z</time></trkpt><trkpt lat="37.0048727" lon="15.3157074"><ele>20.8</ele><time>2026-04-04T08:23:05.879Z</time></trkpt><trkpt lat="37.0048284" lon="15.3158454"><ele>18.0</ele><time>2026-04-04T08:23:06.878Z</time></trkpt><trkpt lat="37.0047828" lon="15.3159839"><ele>18.2</ele><time>2026-04-04T08:23:07.879Z</time></trkpt><trkpt lat="37.0047394" lon="15.3161202"><ele>18.4</ele><time>2026-04-04T08:23:08.877Z</time></trkpt><trkpt lat="37.0046942" lon="15.3162501"><ele>18.599999999999998</ele><time>2026-04-04T08:23:09.878Z</time></trkpt><trkpt lat="37.004645" lon="15.31637"><ele>18.8</ele><time>2026-04-04T08:23:10.879Z</time></trkpt><trkpt lat="37.0045916" lon="15.3164831"><ele>19.0</ele><time>2026-04-04T08:23:11.879Z</time></trkpt><trkpt lat="37.0045331" lon="15.3165891"><ele>19.0</ele><time>2026-04-04T08:23:12.878Z</time></trkpt><trkpt lat="37.0044689" lon="15.3166796"><ele>19.0</ele><time>2026-04-04T08:23:13.878Z</time></trkpt><trkpt lat="37.0044064" lon="15.3167674"><ele>19.0</ele><time>2026-04-04T08:23:14.878Z</time></trkpt><trkpt lat="37.0043547" lon="15.316848"><ele>19.0</ele><time>2026-04-04T08:23:15.879Z</time></trkpt><trkpt lat="37.0043203" lon="15.3169552"><ele>19.0</ele><time>2026-04-04T08:23:16.878Z</time></trkpt><trkpt lat="37.0042969" lon="15.3170801"><ele>19.0</ele><time>2026-04-04T08:23:17.878Z</time></trkpt><trkpt lat="37.0042885" lon="15.317223"><ele>19.0</ele><time>2026-04-04T08:23:18.878Z</time></trkpt><trkpt lat="37.0042928" lon="15.3173738"><ele>19.0</ele><time>2026-04-04T08:23:19.879Z</time></trkpt><trkpt lat="37.0042931" lon="15.3175339"><ele>19.0</ele><time>2026-04-04T08:23:20.878Z</time></trkpt><trkpt lat="37.0042942" lon="15.3176811"><ele>18.75</ele><time>2026-04-04T08:23:21.879Z</time></trkpt><trkpt lat="37.0042909" lon="15.3178281"><ele>18.5</ele><time>2026-04-04T08:23:22.877Z</time></trkpt><trkpt lat="37.0042866" lon="15.3179805"><ele>18.25</ele><time>2026-04-04T08:23:23.878Z</time></trkpt><trkpt lat="37.004278" lon="15.3181199"><ele>18.0</ele><time>2026-04-04T08:23:24.879Z</time></trkpt><trkpt lat="37.0042711" lon="15.3182707"><ele>17.5</ele><time>2026-04-04T08:23:25.879Z</time></trkpt><trkpt lat="37.0042754" lon="15.3183914"><ele>17.0</ele><time>2026-04-04T08:23:26.878Z</time></trkpt><trkpt lat="37.004274" lon="15.3185318"><ele>16.5</ele><time>2026-04-04T08:23:27.879Z</time></trkpt><trkpt lat="37.0042657" lon="15.3186912"><ele>16.0</ele><time>2026-04-04T08:23:28.879Z</time></trkpt><trkpt lat="37.0042598" lon="15.3188737"><ele>16.25</ele><time>2026-04-04T08:23:29.877Z</time></trkpt><trkpt lat="37.0042539" lon="15.319055"><ele>16.5</ele><time>2026-04-04T08:23:30.878Z</time></trkpt><trkpt lat="37.0042437" lon="15.3192501"><ele>16.75</ele><time>2026-04-04T08:23:31.878Z</time></trkpt><trkpt lat="37.0042377" lon="15.3194286"><ele>17.0</ele><time>2026-04-04T08:23:32.878Z</time></trkpt><trkpt lat="37.0042235" lon="15.3196009"><ele>17.5</ele><time>2026-04-04T08:23:33.878Z</time></trkpt><trkpt lat="37.0042129" lon="15.3197617"><ele>18.0</ele><time>2026-04-04T08:23:34.878Z</time></trkpt><trkpt lat="37.004205" lon="15.3199036"><ele>18.5</ele><time>2026-04-04T08:23:35.878Z</time></trkpt><trkpt lat="37.0042086" lon="15.3200358"><ele>19.0</ele><time>2026-04-04T08:23:36.878Z</time></trkpt><trkpt lat="37.0042028" lon="15.3201795"><ele>19.0</ele><time>2026-04-04T08:23:37.879Z</time></trkpt><trkpt lat="37.0041916" lon="15.3203464"><ele>19.0</ele><time>2026-04-04T08:23:38.878Z</time></trkpt><trkpt lat="37.0041662" lon="15.3205209"><ele>19.0</ele><time>2026-04-04T08:23:39.878Z</time></trkpt><trkpt lat="37.0041401" lon="15.3207081"><ele>19.0</ele><time>2026-04-04T08:23:40.878Z</time></trkpt><trkpt lat="37.0041132" lon="15.3209021"><ele>16.0</ele><time>2026-04-04T08:23:41.879Z</time></trkpt><trkpt lat="37.0040787" lon="15.3211101"><ele>13.0</ele><time>2026-04-04T08:23:42.878Z</time></trkpt><trkpt lat="37.0040422" lon="15.3213162"><ele>10.0</ele><time>2026-04-04T08:23:43.877Z</time></trkpt><trkpt lat="37.0040007" lon="15.3215335"><ele>10.0</ele><time>2026-04-04T08:23:44.877Z</time></trkpt><trkpt lat="37.0039643" lon="15.3217418"><ele>10.0</ele><time>2026-04-04T08:23:45.879Z</time></trkpt><trkpt lat="37.0039295" lon="15.3219437"><ele>10.0</ele><time>2026-04-04T08:23:46.878Z</time></trkpt><trkpt lat="37.0038984" lon="15.3221139"><ele>10.75</ele><time>2026-04-04T08:23:47.879Z</time></trkpt><trkpt lat="37.0038695" lon="15.3222801"><ele>11.5</ele><time>2026-04-04T08:23:48.879Z</time></trkpt><trkpt lat="37.0038482" lon="15.3224276"><ele>12.25</ele><time>2026-04-04T08:23:49.879Z</time></trkpt><trkpt lat="37.0038306" lon="15.3225782"><ele>13.0</ele><time>2026-04-04T08:23:50.879Z</time></trkpt><trkpt lat="37.0038153" lon="15.3227332"><ele>13.0</ele><time>2026-04-04T08:23:51.878Z</time></trkpt><trkpt lat="37.0038026" lon="15.3229003"><ele>13.0</ele><time>2026-04-04T08:23:52.878Z</time></trkpt><trkpt lat="37.0037936" lon="15.3230917"><ele>13.0</ele><time>2026-04-04T08:23:53.878Z</time></trkpt><trkpt lat="37.0037836" lon="15.3232855"><ele>13.0</ele><time>2026-04-04T08:23:54.877Z</time></trkpt><trkpt lat="37.0037733" lon="15.3234817"><ele>13.0</ele><time>2026-04-04T08:23:55.877Z</time></trkpt><trkpt lat="37.0037633" lon="15.3236796"><ele>13.0</ele><time>2026-04-04T08:23:56.877Z</time></trkpt><trkpt lat="37.0037508" lon="15.323883"><ele>13.0</ele><time>2026-04-04T08:23:57.877Z</time></trkpt><trkpt lat="37.0037368" lon="15.3240885"><ele>14.333333333333332</ele><time>2026-04-04T08:23:58.878Z</time></trkpt><trkpt lat="37.0037245" lon="15.3242964"><ele>15.666666666666668</ele><time>2026-04-04T08:23:59.878Z</time></trkpt><trkpt lat="37.0037152" lon="15.3244913"><ele>17.0</ele><time>2026-04-04T08:24:00.878Z</time></trkpt><trkpt lat="37.0037014" lon="15.3246647"><ele>17.0</ele><time>2026-04-04T08:24:01.878Z</time></trkpt><trkpt lat="37.0036901" lon="15.3248218"><ele>17.0</ele><time>2026-04-04T08:24:02.879Z</time></trkpt><trkpt lat="37.0036837" lon="15.3249678"><ele>17.0</ele><time>2026-04-04T08:24:03.879Z</time></trkpt><trkpt lat="37.0036787" lon="15.3250966"><ele>17.0</ele><time>2026-04-04T08:24:04.878Z</time></trkpt><trkpt lat="37.0036736" lon="15.3252095"><ele>17.0</ele><time>2026-04-04T08:24:05.877Z</time></trkpt><trkpt lat="37.0037165" lon="15.3253221"><ele>17.0</ele><time>2026-04-04T08:24:07.878Z</time></trkpt><trkpt lat="37.0037728" lon="15.3253631"><ele>17.0</ele><time>2026-04-04T08:24:08.879Z</time></trkpt><trkpt lat="37.0038552" lon="15.3253868"><ele>17.0</ele><time>2026-04-04T08:24:09.878Z</time></trkpt><trkpt lat="37.0039789" lon="15.3253881"><ele>17.0</ele><time>2026-04-04T08:24:10.879Z</time></trkpt><trkpt lat="37.0041019" lon="15.3254004"><ele>17.0</ele><time>2026-04-04T08:24:11.878Z</time></trkpt><trkpt lat="37.0041898" lon="15.325483"><ele>18.0</ele><time>2026-04-04T08:24:13.878Z</time></trkpt><trkpt lat="37.0041975" lon="15.3256524"><ele>19.0</ele><time>2026-04-04T08:24:15.879Z</time></trkpt><trkpt lat="37.0041863" lon="15.3258136"><ele>20.0</ele><time>2026-04-04T08:24:16.877Z</time></trkpt><trkpt lat="37.004168" lon="15.3260225"><ele>21.0</ele><time>2026-04-04T08:24:17.877Z</time></trkpt><trkpt lat="37.0041538" lon="15.3262113"><ele>19.25</ele><time>2026-04-04T08:24:18.879Z</time></trkpt><trkpt lat="37.0041451" lon="15.326384"><ele>17.5</ele><time>2026-04-04T08:24:19.878Z</time></trkpt><trkpt lat="37.0041348" lon="15.326556"><ele>15.75</ele><time>2026-04-04T08:24:20.878Z</time></trkpt><trkpt lat="37.0041119" lon="15.3267082"><ele>14.0</ele><time>2026-04-04T08:24:21.879Z</time></trkpt><trkpt lat="37.0040729" lon="15.326848"><ele>14.0</ele><time>2026-04-04T08:24:22.878Z</time></trkpt><trkpt lat="37.0040352" lon="15.3269843"><ele>13.999999999999998</ele><time>2026-04-04T08:24:23.878Z</time></trkpt><trkpt lat="37.0040025" lon="15.327101"><ele>13.999999999999998</ele><time>2026-04-04T08:24:24.877Z</time></trkpt><trkpt lat="37.0039727" lon="15.3272155"><ele>14.0</ele><time>2026-04-04T08:24:25.878Z</time></trkpt><trkpt lat="37.0039541" lon="15.3273206"><ele>14.0</ele><time>2026-04-04T08:24:26.879Z</time></trkpt><trkpt lat="37.0039313" lon="15.3274239"><ele>14.166666666666668</ele><time>2026-04-04T08:24:27.877Z</time></trkpt><trkpt lat="37.0039191" lon="15.3275255"><ele>14.333333333333334</ele><time>2026-04-04T08:24:28.879Z</time></trkpt><trkpt lat="37.0039051" lon="15.3276228"><ele>14.5</ele><time>2026-04-04T08:24:29.877Z</time></trkpt><trkpt lat="37.0038921" lon="15.3277151"><ele>14.666666666666668</ele><time>2026-04-04T08:24:30.879Z</time></trkpt><trkpt lat="37.0038672" lon="15.3277935"><ele>14.833333333333334</ele><time>2026-04-04T08:24:31.879Z</time></trkpt><trkpt lat="37.0038622" lon="15.3279503"><ele>15.0</ele><time>2026-04-04T08:24:33.878Z</time></trkpt><trkpt lat="37.0038803" lon="15.3280321"><ele>15.166666666666666</ele><time>2026-04-04T08:24:34.878Z</time></trkpt><trkpt lat="37.0039223" lon="15.3281636"><ele>15.333333333333332</ele><time>2026-04-04T08:24:36.877Z</time></trkpt><trkpt lat="37.003939" lon="15.3282528"><ele>15.5</ele><time>2026-04-04T08:24:38.878Z</time></trkpt><trkpt lat="37.0038956" lon="15.3283116"><ele>15.666666666666666</ele><time>2026-04-04T08:24:42.879Z</time></trkpt><trkpt lat="37.0038929" lon="15.328399"><ele>15.833333333333332</ele><time>2026-04-04T08:24:45.877Z</time></trkpt><trkpt lat="37.0038529" lon="15.328483"><ele>16.0</ele><time>2026-04-04T08:24:47.878Z</time></trkpt><trkpt lat="37.0038079" lon="15.3286238"><ele>15.999999999999998</ele><time>2026-04-04T08:24:49.877Z</time></trkpt><trkpt lat="37.0037757" lon="15.3287242"><ele>16.0</ele><time>2026-04-04T08:24:50.878Z</time></trkpt><trkpt lat="37.0037334" lon="15.3288299"><ele>16.0</ele><time>2026-04-04T08:24:51.879Z</time></trkpt><trkpt lat="37.0036924" lon="15.3289372"><ele>16.0</ele><time>2026-04-04T08:24:52.878Z</time></trkpt><trkpt lat="37.0036513" lon="15.3290344"><ele>15.999999999999998</ele><time>2026-04-04T08:24:53.878Z</time></trkpt><trkpt lat="37.003608" lon="15.3291272"><ele>16.0</ele><time>2026-04-04T08:24:54.879Z</time></trkpt><trkpt lat="37.0035618" lon="15.3292296"><ele>16.166666666666664</ele><time>2026-04-04T08:24:55.879Z</time></trkpt><trkpt lat="37.0035157" lon="15.3293242"><ele>16.333333333333332</ele><time>2026-04-04T08:24:56.877Z</time></trkpt><trkpt lat="37.003476" lon="15.3294052"><ele>16.5</ele><time>2026-04-04T08:24:57.878Z</time></trkpt><trkpt lat="37.0034308" lon="15.329482"><ele>16.666666666666668</ele><time>2026-04-04T08:24:58.879Z</time></trkpt><trkpt lat="37.0033819" lon="15.3295696"><ele>16.833333333333336</ele><time>2026-04-04T08:24:59.878Z</time></trkpt><trkpt lat="37.0033252" lon="15.3296789"><ele>17.0</ele><time>2026-04-04T08:25:00.878Z</time></trkpt><trkpt lat="37.0032529" lon="15.3298277"><ele>14.5</ele><time>2026-04-04T08:25:01.878Z</time></trkpt><trkpt lat="37.0031773" lon="15.3299776"><ele>12.0</ele><time>2026-04-04T08:25:02.879Z</time></trkpt><trkpt lat="37.0030971" lon="15.3301309"><ele>9.5</ele><time>2026-04-04T08:25:03.879Z</time></trkpt><trkpt lat="37.0030249" lon="15.3302761"><ele>7.0</ele><time>2026-04-04T08:25:04.878Z</time></trkpt><trkpt lat="37.0029637" lon="15.3304087"><ele>8.666666666666668</ele><time>2026-04-04T08:25:05.879Z</time></trkpt><trkpt lat="37.0028999" lon="15.3305607"><ele>10.333333333333334</ele><time>2026-04-04T08:25:06.877Z</time></trkpt><trkpt lat="37.0028387" lon="15.3307367"><ele>12.0</ele><time>2026-04-04T08:25:07.878Z</time></trkpt><trkpt lat="37.002769" lon="15.3309411"><ele>12.0</ele><time>2026-04-04T08:25:08.879Z</time></trkpt><trkpt lat="37.0026972" lon="15.3311217"><ele>12.0</ele><time>2026-04-04T08:25:09.877Z</time></trkpt><trkpt lat="37.0026321" lon="15.3312891"><ele>12.0</ele><time>2026-04-04T08:25:10.878Z</time></trkpt><trkpt lat="37.0025814" lon="15.3314263"><ele>12.0</ele><time>2026-04-04T08:25:11.878Z</time></trkpt><trkpt lat="37.0025452" lon="15.3315647"><ele>11.666666666666666</ele><time>2026-04-04T08:25:12.879Z</time></trkpt><trkpt lat="37.0025273" lon="15.331735"><ele>11.333333333333332</ele><time>2026-04-04T08:25:13.878Z</time></trkpt><trkpt lat="37.0025305" lon="15.3319535"><ele>11.0</ele><time>2026-04-04T08:25:14.878Z</time></trkpt><trkpt lat="37.0025334" lon="15.3321546"><ele>11.200000000000001</ele><time>2026-04-04T08:25:15.879Z</time></trkpt><trkpt lat="37.0025341" lon="15.3323088"><ele>11.4</ele><time>2026-04-04T08:25:16.878Z</time></trkpt><trkpt lat="37.0025385" lon="15.3324163"><ele>11.6</ele><time>2026-04-04T08:25:17.878Z</time></trkpt><trkpt lat="37.0026162" lon="15.3325411"><ele>11.8</ele><time>2026-04-04T08:25:19.877Z</time></trkpt><trkpt lat="37.0026864" lon="15.3325976"><ele>12.0</ele><time>2026-04-04T08:25:20.877Z</time></trkpt><trkpt lat="37.0028146" lon="15.3326301"><ele>12.0</ele><time>2026-04-04T08:25:21.879Z</time></trkpt><trkpt lat="37.003" lon="15.3327005"><ele>12.0</ele><time>2026-04-04T08:25:22.879Z</time></trkpt><trkpt lat="37.0031482" lon="15.3327393"><ele>12.0</ele><time>2026-04-04T08:25:23.878Z</time></trkpt><trkpt lat="37.0032794" lon="15.332785"><ele>12.8</ele><time>2026-04-04T08:25:24.879Z</time></trkpt><trkpt lat="37.0033886" lon="15.3328197"><ele>13.6</ele><time>2026-04-04T08:25:25.878Z</time></trkpt><trkpt lat="37.0034947" lon="15.3328545"><ele>14.400000000000002</ele><time>2026-04-04T08:25:26.878Z</time></trkpt><trkpt lat="37.0035925" lon="15.3328959"><ele>15.200000000000001</ele><time>2026-04-04T08:25:27.878Z</time></trkpt><trkpt lat="37.003701" lon="15.3329399"><ele>16.0</ele><time>2026-04-04T08:25:28.878Z</time></trkpt><trkpt lat="37.0038072" lon="15.332979"><ele>15.999999999999998</ele><time>2026-04-04T08:25:29.878Z</time></trkpt><trkpt lat="37.0039038" lon="15.333009"><ele>16.0</ele><time>2026-04-04T08:25:30.878Z</time></trkpt><trkpt lat="37.0039742" lon="15.3330351"><ele>16.0</ele><time>2026-04-04T08:25:31.879Z</time></trkpt><trkpt lat="37.0040458" lon="15.3330608"><ele>16.0</ele><time>2026-04-04T08:25:32.879Z</time></trkpt><trkpt lat="37.0041134" lon="15.3330763"><ele>15.999999999999998</ele><time>2026-04-04T08:25:33.878Z</time></trkpt><trkpt lat="37.0041747" lon="15.3330982"><ele>16.0</ele><time>2026-04-04T08:25:34.879Z</time></trkpt><trkpt lat="37.0042775" lon="15.3331261"><ele>16.5</ele><time>2026-04-04T08:25:36.878Z</time></trkpt><trkpt lat="37.0043424" lon="15.3331552"><ele>17.0</ele><time>2026-04-04T08:25:38.879Z</time></trkpt><trkpt lat="37.0044365" lon="15.3331872"><ele>17.5</ele><time>2026-04-04T08:25:40.878Z</time></trkpt><trkpt lat="37.0045482" lon="15.3332288"><ele>18.0</ele><time>2026-04-04T08:25:42.878Z</time></trkpt><trkpt lat="37.0046182" lon="15.3332279"><ele>18.5</ele><time>2026-04-04T08:25:43.877Z</time></trkpt><trkpt lat="37.0046835" lon="15.3332285"><ele>19.0</ele><time>2026-04-04T08:25:44.877Z</time></trkpt><trkpt lat="37.0047551" lon="15.3332478"><ele>19.0</ele><time>2026-04-04T08:25:45.878Z</time></trkpt><trkpt lat="37.0048214" lon="15.3332752"><ele>19.0</ele><time>2026-04-04T08:25:46.877Z</time></trkpt><trkpt lat="37.0048949" lon="15.3332966"><ele>19.0</ele><time>2026-04-04T08:25:47.878Z</time></trkpt><trkpt lat="37.0049729" lon="15.3333201"><ele>19.0</ele><time>2026-04-04T08:25:48.879Z</time></trkpt><trkpt lat="37.0050533" lon="15.3333445"><ele>19.0</ele><time>2026-04-04T08:25:49.878Z</time></trkpt><trkpt lat="37.0051263" lon="15.3333792"><ele>19.0</ele><time>2026-04-04T08:25:50.878Z</time></trkpt><trkpt lat="37.0051954" lon="15.3334219"><ele>19.166666666666664</ele><time>2026-04-04T08:25:51.878Z</time></trkpt><trkpt lat="37.005262" lon="15.3334555"><ele>19.333333333333332</ele><time>2026-04-04T08:25:52.879Z</time></trkpt><trkpt lat="37.0053259" lon="15.3334718"><ele>19.5</ele><time>2026-04-04T08:25:53.878Z</time></trkpt><trkpt lat="37.0053924" lon="15.3334862"><ele>19.666666666666668</ele><time>2026-04-04T08:25:54.879Z</time></trkpt><trkpt lat="37.0054687" lon="15.3335311"><ele>19.833333333333336</ele><time>2026-04-04T08:25:56.877Z</time></trkpt><trkpt lat="37.0054858" lon="15.3336506"><ele>20.0</ele><time>2026-04-04T08:25:58.877Z</time></trkpt><trkpt lat="37.0054851" lon="15.3337377"><ele>20.0</ele><time>2026-04-04T08:25:59.879Z</time></trkpt><trkpt lat="37.0054855" lon="15.333849"><ele>20.0</ele><time>2026-04-04T08:26:00.879Z</time></trkpt><trkpt lat="37.0055067" lon="15.3339562"><ele>20.0</ele><time>2026-04-04T08:26:01.878Z</time></trkpt><trkpt lat="37.0055318" lon="15.334041"><ele>20.0</ele><time>2026-04-04T08:26:02.878Z</time></trkpt><trkpt lat="37.0055889" lon="15.3341296"><ele>20.0</ele><time>2026-04-04T08:26:03.878Z</time></trkpt><trkpt lat="37.0056513" lon="15.3342043"><ele>20.0</ele><time>2026-04-04T08:26:04.879Z</time></trkpt><trkpt lat="37.0057054" lon="15.3342853"><ele>19.714285714285715</ele><time>2026-04-04T08:26:05.878Z</time></trkpt><trkpt lat="37.005738" lon="15.3343632"><ele>19.42857142857143</ele><time>2026-04-04T08:26:06.877Z</time></trkpt><trkpt lat="37.0057804" lon="15.334425"><ele>19.142857142857146</ele><time>2026-04-04T08:26:07.878Z</time></trkpt><trkpt lat="37.0058317" lon="15.3344749"><ele>18.857142857142858</ele><time>2026-04-04T08:26:08.878Z</time></trkpt><trkpt lat="37.0059205" lon="15.3345465"><ele>18.571428571428573</ele><time>2026-04-04T08:26:10.878Z</time></trkpt><trkpt lat="37.0059847" lon="15.3346002"><ele>18.28571428571429</ele><time>2026-04-04T08:26:12.878Z</time></trkpt><trkpt lat="37.006039" lon="15.3346401"><ele>18.0</ele><time>2026-04-04T08:26:15.877Z</time></trkpt><trkpt lat="37.0060828" lon="15.3347055"><ele>17.833333333333332</ele><time>2026-04-04T08:26:17.878Z</time></trkpt><trkpt lat="37.0061278" lon="15.3347673"><ele>17.666666666666668</ele><time>2026-04-04T08:26:19.877Z</time></trkpt><trkpt lat="37.0061817" lon="15.3348195"><ele>17.5</ele><time>2026-04-04T08:28:01.878Z</time></trkpt><trkpt lat="37.0062549" lon="15.3348267"><ele>17.333333333333336</ele><time>2026-04-04T08:28:04.878Z</time></trkpt><trkpt lat="37.0063442" lon="15.334878"><ele>17.166666666666668</ele><time>2026-04-04T08:28:07.877Z</time></trkpt><trkpt lat="37.006383" lon="15.3349795"><ele>17.0</ele><time>2026-04-04T08:28:09.878Z</time></trkpt><trkpt lat="37.0064411" lon="15.3350887"><ele>17.0</ele><time>2026-04-04T08:28:11.878Z</time></trkpt><trkpt lat="37.0064877" lon="15.3351482"><ele>17.0</ele><time>2026-04-04T08:28:12.878Z</time></trkpt><trkpt lat="37.0065931" lon="15.335231"><ele>17.0</ele><time>2026-04-04T08:28:14.878Z</time></trkpt><trkpt lat="37.0066812" lon="15.335283"><ele>17.0</ele><time>2026-04-04T08:28:16.879Z</time></trkpt><trkpt lat="37.006765" lon="15.3352949"><ele>17.0</ele><time>2026-04-04T08:28:18.878Z</time></trkpt><trkpt lat="37.0068386" lon="15.3353266"><ele>17.166666666666668</ele><time>2026-04-04T08:28:20.878Z</time></trkpt><trkpt lat="37.0069015" lon="15.3353641"><ele>17.333333333333336</ele><time>2026-04-04T08:28:22.878Z</time></trkpt><trkpt lat="37.0069737" lon="15.3354407"><ele>17.5</ele><time>2026-04-04T08:28:24.878Z</time></trkpt><trkpt lat="37.0070438" lon="15.3354175"><ele>17.666666666666668</ele><time>2026-04-04T08:28:32.877Z</time></trkpt><trkpt lat="37.0070397" lon="15.3353051"><ele>17.833333333333332</ele><time>2026-04-04T08:28:34.878Z</time></trkpt><trkpt lat="37.0070242" lon="15.3351576"><ele>18.0</ele><time>2026-04-04T08:28:36.878Z</time></trkpt><trkpt lat="37.0070066" lon="15.3350687"><ele>18.0</ele><time>2026-04-04T08:28:37.878Z</time></trkpt><trkpt lat="37.0069906" lon="15.3349345"><ele>18.0</ele><time>2026-04-04T08:28:39.878Z</time></trkpt><trkpt lat="37.0070129" lon="15.3348202"><ele>18.0</ele><time>2026-04-04T08:28:41.878Z</time></trkpt><trkpt lat="37.0070402" lon="15.334717"><ele>18.0</ele><time>2026-04-04T08:28:43.878Z</time></trkpt><trkpt lat="37.0070487" lon="15.3346362"><ele>18.0</ele><time>2026-04-04T08:28:45.877Z</time></trkpt><trkpt lat="37.0070649" lon="15.3345316"><ele>18.0</ele><time>2026-04-04T08:29:00.878Z</time></trkpt><trkpt lat="37.0070301" lon="15.3344555"><ele>18.2</ele><time>2026-04-04T08:29:02.877Z</time></trkpt><trkpt lat="37.0070111" lon="15.3343586"><ele>18.4</ele><time>2026-04-04T08:29:04.877Z</time></trkpt><trkpt lat="37.0070037" lon="15.3342297"><ele>18.599999999999998</ele><time>2026-04-04T08:29:06.877Z</time></trkpt><trkpt lat="37.0069949" lon="15.3340832"><ele>18.8</ele><time>2026-04-04T08:29:08.878Z</time></trkpt><trkpt lat="37.0069931" lon="15.3339359"><ele>19.0</ele><time>2026-04-04T08:29:10.878Z</time></trkpt><trkpt lat="37.0069894" lon="15.3338093"><ele>19.0</ele><time>2026-04-04T08:29:12.878Z</time></trkpt><trkpt lat="37.0070678" lon="15.3337639"><ele>19.0</ele><time>2026-04-04T08:29:15.878Z</time></trkpt><trkpt lat="37.0071893" lon="15.3337823"><ele>19.0</ele><time>2026-04-04T08:29:17.878Z</time></trkpt><trkpt lat="37.0073182" lon="15.3337765"><ele>19.0</ele><time>2026-04-04T08:29:19.878Z</time></trkpt><trkpt lat="37.0073827" lon="15.3337715"><ele>19.0</ele><time>2026-04-04T08:29:20.878Z</time></trkpt><trkpt lat="37.0074968" lon="15.3337372"><ele>19.0</ele><time>2026-04-04T08:29:22.878Z</time></trkpt><trkpt lat="37.0075621" lon="15.3337169"><ele>19.0</ele><time>2026-04-04T08:29:23.878Z</time></trkpt><trkpt lat="37.0076796" lon="15.3336942"><ele>19.0</ele><time>2026-04-04T08:29:25.878Z</time></trkpt><trkpt lat="37.0077452" lon="15.3337026"><ele>19.0</ele><time>2026-04-04T08:29:26.878Z</time></trkpt><trkpt lat="37.0078743" lon="15.3337129"><ele>19.0</ele><time>2026-04-04T08:29:28.878Z</time></trkpt><trkpt lat="37.0079554" lon="15.3337152"><ele>19.0</ele><time>2026-04-04T08:29:29.878Z</time></trkpt><trkpt lat="37.0080427" lon="15.3337128"><ele>19.0</ele><time>2026-04-04T08:29:30.878Z</time></trkpt><trkpt lat="37.0081305" lon="15.3337004"><ele>19.0</ele><time>2026-04-04T08:29:31.878Z</time></trkpt><trkpt lat="37.0082104" lon="15.3336695"><ele>19.0</ele><time>2026-04-04T08:29:32.878Z</time></trkpt><trkpt lat="37.0082809" lon="15.3336479"><ele>19.0</ele><time>2026-04-04T08:29:33.878Z</time></trkpt><trkpt lat="37.0083444" lon="15.3336328"><ele>19.0</ele><time>2026-04-04T08:29:34.878Z</time></trkpt><trkpt lat="37.0084148" lon="15.3336098"><ele>18.8</ele><time>2026-04-04T08:29:35.878Z</time></trkpt><trkpt lat="37.0085006" lon="15.3335842"><ele>18.599999999999998</ele><time>2026-04-04T08:29:36.878Z</time></trkpt><trkpt lat="37.0086039" lon="15.3335591"><ele>18.4</ele><time>2026-04-04T08:29:37.878Z</time></trkpt><trkpt lat="37.0086997" lon="15.3335346"><ele>18.2</ele><time>2026-04-04T08:29:38.878Z</time></trkpt><trkpt lat="37.0087841" lon="15.3334663"><ele>18.0</ele><time>2026-04-04T08:29:39.878Z</time></trkpt><trkpt lat="37.0088784" lon="15.3334116"><ele>18.0</ele><time>2026-04-04T08:29:40.878Z</time></trkpt><trkpt lat="37.0089674" lon="15.3333714"><ele>18.0</ele><time>2026-04-04T08:29:41.878Z</time></trkpt><trkpt lat="37.0090413" lon="15.333349"><ele>18.0</ele><time>2026-04-04T08:29:42.878Z</time></trkpt><trkpt lat="37.0091157" lon="15.3333448"><ele>18.0</ele><time>2026-04-04T08:29:43.878Z</time></trkpt><trkpt lat="37.0091907" lon="15.3333518"><ele>18.0</ele><time>2026-04-04T08:29:44.878Z</time></trkpt><trkpt lat="37.0092687" lon="15.3333365"><ele>18.0</ele><time>2026-04-04T08:29:45.877Z</time></trkpt><trkpt lat="37.0093443" lon="15.3333152"><ele>17.8</ele><time>2026-04-04T08:29:46.878Z</time></trkpt><trkpt lat="37.009458" lon="15.3333139"><ele>17.6</ele><time>2026-04-04T08:29:48.878Z</time></trkpt><trkpt lat="37.00954" lon="15.3333803"><ele>17.4</ele><time>2026-04-04T08:29:50.878Z</time></trkpt><trkpt lat="37.0096066" lon="15.3334853"><ele>17.2</ele><time>2026-04-04T08:29:52.878Z</time></trkpt><trkpt lat="37.0096196" lon="15.3335795"><ele>17.0</ele><time>2026-04-04T08:29:54.878Z</time></trkpt><trkpt lat="37.0095824" lon="15.3336587"><ele>17.0</ele><time>2026-04-04T08:29:56.878Z</time></trkpt><trkpt lat="37.0095517" lon="15.3337394"><ele>17.0</ele><time>2026-04-04T08:29:58.878Z</time></trkpt><trkpt lat="37.0095387" lon="15.3338471"><ele>17.0</ele><time>2026-04-04T08:30:01.878Z</time></trkpt><trkpt lat="37.0096009" lon="15.3338961"><ele>17.0</ele><time>2026-04-04T08:30:04.878Z</time></trkpt><trkpt lat="37.0096831" lon="15.3339047"><ele>17.0</ele><time>2026-04-04T08:30:07.878Z</time></trkpt><trkpt lat="37.009749" lon="15.3339867"><ele>17.0</ele><time>2026-04-04T08:30:10.877Z</time></trkpt><trkpt lat="37.0098135" lon="15.3340248"><ele>16.857142857142854</ele><time>2026-04-04T08:30:12.877Z</time></trkpt><trkpt lat="37.009864" lon="15.3340854"><ele>16.714285714285715</ele><time>2026-04-04T08:30:14.878Z</time></trkpt><trkpt lat="37.0099262" lon="15.3341217"><ele>16.57142857142857</ele><time>2026-04-04T08:30:19.878Z</time></trkpt><trkpt lat="37.009881" lon="15.3340504"><ele>16.428571428571427</ele><time>2026-04-04T08:30:27.878Z</time></trkpt><trkpt lat="37.0098162" lon="15.3340386"><ele>16.285714285714285</ele><time>2026-04-04T08:30:29.878Z</time></trkpt><trkpt lat="37.0097646" lon="15.3339833"><ele>16.142857142857142</ele><time>2026-04-04T08:30:31.878Z</time></trkpt><trkpt lat="37.0096939" lon="15.3339415"><ele>16.0</ele><time>2026-04-04T08:30:33.878Z</time></trkpt><trkpt lat="37.0096407" lon="15.3338975"><ele>16.166666666666664</ele><time>2026-04-04T08:30:35.878Z</time></trkpt><trkpt lat="37.0095521" lon="15.3338695"><ele>16.333333333333332</ele><time>2026-04-04T08:30:38.878Z</time></trkpt><trkpt lat="37.0095308" lon="15.3337654"><ele>16.5</ele><time>2026-04-04T08:30:41.877Z</time></trkpt><trkpt lat="37.0095753" lon="15.3336827"><ele>16.666666666666668</ele><time>2026-04-04T08:30:43.878Z</time></trkpt><trkpt lat="37.0096194" lon="15.3335911"><ele>16.833333333333336</ele><time>2026-04-04T08:30:45.878Z</time></trkpt><trkpt lat="37.0095732" lon="15.3334864"><ele>17.0</ele><time>2026-04-04T08:30:48.877Z</time></trkpt><trkpt lat="37.0095337" lon="15.3334082"><ele>17.0</ele><time>2026-04-04T08:30:50.878Z</time></trkpt><trkpt lat="37.0094912" lon="15.3333361"><ele>17.0</ele><time>2026-04-04T08:30:52.878Z</time></trkpt><trkpt lat="37.0094228" lon="15.3332811"><ele>17.0</ele><time>2026-04-04T08:30:54.876Z</time></trkpt><trkpt lat="37.0094013" lon="15.3331711"><ele>17.0</ele><time>2026-04-04T08:30:56.877Z</time></trkpt><trkpt lat="37.0093903" lon="15.3330687"><ele>17.0</ele><time>2026-04-04T08:30:58.878Z</time></trkpt><trkpt lat="37.0093242" lon="15.3329585"><ele>17.0</ele><time>2026-04-04T08:31:00.877Z</time></trkpt><trkpt lat="37.0092589" lon="15.3328772"><ele>17.4</ele><time>2026-04-04T08:31:02.878Z</time></trkpt><trkpt lat="37.0091866" lon="15.3327808"><ele>17.799999999999997</ele><time>2026-04-04T08:31:04.878Z</time></trkpt><trkpt lat="37.009178" lon="15.332684"><ele>18.2</ele><time>2026-04-04T08:31:06.877Z</time></trkpt><trkpt lat="37.0092266" lon="15.3325762"><ele>18.599999999999998</ele><time>2026-04-04T08:31:08.878Z</time></trkpt><trkpt lat="37.0092795" lon="15.3324759"><ele>19.0</ele><time>2026-04-04T08:31:10.877Z</time></trkpt><trkpt lat="37.0093394" lon="15.3323609"><ele>19.0</ele><time>2026-04-04T08:31:12.878Z</time></trkpt><trkpt lat="37.0093922" lon="15.3322496"><ele>19.0</ele><time>2026-04-04T08:31:14.878Z</time></trkpt><trkpt lat="37.0094417" lon="15.3321829"><ele>19.0</ele><time>2026-04-04T08:31:16.878Z</time></trkpt><trkpt lat="37.0094768" lon="15.3321077"><ele>19.0</ele><time>2026-04-04T08:31:18.878Z</time></trkpt><trkpt lat="37.0094992" lon="15.332026"><ele>19.0</ele><time>2026-04-04T08:31:20.878Z</time></trkpt><trkpt lat="37.0095322" lon="15.3319206"><ele>19.0</ele><time>2026-04-04T08:31:22.877Z</time></trkpt><trkpt lat="37.0095827" lon="15.3318145"><ele>19.2</ele><time>2026-04-04T08:31:24.877Z</time></trkpt><trkpt lat="37.0096374" lon="15.3317001"><ele>19.4</ele><time>2026-04-04T08:31:26.878Z</time></trkpt><trkpt lat="37.0096558" lon="15.3316071"><ele>19.6</ele><time>2026-04-04T08:31:28.878Z</time></trkpt><trkpt lat="37.0096948" lon="15.3314932"><ele>19.8</ele><time>2026-04-04T08:31:30.878Z</time></trkpt><trkpt lat="37.0097848" lon="15.3314092"><ele>20.0</ele><time>2026-04-04T08:31:32.877Z</time></trkpt><trkpt lat="37.0099038" lon="15.3313432"><ele>20.4</ele><time>2026-04-04T08:31:34.878Z</time></trkpt><trkpt lat="37.0099669" lon="15.331327"><ele>20.8</ele><time>2026-04-04T08:31:35.878Z</time></trkpt><trkpt lat="37.0100741" lon="15.33131"><ele>21.200000000000003</ele><time>2026-04-04T08:31:37.877Z</time></trkpt><trkpt lat="37.0101677" lon="15.3312958"><ele>21.6</ele><time>2026-04-04T08:31:39.877Z</time></trkpt><trkpt lat="37.0102644" lon="15.3312864"><ele>22.0</ele><time>2026-04-04T08:31:41.878Z</time></trkpt><trkpt lat="37.0103727" lon="15.3313021"><ele>22.166666666666664</ele><time>2026-04-04T08:31:43.878Z</time></trkpt><trkpt lat="37.0104355" lon="15.3313112"><ele>22.333333333333332</ele><time>2026-04-04T08:31:44.877Z</time></trkpt><trkpt lat="37.0105241" lon="15.331326"><ele>22.5</ele><time>2026-04-04T08:31:45.878Z</time></trkpt><trkpt lat="37.0106208" lon="15.3313439"><ele>22.666666666666668</ele><time>2026-04-04T08:31:46.877Z</time></trkpt><trkpt lat="37.0107084" lon="15.3313596"><ele>22.833333333333336</ele><time>2026-04-04T08:31:47.877Z</time></trkpt><trkpt lat="37.010785" lon="15.3313604"><ele>23.0</ele><time>2026-04-04T08:31:48.878Z</time></trkpt><trkpt lat="37.0108481" lon="15.3313649"><ele>22.599999999999998</ele><time>2026-04-04T08:31:49.878Z</time></trkpt><trkpt lat="37.0109664" lon="15.3313525"><ele>22.2</ele><time>2026-04-04T08:31:51.878Z</time></trkpt><trkpt lat="37.0110345" lon="15.3313496"><ele>21.8</ele><time>2026-04-04T08:31:52.878Z</time></trkpt><trkpt lat="37.0111614" lon="15.3313636"><ele>21.4</ele><time>2026-04-04T08:31:54.878Z</time></trkpt><trkpt lat="37.0112253" lon="15.3313763"><ele>21.0</ele><time>2026-04-04T08:31:55.877Z</time></trkpt><trkpt lat="37.0113281" lon="15.3313727"><ele>21.0</ele><time>2026-04-04T08:31:57.878Z</time></trkpt><trkpt lat="37.0114662" lon="15.3313835"><ele>21.0</ele><time>2026-04-04T08:31:59.878Z</time></trkpt><trkpt lat="37.0115344" lon="15.3313839"><ele>21.0</ele><time>2026-04-04T08:32:00.877Z</time></trkpt><trkpt lat="37.0116042" lon="15.3313839"><ele>21.0</ele><time>2026-04-04T08:32:01.878Z</time></trkpt><trkpt lat="37.0116743" lon="15.3313775"><ele>21.0</ele><time>2026-04-04T08:32:02.877Z</time></trkpt><trkpt lat="37.0117537" lon="15.3313809"><ele>21.0</ele><time>2026-04-04T08:32:03.878Z</time></trkpt><trkpt lat="37.0118742" lon="15.3313688"><ele>20.8</ele><time>2026-04-04T08:32:05.876Z</time></trkpt><trkpt lat="37.0119972" lon="15.3313082"><ele>20.6</ele><time>2026-04-04T08:32:07.878Z</time></trkpt><trkpt lat="37.0120622" lon="15.3312582"><ele>20.4</ele><time>2026-04-04T08:32:08.878Z</time></trkpt><trkpt lat="37.0121442" lon="15.3311969"><ele>20.2</ele><time>2026-04-04T08:32:09.877Z</time></trkpt><trkpt lat="37.012238" lon="15.331127"><ele>20.0</ele><time>2026-04-04T08:32:10.877Z</time></trkpt><trkpt lat="37.0123194" lon="15.3310702"><ele>20.0</ele><time>2026-04-04T08:32:11.878Z</time></trkpt><trkpt lat="37.0123914" lon="15.3310197"><ele>20.0</ele><time>2026-04-04T08:32:12.877Z</time></trkpt><trkpt lat="37.0125084" lon="15.3309676"><ele>20.0</ele><time>2026-04-04T08:32:14.878Z</time></trkpt><trkpt lat="37.0125772" lon="15.3309568"><ele>20.0</ele><time>2026-04-04T08:32:15.878Z</time></trkpt><trkpt lat="37.0126431" lon="15.330948"><ele>20.0</ele><time>2026-04-04T08:32:16.878Z</time></trkpt><trkpt lat="37.012728" lon="15.3309362"><ele>20.0</ele><time>2026-04-04T08:32:18.878Z</time></trkpt><trkpt lat="37.0128309" lon="15.3309087"><ele>19.833333333333336</ele><time>2026-04-04T08:32:20.877Z</time></trkpt><trkpt lat="37.0128991" lon="15.3308818"><ele>19.666666666666668</ele><time>2026-04-04T08:32:23.878Z</time></trkpt><trkpt lat="37.0129673" lon="15.3308354"><ele>19.5</ele><time>2026-04-04T08:32:26.878Z</time></trkpt><trkpt lat="37.0130377" lon="15.3308104"><ele>19.333333333333332</ele><time>2026-04-04T08:32:29.877Z</time></trkpt><trkpt lat="37.0131144" lon="15.3307702"><ele>19.166666666666664</ele><time>2026-04-04T08:32:31.877Z</time></trkpt><trkpt lat="37.0132063" lon="15.3307377"><ele>19.0</ele><time>2026-04-04T08:32:33.877Z</time></trkpt><trkpt lat="37.0132674" lon="15.3306883"><ele>18.833333333333332</ele><time>2026-04-04T08:32:35.877Z</time></trkpt><trkpt lat="37.01333" lon="15.3306189"><ele>18.666666666666664</ele><time>2026-04-04T08:32:37.878Z</time></trkpt><trkpt lat="37.0134019" lon="15.3305922"><ele>18.5</ele><time>2026-04-04T08:32:39.877Z</time></trkpt><trkpt lat="37.0134749" lon="15.3305767"><ele>18.333333333333332</ele><time>2026-04-04T08:32:41.878Z</time></trkpt><trkpt lat="37.0135427" lon="15.3305502"><ele>18.166666666666668</ele><time>2026-04-04T08:32:43.877Z</time></trkpt><trkpt lat="37.0136304" lon="15.3304546"><ele>18.0</ele><time>2026-04-04T08:32:45.878Z</time></trkpt><trkpt lat="37.0137055" lon="15.3303774"><ele>18.6</ele><time>2026-04-04T08:32:46.878Z</time></trkpt><trkpt lat="37.0137996" lon="15.3302852"><ele>19.200000000000003</ele><time>2026-04-04T08:32:47.877Z</time></trkpt><trkpt lat="37.0139003" lon="15.3302042"><ele>19.8</ele><time>2026-04-04T08:32:48.878Z</time></trkpt><trkpt lat="37.0139834" lon="15.3301407"><ele>20.400000000000002</ele><time>2026-04-04T08:32:49.878Z</time></trkpt><trkpt lat="37.0140543" lon="15.3300878"><ele>21.0</ele><time>2026-04-04T08:32:50.878Z</time></trkpt><trkpt lat="37.0141404" lon="15.3299967"><ele>20.833333333333332</ele><time>2026-04-04T08:32:52.877Z</time></trkpt><trkpt lat="37.014213" lon="15.3299436"><ele>20.666666666666668</ele><time>2026-04-04T08:32:54.876Z</time></trkpt><trkpt lat="37.0142905" lon="15.3299092"><ele>20.5</ele><time>2026-04-04T08:32:56.878Z</time></trkpt><trkpt lat="37.0143619" lon="15.3299091"><ele>20.333333333333336</ele><time>2026-04-04T08:32:59.878Z</time></trkpt><trkpt lat="37.0144379" lon="15.329912"><ele>20.166666666666668</ele><time>2026-04-04T08:33:07.878Z</time></trkpt><trkpt lat="37.014507" lon="15.3298813"><ele>20.0</ele><time>2026-04-04T08:33:09.878Z</time></trkpt><trkpt lat="37.014581" lon="15.3298441"><ele>20.0</ele><time>2026-04-04T08:33:11.878Z</time></trkpt><trkpt lat="37.0146369" lon="15.3298051"><ele>20.0</ele><time>2026-04-04T08:33:12.878Z</time></trkpt><trkpt lat="37.0146977" lon="15.3297671"><ele>20.0</ele><time>2026-04-04T08:33:13.878Z</time></trkpt><trkpt lat="37.0147936" lon="15.329705"><ele>20.0</ele><time>2026-04-04T08:33:15.878Z</time></trkpt><trkpt lat="37.0148544" lon="15.3296167"><ele>20.0</ele><time>2026-04-04T08:33:17.877Z</time></trkpt><trkpt lat="37.0149314" lon="15.3295349"><ele>20.0</ele><time>2026-04-04T08:33:19.877Z</time></trkpt><trkpt lat="37.014981" lon="15.3294362"><ele>20.0</ele><time>2026-04-04T08:33:21.878Z</time></trkpt><trkpt lat="37.0150575" lon="15.3293043"><ele>20.0</ele><time>2026-04-04T08:33:23.878Z</time></trkpt><trkpt lat="37.0150967" lon="15.3292358"><ele>20.0</ele><time>2026-04-04T08:33:24.877Z</time></trkpt><trkpt lat="37.0151411" lon="15.3291636"><ele>20.0</ele><time>2026-04-04T08:33:25.878Z</time></trkpt><trkpt lat="37.0151761" lon="15.3290922"><ele>20.0</ele><time>2026-04-04T08:33:26.877Z</time></trkpt><trkpt lat="37.0152316" lon="15.3289472"><ele>20.4</ele><time>2026-04-04T08:33:28.878Z</time></trkpt><trkpt lat="37.0152504" lon="15.3288717"><ele>20.8</ele><time>2026-04-04T08:33:29.878Z</time></trkpt><trkpt lat="37.0153282" lon="15.3287921"><ele>21.200000000000003</ele><time>2026-04-04T08:33:31.878Z</time></trkpt><trkpt lat="37.0153975" lon="15.3287803"><ele>21.6</ele><time>2026-04-04T08:33:32.878Z</time></trkpt><trkpt lat="37.0154974" lon="15.3287113"><ele>22.0</ele><time>2026-04-04T08:33:34.877Z</time></trkpt><trkpt lat="37.0155868" lon="15.3286171"><ele>22.0</ele><time>2026-04-04T08:33:36.877Z</time></trkpt><trkpt lat="37.0156777" lon="15.3285778"><ele>22.0</ele><time>2026-04-04T08:33:38.878Z</time></trkpt><trkpt lat="37.0157561" lon="15.3285277"><ele>22.0</ele><time>2026-04-04T08:33:40.877Z</time></trkpt><trkpt lat="37.0158398" lon="15.3284589"><ele>22.0</ele><time>2026-04-04T08:33:42.878Z</time></trkpt><trkpt lat="37.0159242" lon="15.3283563"><ele>22.0</ele><time>2026-04-04T08:33:44.877Z</time></trkpt><trkpt lat="37.0159909" lon="15.3282788"><ele>22.166666666666664</ele><time>2026-04-04T08:33:46.877Z</time></trkpt><trkpt lat="37.016041" lon="15.3282201"><ele>22.333333333333332</ele><time>2026-04-04T08:33:49.876Z</time></trkpt><trkpt lat="37.0160922" lon="15.3281462"><ele>22.5</ele><time>2026-04-04T08:34:28.876Z</time></trkpt><trkpt lat="37.0161044" lon="15.3280389"><ele>22.666666666666668</ele><time>2026-04-04T08:34:29.876Z</time></trkpt><trkpt lat="37.0161301" lon="15.3279493"><ele>22.833333333333336</ele><time>2026-04-04T08:34:30.878Z</time></trkpt><trkpt lat="37.0161591" lon="15.327866"><ele>23.0</ele><time>2026-04-04T08:34:31.877Z</time></trkpt><trkpt lat="37.0161801" lon="15.3277812"><ele>23.0</ele><time>2026-04-04T08:34:32.877Z</time></trkpt><trkpt lat="37.0162008" lon="15.3276945"><ele>23.0</ele><time>2026-04-04T08:34:33.876Z</time></trkpt><trkpt lat="37.0162327" lon="15.3276047"><ele>23.0</ele><time>2026-04-04T08:34:34.877Z</time></trkpt><trkpt lat="37.0162619" lon="15.3275215"><ele>23.0</ele><time>2026-04-04T08:34:35.878Z</time></trkpt><trkpt lat="37.0162896" lon="15.3274346"><ele>23.0</ele><time>2026-04-04T08:34:36.877Z</time></trkpt><trkpt lat="37.0163116" lon="15.3273557"><ele>23.0</ele><time>2026-04-04T08:34:37.876Z</time></trkpt><trkpt lat="37.0163571" lon="15.3272825"><ele>23.0</ele><time>2026-04-04T08:34:38.877Z</time></trkpt><trkpt lat="37.0164185" lon="15.3271991"><ele>23.4</ele><time>2026-04-04T08:34:39.878Z</time></trkpt><trkpt lat="37.0164922" lon="15.3270865"><ele>23.799999999999997</ele><time>2026-04-04T08:34:40.877Z</time></trkpt><trkpt lat="37.0165602" lon="15.3270032"><ele>24.2</ele><time>2026-04-04T08:34:41.878Z</time></trkpt><trkpt lat="37.0166241" lon="15.3269307"><ele>24.6</ele><time>2026-04-04T08:34:42.877Z</time></trkpt><trkpt lat="37.0166718" lon="15.3268653"><ele>25.0</ele><time>2026-04-04T08:34:43.877Z</time></trkpt><trkpt lat="37.0167319" lon="15.3267823"><ele>25.0</ele><time>2026-04-04T08:34:44.878Z</time></trkpt><trkpt lat="37.0167881" lon="15.3266993"><ele>25.0</ele><time>2026-04-04T08:34:45.877Z</time></trkpt><trkpt lat="37.0168366" lon="15.3266227"><ele>25.0</ele><time>2026-04-04T08:34:46.877Z</time></trkpt><trkpt lat="37.0169408" lon="15.3265229"><ele>25.0</ele><time>2026-04-04T08:34:48.877Z</time></trkpt><trkpt lat="37.01701" lon="15.3264534"><ele>25.0</ele><time>2026-04-04T08:34:49.877Z</time></trkpt><trkpt lat="37.0170689" lon="15.326395"><ele>25.666666666666668</ele><time>2026-04-04T08:34:50.877Z</time></trkpt><trkpt lat="37.0171268" lon="15.3263172"><ele>26.333333333333336</ele><time>2026-04-04T08:34:51.877Z</time></trkpt><trkpt lat="37.0171695" lon="15.3262319"><ele>27.0</ele><time>2026-04-04T08:34:52.877Z</time></trkpt><trkpt lat="37.0172028" lon="15.3261589"><ele>27.666666666666664</ele><time>2026-04-04T08:34:53.877Z</time></trkpt><trkpt lat="37.0172327" lon="15.3260128"><ele>28.333333333333332</ele><time>2026-04-04T08:34:55.878Z</time></trkpt><trkpt lat="37.0172756" lon="15.3259316"><ele>29.0</ele><time>2026-04-04T08:34:57.877Z</time></trkpt><trkpt lat="37.0173859" lon="15.3258984"><ele>29.0</ele><time>2026-04-04T08:34:59.877Z</time></trkpt><trkpt lat="37.0174456" lon="15.3258662"><ele>29.0</ele><time>2026-04-04T08:35:00.878Z</time></trkpt><trkpt lat="37.0175056" lon="15.3257638"><ele>29.0</ele><time>2026-04-04T08:35:02.877Z</time></trkpt><trkpt lat="37.0175419" lon="15.3256096"><ele>29.0</ele><time>2026-04-04T08:35:04.877Z</time></trkpt><trkpt lat="37.0175703" lon="15.3255033"><ele>29.0</ele><time>2026-04-04T08:35:05.877Z</time></trkpt><trkpt lat="37.0175965" lon="15.3253971"><ele>28.833333333333332</ele><time>2026-04-04T08:35:06.877Z</time></trkpt><trkpt lat="37.0176158" lon="15.3253062"><ele>28.666666666666664</ele><time>2026-04-04T08:35:07.877Z</time></trkpt><trkpt lat="37.0176424" lon="15.325168"><ele>28.5</ele><time>2026-04-04T08:35:09.877Z</time></trkpt><trkpt lat="37.017652" lon="15.3250161"><ele>28.333333333333336</ele><time>2026-04-04T08:35:11.877Z</time></trkpt><trkpt lat="37.0176445" lon="15.3249348"><ele>28.166666666666668</ele><time>2026-04-04T08:35:12.878Z</time></trkpt><trkpt lat="37.0176324" lon="15.3248495"><ele>28.0</ele><time>2026-04-04T08:35:13.876Z</time></trkpt><trkpt lat="37.0176217" lon="15.3247625"><ele>28.500000000000004</ele><time>2026-04-04T08:35:14.877Z</time></trkpt><trkpt lat="37.0176109" lon="15.3246745"><ele>29.0</ele><time>2026-04-04T08:35:15.876Z</time></trkpt><trkpt lat="37.0176171" lon="15.3245842"><ele>29.5</ele><time>2026-04-04T08:35:16.878Z</time></trkpt><trkpt lat="37.0176452" lon="15.3244752"><ele>30.0</ele><time>2026-04-04T08:35:17.878Z</time></trkpt><trkpt lat="37.0176772" lon="15.3243873"><ele>30.500000000000004</ele><time>2026-04-04T08:35:18.878Z</time></trkpt><trkpt lat="37.0177393" lon="15.3242691"><ele>31.0</ele><time>2026-04-04T08:35:20.878Z</time></trkpt><trkpt lat="37.0178493" lon="15.3242567"><ele>31.0</ele><time>2026-04-04T08:35:22.877Z</time></trkpt><trkpt lat="37.0179677" lon="15.3242393"><ele>31.0</ele><time>2026-04-04T08:35:24.878Z</time></trkpt><trkpt lat="37.0180516" lon="15.3241652"><ele>31.0</ele><time>2026-04-04T08:35:26.878Z</time></trkpt><trkpt lat="37.0181174" lon="15.3241022"><ele>31.0</ele><time>2026-04-04T08:35:28.877Z</time></trkpt><trkpt lat="37.0181842" lon="15.3240516"><ele>31.0</ele><time>2026-04-04T08:35:30.878Z</time></trkpt><trkpt lat="37.0182572" lon="15.3239649"><ele>30.200000000000003</ele><time>2026-04-04T08:35:32.878Z</time></trkpt><trkpt lat="37.018324" lon="15.3238567"><ele>29.400000000000002</ele><time>2026-04-04T08:35:34.877Z</time></trkpt><trkpt lat="37.0183652" lon="15.3237331"><ele>28.6</ele><time>2026-04-04T08:35:36.878Z</time></trkpt><trkpt lat="37.0184054" lon="15.3236053"><ele>27.8</ele><time>2026-04-04T08:35:38.878Z</time></trkpt><trkpt lat="37.0184484" lon="15.3234846"><ele>27.0</ele><time>2026-04-04T08:35:40.877Z</time></trkpt><trkpt lat="37.0184514" lon="15.323357"><ele>27.0</ele><time>2026-04-04T08:35:42.878Z</time></trkpt><trkpt lat="37.0184665" lon="15.3232738"><ele>27.000000000000004</ele><time>2026-04-04T08:35:44.877Z</time></trkpt><trkpt lat="37.0185367" lon="15.3232201"><ele>27.000000000000004</ele><time>2026-04-04T08:35:46.877Z</time></trkpt><trkpt lat="37.0186235" lon="15.3231488"><ele>27.0</ele><time>2026-04-04T08:35:48.878Z</time></trkpt><trkpt lat="37.0187172" lon="15.3230572"><ele>27.0</ele><time>2026-04-04T08:35:50.877Z</time></trkpt><trkpt lat="37.018816" lon="15.3230231"><ele>26.6</ele><time>2026-04-04T08:35:52.876Z</time></trkpt><trkpt lat="37.0189274" lon="15.3230202"><ele>26.200000000000003</ele><time>2026-04-04T08:35:54.876Z</time></trkpt><trkpt lat="37.0190444" lon="15.3230127"><ele>25.8</ele><time>2026-04-04T08:35:56.877Z</time></trkpt><trkpt lat="37.0191423" lon="15.3229925"><ele>25.4</ele><time>2026-04-04T08:35:58.877Z</time></trkpt><trkpt lat="37.019227" lon="15.3229208"><ele>25.0</ele><time>2026-04-04T08:36:00.877Z</time></trkpt><trkpt lat="37.019296" lon="15.3228319"><ele>25.000000000000004</ele><time>2026-04-04T08:36:02.877Z</time></trkpt><trkpt lat="37.0193561" lon="15.3227567"><ele>25.0</ele><time>2026-04-04T08:36:04.878Z</time></trkpt><trkpt lat="37.0194266" lon="15.3226246"><ele>25.0</ele><time>2026-04-04T08:36:06.876Z</time></trkpt><trkpt lat="37.0194763" lon="15.3225424"><ele>25.0</ele><time>2026-04-04T08:36:07.877Z</time></trkpt><trkpt lat="37.0195267" lon="15.3224773"><ele>25.000000000000004</ele><time>2026-04-04T08:36:08.878Z</time></trkpt><trkpt lat="37.0195708" lon="15.3224025"><ele>25.0</ele><time>2026-04-04T08:36:09.878Z</time></trkpt><trkpt lat="37.0196094" lon="15.3223089"><ele>26.166666666666668</ele><time>2026-04-04T08:36:10.877Z</time></trkpt><trkpt lat="37.0196409" lon="15.3222262"><ele>27.333333333333336</ele><time>2026-04-04T08:36:11.878Z</time></trkpt><trkpt lat="37.0196641" lon="15.322151"><ele>28.5</ele><time>2026-04-04T08:36:12.878Z</time></trkpt><trkpt lat="37.0197478" lon="15.3220682"><ele>29.666666666666664</ele><time>2026-04-04T08:36:14.877Z</time></trkpt><trkpt lat="37.0198175" lon="15.3220326"><ele>30.833333333333332</ele><time>2026-04-04T08:36:15.876Z</time></trkpt><trkpt lat="37.0198815" lon="15.3219997"><ele>32.0</ele><time>2026-04-04T08:36:16.877Z</time></trkpt><trkpt lat="37.0199766" lon="15.3219442"><ele>29.200000000000003</ele><time>2026-04-04T08:36:18.878Z</time></trkpt><trkpt lat="37.0200879" lon="15.3219126"><ele>26.400000000000002</ele><time>2026-04-04T08:36:20.877Z</time></trkpt><trkpt lat="37.0202093" lon="15.3218423"><ele>23.6</ele><time>2026-04-04T08:36:22.877Z</time></trkpt><trkpt lat="37.0202793" lon="15.3218006"><ele>20.8</ele><time>2026-04-04T08:36:23.877Z</time></trkpt><trkpt lat="37.0203476" lon="15.3217723"><ele>18.0</ele><time>2026-04-04T08:36:24.877Z</time></trkpt><trkpt lat="37.0204196" lon="15.3217663"><ele>18.0</ele><time>2026-04-04T08:36:25.877Z</time></trkpt><trkpt lat="37.0204978" lon="15.3217699"><ele>18.0</ele><time>2026-04-04T08:36:26.877Z</time></trkpt><trkpt lat="37.0205921" lon="15.3217627"><ele>18.0</ele><time>2026-04-04T08:36:27.877Z</time></trkpt><trkpt lat="37.0206861" lon="15.3217341"><ele>18.0</ele><time>2026-04-04T08:36:28.877Z</time></trkpt><trkpt lat="37.0207756" lon="15.3217072"><ele>18.0</ele><time>2026-04-04T08:36:29.877Z</time></trkpt><trkpt lat="37.0208776" lon="15.3217126"><ele>16.75</ele><time>2026-04-04T08:36:30.877Z</time></trkpt><trkpt lat="37.0209914" lon="15.3217105"><ele>15.5</ele><time>2026-04-04T08:36:31.877Z</time></trkpt><trkpt lat="37.0211069" lon="15.3217192"><ele>14.25</ele><time>2026-04-04T08:36:32.877Z</time></trkpt><trkpt lat="37.0212266" lon="15.3217107"><ele>13.0</ele><time>2026-04-04T08:36:33.877Z</time></trkpt><trkpt lat="37.0213357" lon="15.3216921"><ele>13.0</ele><time>2026-04-04T08:36:34.878Z</time></trkpt><trkpt lat="37.0214353" lon="15.3216544"><ele>13.0</ele><time>2026-04-04T08:36:35.877Z</time></trkpt><trkpt lat="37.0215382" lon="15.321597"><ele>13.0</ele><time>2026-04-04T08:36:36.878Z</time></trkpt><trkpt lat="37.0216439" lon="15.3215453"><ele>13.0</ele><time>2026-04-04T08:36:37.877Z</time></trkpt><trkpt lat="37.0217429" lon="15.3214963"><ele>13.0</ele><time>2026-04-04T08:36:38.877Z</time></trkpt><trkpt lat="37.0218298" lon="15.3214483"><ele>12.666666666666666</ele><time>2026-04-04T08:36:39.877Z</time></trkpt><trkpt lat="37.0219003" lon="15.3214174"><ele>12.333333333333332</ele><time>2026-04-04T08:36:40.878Z</time></trkpt><trkpt lat="37.0219846" lon="15.3213863"><ele>12.0</ele><time>2026-04-04T08:36:42.876Z</time></trkpt><trkpt lat="37.0220298" lon="15.3212937"><ele>11.666666666666666</ele><time>2026-04-04T08:36:44.877Z</time></trkpt><trkpt lat="37.0220883" lon="15.3212201"><ele>11.333333333333332</ele><time>2026-04-04T08:36:46.878Z</time></trkpt><trkpt lat="37.0221663" lon="15.3211136"><ele>11.0</ele><time>2026-04-04T08:36:48.877Z</time></trkpt><trkpt lat="37.0222148" lon="15.3209987"><ele>12.200000000000001</ele><time>2026-04-04T08:36:50.876Z</time></trkpt><trkpt lat="37.0222276" lon="15.3208905"><ele>13.4</ele><time>2026-04-04T08:36:52.876Z</time></trkpt><trkpt lat="37.0221968" lon="15.3207553"><ele>14.6</ele><time>2026-04-04T08:36:54.878Z</time></trkpt><trkpt lat="37.0222243" lon="15.320635"><ele>15.8</ele><time>2026-04-04T08:36:56.876Z</time></trkpt><trkpt lat="37.0222964" lon="15.3205306"><ele>17.0</ele><time>2026-04-04T08:36:58.876Z</time></trkpt><trkpt lat="37.0223634" lon="15.3203651"><ele>17.8</ele><time>2026-04-04T08:37:00.884Z</time></trkpt><trkpt lat="37.0224061" lon="15.3202077"><ele>18.6</ele><time>2026-04-04T08:37:01.876Z</time></trkpt><trkpt lat="37.0224471" lon="15.3201007"><ele>19.400000000000002</ele><time>2026-04-04T08:37:02.877Z</time></trkpt><trkpt lat="37.0225044" lon="15.3200055"><ele>20.2</ele><time>2026-04-04T08:37:03.876Z</time></trkpt><trkpt lat="37.0225471" lon="15.3199339"><ele>21.0</ele><time>2026-04-04T08:37:04.877Z</time></trkpt><trkpt lat="37.0226036" lon="15.3197952"><ele>20.833333333333332</ele><time>2026-04-04T08:37:06.876Z</time></trkpt><trkpt lat="37.0226291" lon="15.3196595"><ele>20.666666666666668</ele><time>2026-04-04T08:37:08.878Z</time></trkpt><trkpt lat="37.0226645" lon="15.3195458"><ele>20.5</ele><time>2026-04-04T08:37:10.878Z</time></trkpt><trkpt lat="37.0226984" lon="15.3194607"><ele>20.333333333333336</ele><time>2026-04-04T08:37:11.876Z</time></trkpt><trkpt lat="37.0227365" lon="15.3193664"><ele>20.166666666666668</ele><time>2026-04-04T08:37:12.878Z</time></trkpt><trkpt lat="37.0227716" lon="15.3192841"><ele>20.0</ele><time>2026-04-04T08:37:13.877Z</time></trkpt><trkpt lat="37.0228155" lon="15.3192016"><ele>20.0</ele><time>2026-04-04T08:37:14.876Z</time></trkpt><trkpt lat="37.022856" lon="15.3191242"><ele>20.0</ele><time>2026-04-04T08:37:15.876Z</time></trkpt><trkpt lat="37.0228863" lon="15.3190318"><ele>20.0</ele><time>2026-04-04T08:37:16.876Z</time></trkpt><trkpt lat="37.022909" lon="15.3189272"><ele>20.0</ele><time>2026-04-04T08:37:17.877Z</time></trkpt><trkpt lat="37.0229352" lon="15.3188538"><ele>20.0</ele><time>2026-04-04T08:37:18.877Z</time></trkpt><trkpt lat="37.0230128" lon="15.3187614"><ele>20.0</ele><time>2026-04-04T08:37:20.877Z</time></trkpt><trkpt lat="37.0231203" lon="15.3187422"><ele>20.166666666666668</ele><time>2026-04-04T08:37:22.877Z</time></trkpt><trkpt lat="37.0232074" lon="15.3187758"><ele>20.333333333333336</ele><time>2026-04-04T08:37:24.877Z</time></trkpt><trkpt lat="37.0232737" lon="15.3187817"><ele>20.5</ele><time>2026-04-04T08:37:26.877Z</time></trkpt><trkpt lat="37.0233484" lon="15.3188138"><ele>20.666666666666668</ele><time>2026-04-04T08:37:29.877Z</time></trkpt><trkpt lat="37.0233677" lon="15.3189342"><ele>20.833333333333332</ele><time>2026-04-04T08:37:32.877Z</time></trkpt><trkpt lat="37.0233939" lon="15.3190392"><ele>21.0</ele><time>2026-04-04T08:37:34.878Z</time></trkpt><trkpt lat="37.023441" lon="15.3191046"><ele>19.142857142857142</ele><time>2026-04-04T08:37:36.878Z</time></trkpt><trkpt lat="37.0234708" lon="15.3191803"><ele>17.285714285714285</ele><time>2026-04-04T08:40:29.876Z</time></trkpt><trkpt lat="37.0235337" lon="15.3191844"><ele>15.428571428571429</ele><time>2026-04-04T08:40:36.877Z</time></trkpt><trkpt lat="37.0235787" lon="15.3192412"><ele>13.571428571428571</ele><time>2026-04-04T08:40:47.877Z</time></trkpt><trkpt lat="37.0235513" lon="15.3191591"><ele>11.714285714285714</ele><time>2026-04-04T08:48:38.875Z</time></trkpt><trkpt lat="37.0234952" lon="15.3191231"><ele>9.857142857142858</ele><time>2026-04-04T08:48:54.876Z</time></trkpt><trkpt lat="37.0234448" lon="15.3191896"><ele>8.0</ele><time>2026-04-04T08:52:31.874Z</time></trkpt><trkpt lat="37.0233883" lon="15.3191178"><ele>7.999999999999999</ele><time>2026-04-04T08:52:35.875Z</time></trkpt><trkpt lat="37.0233721" lon="15.3190089"><ele>8.0</ele><time>2026-04-04T08:52:38.875Z</time></trkpt><trkpt lat="37.0233677" lon="15.3189225"><ele>8.0</ele><time>2026-04-04T08:52:41.875Z</time></trkpt><trkpt lat="37.0233946" lon="15.3188288"><ele>8.0</ele><time>2026-04-04T08:52:44.874Z</time></trkpt><trkpt lat="37.0234242" lon="15.3187578"><ele>7.999999999999999</ele><time>2026-04-04T08:52:48.875Z</time></trkpt><trkpt lat="37.0233553" lon="15.3186955"><ele>8.0</ele><time>2026-04-04T08:52:52.875Z</time></trkpt><trkpt lat="37.0232837" lon="15.3187084"><ele>8.666666666666666</ele><time>2026-04-04T08:53:02.875Z</time></trkpt><trkpt lat="37.0231947" lon="15.3187121"><ele>9.333333333333332</ele><time>2026-04-04T08:53:07.875Z</time></trkpt><trkpt lat="37.0231192" lon="15.3187558"><ele>10.0</ele><time>2026-04-04T08:53:10.875Z</time></trkpt><trkpt lat="37.0231749" lon="15.3186957"><ele>10.666666666666666</ele><time>2026-04-04T08:53:25.875Z</time></trkpt><trkpt lat="37.0232414" lon="15.3187072"><ele>11.333333333333334</ele><time>2026-04-04T08:53:27.874Z</time></trkpt><trkpt lat="37.0233062" lon="15.3187037"><ele>12.0</ele><time>2026-04-04T08:53:29.874Z</time></trkpt><trkpt lat="37.0233906" lon="15.3187113"><ele>12.0</ele><time>2026-04-04T08:53:32.875Z</time></trkpt><trkpt lat="37.023456" lon="15.3187213"><ele>12.0</ele><time>2026-04-04T08:53:34.874Z</time></trkpt><trkpt lat="37.0235303" lon="15.3187106"><ele>12.0</ele><time>2026-04-04T08:53:37.875Z</time></trkpt><trkpt lat="37.0235982" lon="15.3187092"><ele>12.0</ele><time>2026-04-04T08:53:39.876Z</time></trkpt><trkpt lat="37.0236649" lon="15.3186562"><ele>12.0</ele><time>2026-04-04T08:53:42.876Z</time></trkpt><trkpt lat="37.0237322" lon="15.3186028"><ele>12.0</ele><time>2026-04-04T08:53:45.875Z</time></trkpt><trkpt lat="37.0238143" lon="15.3186705"><ele>12.0</ele><time>2026-04-04T08:53:47.876Z</time></trkpt><trkpt lat="37.0239003" lon="15.3187639"><ele>12.0</ele><time>2026-04-04T08:53:49.875Z</time></trkpt><trkpt lat="37.0239422" lon="15.3188257"><ele>12.0</ele><time>2026-04-04T08:53:50.875Z</time></trkpt><trkpt lat="37.0240309" lon="15.318912"><ele>12.0</ele><time>2026-04-04T08:53:52.876Z</time></trkpt><trkpt lat="37.0241016" lon="15.3189986"><ele>12.0</ele><time>2026-04-04T08:53:54.875Z</time></trkpt><trkpt lat="37.0241393" lon="15.3191356"><ele>11.0</ele><time>2026-04-04T08:53:56.875Z</time></trkpt><trkpt lat="37.0241602" lon="15.3192154"><ele>10.0</ele><time>2026-04-04T08:53:57.875Z</time></trkpt><trkpt lat="37.0241906" lon="15.3192988"><ele>9.0</ele><time>2026-04-04T08:53:58.875Z</time></trkpt><trkpt lat="37.0242173" lon="15.3193781"><ele>8.0</ele><time>2026-04-04T08:53:59.875Z</time></trkpt><trkpt lat="37.0242455" lon="15.3194891"><ele>7.0</ele><time>2026-04-04T08:54:01.875Z</time></trkpt><trkpt lat="37.0242976" lon="15.3195711"><ele>6.0</ele><time>2026-04-04T08:54:03.875Z</time></trkpt><trkpt lat="37.0243845" lon="15.3196552"><ele>6.0</ele><time>2026-04-04T08:54:05.875Z</time></trkpt><trkpt lat="37.0244415" lon="15.319691"><ele>6.0</ele><time>2026-04-04T08:54:06.875Z</time></trkpt><trkpt lat="37.0245585" lon="15.3197174"><ele>6.0</ele><time>2026-04-04T08:54:08.875Z</time></trkpt><trkpt lat="37.0246271" lon="15.3197287"><ele>6.0</ele><time>2026-04-04T08:54:09.874Z</time></trkpt><trkpt lat="37.0247009" lon="15.3197324"><ele>6.0</ele><time>2026-04-04T08:54:10.875Z</time></trkpt><trkpt lat="37.0247765" lon="15.3197369"><ele>6.0</ele><time>2026-04-04T08:54:11.875Z</time></trkpt><trkpt lat="37.0248433" lon="15.3197326"><ele>6.0</ele><time>2026-04-04T08:54:12.875Z</time></trkpt><trkpt lat="37.0249089" lon="15.3197394"><ele>6.0</ele><time>2026-04-04T08:54:13.875Z</time></trkpt><trkpt lat="37.0250317" lon="15.3197593"><ele>6.0</ele><time>2026-04-04T08:54:15.875Z</time></trkpt><trkpt lat="37.0251103" lon="15.3197274"><ele>6.0</ele><time>2026-04-04T08:54:16.876Z</time></trkpt><trkpt lat="37.0251772" lon="15.3197405"><ele>6.0</ele><time>2026-04-04T08:54:17.875Z</time></trkpt><trkpt lat="37.0252498" lon="15.3197326"><ele>6.0</ele><time>2026-04-04T08:54:18.875Z</time></trkpt><trkpt lat="37.0253257" lon="15.3197225"><ele>6.5</ele><time>2026-04-04T08:54:19.876Z</time></trkpt><trkpt lat="37.0253933" lon="15.3196918"><ele>7.0</ele><time>2026-04-04T08:54:20.875Z</time></trkpt><trkpt lat="37.0254602" lon="15.3196452"><ele>7.5</ele><time>2026-04-04T08:54:21.875Z</time></trkpt><trkpt lat="37.0255282" lon="15.3195977"><ele>8.0</ele><time>2026-04-04T08:54:22.875Z</time></trkpt><trkpt lat="37.025585" lon="15.3195572"><ele>8.5</ele><time>2026-04-04T08:54:23.876Z</time></trkpt><trkpt lat="37.0256776" lon="15.3194517"><ele>9.0</ele><time>2026-04-04T08:54:25.874Z</time></trkpt><trkpt lat="37.0257897" lon="15.319367"><ele>9.0</ele><time>2026-04-04T08:54:27.875Z</time></trkpt><trkpt lat="37.02585" lon="15.3193204"><ele>9.0</ele><time>2026-04-04T08:54:28.875Z</time></trkpt><trkpt lat="37.0259186" lon="15.3192922"><ele>9.0</ele><time>2026-04-04T08:54:29.875Z</time></trkpt><trkpt lat="37.0260092" lon="15.3192804"><ele>9.0</ele><time>2026-04-04T08:54:30.875Z</time></trkpt><trkpt lat="37.0260979" lon="15.3192567"><ele>9.0</ele><time>2026-04-04T08:54:31.876Z</time></trkpt><trkpt lat="37.0261761" lon="15.3192274"><ele>9.0</ele><time>2026-04-04T08:54:32.875Z</time></trkpt><trkpt lat="37.0262394" lon="15.3191939"><ele>9.0</ele><time>2026-04-04T08:54:33.875Z</time></trkpt><trkpt lat="37.0263298" lon="15.319141"><ele>9.0</ele><time>2026-04-04T08:54:35.875Z</time></trkpt><trkpt lat="37.0263838" lon="15.3190886"><ele>9.0</ele><time>2026-04-04T08:54:36.876Z</time></trkpt><trkpt lat="37.0264776" lon="15.3189931"><ele>9.0</ele><time>2026-04-04T08:54:38.875Z</time></trkpt><trkpt lat="37.0266059" lon="15.3189313"><ele>9.0</ele><time>2026-04-04T08:54:40.875Z</time></trkpt><trkpt lat="37.0266902" lon="15.3189173"><ele>9.2</ele><time>2026-04-04T08:54:41.876Z</time></trkpt><trkpt lat="37.0267755" lon="15.3188947"><ele>9.4</ele><time>2026-04-04T08:54:42.876Z</time></trkpt><trkpt lat="37.0268561" lon="15.3188782"><ele>9.6</ele><time>2026-04-04T08:54:43.874Z</time></trkpt><trkpt lat="37.0269427" lon="15.3188718"><ele>9.8</ele><time>2026-04-04T08:54:44.875Z</time></trkpt><trkpt lat="37.0270549" lon="15.3188463"><ele>10.0</ele><time>2026-04-04T08:54:46.875Z</time></trkpt><trkpt lat="37.0271498" lon="15.3187659"><ele>10.0</ele><time>2026-04-04T08:54:48.876Z</time></trkpt><trkpt lat="37.0272098" lon="15.3187283"><ele>10.0</ele><time>2026-04-04T08:54:49.875Z</time></trkpt><trkpt lat="37.027285" lon="15.3186685"><ele>10.0</ele><time>2026-04-04T08:54:50.875Z</time></trkpt><trkpt lat="37.0273508" lon="15.318626"><ele>10.0</ele><time>2026-04-04T08:54:51.875Z</time></trkpt><trkpt lat="37.0274201" lon="15.3186086"><ele>10.0</ele><time>2026-04-04T08:54:52.875Z</time></trkpt><trkpt lat="37.0274828" lon="15.3186498"><ele>10.0</ele><time>2026-04-04T08:54:53.875Z</time></trkpt><trkpt lat="37.0275836" lon="15.318635"><ele>9.833333333333334</ele><time>2026-04-04T08:54:55.875Z</time></trkpt><trkpt lat="37.0276412" lon="15.3186003"><ele>9.666666666666668</ele><time>2026-04-04T08:54:56.875Z</time></trkpt><trkpt lat="37.0277494" lon="15.3185297"><ele>9.5</ele><time>2026-04-04T08:54:58.875Z</time></trkpt><trkpt lat="37.0278131" lon="15.3185031"><ele>9.333333333333334</ele><time>2026-04-04T08:54:59.874Z</time></trkpt><trkpt lat="37.0278909" lon="15.3184912"><ele>9.166666666666666</ele><time>2026-04-04T08:55:00.875Z</time></trkpt><trkpt lat="37.027969" lon="15.3184452"><ele>9.0</ele><time>2026-04-04T08:55:01.875Z</time></trkpt><trkpt lat="37.0280555" lon="15.3183798"><ele>9.0</ele><time>2026-04-04T08:55:02.875Z</time></trkpt><trkpt lat="37.0281475" lon="15.3182499"><ele>9.0</ele><time>2026-04-04T08:55:03.875Z</time></trkpt><trkpt lat="37.0282507" lon="15.3181234"><ele>9.0</ele><time>2026-04-04T08:55:04.874Z</time></trkpt><trkpt lat="37.0283344" lon="15.3180317"><ele>9.0</ele><time>2026-04-04T08:55:05.875Z</time></trkpt><trkpt lat="37.0284166" lon="15.3179744"><ele>10.0</ele><time>2026-04-04T08:55:06.874Z</time></trkpt><trkpt lat="37.0285129" lon="15.3179164"><ele>11.0</ele><time>2026-04-04T08:55:07.875Z</time></trkpt><trkpt lat="37.0286801" lon="15.3178396"><ele>12.0</ele><time>2026-04-04T08:55:08.874Z</time></trkpt><trkpt lat="37.0287887" lon="15.3177771"><ele>13.0</ele><time>2026-04-04T08:55:09.875Z</time></trkpt><trkpt lat="37.0288852" lon="15.3177354"><ele>13.0</ele><time>2026-04-04T08:55:10.875Z</time></trkpt><trkpt lat="37.0289889" lon="15.3177112"><ele>13.0</ele><time>2026-04-04T08:55:11.875Z</time></trkpt><trkpt lat="37.02909" lon="15.3176858"><ele>13.0</ele><time>2026-04-04T08:55:12.876Z</time></trkpt><trkpt lat="37.0291769" lon="15.3176624"><ele>13.0</ele><time>2026-04-04T08:55:13.875Z</time></trkpt><trkpt lat="37.0292429" lon="15.3176533"><ele>13.0</ele><time>2026-04-04T08:55:14.874Z</time></trkpt><trkpt lat="37.0293448" lon="15.3176418"><ele>12.499999999999998</ele><time>2026-04-04T08:55:16.875Z</time></trkpt><trkpt lat="37.0294249" lon="15.3176235"><ele>12.0</ele><time>2026-04-04T08:55:18.874Z</time></trkpt><trkpt lat="37.0295164" lon="15.3175462"><ele>11.5</ele><time>2026-04-04T08:55:20.875Z</time></trkpt><trkpt lat="37.0295688" lon="15.3174947"><ele>11.0</ele><time>2026-04-04T08:55:21.875Z</time></trkpt><trkpt lat="37.0296267" lon="15.3174133"><ele>10.5</ele><time>2026-04-04T08:55:22.875Z</time></trkpt><trkpt lat="37.0296808" lon="15.317339"><ele>10.0</ele><time>2026-04-04T08:55:23.874Z</time></trkpt><trkpt lat="37.0297421" lon="15.3172588"><ele>10.166666666666668</ele><time>2026-04-04T08:55:24.875Z</time></trkpt><trkpt lat="37.0298048" lon="15.3171798"><ele>10.333333333333334</ele><time>2026-04-04T08:55:25.875Z</time></trkpt><trkpt lat="37.0298633" lon="15.3171019"><ele>10.5</ele><time>2026-04-04T08:55:26.875Z</time></trkpt><trkpt lat="37.0299209" lon="15.3170358"><ele>10.666666666666666</ele><time>2026-04-04T08:55:27.875Z</time></trkpt><trkpt lat="37.0299786" lon="15.3169815"><ele>10.833333333333332</ele><time>2026-04-04T08:55:28.876Z</time></trkpt><trkpt lat="37.0300375" lon="15.3169201"><ele>11.0</ele><time>2026-04-04T08:55:29.875Z</time></trkpt><trkpt lat="37.0301108" lon="15.3168614"><ele>11.0</ele><time>2026-04-04T08:55:30.875Z</time></trkpt><trkpt lat="37.0302009" lon="15.3167919"><ele>11.0</ele><time>2026-04-04T08:55:31.875Z</time></trkpt><trkpt lat="37.0303015" lon="15.316733"><ele>11.0</ele><time>2026-04-04T08:55:32.875Z</time></trkpt><trkpt lat="37.0304057" lon="15.3166677"><ele>11.0</ele><time>2026-04-04T08:55:33.874Z</time></trkpt><trkpt lat="37.030497" lon="15.316602"><ele>11.0</ele><time>2026-04-04T08:55:34.875Z</time></trkpt><trkpt lat="37.0305815" lon="15.3165402"><ele>11.0</ele><time>2026-04-04T08:55:35.874Z</time></trkpt><trkpt lat="37.0306612" lon="15.316482"><ele>11.0</ele><time>2026-04-04T08:55:36.874Z</time></trkpt><trkpt lat="37.0307501" lon="15.3164302"><ele>11.0</ele><time>2026-04-04T08:55:37.875Z</time></trkpt><trkpt lat="37.0308397" lon="15.3163775"><ele>11.0</ele><time>2026-04-04T08:55:38.875Z</time></trkpt><trkpt lat="37.0309396" lon="15.316326"><ele>11.0</ele><time>2026-04-04T08:55:39.875Z</time></trkpt><trkpt lat="37.0310439" lon="15.3162868"><ele>11.200000000000001</ele><time>2026-04-04T08:55:40.875Z</time></trkpt><trkpt lat="37.0311436" lon="15.3162362"><ele>11.4</ele><time>2026-04-04T08:55:41.874Z</time></trkpt><trkpt lat="37.0312363" lon="15.3161734"><ele>11.6</ele><time>2026-04-04T08:55:42.874Z</time></trkpt><trkpt lat="37.0313196" lon="15.3161177"><ele>11.8</ele><time>2026-04-04T08:55:43.875Z</time></trkpt><trkpt lat="37.031386" lon="15.316067"><ele>12.0</ele><time>2026-04-04T08:55:44.875Z</time></trkpt><trkpt lat="37.0314531" lon="15.316044"><ele>12.0</ele><time>2026-04-04T08:55:45.875Z</time></trkpt><trkpt lat="37.0315174" lon="15.3160288"><ele>12.0</ele><time>2026-04-04T08:55:46.874Z</time></trkpt><trkpt lat="37.0315797" lon="15.3160106"><ele>12.0</ele><time>2026-04-04T08:55:47.875Z</time></trkpt><trkpt lat="37.0316975" lon="15.3159926"><ele>12.0</ele><time>2026-04-04T08:55:49.876Z</time></trkpt><trkpt lat="37.0318116" lon="15.3159546"><ele>12.0</ele><time>2026-04-04T08:55:51.875Z</time></trkpt><trkpt lat="37.0318747" lon="15.3159311"><ele>12.0</ele><time>2026-04-04T08:55:52.875Z</time></trkpt><trkpt lat="37.0319893" lon="15.3158645"><ele>12.142857142857142</ele><time>2026-04-04T08:55:54.874Z</time></trkpt><trkpt lat="37.0320478" lon="15.3158122"><ele>12.285714285714285</ele><time>2026-04-04T08:55:55.875Z</time></trkpt><trkpt lat="37.0321089" lon="15.3157607"><ele>12.428571428571427</ele><time>2026-04-04T08:55:56.875Z</time></trkpt><trkpt lat="37.0321814" lon="15.3157202"><ele>12.571428571428571</ele><time>2026-04-04T08:55:57.876Z</time></trkpt><trkpt lat="37.0322438" lon="15.3156693"><ele>12.714285714285715</ele><time>2026-04-04T08:55:58.875Z</time></trkpt><trkpt lat="37.0322985" lon="15.3156221"><ele>12.857142857142856</ele><time>2026-04-04T08:55:59.875Z</time></trkpt><trkpt lat="37.0323522" lon="15.3155611"><ele>13.0</ele><time>2026-04-04T08:56:00.875Z</time></trkpt><trkpt lat="37.0324043" lon="15.3154966"><ele>12.999999999999998</ele><time>2026-04-04T08:56:01.875Z</time></trkpt><trkpt lat="37.0324576" lon="15.3154238"><ele>13.0</ele><time>2026-04-04T08:56:02.875Z</time></trkpt><trkpt lat="37.0325125" lon="15.315343"><ele>13.0</ele><time>2026-04-04T08:56:03.875Z</time></trkpt><trkpt lat="37.0325766" lon="15.3152692"><ele>13.0</ele><time>2026-04-04T08:56:04.875Z</time></trkpt><trkpt lat="37.032643" lon="15.3151996"><ele>12.999999999999998</ele><time>2026-04-04T08:56:05.875Z</time></trkpt><trkpt lat="37.0327" lon="15.3151495"><ele>13.0</ele><time>2026-04-04T08:56:06.875Z</time></trkpt><trkpt lat="37.0327763" lon="15.3150931"><ele>12.600000000000001</ele><time>2026-04-04T08:56:07.875Z</time></trkpt><trkpt lat="37.0328545" lon="15.3150572"><ele>12.200000000000001</ele><time>2026-04-04T08:56:08.875Z</time></trkpt><trkpt lat="37.0329328" lon="15.3150166"><ele>11.8</ele><time>2026-04-04T08:56:09.875Z</time></trkpt><trkpt lat="37.0330211" lon="15.3149905"><ele>11.4</ele><time>2026-04-04T08:56:10.875Z</time></trkpt><trkpt lat="37.0331203" lon="15.3149623"><ele>11.0</ele><time>2026-04-04T08:56:11.875Z</time></trkpt><trkpt lat="37.0332228" lon="15.314928"><ele>10.5</ele><time>2026-04-04T08:56:12.875Z</time></trkpt><trkpt lat="37.0333194" lon="15.3148968"><ele>10.0</ele><time>2026-04-04T08:56:13.875Z</time></trkpt><trkpt lat="37.0334251" lon="15.3148778"><ele>9.5</ele><time>2026-04-04T08:56:14.875Z</time></trkpt><trkpt lat="37.0335456" lon="15.3148604"><ele>9.0</ele><time>2026-04-04T08:56:15.875Z</time></trkpt><trkpt lat="37.0336756" lon="15.314841"><ele>9.0</ele><time>2026-04-04T08:56:16.875Z</time></trkpt><trkpt lat="37.0337779" lon="15.3148239"><ele>9.0</ele><time>2026-04-04T08:56:17.875Z</time></trkpt><trkpt lat="37.0338599" lon="15.3148109"><ele>9.0</ele><time>2026-04-04T08:56:18.875Z</time></trkpt><trkpt lat="37.0339545" lon="15.3148089"><ele>9.0</ele><time>2026-04-04T08:56:20.874Z</time></trkpt><trkpt lat="37.0340346" lon="15.3148413"><ele>9.0</ele><time>2026-04-04T08:56:22.875Z</time></trkpt><trkpt lat="37.0340905" lon="15.3148797"><ele>9.0</ele><time>2026-04-04T08:57:07.875Z</time></trkpt><trkpt lat="37.0340239" lon="15.3148377"><ele>9.0</ele><time>2026-04-04T08:57:16.875Z</time></trkpt><trkpt lat="37.0340347" lon="15.3147508"><ele>9.0</ele><time>2026-04-04T08:57:19.875Z</time></trkpt><trkpt lat="37.0341144" lon="15.3147277"><ele>9.0</ele><time>2026-04-04T08:57:23.875Z</time></trkpt><trkpt lat="37.0341979" lon="15.3147671"><ele>9.0</ele><time>2026-04-04T08:57:25.874Z</time></trkpt><trkpt lat="37.0342855" lon="15.3147948"><ele>9.0</ele><time>2026-04-04T08:57:27.873Z</time></trkpt><trkpt lat="37.0343508" lon="15.3148052"><ele>9.0</ele><time>2026-04-04T08:57:29.875Z</time></trkpt><trkpt lat="37.0344391" lon="15.314784"><ele>8.571428571428573</ele><time>2026-04-04T08:57:32.875Z</time></trkpt><trkpt lat="37.0345034" lon="15.3147821"><ele>8.142857142857142</ele><time>2026-04-04T08:57:34.875Z</time></trkpt><trkpt lat="37.0345866" lon="15.3147734"><ele>7.714285714285714</ele><time>2026-04-04T08:57:36.875Z</time></trkpt><trkpt lat="37.0346416" lon="15.314812"><ele>7.2857142857142865</ele><time>2026-04-04T08:57:37.875Z</time></trkpt><trkpt lat="37.0346981" lon="15.3148715"><ele>6.857142857142858</ele><time>2026-04-04T08:57:38.874Z</time></trkpt><trkpt lat="37.0347623" lon="15.3149423"><ele>6.428571428571428</ele><time>2026-04-04T08:57:39.874Z</time></trkpt><trkpt lat="37.0348102" lon="15.3150039"><ele>6.0</ele><time>2026-04-04T08:57:40.874Z</time></trkpt><trkpt lat="37.0348599" lon="15.3150994"><ele>5.999999999999999</ele><time>2026-04-04T08:57:42.875Z</time></trkpt><trkpt lat="37.0348997" lon="15.315162"><ele>6.0</ele><time>2026-04-04T08:57:44.875Z</time></trkpt><trkpt lat="37.0349357" lon="15.3152464"><ele>6.0</ele><time>2026-04-04T08:57:46.875Z</time></trkpt><trkpt lat="37.0349608" lon="15.3153327"><ele>6.0</ele><time>2026-04-04T08:57:48.875Z</time></trkpt><trkpt lat="37.0349946" lon="15.3154077"><ele>6.0</ele><time>2026-04-04T08:57:50.875Z</time></trkpt><trkpt lat="37.0350548" lon="15.3154912"><ele>5.999999999999999</ele><time>2026-04-04T08:57:52.875Z</time></trkpt><trkpt lat="37.0350835" lon="15.315581"><ele>6.0</ele><time>2026-04-04T08:57:54.875Z</time></trkpt><trkpt lat="37.0351245" lon="15.3156543"><ele>6.142857142857142</ele><time>2026-04-04T08:57:57.874Z</time></trkpt><trkpt lat="37.0351875" lon="15.3156242"><ele>6.285714285714286</ele><time>2026-04-04T08:58:00.875Z</time></trkpt><trkpt lat="37.0352412" lon="15.3155825"><ele>6.428571428571429</ele><time>2026-04-04T08:58:02.875Z</time></trkpt><trkpt lat="37.0353137" lon="15.3155517"><ele>6.571428571428571</ele><time>2026-04-04T08:58:05.875Z</time></trkpt><trkpt lat="37.0353727" lon="15.3156073"><ele>6.714285714285714</ele><time>2026-04-04T08:58:07.874Z</time></trkpt><trkpt lat="37.0353635" lon="15.315694"><ele>6.857142857142857</ele><time>2026-04-04T08:58:10.874Z</time></trkpt><trkpt lat="37.0352988" lon="15.3157431"><ele>7.0</ele><time>2026-04-04T08:58:13.874Z</time></trkpt><trkpt lat="37.035218" lon="15.315713"><ele>7.000000000000001</ele><time>2026-04-04T08:58:16.875Z</time></trkpt><trkpt lat="37.0351823" lon="15.3156393"><ele>7.0</ele><time>2026-04-04T08:58:18.875Z</time></trkpt><trkpt lat="37.0351538" lon="15.3155456"><ele>7.0</ele><time>2026-04-04T08:58:20.875Z</time></trkpt><trkpt lat="37.0351436" lon="15.3154672"><ele>7.0</ele><time>2026-04-04T08:58:22.874Z</time></trkpt><trkpt lat="37.0351717" lon="15.3153338"><ele>7.000000000000001</ele><time>2026-04-04T08:58:25.875Z</time></trkpt><trkpt lat="37.0352128" lon="15.3152514"><ele>7.0</ele><time>2026-04-04T08:58:27.875Z</time></trkpt><trkpt lat="37.035257" lon="15.3151536"><ele>7.0</ele><time>2026-04-04T08:58:29.875Z</time></trkpt><trkpt lat="37.0352823" lon="15.3150228"><ele>6.999999999999999</ele><time>2026-04-04T08:58:31.875Z</time></trkpt><trkpt lat="37.0352808" lon="15.3149017"><ele>6.999999999999999</ele><time>2026-04-04T08:58:33.875Z</time></trkpt><trkpt lat="37.0352291" lon="15.3148063"><ele>7.0</ele><time>2026-04-04T08:58:35.874Z</time></trkpt><trkpt lat="37.0352017" lon="15.3147318"><ele>7.0</ele><time>2026-04-04T08:58:37.874Z</time></trkpt><trkpt lat="37.0352299" lon="15.3146207"><ele>7.333333333333334</ele><time>2026-04-04T08:58:40.874Z</time></trkpt><trkpt lat="37.0352748" lon="15.3145481"><ele>7.666666666666667</ele><time>2026-04-04T08:58:42.875Z</time></trkpt><trkpt lat="37.0353419" lon="15.3145153"><ele>8.0</ele><time>2026-04-04T08:58:44.875Z</time></trkpt><trkpt lat="37.0354276" lon="15.314483"><ele>8.333333333333334</ele><time>2026-04-04T08:58:46.875Z</time></trkpt><trkpt lat="37.0355237" lon="15.3144325"><ele>8.666666666666666</ele><time>2026-04-04T08:58:48.876Z</time></trkpt><trkpt lat="37.0356173" lon="15.3143876"><ele>9.0</ele><time>2026-04-04T08:58:50.874Z</time></trkpt><trkpt lat="37.0357245" lon="15.3143427"><ele>9.0</ele><time>2026-04-04T08:58:52.874Z</time></trkpt><trkpt lat="37.0358179" lon="15.3142618"><ele>9.0</ele><time>2026-04-04T08:58:54.875Z</time></trkpt><trkpt lat="37.0359258" lon="15.3141923"><ele>9.0</ele><time>2026-04-04T08:58:56.874Z</time></trkpt><trkpt lat="37.036032" lon="15.314129"><ele>9.0</ele><time>2026-04-04T08:58:58.875Z</time></trkpt><trkpt lat="37.0361433" lon="15.3140852"><ele>9.0</ele><time>2026-04-04T08:59:00.875Z</time></trkpt><trkpt lat="37.0362707" lon="15.3140825"><ele>9.0</ele><time>2026-04-04T08:59:02.874Z</time></trkpt><trkpt lat="37.0363845" lon="15.3140934"><ele>9.0</ele><time>2026-04-04T08:59:04.875Z</time></trkpt><trkpt lat="37.0364732" lon="15.3140649"><ele>9.0</ele><time>2026-04-04T08:59:06.874Z</time></trkpt><trkpt lat="37.0365416" lon="15.3139319"><ele>8.833333333333334</ele><time>2026-04-04T08:59:08.874Z</time></trkpt><trkpt lat="37.0365881" lon="15.3138515"><ele>8.666666666666666</ele><time>2026-04-04T08:59:09.875Z</time></trkpt><trkpt lat="37.0366472" lon="15.3137835"><ele>8.5</ele><time>2026-04-04T08:59:10.875Z</time></trkpt><trkpt lat="37.0367045" lon="15.3137096"><ele>8.333333333333332</ele><time>2026-04-04T08:59:11.875Z</time></trkpt><trkpt lat="37.0367504" lon="15.31363"><ele>8.166666666666666</ele><time>2026-04-04T08:59:12.874Z</time></trkpt><trkpt lat="37.0367933" lon="15.3135552"><ele>8.0</ele><time>2026-04-04T08:59:13.873Z</time></trkpt><trkpt lat="37.0368539" lon="15.3134988"><ele>7.999999999999999</ele><time>2026-04-04T08:59:14.874Z</time></trkpt><trkpt lat="37.0369245" lon="15.3134393"><ele>8.0</ele><time>2026-04-04T08:59:15.875Z</time></trkpt><trkpt lat="37.0369899" lon="15.3133714"><ele>8.0</ele><time>2026-04-04T08:59:16.875Z</time></trkpt><trkpt lat="37.0370562" lon="15.3132956"><ele>8.0</ele><time>2026-04-04T08:59:17.875Z</time></trkpt><trkpt lat="37.0371098" lon="15.3132179"><ele>7.999999999999999</ele><time>2026-04-04T08:59:18.875Z</time></trkpt><trkpt lat="37.037172" lon="15.3131387"><ele>8.0</ele><time>2026-04-04T08:59:19.873Z</time></trkpt><trkpt lat="37.037245" lon="15.3130576"><ele>7.999999999999999</ele><time>2026-04-04T08:59:20.874Z</time></trkpt><trkpt lat="37.0373034" lon="15.3129797"><ele>8.0</ele><time>2026-04-04T08:59:21.874Z</time></trkpt><trkpt lat="37.0373409" lon="15.3129084"><ele>8.0</ele><time>2026-04-04T08:59:22.875Z</time></trkpt><trkpt lat="37.0373597" lon="15.3127882"><ele>8.0</ele><time>2026-04-04T08:59:23.874Z</time></trkpt><trkpt lat="37.0373888" lon="15.3127143"><ele>7.999999999999999</ele><time>2026-04-04T08:59:24.874Z</time></trkpt><trkpt lat="37.0374523" lon="15.3126334"><ele>8.0</ele><time>2026-04-04T08:59:25.875Z</time></trkpt><trkpt lat="37.0375315" lon="15.312554"><ele>8.0</ele><time>2026-04-04T08:59:26.873Z</time></trkpt><trkpt lat="37.0376118" lon="15.3124683"><ele>8.0</ele><time>2026-04-04T08:59:27.874Z</time></trkpt><trkpt lat="37.0376785" lon="15.3123686"><ele>8.0</ele><time>2026-04-04T08:59:28.874Z</time></trkpt><trkpt lat="37.0377203" lon="15.3122717"><ele>8.0</ele><time>2026-04-04T08:59:29.873Z</time></trkpt><trkpt lat="37.0377322" lon="15.3121714"><ele>8.0</ele><time>2026-04-04T08:59:30.874Z</time></trkpt><trkpt lat="37.0377236" lon="15.3120328"><ele>8.200000000000001</ele><time>2026-04-04T08:59:31.873Z</time></trkpt><trkpt lat="37.0376946" lon="15.3119082"><ele>8.4</ele><time>2026-04-04T08:59:32.875Z</time></trkpt><trkpt lat="37.0376687" lon="15.3118036"><ele>8.600000000000001</ele><time>2026-04-04T08:59:33.874Z</time></trkpt><trkpt lat="37.0376554" lon="15.3117071"><ele>8.8</ele><time>2026-04-04T08:59:34.874Z</time></trkpt><trkpt lat="37.0376516" lon="15.3116247"><ele>9.0</ele><time>2026-04-04T08:59:35.874Z</time></trkpt><trkpt lat="37.0376371" lon="15.3114647"><ele>8.833333333333334</ele><time>2026-04-04T08:59:37.875Z</time></trkpt><trkpt lat="37.0376226" lon="15.3113763"><ele>8.666666666666666</ele><time>2026-04-04T08:59:38.874Z</time></trkpt><trkpt lat="37.0376073" lon="15.3112962"><ele>8.5</ele><time>2026-04-04T08:59:39.875Z</time></trkpt><trkpt lat="37.0375464" lon="15.3112042"><ele>8.333333333333332</ele><time>2026-04-04T08:59:41.875Z</time></trkpt><trkpt lat="37.0374809" lon="15.3111562"><ele>8.166666666666666</ele><time>2026-04-04T08:59:43.874Z</time></trkpt><trkpt lat="37.0374012" lon="15.3110764"><ele>8.0</ele><time>2026-04-04T08:59:45.875Z</time></trkpt><trkpt lat="37.0373573" lon="15.3109914"><ele>9.5</ele><time>2026-04-04T08:59:47.873Z</time></trkpt><trkpt lat="37.0373232" lon="15.3109182"><ele>11.0</ele><time>2026-04-04T08:59:49.875Z</time></trkpt><trkpt lat="37.037249" lon="15.3108794"><ele>12.5</ele><time>2026-04-04T08:59:51.874Z</time></trkpt><trkpt lat="37.0371682" lon="15.3108347"><ele>14.0</ele><time>2026-04-04T08:59:53.875Z</time></trkpt><trkpt lat="37.0371006" lon="15.3107802"><ele>15.500000000000002</ele><time>2026-04-04T08:59:55.874Z</time></trkpt><trkpt lat="37.0370476" lon="15.310706"><ele>17.0</ele><time>2026-04-04T08:59:57.874Z</time></trkpt><trkpt lat="37.0370091" lon="15.3106334"><ele>17.0</ele><time>2026-04-04T08:59:59.874Z</time></trkpt><trkpt lat="37.0370024" lon="15.3105205"><ele>17.0</ele><time>2026-04-04T09:00:02.874Z</time></trkpt><trkpt lat="37.0370001" lon="15.3104404"><ele>17.0</ele><time>2026-04-04T09:00:04.875Z</time></trkpt><trkpt lat="37.0370216" lon="15.3103624"><ele>17.0</ele><time>2026-04-04T09:00:06.875Z</time></trkpt><trkpt lat="37.037099" lon="15.3103125"><ele>17.0</ele><time>2026-04-04T09:00:09.874Z</time></trkpt><trkpt lat="37.0371647" lon="15.3102848"><ele>17.0</ele><time>2026-04-04T09:00:12.874Z</time></trkpt><trkpt lat="37.0372225" lon="15.3102068"><ele>17.0</ele><time>2026-04-04T09:02:28.874Z</time></trkpt><trkpt lat="37.0372828" lon="15.3100707"><ele>17.0</ele><time>2026-04-04T09:02:30.873Z</time></trkpt><trkpt lat="37.0373482" lon="15.3099578"><ele>17.0</ele><time>2026-04-04T09:02:32.875Z</time></trkpt><trkpt lat="37.0374" lon="15.3098369"><ele>17.0</ele><time>2026-04-04T09:02:34.874Z</time></trkpt><trkpt lat="37.0373975" lon="15.3096854"><ele>17.0</ele><time>2026-04-04T09:02:36.874Z</time></trkpt><trkpt lat="37.0373922" lon="15.3095933"><ele>17.0</ele><time>2026-04-04T09:02:37.874Z</time></trkpt><trkpt lat="37.0374106" lon="15.3094405"><ele>17.0</ele><time>2026-04-04T09:02:39.874Z</time></trkpt><trkpt lat="37.03742" lon="15.3093595"><ele>17.0</ele><time>2026-04-04T09:02:40.874Z</time></trkpt><trkpt lat="37.0374838" lon="15.3091941"><ele>17.0</ele><time>2026-04-04T09:02:42.873Z</time></trkpt><trkpt lat="37.0375154" lon="15.3090827"><ele>17.0</ele><time>2026-04-04T09:02:43.874Z</time></trkpt><trkpt lat="37.0375601" lon="15.3089727"><ele>17.0</ele><time>2026-04-04T09:02:44.875Z</time></trkpt><trkpt lat="37.0376157" lon="15.3088705"><ele>17.0</ele><time>2026-04-04T09:02:45.874Z</time></trkpt><trkpt lat="37.0376737" lon="15.3087578"><ele>17.0</ele><time>2026-04-04T09:02:46.874Z</time></trkpt><trkpt lat="37.037739" lon="15.3086563"><ele>17.0</ele><time>2026-04-04T09:02:47.874Z</time></trkpt><trkpt lat="37.0378033" lon="15.3085527"><ele>17.0</ele><time>2026-04-04T09:02:48.873Z</time></trkpt><trkpt lat="37.0378705" lon="15.3084477"><ele>17.0</ele><time>2026-04-04T09:02:49.874Z</time></trkpt><trkpt lat="37.0379306" lon="15.3083473"><ele>17.0</ele><time>2026-04-04T09:02:50.873Z</time></trkpt><trkpt lat="37.0379912" lon="15.3082383"><ele>17.0</ele><time>2026-04-04T09:02:51.874Z</time></trkpt><trkpt lat="37.0380566" lon="15.3081166"><ele>17.0</ele><time>2026-04-04T09:02:52.873Z</time></trkpt><trkpt lat="37.0381269" lon="15.3080021"><ele>17.4</ele><time>2026-04-04T09:02:53.874Z</time></trkpt><trkpt lat="37.0382021" lon="15.3079071"><ele>17.799999999999997</ele><time>2026-04-04T09:02:54.874Z</time></trkpt><trkpt lat="37.0382825" lon="15.307823"><ele>18.2</ele><time>2026-04-04T09:02:55.874Z</time></trkpt><trkpt lat="37.0383621" lon="15.3077278"><ele>18.599999999999998</ele><time>2026-04-04T09:02:56.874Z</time></trkpt><trkpt lat="37.0384327" lon="15.3076288"><ele>19.0</ele><time>2026-04-04T09:02:57.874Z</time></trkpt><trkpt lat="37.0384897" lon="15.3075449"><ele>18.666666666666664</ele><time>2026-04-04T09:02:58.875Z</time></trkpt><trkpt lat="37.0385363" lon="15.3074667"><ele>18.333333333333332</ele><time>2026-04-04T09:02:59.874Z</time></trkpt><trkpt lat="37.0385748" lon="15.3073937"><ele>18.0</ele><time>2026-04-04T09:03:00.874Z</time></trkpt><trkpt lat="37.038613" lon="15.3073269"><ele>17.666666666666668</ele><time>2026-04-04T09:03:01.874Z</time></trkpt><trkpt lat="37.0386801" lon="15.3072228"><ele>17.333333333333336</ele><time>2026-04-04T09:03:03.874Z</time></trkpt><trkpt lat="37.0387552" lon="15.3071763"><ele>17.0</ele><time>2026-04-04T09:03:05.874Z</time></trkpt><trkpt lat="37.0388226" lon="15.3071643"><ele>17.0</ele><time>2026-04-04T09:03:07.874Z</time></trkpt><trkpt lat="37.0388864" lon="15.3072135"><ele>17.0</ele><time>2026-04-04T09:03:11.873Z</time></trkpt><trkpt lat="37.0388358" lon="15.3072875"><ele>17.0</ele><time>2026-04-04T09:17:34.871Z</time></trkpt><trkpt lat="37.0387686" lon="15.3072519"><ele>17.0</ele><time>2026-04-04T09:17:37.872Z</time></trkpt><trkpt lat="37.0387191" lon="15.3071494"><ele>17.0</ele><time>2026-04-04T09:17:39.872Z</time></trkpt><trkpt lat="37.0387143" lon="15.3070655"><ele>17.0</ele><time>2026-04-04T09:17:40.872Z</time></trkpt><trkpt lat="37.038758" lon="15.306977"><ele>17.0</ele><time>2026-04-04T09:17:41.872Z</time></trkpt><trkpt lat="37.0387786" lon="15.3068695"><ele>17.0</ele><time>2026-04-04T09:17:43.871Z</time></trkpt><trkpt lat="37.0388482" lon="15.3068049"><ele>17.0</ele><time>2026-04-04T09:17:45.871Z</time></trkpt><trkpt lat="37.0389364" lon="15.3067957"><ele>17.0</ele><time>2026-04-04T09:17:46.872Z</time></trkpt><trkpt lat="37.0390532" lon="15.3067543"><ele>17.0</ele><time>2026-04-04T09:17:48.871Z</time></trkpt><trkpt lat="37.0391423" lon="15.3067051"><ele>16.71428571428571</ele><time>2026-04-04T09:17:50.872Z</time></trkpt><trkpt lat="37.039204" lon="15.3066601"><ele>16.428571428571427</ele><time>2026-04-04T09:17:52.872Z</time></trkpt><trkpt lat="37.0392716" lon="15.3066019"><ele>16.142857142857142</ele><time>2026-04-04T09:17:54.871Z</time></trkpt><trkpt lat="37.0393286" lon="15.3065029"><ele>15.857142857142856</ele><time>2026-04-04T09:17:56.871Z</time></trkpt><trkpt lat="37.0393635" lon="15.3064305"><ele>15.57142857142857</ele><time>2026-04-04T09:17:57.872Z</time></trkpt><trkpt lat="37.0393932" lon="15.3063563"><ele>15.285714285714286</ele><time>2026-04-04T09:17:58.872Z</time></trkpt><trkpt lat="37.0394282" lon="15.3062901"><ele>15.0</ele><time>2026-04-04T09:17:59.872Z</time></trkpt><trkpt lat="37.0394915" lon="15.3061787"><ele>15.0</ele><time>2026-04-04T09:18:01.872Z</time></trkpt><trkpt lat="37.0395554" lon="15.3061199"><ele>15.0</ele><time>2026-04-04T09:18:03.872Z</time></trkpt><trkpt lat="37.0396187" lon="15.3061309"><ele>15.0</ele><time>2026-04-04T09:18:06.873Z</time></trkpt><trkpt lat="37.039664" lon="15.3060559"><ele>15.0</ele><time>2026-04-04T09:18:10.872Z</time></trkpt><trkpt lat="37.0397157" lon="15.3060104"><ele>15.0</ele><time>2026-04-04T09:18:13.871Z</time></trkpt><trkpt lat="37.0397648" lon="15.3060724"><ele>15.0</ele><time>2026-04-04T09:18:24.871Z</time></trkpt><trkpt lat="37.0396869" lon="15.3060278"><ele>15.0</ele><time>2026-04-04T09:18:27.872Z</time></trkpt><trkpt lat="37.0396315" lon="15.3059368"><ele>15.0</ele><time>2026-04-04T09:18:29.871Z</time></trkpt><trkpt lat="37.0395463" lon="15.3058397"><ele>15.0</ele><time>2026-04-04T09:18:31.873Z</time></trkpt><trkpt lat="37.0394429" lon="15.3057626"><ele>15.0</ele><time>2026-04-04T09:18:33.872Z</time></trkpt><trkpt lat="37.0393341" lon="15.3056915"><ele>15.0</ele><time>2026-04-04T09:18:35.872Z</time></trkpt><trkpt lat="37.039267" lon="15.3056023"><ele>15.0</ele><time>2026-04-04T09:18:37.872Z</time></trkpt><trkpt lat="37.0392136" lon="15.3055534"><ele>15.0</ele><time>2026-04-04T09:18:41.872Z</time></trkpt><trkpt lat="37.0392767" lon="15.305633"><ele>15.0</ele><time>2026-04-04T09:18:44.873Z</time></trkpt><trkpt lat="37.0393677" lon="15.3057031"><ele>15.0</ele><time>2026-04-04T09:18:46.872Z</time></trkpt><trkpt lat="37.0394664" lon="15.3057769"><ele>15.0</ele><time>2026-04-04T09:18:48.872Z</time></trkpt><trkpt lat="37.0395322" lon="15.3058254"><ele>15.0</ele><time>2026-04-04T09:18:49.872Z</time></trkpt><trkpt lat="37.0395856" lon="15.3058886"><ele>15.0</ele><time>2026-04-04T09:18:50.872Z</time></trkpt><trkpt lat="37.0396811" lon="15.3059488"><ele>15.0</ele><time>2026-04-04T09:18:52.872Z</time></trkpt><trkpt lat="37.0397602" lon="15.3059496"><ele>15.0</ele><time>2026-04-04T09:18:54.873Z</time></trkpt><trkpt lat="37.0398615" lon="15.3059169"><ele>15.0</ele><time>2026-04-04T09:18:56.872Z</time></trkpt><trkpt lat="37.0399662" lon="15.3059224"><ele>14.166666666666666</ele><time>2026-04-04T09:18:58.871Z</time></trkpt><trkpt lat="37.0400393" lon="15.3059435"><ele>13.333333333333334</ele><time>2026-04-04T09:19:00.872Z</time></trkpt><trkpt lat="37.0401167" lon="15.3059603"><ele>12.5</ele><time>2026-04-04T09:19:03.872Z</time></trkpt><trkpt lat="37.040181" lon="15.3059369"><ele>11.666666666666668</ele><time>2026-04-04T09:19:06.872Z</time></trkpt><trkpt lat="37.0402393" lon="15.3059031"><ele>10.833333333333334</ele><time>2026-04-04T09:19:20.872Z</time></trkpt><trkpt lat="37.0402098" lon="15.3057839"><ele>10.0</ele><time>2026-04-04T09:19:24.872Z</time></trkpt><trkpt lat="37.0401486" lon="15.3056649"><ele>10.0</ele><time>2026-04-04T09:19:26.872Z</time></trkpt><trkpt lat="37.0401135" lon="15.3055941"><ele>10.0</ele><time>2026-04-04T09:19:27.873Z</time></trkpt><trkpt lat="37.0400741" lon="15.3055147"><ele>10.0</ele><time>2026-04-04T09:19:28.872Z</time></trkpt><trkpt lat="37.0400372" lon="15.305433"><ele>10.0</ele><time>2026-04-04T09:19:29.872Z</time></trkpt><trkpt lat="37.0399985" lon="15.3053539"><ele>10.0</ele><time>2026-04-04T09:19:30.871Z</time></trkpt><trkpt lat="37.0399584" lon="15.305276"><ele>10.0</ele><time>2026-04-04T09:19:31.872Z</time></trkpt><trkpt lat="37.039914" lon="15.3052055"><ele>10.0</ele><time>2026-04-04T09:19:32.872Z</time></trkpt><trkpt lat="37.0398632" lon="15.3051589"><ele>10.666666666666668</ele><time>2026-04-04T09:19:33.872Z</time></trkpt><trkpt lat="37.0398005" lon="15.3051226"><ele>11.333333333333334</ele><time>2026-04-04T09:19:34.872Z</time></trkpt><trkpt lat="37.0397065" lon="15.305049"><ele>12.0</ele><time>2026-04-04T09:19:36.872Z</time></trkpt><trkpt lat="37.0396701" lon="15.3049727"><ele>12.666666666666668</ele><time>2026-04-04T09:19:37.872Z</time></trkpt><trkpt lat="37.0396317" lon="15.3048848"><ele>13.333333333333334</ele><time>2026-04-04T09:19:38.872Z</time></trkpt><trkpt lat="37.0395974" lon="15.3047899"><ele>14.0</ele><time>2026-04-04T09:19:39.872Z</time></trkpt><trkpt lat="37.0395654" lon="15.3046999"><ele>14.000000000000002</ele><time>2026-04-04T09:19:40.872Z</time></trkpt><trkpt lat="37.0395354" lon="15.3046114"><ele>14.0</ele><time>2026-04-04T09:19:41.872Z</time></trkpt><trkpt lat="37.0394858" lon="15.3045023"><ele>14.0</ele><time>2026-04-04T09:19:43.872Z</time></trkpt><trkpt lat="37.0394313" lon="15.3044371"><ele>14.0</ele><time>2026-04-04T09:19:52.872Z</time></trkpt><trkpt lat="37.0393682" lon="15.3044213"><ele>14.000000000000002</ele><time>2026-04-04T09:19:54.872Z</time></trkpt><trkpt lat="37.0393072" lon="15.3043655"><ele>14.0</ele><time>2026-04-04T09:19:56.872Z</time></trkpt><trkpt lat="37.0392509" lon="15.3043183"><ele>14.0</ele><time>2026-04-04T09:19:57.872Z</time></trkpt><trkpt lat="37.0391694" lon="15.3042762"><ele>13.999999999999998</ele><time>2026-04-04T09:19:58.871Z</time></trkpt><trkpt lat="37.0390664" lon="15.3042418"><ele>13.999999999999998</ele><time>2026-04-04T09:19:59.872Z</time></trkpt><trkpt lat="37.0389608" lon="15.304239"><ele>14.0</ele><time>2026-04-04T09:20:00.871Z</time></trkpt><trkpt lat="37.038856" lon="15.3042244"><ele>14.0</ele><time>2026-04-04T09:20:01.871Z</time></trkpt><trkpt lat="37.0387537" lon="15.3042048"><ele>14.6</ele><time>2026-04-04T09:20:02.872Z</time></trkpt><trkpt lat="37.0386517" lon="15.3042065"><ele>15.2</ele><time>2026-04-04T09:20:03.872Z</time></trkpt><trkpt lat="37.0385514" lon="15.3042127"><ele>15.799999999999999</ele><time>2026-04-04T09:20:04.872Z</time></trkpt><trkpt lat="37.0384456" lon="15.3042221"><ele>16.4</ele><time>2026-04-04T09:20:05.872Z</time></trkpt><trkpt lat="37.0383269" lon="15.304225"><ele>17.0</ele><time>2026-04-04T09:20:06.872Z</time></trkpt><trkpt lat="37.0382046" lon="15.3042325"><ele>17.25</ele><time>2026-04-04T09:20:07.872Z</time></trkpt><trkpt lat="37.0380764" lon="15.3042473"><ele>17.5</ele><time>2026-04-04T09:20:08.872Z</time></trkpt><trkpt lat="37.0379503" lon="15.3042783"><ele>17.75</ele><time>2026-04-04T09:20:09.872Z</time></trkpt><trkpt lat="37.0378361" lon="15.304315"><ele>18.0</ele><time>2026-04-04T09:20:10.871Z</time></trkpt><trkpt lat="37.0377295" lon="15.3043439"><ele>18.0</ele><time>2026-04-04T09:20:11.872Z</time></trkpt><trkpt lat="37.0376204" lon="15.3043536"><ele>18.0</ele><time>2026-04-04T09:20:12.872Z</time></trkpt><trkpt lat="37.03751" lon="15.3043384"><ele>18.0</ele><time>2026-04-04T09:20:13.872Z</time></trkpt><trkpt lat="37.0374028" lon="15.3042839"><ele>18.0</ele><time>2026-04-04T09:20:14.872Z</time></trkpt><trkpt lat="37.0372989" lon="15.3042136"><ele>18.5</ele><time>2026-04-04T09:20:15.872Z</time></trkpt><trkpt lat="37.0371986" lon="15.3041378"><ele>19.0</ele><time>2026-04-04T09:20:16.872Z</time></trkpt><trkpt lat="37.0371075" lon="15.3040439"><ele>19.5</ele><time>2026-04-04T09:20:17.871Z</time></trkpt><trkpt lat="37.0370285" lon="15.3039347"><ele>20.0</ele><time>2026-04-04T09:20:18.872Z</time></trkpt><trkpt lat="37.0369531" lon="15.3038176"><ele>20.5</ele><time>2026-04-04T09:20:19.871Z</time></trkpt><trkpt lat="37.0368872" lon="15.3036863"><ele>21.0</ele><time>2026-04-04T09:20:20.872Z</time></trkpt><trkpt lat="37.036824" lon="15.3035499"><ele>21.5</ele><time>2026-04-04T09:20:21.871Z</time></trkpt><trkpt lat="37.036762" lon="15.3034096"><ele>22.0</ele><time>2026-04-04T09:20:22.872Z</time></trkpt><trkpt lat="37.0367013" lon="15.3032711"><ele>22.0</ele><time>2026-04-04T09:20:23.872Z</time></trkpt><trkpt lat="37.036643" lon="15.3031289"><ele>22.0</ele><time>2026-04-04T09:20:24.871Z</time></trkpt><trkpt lat="37.0365872" lon="15.3029815"><ele>22.0</ele><time>2026-04-04T09:20:25.872Z</time></trkpt><trkpt lat="37.0365186" lon="15.3028457"><ele>22.0</ele><time>2026-04-04T09:20:26.872Z</time></trkpt><trkpt lat="37.0364434" lon="15.3027152"><ele>22.5</ele><time>2026-04-04T09:20:27.872Z</time></trkpt><trkpt lat="37.0363531" lon="15.3025877"><ele>23.0</ele><time>2026-04-04T09:20:28.872Z</time></trkpt><trkpt lat="37.0362673" lon="15.3024656"><ele>23.5</ele><time>2026-04-04T09:20:29.872Z</time></trkpt><trkpt lat="37.0361666" lon="15.3023474"><ele>24.0</ele><time>2026-04-04T09:20:30.872Z</time></trkpt><trkpt lat="37.0360615" lon="15.3022347"><ele>24.0</ele><time>2026-04-04T09:20:31.871Z</time></trkpt><trkpt lat="37.0359543" lon="15.3021276"><ele>24.0</ele><time>2026-04-04T09:20:32.872Z</time></trkpt><trkpt lat="37.035834" lon="15.3020171"><ele>24.0</ele><time>2026-04-04T09:20:33.871Z</time></trkpt><trkpt lat="37.0357147" lon="15.3019186"><ele>24.0</ele><time>2026-04-04T09:20:34.872Z</time></trkpt><trkpt lat="37.0355976" lon="15.3018302"><ele>25.0</ele><time>2026-04-04T09:20:35.872Z</time></trkpt><trkpt lat="37.035481" lon="15.3017376"><ele>26.0</ele><time>2026-04-04T09:20:36.871Z</time></trkpt><trkpt lat="37.0353698" lon="15.3016518"><ele>27.0</ele><time>2026-04-04T09:20:37.872Z</time></trkpt><trkpt lat="37.0352691" lon="15.3015388"><ele>28.0</ele><time>2026-04-04T09:20:38.872Z</time></trkpt><trkpt lat="37.0351707" lon="15.301413"><ele>28.599999999999998</ele><time>2026-04-04T09:20:39.871Z</time></trkpt><trkpt lat="37.0350763" lon="15.3013005"><ele>29.199999999999996</ele><time>2026-04-04T09:20:40.872Z</time></trkpt><trkpt lat="37.0350085" lon="15.3011863"><ele>29.8</ele><time>2026-04-04T09:20:41.872Z</time></trkpt><trkpt lat="37.0349702" lon="15.3011004"><ele>30.4</ele><time>2026-04-04T09:20:42.872Z</time></trkpt><trkpt lat="37.0349681" lon="15.3009751"><ele>31.0</ele><time>2026-04-04T09:20:43.872Z</time></trkpt><trkpt lat="37.0349885" lon="15.3008242"><ele>31.0</ele><time>2026-04-04T09:20:44.872Z</time></trkpt><trkpt lat="37.0350144" lon="15.300657"><ele>31.0</ele><time>2026-04-04T09:20:45.871Z</time></trkpt><trkpt lat="37.0350437" lon="15.3004781"><ele>31.0</ele><time>2026-04-04T09:20:46.872Z</time></trkpt><trkpt lat="37.0350619" lon="15.3002838"><ele>31.0</ele><time>2026-04-04T09:20:47.872Z</time></trkpt><trkpt lat="37.0350703" lon="15.3000734"><ele>31.0</ele><time>2026-04-04T09:20:48.872Z</time></trkpt><trkpt lat="37.0350673" lon="15.299862"><ele>31.0</ele><time>2026-04-04T09:20:49.872Z</time></trkpt><trkpt lat="37.035058" lon="15.299656"><ele>31.0</ele><time>2026-04-04T09:20:50.872Z</time></trkpt><trkpt lat="37.0350402" lon="15.2994643"><ele>31.0</ele><time>2026-04-04T09:20:51.872Z</time></trkpt><trkpt lat="37.0350168" lon="15.2992861"><ele>31.0</ele><time>2026-04-04T09:20:52.872Z</time></trkpt><trkpt lat="37.0349873" lon="15.2991159"><ele>31.0</ele><time>2026-04-04T09:20:53.871Z</time></trkpt><trkpt lat="37.0349692" lon="15.2989556"><ele>31.0</ele><time>2026-04-04T09:20:54.872Z</time></trkpt><trkpt lat="37.0349733" lon="15.2987979"><ele>30.5</ele><time>2026-04-04T09:20:55.872Z</time></trkpt><trkpt lat="37.0349939" lon="15.2986343"><ele>30.0</ele><time>2026-04-04T09:20:56.87Z</time></trkpt><trkpt lat="37.0350276" lon="15.298466"><ele>29.5</ele><time>2026-04-04T09:20:57.871Z</time></trkpt><trkpt lat="37.0350617" lon="15.2982943"><ele>29.0</ele><time>2026-04-04T09:20:58.872Z</time></trkpt><trkpt lat="37.0351036" lon="15.2981119"><ele>28.25</ele><time>2026-04-04T09:20:59.871Z</time></trkpt><trkpt lat="37.0351445" lon="15.2979316"><ele>27.5</ele><time>2026-04-04T09:21:00.872Z</time></trkpt><trkpt lat="37.0351768" lon="15.2977422"><ele>26.75</ele><time>2026-04-04T09:21:01.872Z</time></trkpt><trkpt lat="37.0352155" lon="15.2975964"><ele>26.0</ele><time>2026-04-04T09:21:02.872Z</time></trkpt><trkpt lat="37.0352508" lon="15.2974417"><ele>26.0</ele><time>2026-04-04T09:21:03.872Z</time></trkpt><trkpt lat="37.035293" lon="15.29728"><ele>26.0</ele><time>2026-04-04T09:21:04.871Z</time></trkpt><trkpt lat="37.0353265" lon="15.2971114"><ele>26.0</ele><time>2026-04-04T09:21:05.872Z</time></trkpt><trkpt lat="37.0353613" lon="15.2969464"><ele>26.0</ele><time>2026-04-04T09:21:06.872Z</time></trkpt><trkpt lat="37.0354031" lon="15.2967783"><ele>25.75</ele><time>2026-04-04T09:21:07.872Z</time></trkpt><trkpt lat="37.0354384" lon="15.2966122"><ele>25.5</ele><time>2026-04-04T09:21:08.871Z</time></trkpt><trkpt lat="37.0354826" lon="15.2964259"><ele>25.25</ele><time>2026-04-04T09:21:09.871Z</time></trkpt><trkpt lat="37.0355196" lon="15.2962394"><ele>25.0</ele><time>2026-04-04T09:21:10.871Z</time></trkpt><trkpt lat="37.035566" lon="15.2960486"><ele>23.333333333333336</ele><time>2026-04-04T09:21:11.872Z</time></trkpt><trkpt lat="37.0356102" lon="15.2958576"><ele>21.666666666666668</ele><time>2026-04-04T09:21:12.871Z</time></trkpt><trkpt lat="37.0356554" lon="15.2956569"><ele>20.0</ele><time>2026-04-04T09:21:13.872Z</time></trkpt><trkpt lat="37.0357028" lon="15.2954558"><ele>18.666666666666668</ele><time>2026-04-04T09:21:14.871Z</time></trkpt><trkpt lat="37.0357484" lon="15.2952555"><ele>17.333333333333332</ele><time>2026-04-04T09:21:15.871Z</time></trkpt><trkpt lat="37.0357879" lon="15.295062"><ele>16.0</ele><time>2026-04-04T09:21:16.872Z</time></trkpt><trkpt lat="37.0358306" lon="15.2948944"><ele>15.5</ele><time>2026-04-04T09:21:17.872Z</time></trkpt><trkpt lat="37.0358737" lon="15.2947387"><ele>15.0</ele><time>2026-04-04T09:21:18.871Z</time></trkpt><trkpt lat="37.035929" lon="15.2945901"><ele>14.5</ele><time>2026-04-04T09:21:19.872Z</time></trkpt><trkpt lat="37.0359749" lon="15.2944517"><ele>14.0</ele><time>2026-04-04T09:21:20.871Z</time></trkpt><trkpt lat="37.0360097" lon="15.2943381"><ele>14.0</ele><time>2026-04-04T09:21:21.872Z</time></trkpt><trkpt lat="37.0360338" lon="15.2942424"><ele>13.999999999999998</ele><time>2026-04-04T09:21:22.871Z</time></trkpt><trkpt lat="37.0360341" lon="15.2940851"><ele>13.999999999999998</ele><time>2026-04-04T09:21:24.872Z</time></trkpt><trkpt lat="37.0360236" lon="15.2939912"><ele>14.0</ele><time>2026-04-04T09:21:25.872Z</time></trkpt><trkpt lat="37.0359586" lon="15.2938613"><ele>14.0</ele><time>2026-04-04T09:21:26.872Z</time></trkpt><trkpt lat="37.035884" lon="15.2937312"><ele>14.0</ele><time>2026-04-04T09:21:27.871Z</time></trkpt><trkpt lat="37.0357939" lon="15.2935904"><ele>14.0</ele><time>2026-04-04T09:21:28.873Z</time></trkpt><trkpt lat="37.0357011" lon="15.2934412"><ele>14.0</ele><time>2026-04-04T09:21:29.871Z</time></trkpt><trkpt lat="37.035613" lon="15.293302"><ele>14.0</ele><time>2026-04-04T09:21:30.87Z</time></trkpt><trkpt lat="37.0355304" lon="15.2931745"><ele>13.6</ele><time>2026-04-04T09:21:31.871Z</time></trkpt><trkpt lat="37.0354462" lon="15.2930617"><ele>13.2</ele><time>2026-04-04T09:21:32.872Z</time></trkpt><trkpt lat="37.0353781" lon="15.2929554"><ele>12.799999999999999</ele><time>2026-04-04T09:21:33.872Z</time></trkpt><trkpt lat="37.0353264" lon="15.2928548"><ele>12.399999999999999</ele><time>2026-04-04T09:21:34.872Z</time></trkpt><trkpt lat="37.0352778" lon="15.2927723"><ele>12.0</ele><time>2026-04-04T09:21:35.872Z</time></trkpt><trkpt lat="37.0352296" lon="15.2926991"><ele>12.0</ele><time>2026-04-04T09:21:36.872Z</time></trkpt><trkpt lat="37.0351803" lon="15.2926346"><ele>12.0</ele><time>2026-04-04T09:21:37.872Z</time></trkpt><trkpt lat="37.0351315" lon="15.2925797"><ele>12.0</ele><time>2026-04-04T09:21:38.872Z</time></trkpt><trkpt lat="37.035073" lon="15.2925344"><ele>12.0</ele><time>2026-04-04T09:21:39.871Z</time></trkpt><trkpt lat="37.0350104" lon="15.2925017"><ele>12.0</ele><time>2026-04-04T09:21:40.872Z</time></trkpt><trkpt lat="37.0349239" lon="15.2924833"><ele>12.0</ele><time>2026-04-04T09:21:41.872Z</time></trkpt><trkpt lat="37.0348304" lon="15.2924839"><ele>11.8</ele><time>2026-04-04T09:21:42.872Z</time></trkpt><trkpt lat="37.0347297" lon="15.292499"><ele>11.6</ele><time>2026-04-04T09:21:43.872Z</time></trkpt><trkpt lat="37.0346179" lon="15.2925258"><ele>11.4</ele><time>2026-04-04T09:21:44.872Z</time></trkpt><trkpt lat="37.0345062" lon="15.2925566"><ele>11.200000000000001</ele><time>2026-04-04T09:21:45.871Z</time></trkpt><trkpt lat="37.0343926" lon="15.2925926"><ele>11.0</ele><time>2026-04-04T09:21:46.871Z</time></trkpt><trkpt lat="37.0342753" lon="15.2926272"><ele>11.0</ele><time>2026-04-04T09:21:47.871Z</time></trkpt><trkpt lat="37.0341454" lon="15.2926501"><ele>11.0</ele><time>2026-04-04T09:21:48.871Z</time></trkpt><trkpt lat="37.0340081" lon="15.2926533"><ele>11.0</ele><time>2026-04-04T09:21:49.872Z</time></trkpt><trkpt lat="37.0338741" lon="15.2926281"><ele>11.0</ele><time>2026-04-04T09:21:50.872Z</time></trkpt><trkpt lat="37.0337412" lon="15.2925697"><ele>11.0</ele><time>2026-04-04T09:21:51.872Z</time></trkpt><trkpt lat="37.0336105" lon="15.2924848"><ele>11.0</ele><time>2026-04-04T09:21:52.872Z</time></trkpt><trkpt lat="37.0334955" lon="15.2923674"><ele>11.0</ele><time>2026-04-04T09:21:53.872Z</time></trkpt><trkpt lat="37.0333961" lon="15.2922174"><ele>11.333333333333332</ele><time>2026-04-04T09:21:54.872Z</time></trkpt><trkpt lat="37.0333089" lon="15.2920551"><ele>11.666666666666666</ele><time>2026-04-04T09:21:55.872Z</time></trkpt><trkpt lat="37.0332246" lon="15.2918855"><ele>12.0</ele><time>2026-04-04T09:21:56.872Z</time></trkpt><trkpt lat="37.033134" lon="15.2917038"><ele>12.0</ele><time>2026-04-04T09:21:57.872Z</time></trkpt><trkpt lat="37.0330476" lon="15.2915205"><ele>12.0</ele><time>2026-04-04T09:21:58.872Z</time></trkpt><trkpt lat="37.0329615" lon="15.2913485"><ele>12.0</ele><time>2026-04-04T09:21:59.872Z</time></trkpt><trkpt lat="37.0328795" lon="15.2911723"><ele>10.666666666666666</ele><time>2026-04-04T09:22:00.872Z</time></trkpt><trkpt lat="37.0327998" lon="15.2909994"><ele>9.333333333333332</ele><time>2026-04-04T09:22:01.872Z</time></trkpt><trkpt lat="37.0327237" lon="15.2908303"><ele>8.0</ele><time>2026-04-04T09:22:02.872Z</time></trkpt><trkpt lat="37.0326511" lon="15.2906759"><ele>7.75</ele><time>2026-04-04T09:22:03.872Z</time></trkpt><trkpt lat="37.032586" lon="15.2905363"><ele>7.5</ele><time>2026-04-04T09:22:04.871Z</time></trkpt><trkpt lat="37.0325227" lon="15.2904036"><ele>7.25</ele><time>2026-04-04T09:22:05.872Z</time></trkpt><trkpt lat="37.0324664" lon="15.2902821"><ele>7.0</ele><time>2026-04-04T09:22:06.872Z</time></trkpt><trkpt lat="37.0324188" lon="15.2901532"><ele>7.0</ele><time>2026-04-04T09:22:07.872Z</time></trkpt><trkpt lat="37.0323869" lon="15.29002"><ele>7.0</ele><time>2026-04-04T09:22:08.871Z</time></trkpt><trkpt lat="37.0323687" lon="15.2898767"><ele>7.0</ele><time>2026-04-04T09:22:09.872Z</time></trkpt><trkpt lat="37.0323675" lon="15.2897225"><ele>7.0</ele><time>2026-04-04T09:22:10.872Z</time></trkpt><trkpt lat="37.0323725" lon="15.289556"><ele>6.25</ele><time>2026-04-04T09:22:11.871Z</time></trkpt><trkpt lat="37.0323827" lon="15.2893827"><ele>5.5</ele><time>2026-04-04T09:22:12.872Z</time></trkpt><trkpt lat="37.0323869" lon="15.2892076"><ele>4.75</ele><time>2026-04-04T09:22:13.872Z</time></trkpt><trkpt lat="37.0323884" lon="15.2890255"><ele>4.0</ele><time>2026-04-04T09:22:14.872Z</time></trkpt><trkpt lat="37.0323883" lon="15.2888533"><ele>4.0</ele><time>2026-04-04T09:22:15.872Z</time></trkpt><trkpt lat="37.032389" lon="15.2886871"><ele>4.0</ele><time>2026-04-04T09:22:16.872Z</time></trkpt><trkpt lat="37.0323986" lon="15.2885065"><ele>4.0</ele><time>2026-04-04T09:22:17.872Z</time></trkpt><trkpt lat="37.0324083" lon="15.2883279"><ele>4.0</ele><time>2026-04-04T09:22:18.871Z</time></trkpt><trkpt lat="37.0324147" lon="15.2881534"><ele>4.0</ele><time>2026-04-04T09:22:19.872Z</time></trkpt><trkpt lat="37.0324095" lon="15.2879751"><ele>4.0</ele><time>2026-04-04T09:22:20.872Z</time></trkpt><trkpt lat="37.0324029" lon="15.2877935"><ele>4.0</ele><time>2026-04-04T09:22:21.872Z</time></trkpt><trkpt lat="37.0324003" lon="15.2876184"><ele>4.0</ele><time>2026-04-04T09:22:22.872Z</time></trkpt><trkpt lat="37.0323984" lon="15.2874427"><ele>4.0</ele><time>2026-04-04T09:22:23.872Z</time></trkpt><trkpt lat="37.0323998" lon="15.2872679"><ele>4.0</ele><time>2026-04-04T09:22:24.871Z</time></trkpt><trkpt lat="37.0323998" lon="15.2870935"><ele>4.0</ele><time>2026-04-04T09:22:25.872Z</time></trkpt><trkpt lat="37.0324004" lon="15.2869172"><ele>4.0</ele><time>2026-04-04T09:22:26.872Z</time></trkpt><trkpt lat="37.0324057" lon="15.2867407"><ele>4.25</ele><time>2026-04-04T09:22:27.87Z</time></trkpt><trkpt lat="37.0324124" lon="15.286568"><ele>4.5</ele><time>2026-04-04T09:22:28.872Z</time></trkpt><trkpt lat="37.0324196" lon="15.2863966"><ele>4.75</ele><time>2026-04-04T09:22:29.872Z</time></trkpt><trkpt lat="37.0324227" lon="15.2862226"><ele>5.0</ele><time>2026-04-04T09:22:30.871Z</time></trkpt><trkpt lat="37.0324253" lon="15.2860477"><ele>4.75</ele><time>2026-04-04T09:22:31.872Z</time></trkpt><trkpt lat="37.0324291" lon="15.2858771"><ele>4.5</ele><time>2026-04-04T09:22:32.872Z</time></trkpt><trkpt lat="37.0324363" lon="15.2857027"><ele>4.25</ele><time>2026-04-04T09:22:33.871Z</time></trkpt><trkpt lat="37.0324438" lon="15.285537"><ele>4.0</ele><time>2026-04-04T09:22:34.871Z</time></trkpt><trkpt lat="37.0324439" lon="15.2853948"><ele>4.0</ele><time>2026-04-04T09:22:35.872Z</time></trkpt><trkpt lat="37.0324569" lon="15.2852521"><ele>4.0</ele><time>2026-04-04T09:22:36.872Z</time></trkpt><trkpt lat="37.0324632" lon="15.285092"><ele>4.0</ele><time>2026-04-04T09:22:37.871Z</time></trkpt><trkpt lat="37.032466" lon="15.2849147"><ele>4.0</ele><time>2026-04-04T09:22:38.871Z</time></trkpt><trkpt lat="37.0324734" lon="15.2847419"><ele>4.333333333333333</ele><time>2026-04-04T09:22:39.871Z</time></trkpt><trkpt lat="37.0324899" lon="15.2845423"><ele>4.666666666666667</ele><time>2026-04-04T09:22:40.872Z</time></trkpt><trkpt lat="37.0325138" lon="15.2843171"><ele>5.0</ele><time>2026-04-04T09:22:41.871Z</time></trkpt><trkpt lat="37.0325424" lon="15.28407"><ele>5.666666666666667</ele><time>2026-04-04T09:22:42.872Z</time></trkpt><trkpt lat="37.032574" lon="15.2838285"><ele>6.333333333333334</ele><time>2026-04-04T09:22:43.872Z</time></trkpt><trkpt lat="37.0326054" lon="15.2835743"><ele>7.0</ele><time>2026-04-04T09:22:44.871Z</time></trkpt><trkpt lat="37.0326404" lon="15.2833228"><ele>8.666666666666668</ele><time>2026-04-04T09:22:45.872Z</time></trkpt><trkpt lat="37.0326752" lon="15.2830698"><ele>10.333333333333334</ele><time>2026-04-04T09:22:46.872Z</time></trkpt><trkpt lat="37.0327117" lon="15.2828134"><ele>12.0</ele><time>2026-04-04T09:22:47.872Z</time></trkpt><trkpt lat="37.0327457" lon="15.2825615"><ele>12.0</ele><time>2026-04-04T09:22:48.872Z</time></trkpt><trkpt lat="37.0327832" lon="15.282314"><ele>12.0</ele><time>2026-04-04T09:22:49.871Z</time></trkpt><trkpt lat="37.0328186" lon="15.2820742"><ele>12.0</ele><time>2026-04-04T09:22:50.871Z</time></trkpt><trkpt lat="37.0328525" lon="15.2818509"><ele>12.666666666666668</ele><time>2026-04-04T09:22:51.871Z</time></trkpt><trkpt lat="37.0328772" lon="15.2816543"><ele>13.333333333333334</ele><time>2026-04-04T09:22:52.872Z</time></trkpt><trkpt lat="37.0329052" lon="15.2814704"><ele>14.0</ele><time>2026-04-04T09:22:53.872Z</time></trkpt><trkpt lat="37.0329543" lon="15.2813012"><ele>14.0</ele><time>2026-04-04T09:22:54.872Z</time></trkpt><trkpt lat="37.0330464" lon="15.2811449"><ele>14.0</ele><time>2026-04-04T09:22:55.872Z</time></trkpt><trkpt lat="37.0331563" lon="15.2810034"><ele>14.0</ele><time>2026-04-04T09:22:56.871Z</time></trkpt><trkpt lat="37.033268" lon="15.2808727"><ele>13.75</ele><time>2026-04-04T09:22:57.871Z</time></trkpt><trkpt lat="37.0333742" lon="15.280744"><ele>13.5</ele><time>2026-04-04T09:22:58.871Z</time></trkpt><trkpt lat="37.0334754" lon="15.2806251"><ele>13.25</ele><time>2026-04-04T09:22:59.872Z</time></trkpt><trkpt lat="37.0335815" lon="15.2805084"><ele>13.0</ele><time>2026-04-04T09:23:00.871Z</time></trkpt><trkpt lat="37.0336882" lon="15.2803901"><ele>13.0</ele><time>2026-04-04T09:23:01.871Z</time></trkpt><trkpt lat="37.0338011" lon="15.28027"><ele>13.0</ele><time>2026-04-04T09:23:02.872Z</time></trkpt><trkpt lat="37.0339125" lon="15.2801351"><ele>13.0</ele><time>2026-04-04T09:23:03.872Z</time></trkpt><trkpt lat="37.0340283" lon="15.2800056"><ele>12.666666666666666</ele><time>2026-04-04T09:23:04.871Z</time></trkpt><trkpt lat="37.0341464" lon="15.2798771"><ele>12.333333333333332</ele><time>2026-04-04T09:23:05.872Z</time></trkpt><trkpt lat="37.0342575" lon="15.2797434"><ele>12.0</ele><time>2026-04-04T09:23:06.872Z</time></trkpt><trkpt lat="37.0343758" lon="15.2796153"><ele>12.0</ele><time>2026-04-04T09:23:07.872Z</time></trkpt><trkpt lat="37.0344922" lon="15.2794831"><ele>12.0</ele><time>2026-04-04T09:23:08.872Z</time></trkpt><trkpt lat="37.0346143" lon="15.2793532"><ele>12.0</ele><time>2026-04-04T09:23:09.872Z</time></trkpt><trkpt lat="37.0347395" lon="15.2792214"><ele>12.0</ele><time>2026-04-04T09:23:10.871Z</time></trkpt><trkpt lat="37.0348727" lon="15.2790912"><ele>12.0</ele><time>2026-04-04T09:23:11.872Z</time></trkpt><trkpt lat="37.0350006" lon="15.2789514"><ele>12.0</ele><time>2026-04-04T09:23:12.871Z</time></trkpt><trkpt lat="37.0351288" lon="15.2788114"><ele>11.666666666666666</ele><time>2026-04-04T09:23:13.871Z</time></trkpt><trkpt lat="37.0352556" lon="15.2786689"><ele>11.333333333333332</ele><time>2026-04-04T09:23:14.872Z</time></trkpt><trkpt lat="37.0353822" lon="15.2785284"><ele>11.0</ele><time>2026-04-04T09:23:15.872Z</time></trkpt><trkpt lat="37.0355082" lon="15.2783866"><ele>11.0</ele><time>2026-04-04T09:23:16.871Z</time></trkpt><trkpt lat="37.0356341" lon="15.2782512"><ele>11.0</ele><time>2026-04-04T09:23:17.872Z</time></trkpt><trkpt lat="37.0357596" lon="15.2781132"><ele>11.0</ele><time>2026-04-04T09:23:18.871Z</time></trkpt><trkpt lat="37.0358859" lon="15.2779851"><ele>10.333333333333332</ele><time>2026-04-04T09:23:19.872Z</time></trkpt><trkpt lat="37.0360118" lon="15.2778567"><ele>9.666666666666666</ele><time>2026-04-04T09:23:20.872Z</time></trkpt><trkpt lat="37.0361323" lon="15.2777248"><ele>9.0</ele><time>2026-04-04T09:23:21.871Z</time></trkpt><trkpt lat="37.0362515" lon="15.2775938"><ele>9.0</ele><time>2026-04-04T09:23:22.871Z</time></trkpt><trkpt lat="37.0363741" lon="15.2774575"><ele>9.0</ele><time>2026-04-04T09:23:23.871Z</time></trkpt><trkpt lat="37.0365008" lon="15.2773308"><ele>9.0</ele><time>2026-04-04T09:23:24.872Z</time></trkpt><trkpt lat="37.0366385" lon="15.2772177"><ele>8.0</ele><time>2026-04-04T09:23:25.871Z</time></trkpt><trkpt lat="37.0367762" lon="15.2771041"><ele>7.0</ele><time>2026-04-04T09:23:26.871Z</time></trkpt><trkpt lat="37.0369177" lon="15.2769905"><ele>6.0</ele><time>2026-04-04T09:23:27.872Z</time></trkpt><trkpt lat="37.0370622" lon="15.276887"><ele>6.0</ele><time>2026-04-04T09:23:28.871Z</time></trkpt><trkpt lat="37.0372053" lon="15.2767882"><ele>6.0</ele><time>2026-04-04T09:23:29.872Z</time></trkpt><trkpt lat="37.0373499" lon="15.276689"><ele>6.0</ele><time>2026-04-04T09:23:30.871Z</time></trkpt><trkpt lat="37.0374939" lon="15.2765928"><ele>6.0</ele><time>2026-04-04T09:23:31.871Z</time></trkpt><trkpt lat="37.0376341" lon="15.27649"><ele>6.0</ele><time>2026-04-04T09:23:32.873Z</time></trkpt><trkpt lat="37.0377757" lon="15.2763875"><ele>6.0</ele><time>2026-04-04T09:23:33.871Z</time></trkpt><trkpt lat="37.0379165" lon="15.2762898"><ele>6.0</ele><time>2026-04-04T09:23:34.871Z</time></trkpt><trkpt lat="37.0380597" lon="15.2761919"><ele>6.0</ele><time>2026-04-04T09:23:35.871Z</time></trkpt><trkpt lat="37.0382028" lon="15.2760933"><ele>6.0</ele><time>2026-04-04T09:23:36.871Z</time></trkpt><trkpt lat="37.038344" lon="15.2759912"><ele>6.0</ele><time>2026-04-04T09:23:37.872Z</time></trkpt><trkpt lat="37.0384911" lon="15.2758876"><ele>6.0</ele><time>2026-04-04T09:23:38.871Z</time></trkpt><trkpt lat="37.0386346" lon="15.2757861"><ele>6.0</ele><time>2026-04-04T09:23:39.871Z</time></trkpt><trkpt lat="37.0387788" lon="15.2756867"><ele>7.0</ele><time>2026-04-04T09:23:40.872Z</time></trkpt><trkpt lat="37.0389283" lon="15.2755965"><ele>8.0</ele><time>2026-04-04T09:23:41.872Z</time></trkpt><trkpt lat="37.0390839" lon="15.2755213"><ele>9.0</ele><time>2026-04-04T09:23:42.872Z</time></trkpt><trkpt lat="37.039243" lon="15.2754623"><ele>9.0</ele><time>2026-04-04T09:23:43.872Z</time></trkpt><trkpt lat="37.0394024" lon="15.2754334"><ele>9.0</ele><time>2026-04-04T09:23:44.872Z</time></trkpt><trkpt lat="37.0395693" lon="15.2754229"><ele>9.0</ele><time>2026-04-04T09:23:45.871Z</time></trkpt><trkpt lat="37.039739" lon="15.2754376"><ele>9.0</ele><time>2026-04-04T09:23:46.872Z</time></trkpt><trkpt lat="37.0399027" lon="15.2754727"><ele>9.0</ele><time>2026-04-04T09:23:47.872Z</time></trkpt><trkpt lat="37.0400743" lon="15.2755136"><ele>9.0</ele><time>2026-04-04T09:23:48.87Z</time></trkpt><trkpt lat="37.0402345" lon="15.2755468"><ele>9.25</ele><time>2026-04-04T09:23:49.871Z</time></trkpt><trkpt lat="37.0403742" lon="15.2755621"><ele>9.5</ele><time>2026-04-04T09:23:50.87Z</time></trkpt><trkpt lat="37.0405055" lon="15.2755589"><ele>9.75</ele><time>2026-04-04T09:23:51.872Z</time></trkpt><trkpt lat="37.0406327" lon="15.2755111"><ele>10.0</ele><time>2026-04-04T09:23:52.872Z</time></trkpt><trkpt lat="37.0407605" lon="15.2754518"><ele>9.666666666666668</ele><time>2026-04-04T09:23:53.872Z</time></trkpt><trkpt lat="37.0409" lon="15.2753648"><ele>9.333333333333334</ele><time>2026-04-04T09:23:54.872Z</time></trkpt><trkpt lat="37.041044" lon="15.2752751"><ele>9.0</ele><time>2026-04-04T09:23:55.872Z</time></trkpt><trkpt lat="37.0411784" lon="15.2751783"><ele>9.0</ele><time>2026-04-04T09:23:56.871Z</time></trkpt><trkpt lat="37.0413008" lon="15.2750416"><ele>9.0</ele><time>2026-04-04T09:23:57.871Z</time></trkpt><trkpt lat="37.0414054" lon="15.2748767"><ele>9.0</ele><time>2026-04-04T09:23:58.872Z</time></trkpt><trkpt lat="37.0415014" lon="15.2746726"><ele>9.0</ele><time>2026-04-04T09:23:59.872Z</time></trkpt><trkpt lat="37.0416045" lon="15.2744635"><ele>9.0</ele><time>2026-04-04T09:24:00.872Z</time></trkpt><trkpt lat="37.0417069" lon="15.2742709"><ele>9.0</ele><time>2026-04-04T09:24:01.871Z</time></trkpt><trkpt lat="37.0418072" lon="15.2740829"><ele>9.0</ele><time>2026-04-04T09:24:02.871Z</time></trkpt><trkpt lat="37.0418954" lon="15.2738996"><ele>9.0</ele><time>2026-04-04T09:24:03.871Z</time></trkpt><trkpt lat="37.0419793" lon="15.2737272"><ele>9.0</ele><time>2026-04-04T09:24:04.87Z</time></trkpt><trkpt lat="37.0420651" lon="15.2735579"><ele>9.0</ele><time>2026-04-04T09:24:05.871Z</time></trkpt><trkpt lat="37.0421491" lon="15.2733846"><ele>9.0</ele><time>2026-04-04T09:24:06.87Z</time></trkpt><trkpt lat="37.0422338" lon="15.2732063"><ele>9.0</ele><time>2026-04-04T09:24:07.871Z</time></trkpt><trkpt lat="37.0423192" lon="15.2730253"><ele>9.666666666666666</ele><time>2026-04-04T09:24:08.872Z</time></trkpt><trkpt lat="37.042408" lon="15.2728428"><ele>10.333333333333332</ele><time>2026-04-04T09:24:09.871Z</time></trkpt><trkpt lat="37.0424949" lon="15.2726587"><ele>11.0</ele><time>2026-04-04T09:24:10.871Z</time></trkpt><trkpt lat="37.042577" lon="15.2724779"><ele>11.0</ele><time>2026-04-04T09:24:11.871Z</time></trkpt><trkpt lat="37.0426597" lon="15.2723032"><ele>11.0</ele><time>2026-04-04T09:24:12.872Z</time></trkpt><trkpt lat="37.0427443" lon="15.2721262"><ele>11.0</ele><time>2026-04-04T09:24:13.871Z</time></trkpt><trkpt lat="37.042833" lon="15.2719594"><ele>10.75</ele><time>2026-04-04T09:24:14.87Z</time></trkpt><trkpt lat="37.0429107" lon="15.2717969"><ele>10.5</ele><time>2026-04-04T09:24:15.87Z</time></trkpt><trkpt lat="37.0429799" lon="15.2716544"><ele>10.25</ele><time>2026-04-04T09:24:16.872Z</time></trkpt><trkpt lat="37.0430367" lon="15.2715337"><ele>10.0</ele><time>2026-04-04T09:24:17.871Z</time></trkpt><trkpt lat="37.0430792" lon="15.2714514"><ele>10.0</ele><time>2026-04-04T09:24:18.871Z</time></trkpt><trkpt lat="37.043128" lon="15.2713797"><ele>10.0</ele><time>2026-04-04T09:24:19.871Z</time></trkpt><trkpt lat="37.0431883" lon="15.2713352"><ele>10.0</ele><time>2026-04-04T09:24:20.872Z</time></trkpt><trkpt lat="37.0432515" lon="15.2712863"><ele>10.0</ele><time>2026-04-04T09:24:21.871Z</time></trkpt><trkpt lat="37.0432926" lon="15.2712099"><ele>10.0</ele><time>2026-04-04T09:24:22.872Z</time></trkpt><trkpt lat="37.0433093" lon="15.2711012"><ele>10.0</ele><time>2026-04-04T09:24:23.871Z</time></trkpt><trkpt lat="37.0433269" lon="15.2709888"><ele>10.0</ele><time>2026-04-04T09:24:24.871Z</time></trkpt><trkpt lat="37.0433724" lon="15.2708556"><ele>10.0</ele><time>2026-04-04T09:24:25.871Z</time></trkpt><trkpt lat="37.0434319" lon="15.270717"><ele>10.0</ele><time>2026-04-04T09:24:26.871Z</time></trkpt><trkpt lat="37.0435021" lon="15.2705646"><ele>10.0</ele><time>2026-04-04T09:24:27.872Z</time></trkpt><trkpt lat="37.0435795" lon="15.2704186"><ele>10.666666666666668</ele><time>2026-04-04T09:24:28.872Z</time></trkpt><trkpt lat="37.0436641" lon="15.2702569"><ele>11.333333333333334</ele><time>2026-04-04T09:24:29.87Z</time></trkpt><trkpt lat="37.0437508" lon="15.2700846"><ele>12.0</ele><time>2026-04-04T09:24:30.871Z</time></trkpt><trkpt lat="37.0438378" lon="15.2699096"><ele>12.333333333333332</ele><time>2026-04-04T09:24:31.87Z</time></trkpt><trkpt lat="37.0439222" lon="15.2697149"><ele>12.666666666666666</ele><time>2026-04-04T09:24:32.871Z</time></trkpt><trkpt lat="37.0439906" lon="15.2695143"><ele>13.0</ele><time>2026-04-04T09:24:33.871Z</time></trkpt><trkpt lat="37.0440414" lon="15.2692943"><ele>13.0</ele><time>2026-04-04T09:24:34.871Z</time></trkpt><trkpt lat="37.0440847" lon="15.2690918"><ele>13.0</ele><time>2026-04-04T09:24:35.87Z</time></trkpt><trkpt lat="37.0441223" lon="15.2688981"><ele>13.0</ele><time>2026-04-04T09:24:36.871Z</time></trkpt><trkpt lat="37.0441581" lon="15.2687251"><ele>12.600000000000001</ele><time>2026-04-04T09:24:37.871Z</time></trkpt><trkpt lat="37.0441912" lon="15.2685706"><ele>12.200000000000001</ele><time>2026-04-04T09:24:38.872Z</time></trkpt><trkpt lat="37.0442184" lon="15.2684296"><ele>11.8</ele><time>2026-04-04T09:24:39.87Z</time></trkpt><trkpt lat="37.0442433" lon="15.2683227"><ele>11.4</ele><time>2026-04-04T09:24:40.871Z</time></trkpt><trkpt lat="37.0442645" lon="15.2682326"><ele>11.0</ele><time>2026-04-04T09:24:41.872Z</time></trkpt><trkpt lat="37.0443112" lon="15.2681336"><ele>11.0</ele><time>2026-04-04T09:24:43.871Z</time></trkpt><trkpt lat="37.0443685" lon="15.2680771"><ele>13.0</ele><time>2026-04-04T09:24:45.872Z</time></trkpt><trkpt lat="37.0444506" lon="15.2680525"><ele>13.0</ele><time>2026-04-04T09:24:47.872Z</time></trkpt><trkpt lat="37.0445095" lon="15.2680224"><ele>13.0</ele><time>2026-04-04T09:24:49.871Z</time></trkpt><trkpt lat="37.0445635" lon="15.267947"><ele>13.0</ele><time>2026-04-04T09:24:52.872Z</time></trkpt><trkpt lat="37.0446375" lon="15.2679413"><ele>13.0</ele><time>2026-04-04T09:24:56.871Z</time></trkpt></trkseg></trk></gpx>